<?xml version='1.0' encoding='UTF-8'?><gpx version="1.1" creator="JPX - https://github.com/jenetics/jpx" xmlns="http://www.topografix.com/GPX/1/1"><trk><trkseg><trkpt lat="43.15455117322803" lon="11.085308736333452"><ele>533.0</ele><time>2026-04-04T12:50:51Z</time></trkpt><trkpt lat="43.154549343068986" lon="11.085414345562791"><ele>533.0</ele><time>2026-04-04T12:51:42Z</time></trkpt><trkpt lat="43.15455088833451" lon="11.08556352453062"><ele>533.0</ele><time>2026-04-04T12:51:47Z</time></trkpt><trkpt lat="43.15452884086722" lon="11.085721647807832"><ele>533.0</ele><time>2026-04-04T12:51:49Z</time></trkpt><trkpt lat="43.15449868563154" lon="11.085842755179687"><ele>533.0</ele><time>2026-04-04T12:51:51Z</time></trkpt><trkpt lat="43.154478864929736" lon="11.085943125244002"><ele>533.6</ele><time>2026-04-04T12:51:53Z</time></trkpt><trkpt lat="43.1545286837509" lon="11.0860369050515"><ele>534.1999999999999</ele><time>2026-04-04T12:51:55Z</time></trkpt><trkpt lat="43.15460900078963" lon="11.086119096517626"><ele>534.8</ele><time>2026-04-04T12:51:57Z</time></trkpt><trkpt lat="43.154702982439936" lon="11.086241625087434"><ele>535.4</ele><time>2026-04-04T12:51:59Z</time></trkpt><trkpt lat="43.154764296017696" lon="11.086354526279743"><ele>536.0</ele><time>2026-04-04T12:52:01Z</time></trkpt><trkpt lat="43.15482014399777" lon="11.086443473344595"><ele>537.5</ele><time>2026-04-04T12:52:03Z</time></trkpt><trkpt lat="43.15488394699902" lon="11.086548800006579"><ele>539.0</ele><time>2026-04-04T12:52:05Z</time></trkpt><trkpt lat="43.15492567916682" lon="11.086614940592947"><ele>540.5</ele><time>2026-04-04T12:52:06Z</time></trkpt><trkpt lat="43.154971275075155" lon="11.086682429836797"><ele>542.0</ele><time>2026-04-04T12:52:08Z</time></trkpt><trkpt lat="43.155009411026654" lon="11.086751608621384"><ele>543.5</ele><time>2026-04-04T12:52:10Z</time></trkpt><trkpt lat="43.15507384702289" lon="11.086863165034632"><ele>545.0</ele><time>2026-04-04T12:52:12Z</time></trkpt><trkpt lat="43.155125154511616" lon="11.086975695270073"><ele>546.3333333333333</ele><time>2026-04-04T12:52:14Z</time></trkpt><trkpt lat="43.15517531284099" lon="11.087130132200924"><ele>547.6666666666666</ele><time>2026-04-04T12:52:16Z</time></trkpt><trkpt lat="43.15520937386215" lon="11.087243059738359"><ele>549.0</ele><time>2026-04-04T12:52:18Z</time></trkpt><trkpt lat="43.15522104633081" lon="11.08732898055955"><ele>550.3333333333334</ele><time>2026-04-04T12:52:22Z</time></trkpt><trkpt lat="43.15527983616292" lon="11.087386647455107"><ele>551.6666666666667</ele><time>2026-04-04T12:52:29Z</time></trkpt><trkpt lat="43.15530977930956" lon="11.087500313542765"><ele>553.0</ele><time>2026-04-04T12:52:32Z</time></trkpt><trkpt lat="43.15530311325575" lon="11.08758775011372"><ele>553.0</ele><time>2026-04-04T12:52:34Z</time></trkpt><trkpt lat="43.15528886800683" lon="11.087475879140078"><ele>553.0</ele><time>2026-04-04T12:53:04Z</time></trkpt><trkpt lat="43.1552798952761" lon="11.087345507754385"><ele>553.0</ele><time>2026-04-04T12:53:06Z</time></trkpt><trkpt lat="43.15521992541214" lon="11.08729089612787"><ele>553.0</ele><time>2026-04-04T12:53:09Z</time></trkpt><trkpt lat="43.15517659309198" lon="11.087207216007316"><ele>553.0</ele><time>2026-04-04T12:53:22Z</time></trkpt><trkpt lat="43.15515941963536" lon="11.087119233172446"><ele>553.0</ele><time>2026-04-04T12:53:23Z</time></trkpt><trkpt lat="43.15511804660897" lon="11.08699018709727"><ele>553.0</ele><time>2026-04-04T12:53:25Z</time></trkpt><trkpt lat="43.15506777513395" lon="11.086885705195916"><ele>553.0</ele><time>2026-04-04T12:53:27Z</time></trkpt><trkpt lat="43.15502430517364" lon="11.08680780027735"><ele>553.0</ele><time>2026-04-04T12:53:28Z</time></trkpt><trkpt lat="43.154979606445856" lon="11.086723702077029"><ele>553.0</ele><time>2026-04-04T12:53:29Z</time></trkpt><trkpt lat="43.1549410666678" lon="11.086654118956757"><ele>553.0</ele><time>2026-04-04T12:53:30Z</time></trkpt><trkpt lat="43.15486415784071" lon="11.086564440193875"><ele>553.0</ele><time>2026-04-04T12:53:32Z</time></trkpt><trkpt lat="43.15483571783713" lon="11.08648156712638"><ele>553.0</ele><time>2026-04-04T12:53:33.999Z</time></trkpt><trkpt lat="43.154901990368856" lon="11.086523619648197"><ele>553.0</ele><time>2026-04-04T12:53:36.999Z</time></trkpt><trkpt lat="43.15496471316658" lon="11.086551247411"><ele>553.0</ele><time>2026-04-04T12:53:37.999Z</time></trkpt><trkpt lat="43.15506417990847" lon="11.086615570334963"><ele>553.0</ele><time>2026-04-04T12:53:39.999Z</time></trkpt><trkpt lat="43.15514148419549" lon="11.086719855003446"><ele>553.0</ele><time>2026-04-04T12:53:41.999Z</time></trkpt><trkpt lat="43.15519948073844" lon="11.086799576921065"><ele>553.0</ele><time>2026-04-04T12:53:42.999Z</time></trkpt><trkpt lat="43.15525916191171" lon="11.08691276488177"><ele>553.0</ele><time>2026-04-04T12:53:43.999Z</time></trkpt><trkpt lat="43.15530960624903" lon="11.087012366071379"><ele>553.0</ele><time>2026-04-04T12:53:44.999Z</time></trkpt><trkpt lat="43.15535809794518" lon="11.08711695047678"><ele>553.0</ele><time>2026-04-04T12:53:45.999Z</time></trkpt><trkpt lat="43.15538133610574" lon="11.087234281513254"><ele>553.0</ele><time>2026-04-04T12:53:46.999Z</time></trkpt><trkpt lat="43.15541391275285" lon="11.0873416983213"><ele>553.0</ele><time>2026-04-04T12:53:47.999Z</time></trkpt><trkpt lat="43.15542480994441" lon="11.087455745847292"><ele>553.0</ele><time>2026-04-04T12:53:48.999Z</time></trkpt><trkpt lat="43.155432758056804" lon="11.087597747338748"><ele>553.6666666666667</ele><time>2026-04-04T12:53:49.999Z</time></trkpt><trkpt lat="43.15543986283716" lon="11.087769284640009"><ele>554.3333333333334</ele><time>2026-04-04T12:53:50.999Z</time></trkpt><trkpt lat="43.155444281494376" lon="11.087900639252279"><ele>555.0</ele><time>2026-04-04T12:53:51.999Z</time></trkpt><trkpt lat="43.155449789448525" lon="11.0880106849563"><ele>555.6666666666666</ele><time>2026-04-04T12:53:52.999Z</time></trkpt><trkpt lat="43.15545565231277" lon="11.088109238134308"><ele>556.3333333333333</ele><time>2026-04-04T12:53:53.999Z</time></trkpt><trkpt lat="43.15547725248999" lon="11.088190968995768"><ele>557.0</ele><time>2026-04-04T12:53:54.999Z</time></trkpt><trkpt lat="43.15548627161783" lon="11.088350671458656"><ele>554.8333333333333</ele><time>2026-04-04T12:53:56.999Z</time></trkpt><trkpt lat="43.15548970448719" lon="11.08845570636757"><ele>552.6666666666666</ele><time>2026-04-04T12:53:57.999Z</time></trkpt><trkpt lat="43.15548421678476" lon="11.088561594955411"><ele>550.5</ele><time>2026-04-04T12:53:58.999Z</time></trkpt><trkpt lat="43.15549771586378" lon="11.088668447048654"><ele>548.3333333333334</ele><time>2026-04-04T12:53:59.999Z</time></trkpt><trkpt lat="43.15552616962382" lon="11.08878059328379"><ele>546.1666666666667</ele><time>2026-04-04T12:54:01Z</time></trkpt><trkpt lat="43.15556598469931" lon="11.088892119720917"><ele>544.0</ele><time>2026-04-04T12:54:02Z</time></trkpt><trkpt lat="43.15562184267023" lon="11.089008861411363"><ele>539.4</ele><time>2026-04-04T12:54:03Z</time></trkpt><trkpt lat="43.15566545337921" lon="11.089159756772808"><ele>534.8</ele><time>2026-04-04T12:54:04Z</time></trkpt><trkpt lat="43.155717766211616" lon="11.089289129858756"><ele>530.2</ele><time>2026-04-04T12:54:05Z</time></trkpt><trkpt lat="43.155764285787576" lon="11.089412649727807"><ele>525.6</ele><time>2026-04-04T12:54:06Z</time></trkpt><trkpt lat="43.155806256232374" lon="11.089544802470195"><ele>521.0</ele><time>2026-04-04T12:54:07Z</time></trkpt><trkpt lat="43.155844795145974" lon="11.089673604694614"><ele>521.0</ele><time>2026-04-04T12:54:08Z</time></trkpt><trkpt lat="43.15588450852092" lon="11.089807347933087"><ele>521.0</ele><time>2026-04-04T12:54:09Z</time></trkpt><trkpt lat="43.155931426287914" lon="11.089963943712352"><ele>521.0</ele><time>2026-04-04T12:54:10Z</time></trkpt><trkpt lat="43.155978606983034" lon="11.090114965441568"><ele>521.0</ele><time>2026-04-04T12:54:11Z</time></trkpt><trkpt lat="43.156036911399816" lon="11.090244151349939"><ele>518.8</ele><time>2026-04-04T12:54:12Z</time></trkpt><trkpt lat="43.156082151451145" lon="11.09037648999665"><ele>516.6</ele><time>2026-04-04T12:54:13Z</time></trkpt><trkpt lat="43.15613115057859" lon="11.090481389058057"><ele>514.4</ele><time>2026-04-04T12:54:14Z</time></trkpt><trkpt lat="43.1561973970574" lon="11.090543452339105"><ele>512.2</ele><time>2026-04-04T12:54:15Z</time></trkpt><trkpt lat="43.15627552480759" lon="11.090583750246424"><ele>510.0</ele><time>2026-04-04T12:54:16Z</time></trkpt><trkpt lat="43.15638788623005" lon="11.090559515649415"><ele>510.0</ele><time>2026-04-04T12:54:17Z</time></trkpt><trkpt lat="43.15651423813731" lon="11.09055225216384"><ele>510.0</ele><time>2026-04-04T12:54:18Z</time></trkpt><trkpt lat="43.15664937975705" lon="11.090559210287138"><ele>510.0</ele><time>2026-04-04T12:54:19Z</time></trkpt><trkpt lat="43.15677771956751" lon="11.09055515915622"><ele>510.0</ele><time>2026-04-04T12:54:20Z</time></trkpt><trkpt lat="43.1569028147848" lon="11.090576360399425"><ele>508.75</ele><time>2026-04-04T12:54:21Z</time></trkpt><trkpt lat="43.15702530234082" lon="11.090581148809322"><ele>507.5</ele><time>2026-04-04T12:54:22Z</time></trkpt><trkpt lat="43.15715515346533" lon="11.090569580572824"><ele>506.25</ele><time>2026-04-04T12:54:23Z</time></trkpt><trkpt lat="43.15728862602792" lon="11.0905928195794"><ele>505.0</ele><time>2026-04-04T12:54:24Z</time></trkpt><trkpt lat="43.15743220216749" lon="11.090620136786294"><ele>501.5</ele><time>2026-04-04T12:54:25Z</time></trkpt><trkpt lat="43.15757911651028" lon="11.090645856270756"><ele>498.0</ele><time>2026-04-04T12:54:26Z</time></trkpt><trkpt lat="43.15771784969977" lon="11.090689813459027"><ele>494.5</ele><time>2026-04-04T12:54:27Z</time></trkpt><trkpt lat="43.15784338905014" lon="11.090725184428928"><ele>491.0</ele><time>2026-04-04T12:54:28Z</time></trkpt><trkpt lat="43.157961626537464" lon="11.090783735023251"><ele>490.5</ele><time>2026-04-04T12:54:29Z</time></trkpt><trkpt lat="43.15808969284063" lon="11.090867766429858"><ele>490.0</ele><time>2026-04-04T12:54:30Z</time></trkpt><trkpt lat="43.15822817478245" lon="11.090966726823334"><ele>489.5</ele><time>2026-04-04T12:54:31Z</time></trkpt><trkpt lat="43.1583392293798" lon="11.091103620186693"><ele>489.0</ele><time>2026-04-04T12:54:32Z</time></trkpt><trkpt lat="43.15842643629184" lon="11.091255740912716"><ele>488.25</ele><time>2026-04-04T12:54:33Z</time></trkpt><trkpt lat="43.15851648448455" lon="11.091416521002403"><ele>487.5</ele><time>2026-04-04T12:54:34Z</time></trkpt><trkpt lat="43.15861746971782" lon="11.091564670653351"><ele>486.75</ele><time>2026-04-04T12:54:35Z</time></trkpt><trkpt lat="43.15871832352935" lon="11.091721431942702"><ele>486.0</ele><time>2026-04-04T12:54:36Z</time></trkpt><trkpt lat="43.158816037137605" lon="11.091863509466972"><ele>485.75</ele><time>2026-04-04T12:54:37Z</time></trkpt><trkpt lat="43.158916173307794" lon="11.091984182444577"><ele>485.5</ele><time>2026-04-04T12:54:38Z</time></trkpt><trkpt lat="43.159040332331536" lon="11.092083272442233"><ele>485.25</ele><time>2026-04-04T12:54:39Z</time></trkpt><trkpt lat="43.159189242787384" lon="11.092175369659106"><ele>485.0</ele><time>2026-04-04T12:54:40Z</time></trkpt><trkpt lat="43.15933388425251" lon="11.092267700895512"><ele>485.0</ele><time>2026-04-04T12:54:41Z</time></trkpt><trkpt lat="43.15946009174109" lon="11.092350569916649"><ele>485.0</ele><time>2026-04-04T12:54:42Z</time></trkpt><trkpt lat="43.15956684536803" lon="11.09244776998574"><ele>485.0</ele><time>2026-04-04T12:54:43Z</time></trkpt><trkpt lat="43.15966900206349" lon="11.092535195137858"><ele>485.0</ele><time>2026-04-04T12:54:44Z</time></trkpt><trkpt lat="43.159767963977835" lon="11.092632668996409"><ele>484.75</ele><time>2026-04-04T12:54:45Z</time></trkpt><trkpt lat="43.15988127417855" lon="11.092717648632687"><ele>484.5</ele><time>2026-04-04T12:54:46Z</time></trkpt><trkpt lat="43.159994576877196" lon="11.092804464098974"><ele>484.25</ele><time>2026-04-04T12:54:47Z</time></trkpt><trkpt lat="43.16011744234834" lon="11.092858836195903"><ele>484.0</ele><time>2026-04-04T12:54:48Z</time></trkpt><trkpt lat="43.16023324823629" lon="11.092880378666822"><ele>484.0</ele><time>2026-04-04T12:54:49Z</time></trkpt><trkpt lat="43.16033478446447" lon="11.092946368333951"><ele>484.0</ele><time>2026-04-04T12:54:50Z</time></trkpt><trkpt lat="43.16041991507879" lon="11.093026913970395"><ele>484.0</ele><time>2026-04-04T12:54:51Z</time></trkpt><trkpt lat="43.16048328127963" lon="11.093156968099706"><ele>484.0</ele><time>2026-04-04T12:54:52Z</time></trkpt><trkpt lat="43.16054407304458" lon="11.093295528597983"><ele>484.0</ele><time>2026-04-04T12:54:53Z</time></trkpt><trkpt lat="43.16059135937844" lon="11.09344212267184"><ele>485.75</ele><time>2026-04-04T12:54:54Z</time></trkpt><trkpt lat="43.160603588776716" lon="11.09359470917981"><ele>487.5</ele><time>2026-04-04T12:54:55Z</time></trkpt><trkpt lat="43.160605862564445" lon="11.093770301300788"><ele>489.25</ele><time>2026-04-04T12:54:56Z</time></trkpt><trkpt lat="43.16061835545607" lon="11.093942891928213"><ele>491.0</ele><time>2026-04-04T12:54:57Z</time></trkpt><trkpt lat="43.16064637427781" lon="11.094111925832498"><ele>483.75</ele><time>2026-04-04T12:54:58Z</time></trkpt><trkpt lat="43.16071379493322" lon="11.094263246958835"><ele>476.5</ele><time>2026-04-04T12:54:59Z</time></trkpt><trkpt lat="43.16077173003637" lon="11.094424542343114"><ele>469.25</ele><time>2026-04-04T12:55:00Z</time></trkpt><trkpt lat="43.16084504448131" lon="11.094577516593933"><ele>462.0</ele><time>2026-04-04T12:55:01Z</time></trkpt><trkpt lat="43.160915967236484" lon="11.094734626716667"><ele>462.0</ele><time>2026-04-04T12:55:02Z</time></trkpt><trkpt lat="43.16098995833405" lon="11.094889088737483"><ele>462.0</ele><time>2026-04-04T12:55:03Z</time></trkpt><trkpt lat="43.16107941025619" lon="11.095023791399628"><ele>462.0</ele><time>2026-04-04T12:55:04Z</time></trkpt><trkpt lat="43.161173810753674" lon="11.095142275276237"><ele>462.0</ele><time>2026-04-04T12:55:05Z</time></trkpt><trkpt lat="43.161269555812915" lon="11.095262966853756"><ele>459.5</ele><time>2026-04-04T12:55:06Z</time></trkpt><trkpt lat="43.161380449401875" lon="11.095338839399504"><ele>457.0</ele><time>2026-04-04T12:55:07Z</time></trkpt><trkpt lat="43.16147618720702" lon="11.09543523741095"><ele>454.5</ele><time>2026-04-04T12:55:08Z</time></trkpt><trkpt lat="43.161573047265776" lon="11.095532760542511"><ele>452.0</ele><time>2026-04-04T12:55:09Z</time></trkpt><trkpt lat="43.16166356879148" lon="11.095623757606688"><ele>452.20000000000005</ele><time>2026-04-04T12:55:10Z</time></trkpt><trkpt lat="43.1617487487259" lon="11.0957102566773"><ele>452.40000000000003</ele><time>2026-04-04T12:55:11Z</time></trkpt><trkpt lat="43.16182057759362" lon="11.095818185663605"><ele>452.59999999999997</ele><time>2026-04-04T12:55:12Z</time></trkpt><trkpt lat="43.161906566979425" lon="11.095914100067581"><ele>452.79999999999995</ele><time>2026-04-04T12:55:13Z</time></trkpt><trkpt lat="43.16199010224871" lon="11.096014467277818"><ele>453.0</ele><time>2026-04-04T12:55:14Z</time></trkpt><trkpt lat="43.16207154818949" lon="11.096126436513964"><ele>453.0</ele><time>2026-04-04T12:55:15Z</time></trkpt><trkpt lat="43.16212322201145" lon="11.096241457337678"><ele>452.99999999999994</ele><time>2026-04-04T12:55:16Z</time></trkpt><trkpt lat="43.16215120172762" lon="11.096377422245762"><ele>452.99999999999994</ele><time>2026-04-04T12:55:17Z</time></trkpt><trkpt lat="43.16216758859514" lon="11.096539362683266"><ele>453.0</ele><time>2026-04-04T12:55:18Z</time></trkpt><trkpt lat="43.16217771205406" lon="11.096715181364381"><ele>453.0</ele><time>2026-04-04T12:55:19Z</time></trkpt><trkpt lat="43.16218281685831" lon="11.096882538110382"><ele>451.2</ele><time>2026-04-04T12:55:20Z</time></trkpt><trkpt lat="43.16218770432654" lon="11.097035807260268"><ele>449.4</ele><time>2026-04-04T12:55:20.999Z</time></trkpt><trkpt lat="43.16218920499264" lon="11.097181687311755"><ele>447.59999999999997</ele><time>2026-04-04T12:55:21.999Z</time></trkpt><trkpt lat="43.16219589206891" lon="11.097332992990825"><ele>445.79999999999995</ele><time>2026-04-04T12:55:22.999Z</time></trkpt><trkpt lat="43.16221975028529" lon="11.097471483279481"><ele>444.0</ele><time>2026-04-04T12:55:23.999Z</time></trkpt><trkpt lat="43.16225407461081" lon="11.097592613117692"><ele>442.2</ele><time>2026-04-04T12:55:24.999Z</time></trkpt><trkpt lat="43.16234031208509" lon="11.097680066655204"><ele>440.4</ele><time>2026-04-04T12:55:25.999Z</time></trkpt><trkpt lat="43.16245051152797" lon="11.09770779016741"><ele>438.6</ele><time>2026-04-04T12:55:26.999Z</time></trkpt><trkpt lat="43.16255634406202" lon="11.097663923857146"><ele>436.8</ele><time>2026-04-04T12:55:27.999Z</time></trkpt><trkpt lat="43.16264508726865" lon="11.097586444413265"><ele>435.0</ele><time>2026-04-04T12:55:28.999Z</time></trkpt><trkpt lat="43.16272123306047" lon="11.097563949418005"><ele>438.8</ele><time>2026-04-04T12:55:29.999Z</time></trkpt><trkpt lat="43.16278590023764" lon="11.097625292541542"><ele>442.6</ele><time>2026-04-04T12:55:30.999Z</time></trkpt><trkpt lat="43.16281034243702" lon="11.097767598256498"><ele>446.4</ele><time>2026-04-04T12:55:31.999Z</time></trkpt><trkpt lat="43.162860658553996" lon="11.097893615084743"><ele>450.2</ele><time>2026-04-04T12:55:32.999Z</time></trkpt><trkpt lat="43.162882783502845" lon="11.098045733112889"><ele>454.0</ele><time>2026-04-04T12:55:33.999Z</time></trkpt><trkpt lat="43.162870288238324" lon="11.098206395027525"><ele>450.75</ele><time>2026-04-04T12:55:34.999Z</time></trkpt><trkpt lat="43.16285868095559" lon="11.09837048077757"><ele>447.5</ele><time>2026-04-04T12:55:35.999Z</time></trkpt><trkpt lat="43.162845782121536" lon="11.098528784717548"><ele>444.25</ele><time>2026-04-04T12:55:36.999Z</time></trkpt><trkpt lat="43.16286910487954" lon="11.098676687030324"><ele>441.0</ele><time>2026-04-04T12:55:37.999Z</time></trkpt><trkpt lat="43.16290835675926" lon="11.098815359352932"><ele>441.0</ele><time>2026-04-04T12:55:38.999Z</time></trkpt><trkpt lat="43.162989882751894" lon="11.098941203236183"><ele>441.0</ele><time>2026-04-04T12:55:39.999Z</time></trkpt><trkpt lat="43.1631071211965" lon="11.099049052766633"><ele>441.0</ele><time>2026-04-04T12:55:40.999Z</time></trkpt><trkpt lat="43.16325346340617" lon="11.099147773327125"><ele>441.0</ele><time>2026-04-04T12:55:41.999Z</time></trkpt><trkpt lat="43.1633807246715" lon="11.099269920757564"><ele>440.25</ele><time>2026-04-04T12:55:42.999Z</time></trkpt><trkpt lat="43.16349018804119" lon="11.09937386038761"><ele>439.5</ele><time>2026-04-04T12:55:43.999Z</time></trkpt><trkpt lat="43.16359394096952" lon="11.099488685309941"><ele>438.75</ele><time>2026-04-04T12:55:44.999Z</time></trkpt><trkpt lat="43.16370735899942" lon="11.09961619851574"><ele>438.0</ele><time>2026-04-04T12:55:45.999Z</time></trkpt><trkpt lat="43.16381667322546" lon="11.09970987753721"><ele>438.0</ele><time>2026-04-04T12:55:46.999Z</time></trkpt><trkpt lat="43.16390317173754" lon="11.099847698459174"><ele>438.0</ele><time>2026-04-04T12:55:47.999Z</time></trkpt><trkpt lat="43.163989703306235" lon="11.099968585192213"><ele>438.0</ele><time>2026-04-04T12:55:48.999Z</time></trkpt><trkpt lat="43.16406577939761" lon="11.10009312471431"><ele>438.0</ele><time>2026-04-04T12:55:49.999Z</time></trkpt><trkpt lat="43.164143751222" lon="11.100231078901855"><ele>436.5</ele><time>2026-04-04T12:55:50.999Z</time></trkpt><trkpt lat="43.16424268000613" lon="11.100370709489175"><ele>435.0</ele><time>2026-04-04T12:55:51.999Z</time></trkpt><trkpt lat="43.16432382466256" lon="11.10052783962289"><ele>433.5</ele><time>2026-04-04T12:55:52.999Z</time></trkpt><trkpt lat="43.164407886524536" lon="11.100673701583467"><ele>432.0</ele><time>2026-04-04T12:55:53.999Z</time></trkpt><trkpt lat="43.16448786233658" lon="11.100826329573776"><ele>431.5</ele><time>2026-04-04T12:55:54.999Z</time></trkpt><trkpt lat="43.16461191847245" lon="11.100928939819186"><ele>431.0</ele><time>2026-04-04T12:55:55.999Z</time></trkpt><trkpt lat="43.16473886112316" lon="11.101017810007844"><ele>430.5</ele><time>2026-04-04T12:55:56.999Z</time></trkpt><trkpt lat="43.164878782389245" lon="11.101071342726625"><ele>430.0</ele><time>2026-04-04T12:55:57.999Z</time></trkpt><trkpt lat="43.165007660776254" lon="11.101150958116877"><ele>428.0</ele><time>2026-04-04T12:55:58.999Z</time></trkpt><trkpt lat="43.16513342129645" lon="11.101254958017618"><ele>426.0</ele><time>2026-04-04T12:55:59.999Z</time></trkpt><trkpt lat="43.16526548521903" lon="11.101361577206042"><ele>424.0</ele><time>2026-04-04T12:56:00.999Z</time></trkpt><trkpt lat="43.16540092947564" lon="11.101470925477805"><ele>424.0</ele><time>2026-04-04T12:56:01.999Z</time></trkpt><trkpt lat="43.165523631558315" lon="11.101569986542511"><ele>424.0</ele><time>2026-04-04T12:56:02.999Z</time></trkpt><trkpt lat="43.165638470875344" lon="11.1016626998238"><ele>424.0</ele><time>2026-04-04T12:56:03.999Z</time></trkpt><trkpt lat="43.165755251120146" lon="11.101756980334462"><ele>424.0</ele><time>2026-04-04T12:56:04.999Z</time></trkpt><trkpt lat="43.16588306812508" lon="11.101833348806649"><ele>422.5</ele><time>2026-04-04T12:56:05.999Z</time></trkpt><trkpt lat="43.1660000769049" lon="11.101926689465444"><ele>421.0</ele><time>2026-04-04T12:56:06.999Z</time></trkpt><trkpt lat="43.16612208084619" lon="11.102009386036267"><ele>419.5</ele><time>2026-04-04T12:56:07.999Z</time></trkpt><trkpt lat="43.16625137624651" lon="11.102078956446622"><ele>418.0</ele><time>2026-04-04T12:56:08.999Z</time></trkpt><trkpt lat="43.16637636027353" lon="11.102180072152226"><ele>418.0</ele><time>2026-04-04T12:56:10Z</time></trkpt><trkpt lat="43.16651142570421" lon="11.102270143775407"><ele>418.0</ele><time>2026-04-04T12:56:11Z</time></trkpt><trkpt lat="43.16664505615759" lon="11.102358261966256"><ele>418.0</ele><time>2026-04-04T12:56:12Z</time></trkpt><trkpt lat="43.16677392440207" lon="11.102436583422309"><ele>418.0</ele><time>2026-04-04T12:56:13Z</time></trkpt><trkpt lat="43.16689937497605" lon="11.102505478816818"><ele>415.25</ele><time>2026-04-04T12:56:14Z</time></trkpt><trkpt lat="43.16701912788876" lon="11.102571136617026"><ele>412.5</ele><time>2026-04-04T12:56:15Z</time></trkpt><trkpt lat="43.167142288064284" lon="11.102644800475058"><ele>409.75</ele><time>2026-04-04T12:56:16Z</time></trkpt><trkpt lat="43.16725741061343" lon="11.102719002305031"><ele>407.0</ele><time>2026-04-04T12:56:17Z</time></trkpt><trkpt lat="43.16736393741235" lon="11.102781560904493"><ele>405.66666666666663</ele><time>2026-04-04T12:56:18Z</time></trkpt><trkpt lat="43.16744780968078" lon="11.102829571177105"><ele>404.3333333333333</ele><time>2026-04-04T12:56:19Z</time></trkpt><trkpt lat="43.16751739895252" lon="11.102876155159032"><ele>403.0</ele><time>2026-04-04T12:56:20Z</time></trkpt><trkpt lat="43.167575367022" lon="11.102933742226314"><ele>401.66666666666663</ele><time>2026-04-04T12:56:21Z</time></trkpt><trkpt lat="43.16755746824008" lon="11.103048817747604"><ele>400.3333333333333</ele><time>2026-04-04T12:56:22Z</time></trkpt><trkpt lat="43.16753020529185" lon="11.103160485630116"><ele>399.0</ele><time>2026-04-04T12:56:23Z</time></trkpt><trkpt lat="43.16745851208276" lon="11.103271993415824"><ele>396.75</ele><time>2026-04-04T12:56:24Z</time></trkpt><trkpt lat="43.16735694336509" lon="11.103408197008727"><ele>394.5</ele><time>2026-04-04T12:56:25Z</time></trkpt><trkpt lat="43.16724602720138" lon="11.103562449335167"><ele>392.25</ele><time>2026-04-04T12:56:26Z</time></trkpt><trkpt lat="43.16715241863704" lon="11.103691845077504"><ele>390.0</ele><time>2026-04-04T12:56:27Z</time></trkpt><trkpt lat="43.167073538570115" lon="11.10380186661753"><ele>390.0</ele><time>2026-04-04T12:56:28Z</time></trkpt><trkpt lat="43.16702212410255" lon="11.10389699937629"><ele>390.0</ele><time>2026-04-04T12:56:29Z</time></trkpt><trkpt lat="43.16699955576044" lon="11.104024371846675"><ele>390.0</ele><time>2026-04-04T12:56:30Z</time></trkpt><trkpt lat="43.16699157878062" lon="11.104173642853514"><ele>390.0</ele><time>2026-04-04T12:56:31Z</time></trkpt><trkpt lat="43.16698526521861" lon="11.10433931818005"><ele>390.0</ele><time>2026-04-04T12:56:32Z</time></trkpt><trkpt lat="43.166975368814846" lon="11.104494055689194"><ele>387.25</ele><time>2026-04-04T12:56:33Z</time></trkpt><trkpt lat="43.16697215169563" lon="11.104661327127022"><ele>384.5</ele><time>2026-04-04T12:56:34Z</time></trkpt><trkpt lat="43.166971112916386" lon="11.104842301039696"><ele>381.75</ele><time>2026-04-04T12:56:35Z</time></trkpt><trkpt lat="43.167009469409095" lon="11.10502394825276"><ele>379.0</ele><time>2026-04-04T12:56:36Z</time></trkpt><trkpt lat="43.167041761688644" lon="11.105213532644758"><ele>378.25</ele><time>2026-04-04T12:56:37Z</time></trkpt><trkpt lat="43.16706317275609" lon="11.105415747003326"><ele>377.5</ele><time>2026-04-04T12:56:38Z</time></trkpt><trkpt lat="43.16712070504245" lon="11.105606523189364"><ele>376.75</ele><time>2026-04-04T12:56:39Z</time></trkpt><trkpt lat="43.167151082784976" lon="11.105793694806025"><ele>376.0</ele><time>2026-04-04T12:56:40Z</time></trkpt><trkpt lat="43.16718713298204" lon="11.105967183587127"><ele>376.0</ele><time>2026-04-04T12:56:41Z</time></trkpt><trkpt lat="43.1672087783786" lon="11.106160270852037"><ele>376.0</ele><time>2026-04-04T12:56:42Z</time></trkpt><trkpt lat="43.16722398727689" lon="11.10636795963883"><ele>376.0</ele><time>2026-04-04T12:56:43Z</time></trkpt><trkpt lat="43.1672374356743" lon="11.106559155490734"><ele>376.0</ele><time>2026-04-04T12:56:44Z</time></trkpt><trkpt lat="43.16725112446145" lon="11.106739944124229"><ele>376.75</ele><time>2026-04-04T12:56:45Z</time></trkpt><trkpt lat="43.167273822780906" lon="11.106916527398612"><ele>377.5</ele><time>2026-04-04T12:56:46Z</time></trkpt><trkpt lat="43.16731665119072" lon="11.107090120332515"><ele>378.25</ele><time>2026-04-04T12:56:47Z</time></trkpt><trkpt lat="43.16739915867619" lon="11.107249960736144"><ele>379.0</ele><time>2026-04-04T12:56:48Z</time></trkpt><trkpt lat="43.16746536049058" lon="11.107418921637311"><ele>380.75</ele><time>2026-04-04T12:56:49Z</time></trkpt><trkpt lat="43.167519442363684" lon="11.107607534347633"><ele>382.5</ele><time>2026-04-04T12:56:50Z</time></trkpt><trkpt lat="43.16758468186953" lon="11.10778509447064"><ele>384.25</ele><time>2026-04-04T12:56:51Z</time></trkpt><trkpt lat="43.16767040548618" lon="11.107935853153833"><ele>386.0</ele><time>2026-04-04T12:56:52Z</time></trkpt><trkpt lat="43.167760835140875" lon="11.108083127650136"><ele>386.0</ele><time>2026-04-04T12:56:53Z</time></trkpt><trkpt lat="43.1678647021174" lon="11.108202824275661"><ele>386.0</ele><time>2026-04-04T12:56:54Z</time></trkpt><trkpt lat="43.16797680880895" lon="11.10832306037553"><ele>386.0</ele><time>2026-04-04T12:56:55Z</time></trkpt><trkpt lat="43.168082340008596" lon="11.108470735785941"><ele>386.0</ele><time>2026-04-04T12:56:56Z</time></trkpt><trkpt lat="43.1681999769675" lon="11.108610897955762"><ele>384.0</ele><time>2026-04-04T12:56:57Z</time></trkpt><trkpt lat="43.16832240812715" lon="11.108756454240412"><ele>382.0</ele><time>2026-04-04T12:56:58Z</time></trkpt><trkpt lat="43.16844772615901" lon="11.108904556973794"><ele>380.0</ele><time>2026-04-04T12:56:59Z</time></trkpt><trkpt lat="43.168563373683014" lon="11.109040104202103"><ele>379.5</ele><time>2026-04-04T12:57:00Z</time></trkpt><trkpt lat="43.168671529939324" lon="11.10916699137887"><ele>379.0</ele><time>2026-04-04T12:57:01Z</time></trkpt><trkpt lat="43.1687778783047" lon="11.109291976052686"><ele>378.5</ele><time>2026-04-04T12:57:02Z</time></trkpt><trkpt lat="43.16887802410074" lon="11.109412045170822"><ele>378.0</ele><time>2026-04-04T12:57:03Z</time></trkpt><trkpt lat="43.16897442093459" lon="11.109530676254089"><ele>377.25</ele><time>2026-04-04T12:57:04Z</time></trkpt><trkpt lat="43.16907322988463" lon="11.109633755153716"><ele>376.5</ele><time>2026-04-04T12:57:05Z</time></trkpt><trkpt lat="43.16914971786089" lon="11.109780271908704"><ele>375.75</ele><time>2026-04-04T12:57:06Z</time></trkpt><trkpt lat="43.16923579694131" lon="11.109925135254466"><ele>375.0</ele><time>2026-04-04T12:57:07Z</time></trkpt><trkpt lat="43.16932119334684" lon="11.110077694817992"><ele>374.5</ele><time>2026-04-04T12:57:08Z</time></trkpt><trkpt lat="43.169403364229545" lon="11.110224066030463"><ele>374.0</ele><time>2026-04-04T12:57:09Z</time></trkpt><trkpt lat="43.16948092441619" lon="11.1103561691714"><ele>373.5</ele><time>2026-04-04T12:57:10Z</time></trkpt><trkpt lat="43.169552459451744" lon="11.110481255184432"><ele>373.0</ele><time>2026-04-04T12:57:11Z</time></trkpt><trkpt lat="43.16962175317989" lon="11.110609555922702"><ele>373.0</ele><time>2026-04-04T12:57:12Z</time></trkpt><trkpt lat="43.16968721044382" lon="11.110737228627524"><ele>373.0</ele><time>2026-04-04T12:57:13Z</time></trkpt><trkpt lat="43.16976150660648" lon="11.110847886100121"><ele>373.0</ele><time>2026-04-04T12:57:14Z</time></trkpt><trkpt lat="43.16981385201531" lon="11.11097200057276"><ele>373.0</ele><time>2026-04-04T12:57:15Z</time></trkpt><trkpt lat="43.169868061812174" lon="11.111092688795036"><ele>373.0</ele><time>2026-04-04T12:57:16Z</time></trkpt><trkpt lat="43.16991537572105" lon="11.111212880285278"><ele>371.79999999999995</ele><time>2026-04-04T12:57:17Z</time></trkpt><trkpt lat="43.16997742229461" lon="11.111323197841696"><ele>370.6</ele><time>2026-04-04T12:57:18Z</time></trkpt><trkpt lat="43.17004252897489" lon="11.111429461283349"><ele>369.4</ele><time>2026-04-04T12:57:19Z</time></trkpt><trkpt lat="43.170119949785736" lon="11.11151699717543"><ele>368.20000000000005</ele><time>2026-04-04T12:57:20Z</time></trkpt><trkpt lat="43.17020935064838" lon="11.111589100735843"><ele>367.0</ele><time>2026-04-04T12:57:21Z</time></trkpt><trkpt lat="43.170287586124196" lon="11.111683523829017"><ele>366.6</ele><time>2026-04-04T12:57:22Z</time></trkpt><trkpt lat="43.170380511112654" lon="11.111732686742068"><ele>366.20000000000005</ele><time>2026-04-04T12:57:23Z</time></trkpt><trkpt lat="43.17047734306677" lon="11.111788966649167"><ele>365.8</ele><time>2026-04-04T12:57:24Z</time></trkpt><trkpt lat="43.17056720537257" lon="11.111852668438301"><ele>365.4</ele><time>2026-04-04T12:57:25Z</time></trkpt><trkpt lat="43.17066331303207" lon="11.1118845778161"><ele>365.0</ele><time>2026-04-04T12:57:26Z</time></trkpt><trkpt lat="43.17075719359896" lon="11.111882231497212"><ele>363.4</ele><time>2026-04-04T12:57:27Z</time></trkpt><trkpt lat="43.17084545030043" lon="11.111898747172026"><ele>361.8</ele><time>2026-04-04T12:57:28Z</time></trkpt><trkpt lat="43.170936730181815" lon="11.11191926617555"><ele>360.20000000000005</ele><time>2026-04-04T12:57:29Z</time></trkpt><trkpt lat="43.17103946992522" lon="11.11193390751927"><ele>358.6</ele><time>2026-04-04T12:57:30Z</time></trkpt><trkpt lat="43.171150568388335" lon="11.11197732950948"><ele>357.0</ele><time>2026-04-04T12:57:31Z</time></trkpt><trkpt lat="43.17127711212006" lon="11.112000989201812"><ele>357.0</ele><time>2026-04-04T12:57:32Z</time></trkpt><trkpt lat="43.17140604617391" lon="11.112094878000013"><ele>357.0</ele><time>2026-04-04T12:57:33Z</time></trkpt><trkpt lat="43.171545041033134" lon="11.112189201553031"><ele>357.0</ele><time>2026-04-04T12:57:34Z</time></trkpt><trkpt lat="43.171687126977865" lon="11.112277991132933"><ele>354.75</ele><time>2026-04-04T12:57:35Z</time></trkpt><trkpt lat="43.171816879561725" lon="11.11233073696216"><ele>352.5</ele><time>2026-04-04T12:57:36Z</time></trkpt><trkpt lat="43.171939662536204" lon="11.112363717671725"><ele>350.25</ele><time>2026-04-04T12:57:37Z</time></trkpt><trkpt lat="43.17205875101278" lon="11.112355146074844"><ele>348.0</ele><time>2026-04-04T12:57:38Z</time></trkpt><trkpt lat="43.17217537178216" lon="11.112300445936484"><ele>348.0</ele><time>2026-04-04T12:57:39Z</time></trkpt><trkpt lat="43.172275737414125" lon="11.11220921715386"><ele>348.0</ele><time>2026-04-04T12:57:40Z</time></trkpt><trkpt lat="43.17237359393278" lon="11.112168761215804"><ele>348.0</ele><time>2026-04-04T12:57:41Z</time></trkpt><trkpt lat="43.172465511423596" lon="11.112130546222605"><ele>348.0</ele><time>2026-04-04T12:57:42Z</time></trkpt><trkpt lat="43.17255078485699" lon="11.112191662821145"><ele>348.0</ele><time>2026-04-04T12:57:43Z</time></trkpt><trkpt lat="43.17263225463676" lon="11.112305333820661"><ele>348.79999999999995</ele><time>2026-04-04T12:57:44Z</time></trkpt><trkpt lat="43.172719148936615" lon="11.112401308370881"><ele>349.6</ele><time>2026-04-04T12:57:45Z</time></trkpt><trkpt lat="43.17280637034134" lon="11.112495125177135"><ele>350.4</ele><time>2026-04-04T12:57:46Z</time></trkpt><trkpt lat="43.172882759616186" lon="11.112588102216428"><ele>351.20000000000005</ele><time>2026-04-04T12:57:47Z</time></trkpt><trkpt lat="43.17295967343966" lon="11.112672307129415"><ele>352.0</ele><time>2026-04-04T12:57:48Z</time></trkpt><trkpt lat="43.17303748826708" lon="11.112748329020192"><ele>352.0</ele><time>2026-04-04T12:57:49Z</time></trkpt><trkpt lat="43.17310350097546" lon="11.112845188888883"><ele>352.0</ele><time>2026-04-04T12:57:50Z</time></trkpt><trkpt lat="43.17314584925679" lon="11.112958343068165"><ele>352.0</ele><time>2026-04-04T12:57:51Z</time></trkpt><trkpt lat="43.17314251750747" lon="11.113099014676056"><ele>352.0</ele><time>2026-04-04T12:57:52Z</time></trkpt><trkpt lat="43.17317463443844" lon="11.113256484320233"><ele>352.0</ele><time>2026-04-04T12:57:53Z</time></trkpt><trkpt lat="43.1731972369195" lon="11.113416227326322"><ele>349.6</ele><time>2026-04-04T12:57:54Z</time></trkpt><trkpt lat="43.17321817628165" lon="11.11355938406193"><ele>347.20000000000005</ele><time>2026-04-04T12:57:55Z</time></trkpt><trkpt lat="43.173248614316094" lon="11.11370040034011"><ele>344.8</ele><time>2026-04-04T12:57:56Z</time></trkpt><trkpt lat="43.17328192760658" lon="11.113835176926301"><ele>342.4</ele><time>2026-04-04T12:57:57Z</time></trkpt><trkpt lat="43.17332037389327" lon="11.113958549524106"><ele>340.0</ele><time>2026-04-04T12:57:58Z</time></trkpt><trkpt lat="43.17335629656643" lon="11.114078409961088"><ele>339.6</ele><time>2026-04-04T12:57:58.999Z</time></trkpt><trkpt lat="43.173425392351405" lon="11.114159085950808"><ele>339.2</ele><time>2026-04-04T12:57:59.999Z</time></trkpt><trkpt lat="43.173485151422014" lon="11.114243428633728"><ele>338.79999999999995</ele><time>2026-04-04T12:58:00.999Z</time></trkpt><trkpt lat="43.17356107442618" lon="11.11434735599457"><ele>338.4</ele><time>2026-04-04T12:58:01.999Z</time></trkpt><trkpt lat="43.17364785802113" lon="11.114472953239313"><ele>338.0</ele><time>2026-04-04T12:58:02.999Z</time></trkpt><trkpt lat="43.17374513197044" lon="11.11461526421077"><ele>338.0</ele><time>2026-04-04T12:58:03.999Z</time></trkpt><trkpt lat="43.17382880286817" lon="11.11477864961795"><ele>338.0</ele><time>2026-04-04T12:58:05Z</time></trkpt><trkpt lat="43.17393809398481" lon="11.114917210736834"><ele>338.0</ele><time>2026-04-04T12:58:06Z</time></trkpt><trkpt lat="43.1740334284923" lon="11.115052649053515"><ele>338.0</ele><time>2026-04-04T12:58:07Z</time></trkpt><trkpt lat="43.17413663973473" lon="11.1151486924752"><ele>339.0</ele><time>2026-04-04T12:58:08Z</time></trkpt><trkpt lat="43.174255754399844" lon="11.11522629935893"><ele>340.0</ele><time>2026-04-04T12:58:09Z</time></trkpt><trkpt lat="43.17435535137994" lon="11.115348714791786"><ele>341.0</ele><time>2026-04-04T12:58:10Z</time></trkpt><trkpt lat="43.17447559967875" lon="11.115481983442413"><ele>342.0</ele><time>2026-04-04T12:58:11Z</time></trkpt><trkpt lat="43.17457498224079" lon="11.115610274108594"><ele>342.0</ele><time>2026-04-04T12:58:12Z</time></trkpt><trkpt lat="43.174649937179396" lon="11.115713826091415"><ele>342.0</ele><time>2026-04-04T12:58:13Z</time></trkpt><trkpt lat="43.174722761491815" lon="11.11580998272777"><ele>342.0</ele><time>2026-04-04T12:58:14Z</time></trkpt><trkpt lat="43.17481326623297" lon="11.115892862954562"><ele>342.0</ele><time>2026-04-04T12:58:15Z</time></trkpt><trkpt lat="43.17490845298377" lon="11.11596955436548"><ele>342.0</ele><time>2026-04-04T12:58:16Z</time></trkpt><trkpt lat="43.17500614399509" lon="11.11605374001569"><ele>343.5</ele><time>2026-04-04T12:58:17Z</time></trkpt><trkpt lat="43.175102566944474" lon="11.116104909385937"><ele>345.0</ele><time>2026-04-04T12:58:18Z</time></trkpt><trkpt lat="43.17518739418352" lon="11.11618565521235"><ele>346.5</ele><time>2026-04-04T12:58:19Z</time></trkpt><trkpt lat="43.17526885058146" lon="11.116264536146378"><ele>348.0</ele><time>2026-04-04T12:58:20Z</time></trkpt><trkpt lat="43.17540641097116" lon="11.116438045667653"><ele>348.0</ele><time>2026-04-04T12:58:22Z</time></trkpt><trkpt lat="43.17546824680286" lon="11.116523260779596"><ele>348.0</ele><time>2026-04-04T12:58:23Z</time></trkpt><trkpt lat="43.17553209617113" lon="11.116600040001089"><ele>348.0</ele><time>2026-04-04T12:58:24Z</time></trkpt><trkpt lat="43.17560351416476" lon="11.116663332850045"><ele>348.0</ele><time>2026-04-04T12:58:25Z</time></trkpt><trkpt lat="43.17568575758182" lon="11.116734254978006"><ele>348.0</ele><time>2026-04-04T12:58:26Z</time></trkpt><trkpt lat="43.17578232440594" lon="11.116819040926703"><ele>347.5</ele><time>2026-04-04T12:58:27Z</time></trkpt><trkpt lat="43.175890628857395" lon="11.116914822421496"><ele>347.0</ele><time>2026-04-04T12:58:28Z</time></trkpt><trkpt lat="43.17599578442894" lon="11.117011197281645"><ele>346.5</ele><time>2026-04-04T12:58:29Z</time></trkpt><trkpt lat="43.17609250929035" lon="11.117112738177198"><ele>346.0</ele><time>2026-04-04T12:58:30Z</time></trkpt><trkpt lat="43.1762004597664" lon="11.117227839786747"><ele>346.0</ele><time>2026-04-04T12:58:31Z</time></trkpt><trkpt lat="43.17629929129097" lon="11.117344446018226"><ele>346.0</ele><time>2026-04-04T12:58:32Z</time></trkpt><trkpt lat="43.176404732222" lon="11.117484614606651"><ele>346.0</ele><time>2026-04-04T12:58:33Z</time></trkpt><trkpt lat="43.17650804876022" lon="11.117634465323228"><ele>346.0</ele><time>2026-04-04T12:58:34Z</time></trkpt><trkpt lat="43.17661416832467" lon="11.117795889312218"><ele>344.3333333333333</ele><time>2026-04-04T12:58:35Z</time></trkpt><trkpt lat="43.176727315311766" lon="11.117970951355492"><ele>342.6666666666667</ele><time>2026-04-04T12:58:36Z</time></trkpt><trkpt lat="43.17684517977671" lon="11.118155322927944"><ele>341.0</ele><time>2026-04-04T12:58:37Z</time></trkpt><trkpt lat="43.1769650948871" lon="11.11834731215424"><ele>339.0</ele><time>2026-04-04T12:58:38Z</time></trkpt><trkpt lat="43.1770854431279" lon="11.11854063283663"><ele>337.0</ele><time>2026-04-04T12:58:39Z</time></trkpt><trkpt lat="43.17719969561349" lon="11.118728920662788"><ele>335.0</ele><time>2026-04-04T12:58:40Z</time></trkpt><trkpt lat="43.17729914716037" lon="11.118905273412967"><ele>335.5</ele><time>2026-04-04T12:58:41Z</time></trkpt><trkpt lat="43.177394974822064" lon="11.119076899776807"><ele>336.0</ele><time>2026-04-04T12:58:42Z</time></trkpt><trkpt lat="43.17747973193332" lon="11.119228698949664"><ele>336.5</ele><time>2026-04-04T12:58:43Z</time></trkpt><trkpt lat="43.17757234954213" lon="11.119388889590441"><ele>337.0</ele><time>2026-04-04T12:58:44Z</time></trkpt><trkpt lat="43.17766578196826" lon="11.119538573612944"><ele>337.0</ele><time>2026-04-04T12:58:45Z</time></trkpt><trkpt lat="43.17776993486908" lon="11.119696689468533"><ele>337.0</ele><time>2026-04-04T12:58:46Z</time></trkpt><trkpt lat="43.177881837539694" lon="11.119860310880108"><ele>337.0</ele><time>2026-04-04T12:58:47Z</time></trkpt><trkpt lat="43.17799924918951" lon="11.120017806977026"><ele>336.0</ele><time>2026-04-04T12:58:48Z</time></trkpt><trkpt lat="43.17814196560701" lon="11.120149169170743"><ele>335.0</ele><time>2026-04-04T12:58:49Z</time></trkpt><trkpt lat="43.17827376968206" lon="11.120280498448308"><ele>334.0</ele><time>2026-04-04T12:58:50Z</time></trkpt><trkpt lat="43.17839674129768" lon="11.12038455206525"><ele>332.66666666666663</ele><time>2026-04-04T12:58:51Z</time></trkpt><trkpt lat="43.178528681909356" lon="11.120489130254404"><ele>331.3333333333333</ele><time>2026-04-04T12:58:52Z</time></trkpt><trkpt lat="43.17869727289009" lon="11.120529301331343"><ele>330.0</ele><time>2026-04-04T12:58:53Z</time></trkpt><trkpt lat="43.178852129355136" lon="11.120557871806655"><ele>330.0</ele><time>2026-04-04T12:58:54Z</time></trkpt><trkpt lat="43.17899265541681" lon="11.120605401841052"><ele>330.0</ele><time>2026-04-04T12:58:55Z</time></trkpt><trkpt lat="43.17911844597261" lon="11.120642055799852"><ele>330.0</ele><time>2026-04-04T12:58:56Z</time></trkpt><trkpt lat="43.179257852835775" lon="11.12071370160342"><ele>330.0</ele><time>2026-04-04T12:58:57Z</time></trkpt><trkpt lat="43.17938910140936" lon="11.1208335589049"><ele>328.3333333333333</ele><time>2026-04-04T12:58:58Z</time></trkpt><trkpt lat="43.1795015657672" lon="11.120982947786747"><ele>326.66666666666663</ele><time>2026-04-04T12:58:59Z</time></trkpt><trkpt lat="43.17958026898115" lon="11.121161369959522"><ele>325.0</ele><time>2026-04-04T12:59:00Z</time></trkpt><trkpt lat="43.17965589836234" lon="11.121353408165795"><ele>325.0</ele><time>2026-04-04T12:59:01Z</time></trkpt><trkpt lat="43.17975160713282" lon="11.121546460677358"><ele>325.0</ele><time>2026-04-04T12:59:02Z</time></trkpt><trkpt lat="43.179837085133606" lon="11.121765817220824"><ele>325.0</ele><time>2026-04-04T12:59:03Z</time></trkpt><trkpt lat="43.179923389297294" lon="11.121984001304918"><ele>321.0</ele><time>2026-04-04T12:59:04Z</time></trkpt><trkpt lat="43.180005301509986" lon="11.12218556522743"><ele>317.0</ele><time>2026-04-04T12:59:05Z</time></trkpt><trkpt lat="43.180082073527146" lon="11.12238750225647"><ele>313.0</ele><time>2026-04-04T12:59:06Z</time></trkpt><trkpt lat="43.180159915815" lon="11.122598191403847"><ele>313.0</ele><time>2026-04-04T12:59:07Z</time></trkpt><trkpt lat="43.180243988136056" lon="11.12282302300504"><ele>313.0</ele><time>2026-04-04T12:59:08Z</time></trkpt><trkpt lat="43.18032961736984" lon="11.123042470190285"><ele>313.0</ele><time>2026-04-04T12:59:09Z</time></trkpt><trkpt lat="43.18041068614055" lon="11.123253035786586"><ele>311.3333333333333</ele><time>2026-04-04T12:59:10Z</time></trkpt><trkpt lat="43.18049279668711" lon="11.123457297171552"><ele>309.6666666666667</ele><time>2026-04-04T12:59:11Z</time></trkpt><trkpt lat="43.180599288924014" lon="11.123647352728817"><ele>308.0</ele><time>2026-04-04T12:59:12Z</time></trkpt><trkpt lat="43.18072706159367" lon="11.12379809455549"><ele>307.0</ele><time>2026-04-04T12:59:13Z</time></trkpt><trkpt lat="43.180858176897615" lon="11.123936359013838"><ele>306.0</ele><time>2026-04-04T12:59:14Z</time></trkpt><trkpt lat="43.18096444742304" lon="11.12409901474356"><ele>305.0</ele><time>2026-04-04T12:59:15Z</time></trkpt><trkpt lat="43.18107691707126" lon="11.124264950915913"><ele>304.6666666666667</ele><time>2026-04-04T12:59:16Z</time></trkpt><trkpt lat="43.1811786150446" lon="11.124421089869028"><ele>304.3333333333333</ele><time>2026-04-04T12:59:17Z</time></trkpt><trkpt lat="43.18127995169323" lon="11.124576726723443"><ele>304.0</ele><time>2026-04-04T12:59:18Z</time></trkpt><trkpt lat="43.18139631356817" lon="11.12470175054895"><ele>302.66666666666663</ele><time>2026-04-04T12:59:19Z</time></trkpt><trkpt lat="43.181529342827766" lon="11.124822527922962"><ele>301.3333333333333</ele><time>2026-04-04T12:59:20Z</time></trkpt><trkpt lat="43.18169733493403" lon="11.124911981854016"><ele>300.0</ele><time>2026-04-04T12:59:21Z</time></trkpt><trkpt lat="43.18185987135774" lon="11.124974229878854"><ele>300.0</ele><time>2026-04-04T12:59:22Z</time></trkpt><trkpt lat="43.182008312949634" lon="11.125064157545703"><ele>300.0</ele><time>2026-04-04T12:59:23Z</time></trkpt><trkpt lat="43.18215001265501" lon="11.125157160049522"><ele>300.0</ele><time>2026-04-04T12:59:24Z</time></trkpt><trkpt lat="43.182286332987886" lon="11.125276268817894"><ele>299.3333333333333</ele><time>2026-04-04T12:59:25Z</time></trkpt><trkpt lat="43.18241902209968" lon="11.125420160293109"><ele>298.66666666666663</ele><time>2026-04-04T12:59:26Z</time></trkpt><trkpt lat="43.18252963198876" lon="11.125574766284846"><ele>298.0</ele><time>2026-04-04T12:59:27Z</time></trkpt><trkpt lat="43.18264508452183" lon="11.12574692031111"><ele>299.66666666666663</ele><time>2026-04-04T12:59:28Z</time></trkpt><trkpt lat="43.18275533149716" lon="11.125915740470806"><ele>301.3333333333333</ele><time>2026-04-04T12:59:29Z</time></trkpt><trkpt lat="43.18287343412507" lon="11.126071013623553"><ele>303.0</ele><time>2026-04-04T12:59:30Z</time></trkpt><trkpt lat="43.182987510370474" lon="11.126245900218427"><ele>303.0</ele><time>2026-04-04T12:59:31Z</time></trkpt><trkpt lat="43.183092896377815" lon="11.126406849603969"><ele>303.0</ele><time>2026-04-04T12:59:32Z</time></trkpt><trkpt lat="43.18319366975282" lon="11.126593464496485"><ele>303.0</ele><time>2026-04-04T12:59:33Z</time></trkpt><trkpt lat="43.183315255577696" lon="11.126746831435897"><ele>301.0</ele><time>2026-04-04T12:59:34Z</time></trkpt><trkpt lat="43.18342868337193" lon="11.126914702040583"><ele>299.0</ele><time>2026-04-04T12:59:35Z</time></trkpt><trkpt lat="43.18354460540025" lon="11.127074603635986"><ele>297.0</ele><time>2026-04-04T12:59:36Z</time></trkpt><trkpt lat="43.18367369697167" lon="11.127208850628948"><ele>297.0</ele><time>2026-04-04T12:59:37Z</time></trkpt><trkpt lat="43.18381485070047" lon="11.127318288813674"><ele>297.0</ele><time>2026-04-04T12:59:38Z</time></trkpt><trkpt lat="43.18396557226782" lon="11.127394897688028"><ele>297.0</ele><time>2026-04-04T12:59:39Z</time></trkpt><trkpt lat="43.18412135491687" lon="11.127445368265914"><ele>295.3333333333333</ele><time>2026-04-04T12:59:40Z</time></trkpt><trkpt lat="43.18428116644384" lon="11.12749903544503"><ele>293.66666666666663</ele><time>2026-04-04T12:59:41Z</time></trkpt><trkpt lat="43.18444020442661" lon="11.12757842750277"><ele>292.0</ele><time>2026-04-04T12:59:42Z</time></trkpt><trkpt lat="43.184587295889266" lon="11.1276189901082"><ele>292.0</ele><time>2026-04-04T12:59:43Z</time></trkpt><trkpt lat="43.18473579467024" lon="11.127675610550561"><ele>292.0</ele><time>2026-04-04T12:59:44Z</time></trkpt><trkpt lat="43.184879384929" lon="11.127756224970891"><ele>292.0</ele><time>2026-04-04T12:59:45Z</time></trkpt><trkpt lat="43.18501747454675" lon="11.12779114214983"><ele>293.0</ele><time>2026-04-04T12:59:46Z</time></trkpt><trkpt lat="43.1851538690719" lon="11.12785437299673"><ele>294.0</ele><time>2026-04-04T12:59:47Z</time></trkpt><trkpt lat="43.18529722447089" lon="11.127913137098911"><ele>295.0</ele><time>2026-04-04T12:59:48Z</time></trkpt><trkpt lat="43.185433543531616" lon="11.127966092453288"><ele>296.0</ele><time>2026-04-04T12:59:49Z</time></trkpt><trkpt lat="43.18558040743042" lon="11.128022257711065"><ele>298.33333333333337</ele><time>2026-04-04T12:59:50Z</time></trkpt><trkpt lat="43.18574172191999" lon="11.128073014813308"><ele>300.6666666666667</ele><time>2026-04-04T12:59:51Z</time></trkpt><trkpt lat="43.18589692601828" lon="11.12810271093161"><ele>303.0</ele><time>2026-04-04T12:59:52Z</time></trkpt><trkpt lat="43.186060805698204" lon="11.128098449655207"><ele>303.0</ele><time>2026-04-04T12:59:53Z</time></trkpt><trkpt lat="43.18620916032015" lon="11.128060640562706"><ele>303.0</ele><time>2026-04-04T12:59:54Z</time></trkpt><trkpt lat="43.186342151843384" lon="11.128007516002135"><ele>303.0</ele><time>2026-04-04T12:59:55Z</time></trkpt><trkpt lat="43.186470066939364" lon="11.1279778208495"><ele>303.0</ele><time>2026-04-04T12:59:56Z</time></trkpt><trkpt lat="43.186578385781964" lon="11.1279357300035"><ele>303.6</ele><time>2026-04-04T12:59:57Z</time></trkpt><trkpt lat="43.186673007534175" lon="11.127898961780545"><ele>304.20000000000005</ele><time>2026-04-04T12:59:58Z</time></trkpt><trkpt lat="43.18674456900358" lon="11.127848443261785"><ele>304.8</ele><time>2026-04-04T12:59:59Z</time></trkpt><trkpt lat="43.186814017139575" lon="11.127862845276631"><ele>305.40000000000003</ele><time>2026-04-04T13:00:00Z</time></trkpt><trkpt lat="43.186889341938816" lon="11.128061926772759"><ele>306.0</ele><time>2026-04-04T13:00:02Z</time></trkpt><trkpt lat="43.186947360613914" lon="11.128220598890081"><ele>306.0</ele><time>2026-04-04T13:00:03Z</time></trkpt><trkpt lat="43.18700373783328" lon="11.128394407346537"><ele>306.0</ele><time>2026-04-04T13:00:04Z</time></trkpt><trkpt lat="43.1870728065146" lon="11.12859006846235"><ele>306.0</ele><time>2026-04-04T13:00:05Z</time></trkpt><trkpt lat="43.18714701501727" lon="11.12880302787236"><ele>306.0</ele><time>2026-04-04T13:00:06Z</time></trkpt><trkpt lat="43.187218502011056" lon="11.129009822136922"><ele>306.0</ele><time>2026-04-04T13:00:07Z</time></trkpt><trkpt lat="43.18727211303722" lon="11.129213550641191"><ele>306.0</ele><time>2026-04-04T13:00:08Z</time></trkpt><trkpt lat="43.187323573023306" lon="11.129391486842453"><ele>306.25</ele><time>2026-04-04T13:00:09Z</time></trkpt><trkpt lat="43.18735308115687" lon="11.129583429865473"><ele>306.5</ele><time>2026-04-04T13:00:10Z</time></trkpt><trkpt lat="43.18732838802765" lon="11.129770527648967"><ele>306.75</ele><time>2026-04-04T13:00:11Z</time></trkpt><trkpt lat="43.18726898523001" lon="11.129952468458708"><ele>307.0</ele><time>2026-04-04T13:00:12Z</time></trkpt><trkpt lat="43.187202411534535" lon="11.130152273715876"><ele>307.3333333333333</ele><time>2026-04-04T13:00:13Z</time></trkpt><trkpt lat="43.187150223232905" lon="11.13035778235234"><ele>307.6666666666667</ele><time>2026-04-04T13:00:14Z</time></trkpt><trkpt lat="43.18709216986706" lon="11.13055189132261"><ele>308.0</ele><time>2026-04-04T13:00:15Z</time></trkpt><trkpt lat="43.18704937882774" lon="11.13073970401875"><ele>307.5</ele><time>2026-04-04T13:00:16Z</time></trkpt><trkpt lat="43.18702984475826" lon="11.130920323082913"><ele>307.0</ele><time>2026-04-04T13:00:17Z</time></trkpt><trkpt lat="43.187021175883885" lon="11.1310974677408"><ele>306.5</ele><time>2026-04-04T13:00:18Z</time></trkpt><trkpt lat="43.18697687070511" lon="11.13126586107156"><ele>306.0</ele><time>2026-04-04T13:00:19Z</time></trkpt><trkpt lat="43.186934236789966" lon="11.131438685572773"><ele>305.25</ele><time>2026-04-04T13:00:20Z</time></trkpt><trkpt lat="43.186875489965544" lon="11.131626129975595"><ele>304.5</ele><time>2026-04-04T13:00:21Z</time></trkpt><trkpt lat="43.18681341513402" lon="11.1318076196853"><ele>303.75</ele><time>2026-04-04T13:00:22Z</time></trkpt><trkpt lat="43.18674983484229" lon="11.131981266874572"><ele>303.0</ele><time>2026-04-04T13:00:23Z</time></trkpt><trkpt lat="43.18669080999866" lon="11.132145082111817"><ele>303.0</ele><time>2026-04-04T13:00:24Z</time></trkpt><trkpt lat="43.18664752504278" lon="11.13231207531426"><ele>303.0</ele><time>2026-04-04T13:00:25Z</time></trkpt><trkpt lat="43.18657673401626" lon="11.132447724956888"><ele>303.0</ele><time>2026-04-04T13:00:26Z</time></trkpt><trkpt lat="43.186503597389816" lon="11.132595277936085"><ele>303.0</ele><time>2026-04-04T13:00:27Z</time></trkpt><trkpt lat="43.18641358486982" lon="11.132742700516877"><ele>303.25</ele><time>2026-04-04T13:00:28Z</time></trkpt><trkpt lat="43.18632014519214" lon="11.13288400621757"><ele>303.5</ele><time>2026-04-04T13:00:29Z</time></trkpt><trkpt lat="43.18623951627725" lon="11.1330373677262"><ele>303.75</ele><time>2026-04-04T13:00:30Z</time></trkpt><trkpt lat="43.186159816879446" lon="11.133171589057792"><ele>304.0</ele><time>2026-04-04T13:00:31Z</time></trkpt><trkpt lat="43.18611268997373" lon="11.133316164223324"><ele>301.59999999999997</ele><time>2026-04-04T13:00:32Z</time></trkpt><trkpt lat="43.186107378129826" lon="11.133479191557514"><ele>299.2</ele><time>2026-04-04T13:00:33Z</time></trkpt><trkpt lat="43.18612502868794" lon="11.133634142412676"><ele>296.79999999999995</ele><time>2026-04-04T13:00:34Z</time></trkpt><trkpt lat="43.18616666186674" lon="11.133761617828673"><ele>294.4</ele><time>2026-04-04T13:00:35Z</time></trkpt><trkpt lat="43.1862172012391" lon="11.133870178442043"><ele>292.0</ele><time>2026-04-04T13:00:36Z</time></trkpt><trkpt lat="43.18623869041707" lon="11.133990251221656"><ele>291.16666666666663</ele><time>2026-04-04T13:00:37Z</time></trkpt><trkpt lat="43.18626763821118" lon="11.134088093629341"><ele>290.3333333333333</ele><time>2026-04-04T13:00:38Z</time></trkpt><trkpt lat="43.1863024217462" lon="11.134204933089595"><ele>289.5</ele><time>2026-04-04T13:00:40Z</time></trkpt><trkpt lat="43.1864019626798" lon="11.134174630994364"><ele>288.6666666666667</ele><time>2026-04-04T13:00:43Z</time></trkpt><trkpt lat="43.18633274122537" lon="11.134191188663916"><ele>287.83333333333337</ele><time>2026-04-04T13:00:53Z</time></trkpt><trkpt lat="43.18632316413393" lon="11.134318395066963"><ele>287.0</ele><time>2026-04-04T13:00:56Z</time></trkpt><trkpt lat="43.1863851099198" lon="11.134439631882476"><ele>287.0</ele><time>2026-04-04T13:00:57Z</time></trkpt><trkpt lat="43.186412399226676" lon="11.134569168929545"><ele>287.0</ele><time>2026-04-04T13:00:58Z</time></trkpt><trkpt lat="43.18643896901982" lon="11.134703026221406"><ele>287.0</ele><time>2026-04-04T13:00:59Z</time></trkpt><trkpt lat="43.186509331925315" lon="11.1348400153324"><ele>287.0</ele><time>2026-04-04T13:01:00Z</time></trkpt><trkpt lat="43.18657356905082" lon="11.135013395368205"><ele>289.0</ele><time>2026-04-04T13:01:01Z</time></trkpt><trkpt lat="43.1866406081581" lon="11.135207044094548"><ele>291.0</ele><time>2026-04-04T13:01:02Z</time></trkpt><trkpt lat="43.186699211996995" lon="11.135400059613259"><ele>293.0</ele><time>2026-04-04T13:01:03Z</time></trkpt><trkpt lat="43.1867600220203" lon="11.1356146208974"><ele>291.33333333333337</ele><time>2026-04-04T13:01:04Z</time></trkpt><trkpt lat="43.18681895542586" lon="11.135836556229116"><ele>289.6666666666667</ele><time>2026-04-04T13:01:05Z</time></trkpt><trkpt lat="43.18687674044732" lon="11.136049241853884"><ele>288.0</ele><time>2026-04-04T13:01:06Z</time></trkpt><trkpt lat="43.18694105791002" lon="11.136272004331872"><ele>288.0</ele><time>2026-04-04T13:01:07Z</time></trkpt><trkpt lat="43.187012886162535" lon="11.13649278351871"><ele>288.0</ele><time>2026-04-04T13:01:08Z</time></trkpt><trkpt lat="43.18705901235147" lon="11.136717503655461"><ele>288.0</ele><time>2026-04-04T13:01:09Z</time></trkpt><trkpt lat="43.18712252161318" lon="11.136929909749968"><ele>288.0</ele><time>2026-04-04T13:01:10Z</time></trkpt><trkpt lat="43.187185382721886" lon="11.137140147486136"><ele>288.0</ele><time>2026-04-04T13:01:11Z</time></trkpt><trkpt lat="43.18726133732191" lon="11.137337840830865"><ele>288.0</ele><time>2026-04-04T13:01:12Z</time></trkpt><trkpt lat="43.187319291339385" lon="11.137547650730793"><ele>288.0</ele><time>2026-04-04T13:01:13Z</time></trkpt><trkpt lat="43.18737859998021" lon="11.137752854253767"><ele>288.0</ele><time>2026-04-04T13:01:14Z</time></trkpt><trkpt lat="43.18743565241991" lon="11.137957958882971"><ele>288.0</ele><time>2026-04-04T13:01:15Z</time></trkpt><trkpt lat="43.18749934075208" lon="11.138154869386646"><ele>287.3333333333333</ele><time>2026-04-04T13:01:16Z</time></trkpt><trkpt lat="43.187560815112754" lon="11.138354474985537"><ele>286.66666666666663</ele><time>2026-04-04T13:01:17Z</time></trkpt><trkpt lat="43.18762379993253" lon="11.13855939581358"><ele>286.0</ele><time>2026-04-04T13:01:18Z</time></trkpt><trkpt lat="43.18768819907825" lon="11.138773377721781"><ele>286.0</ele><time>2026-04-04T13:01:19Z</time></trkpt><trkpt lat="43.187751001969374" lon="11.138990414067898"><ele>286.0</ele><time>2026-04-04T13:01:20Z</time></trkpt><trkpt lat="43.18781585940169" lon="11.139204299883966"><ele>286.0</ele><time>2026-04-04T13:01:21Z</time></trkpt><trkpt lat="43.18794121266266" lon="11.139617364558196"><ele>285.3333333333333</ele><time>2026-04-04T13:01:23Z</time></trkpt><trkpt lat="43.18801061287774" lon="11.139822732197734"><ele>284.6666666666667</ele><time>2026-04-04T13:01:24Z</time></trkpt><trkpt lat="43.188077822793275" lon="11.140013857681616"><ele>284.0</ele><time>2026-04-04T13:01:25Z</time></trkpt><trkpt lat="43.18815118130074" lon="11.14017950392784"><ele>283.5</ele><time>2026-04-04T13:01:26Z</time></trkpt><trkpt lat="43.18824942613022" lon="11.140314383562563"><ele>283.0</ele><time>2026-04-04T13:01:27Z</time></trkpt><trkpt lat="43.188359394707796" lon="11.140438390685865"><ele>282.5</ele><time>2026-04-04T13:01:28Z</time></trkpt><trkpt lat="43.188470754242914" lon="11.140555636482189"><ele>282.0</ele><time>2026-04-04T13:01:29Z</time></trkpt><trkpt lat="43.18858948613292" lon="11.140656444188632"><ele>281.75</ele><time>2026-04-04T13:01:30Z</time></trkpt><trkpt lat="43.18871619353915" lon="11.140743264905831"><ele>281.5</ele><time>2026-04-04T13:01:31Z</time></trkpt><trkpt lat="43.1888519962753" lon="11.140809726355199"><ele>281.25</ele><time>2026-04-04T13:01:32Z</time></trkpt><trkpt lat="43.18897488490979" lon="11.140879025198014"><ele>281.0</ele><time>2026-04-04T13:01:33Z</time></trkpt><trkpt lat="43.18908776167209" lon="11.140960672379066"><ele>280.75</ele><time>2026-04-04T13:01:34Z</time></trkpt><trkpt lat="43.189207843674765" lon="11.141010343138428"><ele>280.5</ele><time>2026-04-04T13:01:35Z</time></trkpt><trkpt lat="43.18931689975021" lon="11.141086223949232"><ele>280.25</ele><time>2026-04-04T13:01:36Z</time></trkpt><trkpt lat="43.189417143278185" lon="11.141152133310486"><ele>280.0</ele><time>2026-04-04T13:01:37Z</time></trkpt><trkpt lat="43.18951149026118" lon="11.141206832373951"><ele>280.0</ele><time>2026-04-04T13:01:38Z</time></trkpt><trkpt lat="43.18960363166936" lon="11.141252922825885"><ele>280.0</ele><time>2026-04-04T13:01:39Z</time></trkpt><trkpt lat="43.18968954623741" lon="11.1413044911089"><ele>280.0</ele><time>2026-04-04T13:01:40Z</time></trkpt><trkpt lat="43.18976446302386" lon="11.141350396031774"><ele>280.0</ele><time>2026-04-04T13:01:41Z</time></trkpt><trkpt lat="43.18986975187298" lon="11.141417332755276"><ele>280.0</ele><time>2026-04-04T13:01:43Z</time></trkpt><trkpt lat="43.189932145262155" lon="11.141455461217646"><ele>280.0</ele><time>2026-04-04T13:01:44Z</time></trkpt><trkpt lat="43.19002364342578" lon="11.141514402179824"><ele>280.0</ele><time>2026-04-04T13:01:45Z</time></trkpt><trkpt lat="43.190126187987666" lon="11.141605810003691"><ele>280.0</ele><time>2026-04-04T13:01:46Z</time></trkpt><trkpt lat="43.190246606925754" lon="11.141666433162142"><ele>280.0</ele><time>2026-04-04T13:01:47Z</time></trkpt><trkpt lat="43.19037037179379" lon="11.141704692853503"><ele>280.0</ele><time>2026-04-04T13:01:48Z</time></trkpt><trkpt lat="43.190492211228424" lon="11.141774057869293"><ele>280.0</ele><time>2026-04-04T13:01:49Z</time></trkpt><trkpt lat="43.19061393350206" lon="11.14185500190833"><ele>280.0</ele><time>2026-04-04T13:01:50Z</time></trkpt><trkpt lat="43.19073802985423" lon="11.141934945041056"><ele>280.0</ele><time>2026-04-04T13:01:51Z</time></trkpt><trkpt lat="43.19086955531857" lon="11.142017580351373"><ele>279.25</ele><time>2026-04-04T13:01:52Z</time></trkpt><trkpt lat="43.190995443080766" lon="11.142100218585343"><ele>278.5</ele><time>2026-04-04T13:01:53Z</time></trkpt><trkpt lat="43.19113128117105" lon="11.142179577068775"><ele>277.75</ele><time>2026-04-04T13:01:54Z</time></trkpt><trkpt lat="43.19126089984284" lon="11.142256130426295"><ele>277.0</ele><time>2026-04-04T13:01:55Z</time></trkpt><trkpt lat="43.19139663830156" lon="11.142337564278233"><ele>276.75</ele><time>2026-04-04T13:01:56Z</time></trkpt><trkpt lat="43.191530782687174" lon="11.142421283197883"><ele>276.5</ele><time>2026-04-04T13:01:57Z</time></trkpt><trkpt lat="43.1916653739177" lon="11.142505873548803"><ele>276.25</ele><time>2026-04-04T13:01:58Z</time></trkpt><trkpt lat="43.19180424705158" lon="11.142593831073974"><ele>276.0</ele><time>2026-04-04T13:01:59Z</time></trkpt><trkpt lat="43.191942675166295" lon="11.142679592847939"><ele>276.0</ele><time>2026-04-04T13:02:00Z</time></trkpt><trkpt lat="43.19208506434333" lon="11.142761605796897"><ele>276.0</ele><time>2026-04-04T13:02:01Z</time></trkpt><trkpt lat="43.192230261361104" lon="11.142848745850017"><ele>276.0</ele><time>2026-04-04T13:02:02Z</time></trkpt><trkpt lat="43.19238194877865" lon="11.142944316216179"><ele>275.3333333333333</ele><time>2026-04-04T13:02:03Z</time></trkpt><trkpt lat="43.19254089698506" lon="11.14304515540571"><ele>274.66666666666663</ele><time>2026-04-04T13:02:04Z</time></trkpt><trkpt lat="43.192702474684566" lon="11.143146567899429"><ele>274.0</ele><time>2026-04-04T13:02:05Z</time></trkpt><trkpt lat="43.19285449920907" lon="11.143238478243036"><ele>274.0</ele><time>2026-04-04T13:02:06Z</time></trkpt><trkpt lat="43.19300469286364" lon="11.143326190620321"><ele>274.0</ele><time>2026-04-04T13:02:07Z</time></trkpt><trkpt lat="43.19316725156711" lon="11.143423302222205"><ele>274.0</ele><time>2026-04-04T13:02:08Z</time></trkpt><trkpt lat="43.19333715771406" lon="11.143525156563449"><ele>274.66666666666663</ele><time>2026-04-04T13:02:09Z</time></trkpt><trkpt lat="43.193490278062846" lon="11.143617032805508"><ele>275.3333333333333</ele><time>2026-04-04T13:02:10Z</time></trkpt><trkpt lat="43.19363849133504" lon="11.143711459174854"><ele>276.0</ele><time>2026-04-04T13:02:11Z</time></trkpt><trkpt lat="43.19379508073793" lon="11.143807976555062"><ele>276.0</ele><time>2026-04-04T13:02:12Z</time></trkpt><trkpt lat="43.19395449935443" lon="11.14390265614743"><ele>276.0</ele><time>2026-04-04T13:02:13Z</time></trkpt><trkpt lat="43.1941184115249" lon="11.143993524930517"><ele>276.0</ele><time>2026-04-04T13:02:14Z</time></trkpt><trkpt lat="43.19428260961198" lon="11.144088136930739"><ele>275.0</ele><time>2026-04-04T13:02:15Z</time></trkpt><trkpt lat="43.19443920051276" lon="11.144204252590997"><ele>274.0</ele><time>2026-04-04T13:02:16Z</time></trkpt><trkpt lat="43.19460768026299" lon="11.144285639410535"><ele>273.0</ele><time>2026-04-04T13:02:17Z</time></trkpt><trkpt lat="43.19476801831917" lon="11.144384095315965"><ele>273.0</ele><time>2026-04-04T13:02:18Z</time></trkpt><trkpt lat="43.194925661507654" lon="11.144489768966624"><ele>273.0</ele><time>2026-04-04T13:02:19Z</time></trkpt><trkpt lat="43.195086499906466" lon="11.144584636693573"><ele>273.0</ele><time>2026-04-04T13:02:20Z</time></trkpt><trkpt lat="43.195246577391" lon="11.144676688624271"><ele>273.0</ele><time>2026-04-04T13:02:21Z</time></trkpt><trkpt lat="43.195404072858636" lon="11.144767634216738"><ele>273.0</ele><time>2026-04-04T13:02:22Z</time></trkpt><trkpt lat="43.1955640072868" lon="11.144864864409113"><ele>273.0</ele><time>2026-04-04T13:02:23Z</time></trkpt><trkpt lat="43.195717561773584" lon="11.144963765517213"><ele>274.3333333333333</ele><time>2026-04-04T13:02:24Z</time></trkpt><trkpt lat="43.19587768520974" lon="11.145047696606708"><ele>275.66666666666663</ele><time>2026-04-04T13:02:25Z</time></trkpt><trkpt lat="43.196037377733724" lon="11.145118323777789"><ele>277.0</ele><time>2026-04-04T13:02:26Z</time></trkpt><trkpt lat="43.19619986924715" lon="11.145184239002125"><ele>277.0</ele><time>2026-04-04T13:02:27Z</time></trkpt><trkpt lat="43.19636261661477" lon="11.145242485574935"><ele>277.0</ele><time>2026-04-04T13:02:28Z</time></trkpt><trkpt lat="43.196530006897326" lon="11.145299219427082"><ele>277.0</ele><time>2026-04-04T13:02:29Z</time></trkpt><trkpt lat="43.196697137179214" lon="11.145364241870904"><ele>278.0</ele><time>2026-04-04T13:02:30Z</time></trkpt><trkpt lat="43.1968623399416" lon="11.145426849127947"><ele>279.0</ele><time>2026-04-04T13:02:31Z</time></trkpt><trkpt lat="43.197026665855894" lon="11.145481627908508"><ele>280.0</ele><time>2026-04-04T13:02:32Z</time></trkpt><trkpt lat="43.19719135962446" lon="11.14552871775429"><ele>282.0</ele><time>2026-04-04T13:02:33Z</time></trkpt><trkpt lat="43.19735361724786" lon="11.145560607982288"><ele>284.0</ele><time>2026-04-04T13:02:34Z</time></trkpt><trkpt lat="43.19751722739275" lon="11.145566772912888"><ele>286.0</ele><time>2026-04-04T13:02:35Z</time></trkpt><trkpt lat="43.197681130521175" lon="11.145542075823201"><ele>286.0</ele><time>2026-04-04T13:02:36Z</time></trkpt><trkpt lat="43.19784161599045" lon="11.145497966051696"><ele>286.0</ele><time>2026-04-04T13:02:37Z</time></trkpt><trkpt lat="43.1980083200019" lon="11.145440999977723"><ele>286.0</ele><time>2026-04-04T13:02:38Z</time></trkpt><trkpt lat="43.19817379310412" lon="11.145373607171262"><ele>287.3333333333333</ele><time>2026-04-04T13:02:39Z</time></trkpt><trkpt lat="43.198338317913176" lon="11.145336816324347"><ele>288.6666666666667</ele><time>2026-04-04T13:02:40Z</time></trkpt><trkpt lat="43.19850080266335" lon="11.14528950772857"><ele>290.0</ele><time>2026-04-04T13:02:41Z</time></trkpt><trkpt lat="43.1986703853428" lon="11.145315107272587"><ele>290.0</ele><time>2026-04-04T13:02:42Z</time></trkpt><trkpt lat="43.19884261780853" lon="11.145345716144584"><ele>290.0</ele><time>2026-04-04T13:02:43Z</time></trkpt><trkpt lat="43.19901687808355" lon="11.145376085765056"><ele>290.0</ele><time>2026-04-04T13:02:44Z</time></trkpt><trkpt lat="43.19919241940306" lon="11.14539226568975"><ele>291.0</ele><time>2026-04-04T13:02:45Z</time></trkpt><trkpt lat="43.199368805103255" lon="11.14543139572789"><ele>292.0</ele><time>2026-04-04T13:02:46Z</time></trkpt><trkpt lat="43.19954551281092" lon="11.145467986136989"><ele>293.0</ele><time>2026-04-04T13:02:47Z</time></trkpt><trkpt lat="43.199708477435024" lon="11.145506630260321"><ele>294.0</ele><time>2026-04-04T13:02:48Z</time></trkpt><trkpt lat="43.199866923754016" lon="11.145582846681501"><ele>295.0</ele><time>2026-04-04T13:02:49Z</time></trkpt><trkpt lat="43.2000278756223" lon="11.145649063711828"><ele>296.0</ele><time>2026-04-04T13:02:50Z</time></trkpt><trkpt lat="43.200176379218846" lon="11.145734136010573"><ele>293.0</ele><time>2026-04-04T13:02:51Z</time></trkpt><trkpt lat="43.20032244392934" lon="11.145841548254475"><ele>290.0</ele><time>2026-04-04T13:02:52Z</time></trkpt><trkpt lat="43.200470573296194" lon="11.14594656454037"><ele>287.0</ele><time>2026-04-04T13:02:53Z</time></trkpt><trkpt lat="43.200614425582486" lon="11.146079223056345"><ele>290.0</ele><time>2026-04-04T13:02:54Z</time></trkpt><trkpt lat="43.20075390528013" lon="11.146218126975254"><ele>293.0</ele><time>2026-04-04T13:02:55Z</time></trkpt><trkpt lat="43.200904953260185" lon="11.146348377601377"><ele>296.0</ele><time>2026-04-04T13:02:56Z</time></trkpt><trkpt lat="43.20105265695775" lon="11.146484078514092"><ele>295.33333333333337</ele><time>2026-04-04T13:02:57Z</time></trkpt><trkpt lat="43.20122018369397" lon="11.146571367582617"><ele>294.6666666666667</ele><time>2026-04-04T13:02:58Z</time></trkpt><trkpt lat="43.201388945795614" lon="11.146680273188482"><ele>294.0</ele><time>2026-04-04T13:02:59Z</time></trkpt><trkpt lat="43.201553775338965" lon="11.146779483018973"><ele>295.75</ele><time>2026-04-04T13:03:00Z</time></trkpt><trkpt lat="43.20169462118708" lon="11.146883810057396"><ele>297.5</ele><time>2026-04-04T13:03:01Z</time></trkpt><trkpt lat="43.201829086709616" lon="11.146945832870117"><ele>299.25</ele><time>2026-04-04T13:03:02Z</time></trkpt><trkpt lat="43.20193646748435" lon="11.146951761202287"><ele>301.0</ele><time>2026-04-04T13:03:03Z</time></trkpt><trkpt lat="43.202011948075295" lon="11.146976633583765"><ele>301.0</ele><time>2026-04-04T13:03:04Z</time></trkpt><trkpt lat="43.20201723736291" lon="11.146755778963229"><ele>301.0</ele><time>2026-04-04T13:03:08Z</time></trkpt><trkpt lat="43.201974079950965" lon="11.14668760305837"><ele>301.0</ele><time>2026-04-04T13:03:09Z</time></trkpt><trkpt lat="43.201910746427146" lon="11.146617519843131"><ele>301.0</ele><time>2026-04-04T13:03:10Z</time></trkpt><trkpt lat="43.20185962328276" lon="11.146504251169024"><ele>301.0</ele><time>2026-04-04T13:03:11Z</time></trkpt><trkpt lat="43.20179924906515" lon="11.146406746534627"><ele>300.0</ele><time>2026-04-04T13:03:12Z</time></trkpt><trkpt lat="43.20172501024876" lon="11.14631073067795"><ele>299.0</ele><time>2026-04-04T13:03:13Z</time></trkpt><trkpt lat="43.20166137555307" lon="11.146199059994494"><ele>298.0</ele><time>2026-04-04T13:03:14Z</time></trkpt><trkpt lat="43.20159320474943" lon="11.14608241667207"><ele>297.0</ele><time>2026-04-04T13:03:15Z</time></trkpt><trkpt lat="43.20151878252852" lon="11.145955312950647"><ele>296.0</ele><time>2026-04-04T13:03:16Z</time></trkpt><trkpt lat="43.20145131832491" lon="11.145803429413176"><ele>297.6</ele><time>2026-04-04T13:03:17Z</time></trkpt><trkpt lat="43.201370957516964" lon="11.145669269537333"><ele>299.20000000000005</ele><time>2026-04-04T13:03:18Z</time></trkpt><trkpt lat="43.20129894492353" lon="11.145526336848315"><ele>300.79999999999995</ele><time>2026-04-04T13:03:19Z</time></trkpt><trkpt lat="43.20125199751042" lon="11.14540309726637"><ele>302.4</ele><time>2026-04-04T13:03:20Z</time></trkpt><trkpt lat="43.20122890224301" lon="11.145295633238481"><ele>304.0</ele><time>2026-04-04T13:03:21Z</time></trkpt><trkpt lat="43.20124559971203" lon="11.14515785228797"><ele>304.0</ele><time>2026-04-04T13:03:23Z</time></trkpt><trkpt lat="43.201348166380605" lon="11.14515862793581"><ele>304.0</ele><time>2026-04-04T13:03:25Z</time></trkpt><trkpt lat="43.20139653238067" lon="11.145221983591053"><ele>304.0</ele><time>2026-04-04T13:03:26Z</time></trkpt><trkpt lat="43.201412240053486" lon="11.145336691199535"><ele>304.0</ele><time>2026-04-04T13:03:27Z</time></trkpt><trkpt lat="43.2014570103019" lon="11.145434760278155"><ele>304.0</ele><time>2026-04-04T13:03:28Z</time></trkpt><trkpt lat="43.20149464327314" lon="11.145514668095421"><ele>304.0</ele><time>2026-04-04T13:03:29Z</time></trkpt><trkpt lat="43.20162930465694" lon="11.145522029276096"><ele>305.8333333333333</ele><time>2026-04-04T13:03:31Z</time></trkpt><trkpt lat="43.20168131138112" lon="11.14545031136709"><ele>307.66666666666663</ele><time>2026-04-04T13:03:32Z</time></trkpt><trkpt lat="43.201692494735795" lon="11.145342143024655"><ele>309.5</ele><time>2026-04-04T13:03:33Z</time></trkpt><trkpt lat="43.20168280755653" lon="11.145228940099763"><ele>311.3333333333333</ele><time>2026-04-04T13:03:34Z</time></trkpt><trkpt lat="43.20165397909187" lon="11.145110943192691"><ele>313.1666666666667</ele><time>2026-04-04T13:03:35Z</time></trkpt><trkpt lat="43.20165218101981" lon="11.144974395668529"><ele>315.0</ele><time>2026-04-04T13:03:36Z</time></trkpt><trkpt lat="43.20165365831245" lon="11.144853612879414"><ele>316.4</ele><time>2026-04-04T13:03:37Z</time></trkpt><trkpt lat="43.20166675500919" lon="11.144723399124226"><ele>317.8</ele><time>2026-04-04T13:03:38Z</time></trkpt><trkpt lat="43.20167508934432" lon="11.14458451044574"><ele>319.20000000000005</ele><time>2026-04-04T13:03:39Z</time></trkpt><trkpt lat="43.20170563238776" lon="11.144441047450792"><ele>320.6</ele><time>2026-04-04T13:03:40Z</time></trkpt><trkpt lat="43.2017379746678" lon="11.144291883933766"><ele>322.0</ele><time>2026-04-04T13:03:41Z</time></trkpt><trkpt lat="43.20177381744523" lon="11.144148145377637"><ele>323.6</ele><time>2026-04-04T13:03:42Z</time></trkpt><trkpt lat="43.20180621366281" lon="11.144025217163891"><ele>325.20000000000005</ele><time>2026-04-04T13:03:43Z</time></trkpt><trkpt lat="43.201820979765806" lon="11.143911971374807"><ele>326.8</ele><time>2026-04-04T13:03:44Z</time></trkpt><trkpt lat="43.2018014836495" lon="11.14379579599441"><ele>328.4</ele><time>2026-04-04T13:03:45Z</time></trkpt><trkpt lat="43.20173453948448" lon="11.143689546219807"><ele>330.0</ele><time>2026-04-04T13:03:46Z</time></trkpt><trkpt lat="43.20164072397204" lon="11.143593154960262"><ele>330.0</ele><time>2026-04-04T13:03:47Z</time></trkpt><trkpt lat="43.201523626516035" lon="11.143501661286962"><ele>330.0</ele><time>2026-04-04T13:03:48Z</time></trkpt><trkpt lat="43.20141847179418" lon="11.143431606638076"><ele>330.0</ele><time>2026-04-04T13:03:49Z</time></trkpt><trkpt lat="43.20130314680677" lon="11.143383521885017"><ele>330.0</ele><time>2026-04-04T13:03:50Z</time></trkpt><trkpt lat="43.20117708595826" lon="11.14336008123858"><ele>330.2</ele><time>2026-04-04T13:03:51Z</time></trkpt><trkpt lat="43.20106380526352" lon="11.143359633033798"><ele>330.4</ele><time>2026-04-04T13:03:52Z</time></trkpt><trkpt lat="43.20096132644196" lon="11.14332814761663"><ele>330.6</ele><time>2026-04-04T13:03:53Z</time></trkpt><trkpt lat="43.200862472703825" lon="11.14328909802228"><ele>330.8</ele><time>2026-04-04T13:03:54Z</time></trkpt><trkpt lat="43.20078512029677" lon="11.143214630795732"><ele>331.0</ele><time>2026-04-04T13:03:55Z</time></trkpt><trkpt lat="43.20072197015344" lon="11.143107344443845"><ele>331.0</ele><time>2026-04-04T13:03:56Z</time></trkpt><trkpt lat="43.200674016122406" lon="11.142971622115256"><ele>331.0</ele><time>2026-04-04T13:03:57Z</time></trkpt><trkpt lat="43.20061944827611" lon="11.142832742426554"><ele>331.0</ele><time>2026-04-04T13:03:58Z</time></trkpt><trkpt lat="43.20057167822649" lon="11.142691003983726"><ele>331.0</ele><time>2026-04-04T13:03:59Z</time></trkpt><trkpt lat="43.20053830482139" lon="11.142552228051487"><ele>331.0</ele><time>2026-04-04T13:04:00Z</time></trkpt><trkpt lat="43.200521096191636" lon="11.142422006084134"><ele>329.0</ele><time>2026-04-04T13:04:01Z</time></trkpt><trkpt lat="43.20052039155493" lon="11.142288665763324"><ele>327.0</ele><time>2026-04-04T13:04:02Z</time></trkpt><trkpt lat="43.200552658513736" lon="11.142162179255804"><ele>325.0</ele><time>2026-04-04T13:04:03Z</time></trkpt><trkpt lat="43.200587826627945" lon="11.142028054397496"><ele>323.0</ele><time>2026-04-04T13:04:04Z</time></trkpt><trkpt lat="43.20062085434689" lon="11.141883757281219"><ele>321.0</ele><time>2026-04-04T13:04:05Z</time></trkpt><trkpt lat="43.20065095029782" lon="11.141731096198201"><ele>321.0</ele><time>2026-04-04T13:04:06Z</time></trkpt><trkpt lat="43.20066253740861" lon="11.1415641722376"><ele>321.0</ele><time>2026-04-04T13:04:07Z</time></trkpt><trkpt lat="43.20066329699916" lon="11.141382833009581"><ele>321.0</ele><time>2026-04-04T13:04:08Z</time></trkpt><trkpt lat="43.20069986655791" lon="11.14121816960423"><ele>321.0</ele><time>2026-04-04T13:04:09Z</time></trkpt><trkpt lat="43.20074988313998" lon="11.141051893258162"><ele>322.5</ele><time>2026-04-04T13:04:10Z</time></trkpt><trkpt lat="43.200817037084484" lon="11.140888663092515"><ele>324.0</ele><time>2026-04-04T13:04:11Z</time></trkpt><trkpt lat="43.20087784644961" lon="11.140725761198686"><ele>325.5</ele><time>2026-04-04T13:04:12Z</time></trkpt><trkpt lat="43.200964058191474" lon="11.140564118967704"><ele>327.0</ele><time>2026-04-04T13:04:13Z</time></trkpt><trkpt lat="43.20105600386646" lon="11.140394751018208"><ele>327.0</ele><time>2026-04-04T13:04:14Z</time></trkpt><trkpt lat="43.20115778667848" lon="11.140228489378334"><ele>327.0</ele><time>2026-04-04T13:04:15Z</time></trkpt><trkpt lat="43.20122658124476" lon="11.140049823033747"><ele>327.0</ele><time>2026-04-04T13:04:16Z</time></trkpt><trkpt lat="43.20129616775007" lon="11.13989666819158"><ele>327.0</ele><time>2026-04-04T13:04:17Z</time></trkpt><trkpt lat="43.201380115529666" lon="11.139768600697476"><ele>325.5</ele><time>2026-04-04T13:04:18Z</time></trkpt><trkpt lat="43.20141860031941" lon="11.139605720058562"><ele>324.0</ele><time>2026-04-04T13:04:19Z</time></trkpt><trkpt lat="43.20144473094841" lon="11.139436240657352"><ele>322.5</ele><time>2026-04-04T13:04:20Z</time></trkpt><trkpt lat="43.20144480677984" lon="11.139237578268272"><ele>321.0</ele><time>2026-04-04T13:04:21Z</time></trkpt><trkpt lat="43.201432282501145" lon="11.139045313188795"><ele>320.75</ele><time>2026-04-04T13:04:22Z</time></trkpt><trkpt lat="43.20141924980985" lon="11.138867176148041"><ele>320.5</ele><time>2026-04-04T13:04:23Z</time></trkpt><trkpt lat="43.20141517841935" lon="11.138692088611299"><ele>320.25</ele><time>2026-04-04T13:04:24Z</time></trkpt><trkpt lat="43.20144211605023" lon="11.138532260282725"><ele>320.0</ele><time>2026-04-04T13:04:25Z</time></trkpt><trkpt lat="43.20147118186891" lon="11.138381010310683"><ele>321.25</ele><time>2026-04-04T13:04:26Z</time></trkpt><trkpt lat="43.201531928366045" lon="11.138235862877268"><ele>322.5</ele><time>2026-04-04T13:04:27Z</time></trkpt><trkpt lat="43.20160308121551" lon="11.138082002274611"><ele>323.75</ele><time>2026-04-04T13:04:28Z</time></trkpt><trkpt lat="43.20164076489482" lon="11.137918984042376"><ele>325.0</ele><time>2026-04-04T13:04:29Z</time></trkpt><trkpt lat="43.20167231902684" lon="11.137768752752446"><ele>325.0</ele><time>2026-04-04T13:04:30Z</time></trkpt><trkpt lat="43.201682111364846" lon="11.137588846219726"><ele>325.0</ele><time>2026-04-04T13:04:31Z</time></trkpt><trkpt lat="43.20166534816872" lon="11.137417409640467"><ele>325.0</ele><time>2026-04-04T13:04:32Z</time></trkpt><trkpt lat="43.20163152854315" lon="11.137257515019432"><ele>325.0</ele><time>2026-04-04T13:04:33Z</time></trkpt><trkpt lat="43.201618250041314" lon="11.137091621020732"><ele>324.25</ele><time>2026-04-04T13:04:34Z</time></trkpt><trkpt lat="43.2016187889124" lon="11.136924754508138"><ele>323.5</ele><time>2026-04-04T13:04:35Z</time></trkpt><trkpt lat="43.201642599299376" lon="11.136761925962345"><ele>322.75</ele><time>2026-04-04T13:04:36Z</time></trkpt><trkpt lat="43.20168878847037" lon="11.136602909493972"><ele>322.0</ele><time>2026-04-04T13:04:37Z</time></trkpt><trkpt lat="43.201741835353204" lon="11.136452694841143"><ele>319.75</ele><time>2026-04-04T13:04:38Z</time></trkpt><trkpt lat="43.201816370663174" lon="11.136298730648763"><ele>317.5</ele><time>2026-04-04T13:04:39Z</time></trkpt><trkpt lat="43.201897053128455" lon="11.136153825261998"><ele>315.25</ele><time>2026-04-04T13:04:40Z</time></trkpt><trkpt lat="43.20198229385651" lon="11.13601026765751"><ele>313.0</ele><time>2026-04-04T13:04:41Z</time></trkpt><trkpt lat="43.20207257339885" lon="11.13586689100563"><ele>313.0</ele><time>2026-04-04T13:04:42Z</time></trkpt><trkpt lat="43.20216193790245" lon="11.135727090377847"><ele>313.0</ele><time>2026-04-04T13:04:43Z</time></trkpt><trkpt lat="43.20224471646841" lon="11.135597592855493"><ele>313.0</ele><time>2026-04-04T13:04:44Z</time></trkpt><trkpt lat="43.20232833340308" lon="11.13546376866285"><ele>313.0</ele><time>2026-04-04T13:04:45Z</time></trkpt><trkpt lat="43.202404681561106" lon="11.135307135170597"><ele>313.5</ele><time>2026-04-04T13:04:46Z</time></trkpt><trkpt lat="43.20247875820123" lon="11.135156467240357"><ele>314.0</ele><time>2026-04-04T13:04:47Z</time></trkpt><trkpt lat="43.20253794468871" lon="11.13500629494178"><ele>314.5</ele><time>2026-04-04T13:04:48Z</time></trkpt><trkpt lat="43.20259578375975" lon="11.134877056659017"><ele>315.0</ele><time>2026-04-04T13:04:49Z</time></trkpt><trkpt lat="43.202666430174936" lon="11.134784067197305"><ele>313.8</ele><time>2026-04-04T13:04:50Z</time></trkpt><trkpt lat="43.202763420900354" lon="11.134739470669887"><ele>312.6</ele><time>2026-04-04T13:04:51Z</time></trkpt><trkpt lat="43.2028421286726" lon="11.134678689450578"><ele>311.4</ele><time>2026-04-04T13:04:52Z</time></trkpt><trkpt lat="43.202895661539856" lon="11.134616764178439"><ele>310.2</ele><time>2026-04-04T13:04:53Z</time></trkpt><trkpt lat="43.202996776168945" lon="11.134559265676858"><ele>309.0</ele><time>2026-04-04T13:04:55Z</time></trkpt><trkpt lat="43.203044257677796" lon="11.134406193418842"><ele>309.0</ele><time>2026-04-04T13:04:57Z</time></trkpt><trkpt lat="43.20301726514824" lon="11.134315053516975"><ele>309.0</ele><time>2026-04-04T13:04:59Z</time></trkpt><trkpt lat="43.203061851487554" lon="11.134252409351086"><ele>309.0</ele><time>2026-04-04T13:05:01Z</time></trkpt><trkpt lat="43.202950710603304" lon="11.134245205647405"><ele>309.0</ele><time>2026-04-04T13:05:15Z</time></trkpt><trkpt lat="43.20293670877857" lon="11.134066149482509"><ele>309.0</ele><time>2026-04-04T13:05:18Z</time></trkpt><trkpt lat="43.202930425020206" lon="11.13394252141225"><ele>309.0</ele><time>2026-04-04T13:05:19Z</time></trkpt><trkpt lat="43.20293445778303" lon="11.133820421617129"><ele>309.0</ele><time>2026-04-04T13:05:20Z</time></trkpt><trkpt lat="43.20295484166838" lon="11.133717241839971"><ele>309.0</ele><time>2026-04-04T13:05:21Z</time></trkpt><trkpt lat="43.20299615921091" lon="11.1336228681922"><ele>309.0</ele><time>2026-04-04T13:05:22Z</time></trkpt><trkpt lat="43.20306771292708" lon="11.13353115751174"><ele>309.0</ele><time>2026-04-04T13:05:23Z</time></trkpt><trkpt lat="43.203150637398785" lon="11.133456619292183"><ele>309.0</ele><time>2026-04-04T13:05:24Z</time></trkpt><trkpt lat="43.203243363194915" lon="11.133392464628233"><ele>309.0</ele><time>2026-04-04T13:05:25Z</time></trkpt><trkpt lat="43.203338682460156" lon="11.133308509457676"><ele>309.0</ele><time>2026-04-04T13:05:26Z</time></trkpt><trkpt lat="43.203430526977996" lon="11.133215673911824"><ele>309.0</ele><time>2026-04-04T13:05:27Z</time></trkpt><trkpt lat="43.2035031215598" lon="11.13310856459014"><ele>309.0</ele><time>2026-04-04T13:05:28Z</time></trkpt><trkpt lat="43.20356669720057" lon="11.132991845627183"><ele>309.0</ele><time>2026-04-04T13:05:29Z</time></trkpt><trkpt lat="43.203651388538276" lon="11.132895606998325"><ele>308.2</ele><time>2026-04-04T13:05:30Z</time></trkpt><trkpt lat="43.20372890492019" lon="11.132793284683537"><ele>307.4</ele><time>2026-04-04T13:05:31Z</time></trkpt><trkpt lat="43.20380511203241" lon="11.132701866527032"><ele>306.6</ele><time>2026-04-04T13:05:32Z</time></trkpt><trkpt lat="43.2039032737713" lon="11.132655502203614"><ele>305.8</ele><time>2026-04-04T13:05:33Z</time></trkpt><trkpt lat="43.20399548278643" lon="11.132563196509853"><ele>305.0</ele><time>2026-04-04T13:05:34Z</time></trkpt><trkpt lat="43.204109150088954" lon="11.132503824286173"><ele>305.0</ele><time>2026-04-04T13:05:35Z</time></trkpt><trkpt lat="43.20420757175926" lon="11.132442045220303"><ele>305.0</ele><time>2026-04-04T13:05:36Z</time></trkpt><trkpt lat="43.20428791845972" lon="11.13234424146615"><ele>305.0</ele><time>2026-04-04T13:05:37Z</time></trkpt><trkpt lat="43.204364132448305" lon="11.132260631362199"><ele>305.0</ele><time>2026-04-04T13:05:38Z</time></trkpt><trkpt lat="43.20442832546709" lon="11.132138391132713"><ele>305.0</ele><time>2026-04-04T13:05:39Z</time></trkpt><trkpt lat="43.20446711115827" lon="11.131987525919516"><ele>302.25</ele><time>2026-04-04T13:05:40Z</time></trkpt><trkpt lat="43.20448584316797" lon="11.13182566164705"><ele>299.5</ele><time>2026-04-04T13:05:41Z</time></trkpt><trkpt lat="43.20449286763131" lon="11.131665303580942"><ele>296.75</ele><time>2026-04-04T13:05:42Z</time></trkpt><trkpt lat="43.2045215601317" lon="11.131497854352268"><ele>294.0</ele><time>2026-04-04T13:05:43Z</time></trkpt><trkpt lat="43.20455373318942" lon="11.131330402349226"><ele>293.2</ele><time>2026-04-04T13:05:44Z</time></trkpt><trkpt lat="43.20460910701155" lon="11.131186265110887"><ele>292.4</ele><time>2026-04-04T13:05:45Z</time></trkpt><trkpt lat="43.20465613822017" lon="11.131055730053372"><ele>291.6</ele><time>2026-04-04T13:05:46Z</time></trkpt><trkpt lat="43.204706745918834" lon="11.130935301026613"><ele>290.8</ele><time>2026-04-04T13:05:47Z</time></trkpt><trkpt lat="43.204747257173835" lon="11.130807221175635"><ele>290.0</ele><time>2026-04-04T13:05:48Z</time></trkpt><trkpt lat="43.2047809834056" lon="11.13069386033807"><ele>290.0</ele><time>2026-04-04T13:05:49Z</time></trkpt><trkpt lat="43.204778561399564" lon="11.130568130239222"><ele>290.0</ele><time>2026-04-04T13:05:50Z</time></trkpt><trkpt lat="43.20475436195594" lon="11.130441058235201"><ele>290.0</ele><time>2026-04-04T13:05:51Z</time></trkpt><trkpt lat="43.20470587113408" lon="11.13031098298051"><ele>290.0</ele><time>2026-04-04T13:05:52Z</time></trkpt><trkpt lat="43.20466825445091" lon="11.130166154413761"><ele>290.0</ele><time>2026-04-04T13:05:53Z</time></trkpt><trkpt lat="43.204619238560355" lon="11.130045640593032"><ele>290.0</ele><time>2026-04-04T13:05:54Z</time></trkpt><trkpt lat="43.20454995429913" lon="11.129938360587138"><ele>290.0</ele><time>2026-04-04T13:05:55Z</time></trkpt><trkpt lat="43.204478071378546" lon="11.129834366079816"><ele>290.0</ele><time>2026-04-04T13:05:56Z</time></trkpt><trkpt lat="43.204430894491765" lon="11.12972532268856"><ele>290.0</ele><time>2026-04-04T13:05:57Z</time></trkpt><trkpt lat="43.20442569587473" lon="11.129595740604367"><ele>290.0</ele><time>2026-04-04T13:05:58Z</time></trkpt><trkpt lat="43.204443497423185" lon="11.129476201593025"><ele>291.8</ele><time>2026-04-04T13:05:59Z</time></trkpt><trkpt lat="43.20447404581317" lon="11.129346582936838"><ele>293.6</ele><time>2026-04-04T13:06:00Z</time></trkpt><trkpt lat="43.20451519709654" lon="11.129209545043492"><ele>295.4</ele><time>2026-04-04T13:06:01Z</time></trkpt><trkpt lat="43.204582131555334" lon="11.12909020658443"><ele>297.2</ele><time>2026-04-04T13:06:02Z</time></trkpt><trkpt lat="43.20465837330696" lon="11.12900061519431"><ele>299.0</ele><time>2026-04-04T13:06:03Z</time></trkpt><trkpt lat="43.20474560662275" lon="11.128966221672849"><ele>301.0</ele><time>2026-04-04T13:06:04Z</time></trkpt><trkpt lat="43.20483767692801" lon="11.128980417295292"><ele>303.0</ele><time>2026-04-04T13:06:05Z</time></trkpt><trkpt lat="43.20493840298748" lon="11.128982972848815"><ele>305.0</ele><time>2026-04-04T13:06:06Z</time></trkpt><trkpt lat="43.20504367981676" lon="11.128950652023496"><ele>307.0</ele><time>2026-04-04T13:06:07Z</time></trkpt><trkpt lat="43.20513484300593" lon="11.128869196171278"><ele>309.0</ele><time>2026-04-04T13:06:08Z</time></trkpt><trkpt lat="43.20519901789856" lon="11.128762602286974"><ele>309.0</ele><time>2026-04-04T13:06:09Z</time></trkpt><trkpt lat="43.20523668999603" lon="11.128631690450655"><ele>309.0</ele><time>2026-04-04T13:06:10Z</time></trkpt><trkpt lat="43.20525413146606" lon="11.128490620697516"><ele>309.0</ele><time>2026-04-04T13:06:11Z</time></trkpt><trkpt lat="43.20524395659696" lon="11.128347034005042"><ele>309.0</ele><time>2026-04-04T13:06:12Z</time></trkpt><trkpt lat="43.20519864151016" lon="11.128216136114904"><ele>309.0</ele><time>2026-04-04T13:06:13Z</time></trkpt><trkpt lat="43.20513329242621" lon="11.12810180894593"><ele>310.25</ele><time>2026-04-04T13:06:14Z</time></trkpt><trkpt lat="43.20504743383753" lon="11.12799483322673"><ele>311.5</ele><time>2026-04-04T13:06:15Z</time></trkpt><trkpt lat="43.20495207565669" lon="11.127875775043263"><ele>312.75</ele><time>2026-04-04T13:06:16Z</time></trkpt><trkpt lat="43.20484537335324" lon="11.127799108594905"><ele>314.0</ele><time>2026-04-04T13:06:17Z</time></trkpt><trkpt lat="43.204744694019894" lon="11.127767161544071"><ele>314.0</ele><time>2026-04-04T13:06:18Z</time></trkpt><trkpt lat="43.20465946982227" lon="11.127762192342162"><ele>314.0</ele><time>2026-04-04T13:06:19Z</time></trkpt><trkpt lat="43.20458199124723" lon="11.12775408297289"><ele>314.0</ele><time>2026-04-04T13:06:20Z</time></trkpt><trkpt lat="43.20453982192353" lon="11.127603131177112"><ele>314.0</ele><time>2026-04-04T13:06:22Z</time></trkpt><trkpt lat="43.20464445826438" lon="11.127529217135137"><ele>314.0</ele><time>2026-04-04T13:06:24Z</time></trkpt><trkpt lat="43.204716090089434" lon="11.12755251986134"><ele>314.0</ele><time>2026-04-04T13:06:25Z</time></trkpt><trkpt lat="43.204805813303516" lon="11.127560785512491"><ele>314.0</ele><time>2026-04-04T13:06:26Z</time></trkpt><trkpt lat="43.204911683353586" lon="11.127601313528501"><ele>314.0</ele><time>2026-04-04T13:06:27Z</time></trkpt><trkpt lat="43.20501992223196" lon="11.12758749606184"><ele>314.0</ele><time>2026-04-04T13:06:28Z</time></trkpt><trkpt lat="43.205126848474826" lon="11.127605331680636"><ele>314.0</ele><time>2026-04-04T13:06:29Z</time></trkpt><trkpt lat="43.20523655098011" lon="11.127598132634676"><ele>314.8</ele><time>2026-04-04T13:06:30Z</time></trkpt><trkpt lat="43.205334544752155" lon="11.12757564462773"><ele>315.59999999999997</ele><time>2026-04-04T13:06:31Z</time></trkpt><trkpt lat="43.2054282309261" lon="11.12750848552807"><ele>316.4</ele><time>2026-04-04T13:06:32Z</time></trkpt><trkpt lat="43.205506118737965" lon="11.12741158448997"><ele>317.2</ele><time>2026-04-04T13:06:33Z</time></trkpt><trkpt lat="43.205568499239206" lon="11.12728630670258"><ele>318.0</ele><time>2026-04-04T13:06:34Z</time></trkpt><trkpt lat="43.205635400963075" lon="11.127178539353599"><ele>318.6</ele><time>2026-04-04T13:06:35Z</time></trkpt><trkpt lat="43.205715870657514" lon="11.127096793424496"><ele>319.20000000000005</ele><time>2026-04-04T13:06:36Z</time></trkpt><trkpt lat="43.20580800832573" lon="11.127056543142208"><ele>319.8</ele><time>2026-04-04T13:06:37Z</time></trkpt><trkpt lat="43.205901029345995" lon="11.127008765869943"><ele>320.40000000000003</ele><time>2026-04-04T13:06:38Z</time></trkpt><trkpt lat="43.20599832601769" lon="11.126943437982511"><ele>321.0</ele><time>2026-04-04T13:06:39Z</time></trkpt><trkpt lat="43.20607879902286" lon="11.126815073100364"><ele>321.0</ele><time>2026-04-04T13:06:40Z</time></trkpt><trkpt lat="43.20615118645591" lon="11.126676631473204"><ele>321.0</ele><time>2026-04-04T13:06:41Z</time></trkpt><trkpt lat="43.20620327667666" lon="11.126519276335417"><ele>321.0</ele><time>2026-04-04T13:06:42Z</time></trkpt><trkpt lat="43.20627402052493" lon="11.126389795966533"><ele>321.0</ele><time>2026-04-04T13:06:43Z</time></trkpt><trkpt lat="43.20634402208789" lon="11.126288220860456"><ele>320.6</ele><time>2026-04-04T13:06:44Z</time></trkpt><trkpt lat="43.20641914688394" lon="11.126233755358902"><ele>320.20000000000005</ele><time>2026-04-04T13:06:45Z</time></trkpt><trkpt lat="43.20651056087341" lon="11.126250410580658"><ele>319.79999999999995</ele><time>2026-04-04T13:06:46Z</time></trkpt><trkpt lat="43.20661043492623" lon="11.126283640974158"><ele>319.4</ele><time>2026-04-04T13:06:47Z</time></trkpt><trkpt lat="43.20671992557171" lon="11.126300421317703"><ele>319.0</ele><time>2026-04-04T13:06:48Z</time></trkpt><trkpt lat="43.206831141709586" lon="11.12633667150095"><ele>319.0</ele><time>2026-04-04T13:06:49Z</time></trkpt><trkpt lat="43.2069491757414" lon="11.126361199734921"><ele>319.0</ele><time>2026-04-04T13:06:50Z</time></trkpt><trkpt lat="43.2070686053939" lon="11.126383513006681"><ele>319.0</ele><time>2026-04-04T13:06:51Z</time></trkpt><trkpt lat="43.207181987158215" lon="11.126409501811183"><ele>319.0</ele><time>2026-04-04T13:06:52Z</time></trkpt><trkpt lat="43.20730453016848" lon="11.126437280496488"><ele>320.75</ele><time>2026-04-04T13:06:53Z</time></trkpt><trkpt lat="43.20743533644238" lon="11.126469091187355"><ele>322.5</ele><time>2026-04-04T13:06:54Z</time></trkpt><trkpt lat="43.20758332289005" lon="11.126506024913564"><ele>324.25</ele><time>2026-04-04T13:06:55Z</time></trkpt><trkpt lat="43.20772881509561" lon="11.126540980368214"><ele>326.0</ele><time>2026-04-04T13:06:56Z</time></trkpt><trkpt lat="43.207859605312166" lon="11.126569133168227"><ele>326.75</ele><time>2026-04-04T13:06:57Z</time></trkpt><trkpt lat="43.20798149750738" lon="11.126596308607347"><ele>327.5</ele><time>2026-04-04T13:06:58Z</time></trkpt><trkpt lat="43.20809452410968" lon="11.126642997552493"><ele>328.25</ele><time>2026-04-04T13:06:59Z</time></trkpt><trkpt lat="43.20819203781211" lon="11.126719829876807"><ele>329.0</ele><time>2026-04-04T13:07:00Z</time></trkpt><trkpt lat="43.2082693351771" lon="11.126817237692192"><ele>331.75</ele><time>2026-04-04T13:07:01Z</time></trkpt><trkpt lat="43.208349427427976" lon="11.126914749573308"><ele>334.5</ele><time>2026-04-04T13:07:02Z</time></trkpt><trkpt lat="43.2084458642714" lon="11.12697245366584"><ele>337.25</ele><time>2026-04-04T13:07:03Z</time></trkpt><trkpt lat="43.20856472314108" lon="11.126989323798144"><ele>340.0</ele><time>2026-04-04T13:07:04Z</time></trkpt><trkpt lat="43.20868523690871" lon="11.126978557288622"><ele>340.0</ele><time>2026-04-04T13:07:05Z</time></trkpt><trkpt lat="43.208814212664" lon="11.12695905540812"><ele>340.0</ele><time>2026-04-04T13:07:06Z</time></trkpt><trkpt lat="43.20894299590436" lon="11.126948427383338"><ele>340.0</ele><time>2026-04-04T13:07:07Z</time></trkpt><trkpt lat="43.209075170348896" lon="11.126935351295575"><ele>340.0</ele><time>2026-04-04T13:07:08Z</time></trkpt><trkpt lat="43.20920810122993" lon="11.12691545848923"><ele>342.0</ele><time>2026-04-04T13:07:09Z</time></trkpt><trkpt lat="43.20933158345964" lon="11.12688794366574"><ele>344.0</ele><time>2026-04-04T13:07:10Z</time></trkpt><trkpt lat="43.20946247468841" lon="11.126853147424947"><ele>346.0</ele><time>2026-04-04T13:07:11Z</time></trkpt><trkpt lat="43.209597820725236" lon="11.126812846194769"><ele>348.0</ele><time>2026-04-04T13:07:12Z</time></trkpt><trkpt lat="43.20972237529225" lon="11.126780844910082"><ele>349.0</ele><time>2026-04-04T13:07:13Z</time></trkpt><trkpt lat="43.20984917298045" lon="11.126761602060828"><ele>350.0</ele><time>2026-04-04T13:07:14Z</time></trkpt><trkpt lat="43.20997585047908" lon="11.126762725029268"><ele>351.0</ele><time>2026-04-04T13:07:15Z</time></trkpt><trkpt lat="43.21009060204841" lon="11.126820717929938"><ele>352.0</ele><time>2026-04-04T13:07:16Z</time></trkpt><trkpt lat="43.21020888380165" lon="11.126831264412532"><ele>352.0</ele><time>2026-04-04T13:07:17Z</time></trkpt><trkpt lat="43.21032212936595" lon="11.126765569342561"><ele>352.0</ele><time>2026-04-04T13:07:18Z</time></trkpt><trkpt lat="43.21042595733154" lon="11.126683395248548"><ele>352.0</ele><time>2026-04-04T13:07:19Z</time></trkpt><trkpt lat="43.210502596074996" lon="11.126553796747466"><ele>352.0</ele><time>2026-04-04T13:07:20Z</time></trkpt><trkpt lat="43.21057433611346" lon="11.126401270627229"><ele>353.25</ele><time>2026-04-04T13:07:21Z</time></trkpt><trkpt lat="43.2106624527075" lon="11.126247884163208"><ele>354.5</ele><time>2026-04-04T13:07:22Z</time></trkpt><trkpt lat="43.21075089733916" lon="11.126097626348335"><ele>355.75</ele><time>2026-04-04T13:07:23Z</time></trkpt><trkpt lat="43.21083854272024" lon="11.125955834933398"><ele>357.0</ele><time>2026-04-04T13:07:24Z</time></trkpt><trkpt lat="43.21093710570587" lon="11.125832181124045"><ele>356.5</ele><time>2026-04-04T13:07:25Z</time></trkpt><trkpt lat="43.211047825241316" lon="11.125710922704734"><ele>356.0</ele><time>2026-04-04T13:07:26Z</time></trkpt><trkpt lat="43.21116420365472" lon="11.125598550124383"><ele>355.5</ele><time>2026-04-04T13:07:27Z</time></trkpt><trkpt lat="43.211276066918956" lon="11.125480085877241"><ele>355.0</ele><time>2026-04-04T13:07:28Z</time></trkpt><trkpt lat="43.211411858700124" lon="11.125393451901894"><ele>358.5</ele><time>2026-04-04T13:07:29Z</time></trkpt><trkpt lat="43.21153662817779" lon="11.125309054623726"><ele>362.0</ele><time>2026-04-04T13:07:30Z</time></trkpt><trkpt lat="43.21166470263208" lon="11.125230287677375"><ele>365.5</ele><time>2026-04-04T13:07:31Z</time></trkpt><trkpt lat="43.211795210951166" lon="11.12515234653373"><ele>369.0</ele><time>2026-04-04T13:07:32Z</time></trkpt><trkpt lat="43.21192263837788" lon="11.125068524896749"><ele>369.0</ele><time>2026-04-04T13:07:33Z</time></trkpt><trkpt lat="43.21204902561951" lon="11.125021196329524"><ele>369.0</ele><time>2026-04-04T13:07:34Z</time></trkpt><trkpt lat="43.212165196388604" lon="11.124959550488862"><ele>369.0</ele><time>2026-04-04T13:07:35Z</time></trkpt><trkpt lat="43.21228391063351" lon="11.12487298606824"><ele>369.0</ele><time>2026-04-04T13:07:36Z</time></trkpt><trkpt lat="43.21240469888677" lon="11.124768387713665"><ele>371.0</ele><time>2026-04-04T13:07:37Z</time></trkpt><trkpt lat="43.21252587161531" lon="11.124658171581356"><ele>373.0</ele><time>2026-04-04T13:07:38Z</time></trkpt><trkpt lat="43.212646765195686" lon="11.124563021889768"><ele>375.0</ele><time>2026-04-04T13:07:39Z</time></trkpt><trkpt lat="43.21276691223733" lon="11.124466914994052"><ele>377.0</ele><time>2026-04-04T13:07:40Z</time></trkpt><trkpt lat="43.21288846309098" lon="11.124369604562364"><ele>377.0</ele><time>2026-04-04T13:07:41Z</time></trkpt><trkpt lat="43.21301223198083" lon="11.12431022238905"><ele>377.0</ele><time>2026-04-04T13:07:42Z</time></trkpt><trkpt lat="43.21312776847824" lon="11.124251733214534"><ele>377.0</ele><time>2026-04-04T13:07:43Z</time></trkpt><trkpt lat="43.21324829460955" lon="11.124192965577926"><ele>377.0</ele><time>2026-04-04T13:07:44Z</time></trkpt><trkpt lat="43.213365476562" lon="11.124116761238737"><ele>375.75</ele><time>2026-04-04T13:07:45Z</time></trkpt><trkpt lat="43.21349403321009" lon="11.12407442449917"><ele>374.5</ele><time>2026-04-04T13:07:46Z</time></trkpt><trkpt lat="43.21361883876557" lon="11.12403522767979"><ele>373.25</ele><time>2026-04-04T13:07:47Z</time></trkpt><trkpt lat="43.21373783035736" lon="11.123985632408225"><ele>372.0</ele><time>2026-04-04T13:07:48Z</time></trkpt><trkpt lat="43.21384533378493" lon="11.123898038782878"><ele>372.0</ele><time>2026-04-04T13:07:49Z</time></trkpt><trkpt lat="43.21394204512483" lon="11.123766058879303"><ele>372.0</ele><time>2026-04-04T13:07:50Z</time></trkpt><trkpt lat="43.21402645287453" lon="11.123608017538062"><ele>372.0</ele><time>2026-04-04T13:07:51Z</time></trkpt><trkpt lat="43.21410399349831" lon="11.123451675587706"><ele>372.0</ele><time>2026-04-04T13:07:52Z</time></trkpt><trkpt lat="43.21418628365348" lon="11.123287386150306"><ele>374.5</ele><time>2026-04-04T13:07:53Z</time></trkpt><trkpt lat="43.21426732287033" lon="11.12313417355009"><ele>377.0</ele><time>2026-04-04T13:07:54Z</time></trkpt><trkpt lat="43.21435276238568" lon="11.12300560589122"><ele>379.5</ele><time>2026-04-04T13:07:55Z</time></trkpt><trkpt lat="43.21445941090113" lon="11.122889145148143"><ele>382.0</ele><time>2026-04-04T13:07:56Z</time></trkpt><trkpt lat="43.21458203327565" lon="11.12278897477119"><ele>382.0</ele><time>2026-04-04T13:07:57Z</time></trkpt><trkpt lat="43.21470187803348" lon="11.122694849648491"><ele>382.0</ele><time>2026-04-04T13:07:58Z</time></trkpt><trkpt lat="43.21480450621068" lon="11.122606372791005"><ele>382.0</ele><time>2026-04-04T13:07:59Z</time></trkpt><trkpt lat="43.21489533050496" lon="11.122497397839275"><ele>382.0</ele><time>2026-04-04T13:08:00Z</time></trkpt><trkpt lat="43.214979081208874" lon="11.122359651496406"><ele>380.5</ele><time>2026-04-04T13:08:01Z</time></trkpt><trkpt lat="43.21505045337361" lon="11.12219121498581"><ele>379.0</ele><time>2026-04-04T13:08:02Z</time></trkpt><trkpt lat="43.2151166100118" lon="11.122026975906316"><ele>377.5</ele><time>2026-04-04T13:08:03Z</time></trkpt><trkpt lat="43.215193689373336" lon="11.121897700232386"><ele>376.0</ele><time>2026-04-04T13:08:04Z</time></trkpt><trkpt lat="43.21526805983154" lon="11.12178308918442"><ele>376.0</ele><time>2026-04-04T13:08:05Z</time></trkpt><trkpt lat="43.21535697547315" lon="11.121696132942487"><ele>376.0</ele><time>2026-04-04T13:08:06Z</time></trkpt><trkpt lat="43.21544630498419" lon="11.121656165335457"><ele>376.0</ele><time>2026-04-04T13:08:07Z</time></trkpt><trkpt lat="43.21555550790658" lon="11.121648290590734"><ele>376.0</ele><time>2026-04-04T13:08:08Z</time></trkpt><trkpt lat="43.215689117527354" lon="11.121636997276608"><ele>376.0</ele><time>2026-04-04T13:08:09Z</time></trkpt><trkpt lat="43.2158296692977" lon="11.121609383620902"><ele>374.3333333333333</ele><time>2026-04-04T13:08:10Z</time></trkpt><trkpt lat="43.215977427715984" lon="11.121594934831307"><ele>372.6666666666667</ele><time>2026-04-04T13:08:11Z</time></trkpt><trkpt lat="43.216129221635626" lon="11.121571957789774"><ele>371.0</ele><time>2026-04-04T13:08:12Z</time></trkpt><trkpt lat="43.21628532802771" lon="11.121551620200346"><ele>371.0</ele><time>2026-04-04T13:08:13Z</time></trkpt><trkpt lat="43.21643426188139" lon="11.12153343334342"><ele>371.0</ele><time>2026-04-04T13:08:14Z</time></trkpt><trkpt lat="43.21659159267801" lon="11.121518364375572"><ele>371.0</ele><time>2026-04-04T13:08:15Z</time></trkpt><trkpt lat="43.21674619260669" lon="11.121501927220143"><ele>371.0</ele><time>2026-04-04T13:08:16Z</time></trkpt><trkpt lat="43.21689253148504" lon="11.121484468513483"><ele>371.0</ele><time>2026-04-04T13:08:17Z</time></trkpt><trkpt lat="43.21704448290029" lon="11.121466946818288"><ele>371.0</ele><time>2026-04-04T13:08:18Z</time></trkpt><trkpt lat="43.217189214385535" lon="11.121447164199395"><ele>371.0</ele><time>2026-04-04T13:08:19Z</time></trkpt><trkpt lat="43.21733169885301" lon="11.121426407185892"><ele>372.5</ele><time>2026-04-04T13:08:20Z</time></trkpt><trkpt lat="43.21747430589192" lon="11.121409961748292"><ele>374.0</ele><time>2026-04-04T13:08:21Z</time></trkpt><trkpt lat="43.217619191495565" lon="11.12139661397663"><ele>375.5</ele><time>2026-04-04T13:08:22Z</time></trkpt><trkpt lat="43.217766650002446" lon="11.121382913891969"><ele>377.0</ele><time>2026-04-04T13:08:23Z</time></trkpt><trkpt lat="43.2179111412199" lon="11.121362211230212"><ele>377.0</ele><time>2026-04-04T13:08:24Z</time></trkpt><trkpt lat="43.218055618157145" lon="11.12134596263168"><ele>377.0</ele><time>2026-04-04T13:08:25Z</time></trkpt><trkpt lat="43.21819913794789" lon="11.121326740473911"><ele>377.0</ele><time>2026-04-04T13:08:26Z</time></trkpt><trkpt lat="43.21835128426802" lon="11.121341371401524"><ele>377.0</ele><time>2026-04-04T13:08:27Z</time></trkpt><trkpt lat="43.218486590715635" lon="11.121348671482185"><ele>379.6666666666667</ele><time>2026-04-04T13:08:28Z</time></trkpt><trkpt lat="43.21863696764285" lon="11.121366113637905"><ele>382.33333333333337</ele><time>2026-04-04T13:08:29Z</time></trkpt><trkpt lat="43.218792238113416" lon="11.121379828573499"><ele>385.0</ele><time>2026-04-04T13:08:30Z</time></trkpt><trkpt lat="43.218945392094255" lon="11.121390135987797"><ele>385.5</ele><time>2026-04-04T13:08:31Z</time></trkpt><trkpt lat="43.219097613704875" lon="11.121401556110163"><ele>386.0</ele><time>2026-04-04T13:08:32Z</time></trkpt><trkpt lat="43.21923966632818" lon="11.121419027097055"><ele>386.5</ele><time>2026-04-04T13:08:33Z</time></trkpt><trkpt lat="43.21939348342498" lon="11.121430171317332"><ele>387.0</ele><time>2026-04-04T13:08:34Z</time></trkpt><trkpt lat="43.21952618652509" lon="11.121437537447528"><ele>387.0</ele><time>2026-04-04T13:08:35Z</time></trkpt><trkpt lat="43.219647968748234" lon="11.121450086424923"><ele>387.0</ele><time>2026-04-04T13:08:36Z</time></trkpt><trkpt lat="43.219750252964694" lon="11.12148189011181"><ele>387.0</ele><time>2026-04-04T13:08:37Z</time></trkpt><trkpt lat="43.219846627877494" lon="11.121532524555496"><ele>387.0</ele><time>2026-04-04T13:08:38Z</time></trkpt><trkpt lat="43.219930653784935" lon="11.121605353881199"><ele>387.0</ele><time>2026-04-04T13:08:39Z</time></trkpt><trkpt lat="43.21998167330304" lon="11.121696959377868"><ele>389.75</ele><time>2026-04-04T13:08:40Z</time></trkpt><trkpt lat="43.22000088185807" lon="11.121830571760468"><ele>392.5</ele><time>2026-04-04T13:08:41Z</time></trkpt><trkpt lat="43.22001214152118" lon="11.121974060669535"><ele>395.25</ele><time>2026-04-04T13:08:42Z</time></trkpt><trkpt lat="43.22000938921133" lon="11.122148766336187"><ele>398.0</ele><time>2026-04-04T13:08:43Z</time></trkpt><trkpt lat="43.22003533913305" lon="11.122326353850557"><ele>398.4</ele><time>2026-04-04T13:08:44Z</time></trkpt><trkpt lat="43.22004721931405" lon="11.122489245520029"><ele>398.79999999999995</ele><time>2026-04-04T13:08:45Z</time></trkpt><trkpt lat="43.2200774261136" lon="11.122633517014659"><ele>399.2</ele><time>2026-04-04T13:08:46Z</time></trkpt><trkpt lat="43.22013553330288" lon="11.122745398054317"><ele>399.6</ele><time>2026-04-04T13:08:47Z</time></trkpt><trkpt lat="43.220232192207355" lon="11.122834598897528"><ele>400.0</ele><time>2026-04-04T13:08:48Z</time></trkpt><trkpt lat="43.22034144565549" lon="11.12289067881456"><ele>400.0</ele><time>2026-04-04T13:08:49Z</time></trkpt><trkpt lat="43.220455391337055" lon="11.122905520349212"><ele>400.0</ele><time>2026-04-04T13:08:50Z</time></trkpt><trkpt lat="43.22057185351038" lon="11.122894509083572"><ele>400.0</ele><time>2026-04-04T13:08:51Z</time></trkpt><trkpt lat="43.22069249465362" lon="11.122879377353938"><ele>400.0</ele><time>2026-04-04T13:08:52Z</time></trkpt><trkpt lat="43.22080797488962" lon="11.122891870366136"><ele>396.5</ele><time>2026-04-04T13:08:53Z</time></trkpt><trkpt lat="43.2209180803366" lon="11.122933991276794"><ele>393.0</ele><time>2026-04-04T13:08:54Z</time></trkpt><trkpt lat="43.22100581600601" lon="11.1230295922945"><ele>389.5</ele><time>2026-04-04T13:08:55Z</time></trkpt><trkpt lat="43.221100998719635" lon="11.123130124004238"><ele>386.0</ele><time>2026-04-04T13:08:56Z</time></trkpt><trkpt lat="43.221217616077496" lon="11.123217390745008"><ele>387.5</ele><time>2026-04-04T13:08:57Z</time></trkpt><trkpt lat="43.221302812976255" lon="11.123331205675695"><ele>389.0</ele><time>2026-04-04T13:08:58Z</time></trkpt><trkpt lat="43.22139663835908" lon="11.12341053746612"><ele>390.5</ele><time>2026-04-04T13:08:59Z</time></trkpt><trkpt lat="43.22152210938016" lon="11.123431928782503"><ele>392.0</ele><time>2026-04-04T13:09:00Z</time></trkpt><trkpt lat="43.22164229233504" lon="11.123463872398284"><ele>392.0</ele><time>2026-04-04T13:09:01Z</time></trkpt><trkpt lat="43.221764818864095" lon="11.123432992163556"><ele>392.0</ele><time>2026-04-04T13:09:02Z</time></trkpt><trkpt lat="43.221881555584204" lon="11.123399762138272"><ele>392.0</ele><time>2026-04-04T13:09:03Z</time></trkpt><trkpt lat="43.22200869605668" lon="11.123370764812526"><ele>392.0</ele><time>2026-04-04T13:09:04Z</time></trkpt><trkpt lat="43.22213408868685" lon="11.123346727841524"><ele>392.0</ele><time>2026-04-04T13:09:05Z</time></trkpt><trkpt lat="43.22226518563158" lon="11.123322762609245"><ele>392.0</ele><time>2026-04-04T13:09:06Z</time></trkpt><trkpt lat="43.22239633271225" lon="11.123297978388027"><ele>392.0</ele><time>2026-04-04T13:09:07Z</time></trkpt><trkpt lat="43.2225293907466" lon="11.123271389518026"><ele>392.0</ele><time>2026-04-04T13:09:08Z</time></trkpt><trkpt lat="43.22266310457211" lon="11.123245860171965"><ele>393.25</ele><time>2026-04-04T13:09:09Z</time></trkpt><trkpt lat="43.22279883018807" lon="11.123208994384742"><ele>394.5</ele><time>2026-04-04T13:09:10Z</time></trkpt><trkpt lat="43.222923073343395" lon="11.123181081659123"><ele>395.75</ele><time>2026-04-04T13:09:11Z</time></trkpt><trkpt lat="43.22303550752191" lon="11.12314754109616"><ele>397.0</ele><time>2026-04-04T13:09:12Z</time></trkpt><trkpt lat="43.22313007015417" lon="11.123164749273446"><ele>398.25</ele><time>2026-04-04T13:09:13Z</time></trkpt><trkpt lat="43.223221374464" lon="11.123192822673788"><ele>399.5</ele><time>2026-04-04T13:09:14Z</time></trkpt><trkpt lat="43.22333299512265" lon="11.123217358010212"><ele>400.75</ele><time>2026-04-04T13:09:15Z</time></trkpt><trkpt lat="43.223443613210634" lon="11.123300022912195"><ele>402.0</ele><time>2026-04-04T13:09:16Z</time></trkpt><trkpt lat="43.223559803992686" lon="11.123374733595755"><ele>403.40000000000003</ele><time>2026-04-04T13:09:17Z</time></trkpt><trkpt lat="43.2236835747845" lon="11.123415833710357"><ele>404.8</ele><time>2026-04-04T13:09:18Z</time></trkpt><trkpt lat="43.22378151785274" lon="11.123475141646978"><ele>406.2</ele><time>2026-04-04T13:09:19Z</time></trkpt><trkpt lat="43.223871789313726" lon="11.12347713251503"><ele>407.6</ele><time>2026-04-04T13:09:20Z</time></trkpt><trkpt lat="43.22395306927722" lon="11.123456135419707"><ele>409.0</ele><time>2026-04-04T13:09:21Z</time></trkpt><trkpt lat="43.22405662101625" lon="11.123487421338421"><ele>409.0</ele><time>2026-04-04T13:09:23Z</time></trkpt><trkpt lat="43.2240797546905" lon="11.123621253975283"><ele>409.0</ele><time>2026-04-04T13:09:25Z</time></trkpt><trkpt lat="43.224039250490215" lon="11.12371118122703"><ele>409.0</ele><time>2026-04-04T13:09:26Z</time></trkpt><trkpt lat="43.224015011428115" lon="11.123832362296108"><ele>409.0</ele><time>2026-04-04T13:09:27Z</time></trkpt><trkpt lat="43.22396649113615" lon="11.123967218616123"><ele>409.0</ele><time>2026-04-04T13:09:28Z</time></trkpt><trkpt lat="43.22394185563678" lon="11.124097363024541"><ele>408.50000000000006</ele><time>2026-04-04T13:09:29Z</time></trkpt><trkpt lat="43.22393707800461" lon="11.124209880257872"><ele>408.0</ele><time>2026-04-04T13:09:30Z</time></trkpt><trkpt lat="43.2239707335124" lon="11.124292536906296"><ele>407.5</ele><time>2026-04-04T13:09:31Z</time></trkpt><trkpt lat="43.22403199170953" lon="11.124341264568423"><ele>407.0</ele><time>2026-04-04T13:09:32Z</time></trkpt><trkpt lat="43.22410546372221" lon="11.12432932521924"><ele>406.50000000000006</ele><time>2026-04-04T13:09:33Z</time></trkpt><trkpt lat="43.22417729246699" lon="11.124286071564953"><ele>406.0</ele><time>2026-04-04T13:09:34Z</time></trkpt><trkpt lat="43.22425803575845" lon="11.124212905554764"><ele>408.4</ele><time>2026-04-04T13:09:35Z</time></trkpt><trkpt lat="43.224347307380995" lon="11.124151065020857"><ele>410.8</ele><time>2026-04-04T13:09:36Z</time></trkpt><trkpt lat="43.22444035202943" lon="11.124136432049626"><ele>413.2</ele><time>2026-04-04T13:09:37Z</time></trkpt><trkpt lat="43.224539973247346" lon="11.124139436018961"><ele>415.59999999999997</ele><time>2026-04-04T13:09:38Z</time></trkpt><trkpt lat="43.22465300447422" lon="11.124156558960394"><ele>418.0</ele><time>2026-04-04T13:09:39Z</time></trkpt><trkpt lat="43.22476990401307" lon="11.124159535027124"><ele>419.4</ele><time>2026-04-04T13:09:40Z</time></trkpt><trkpt lat="43.22488634681071" lon="11.124162658187329"><ele>420.79999999999995</ele><time>2026-04-04T13:09:41Z</time></trkpt><trkpt lat="43.2250003799919" lon="11.124167072347953"><ele>422.2</ele><time>2026-04-04T13:09:42Z</time></trkpt><trkpt lat="43.22510442385499" lon="11.124174012214485"><ele>423.6</ele><time>2026-04-04T13:09:43Z</time></trkpt><trkpt lat="43.22517990925431" lon="11.12423824926277"><ele>425.0</ele><time>2026-04-04T13:09:44Z</time></trkpt><trkpt lat="43.22525255881467" lon="11.124288942480593"><ele>425.0</ele><time>2026-04-04T13:09:45Z</time></trkpt><trkpt lat="43.22533547719117" lon="11.124322855233638"><ele>425.0</ele><time>2026-04-04T13:09:46Z</time></trkpt><trkpt lat="43.22542223710889" lon="11.124384430199704"><ele>425.0</ele><time>2026-04-04T13:09:47Z</time></trkpt><trkpt lat="43.22552953299133" lon="11.124424806524477"><ele>425.0</ele><time>2026-04-04T13:09:48Z</time></trkpt><trkpt lat="43.22564526016986" lon="11.124436906203586"><ele>425.0</ele><time>2026-04-04T13:09:49Z</time></trkpt><trkpt lat="43.2257465666236" lon="11.12447565690907"><ele>424.8</ele><time>2026-04-04T13:09:50Z</time></trkpt><trkpt lat="43.22584455009959" lon="11.124527787014244"><ele>424.6</ele><time>2026-04-04T13:09:51Z</time></trkpt><trkpt lat="43.22592683193344" lon="11.124572833852092"><ele>424.4</ele><time>2026-04-04T13:09:52Z</time></trkpt><trkpt lat="43.22602107538838" lon="11.124665135739415"><ele>424.2</ele><time>2026-04-04T13:09:53Z</time></trkpt><trkpt lat="43.22613417699919" lon="11.124753792541139"><ele>424.0</ele><time>2026-04-04T13:09:54Z</time></trkpt><trkpt lat="43.22624771475077" lon="11.124818805123668"><ele>424.0</ele><time>2026-04-04T13:09:55Z</time></trkpt><trkpt lat="43.226350940690914" lon="11.124843152713279"><ele>424.0</ele><time>2026-04-04T13:09:56Z</time></trkpt><trkpt lat="43.22646405125472" lon="11.124829031713059"><ele>424.0</ele><time>2026-04-04T13:09:57Z</time></trkpt><trkpt lat="43.22657969578032" lon="11.124851569598542"><ele>424.0</ele><time>2026-04-04T13:09:58Z</time></trkpt><trkpt lat="43.22670463239307" lon="11.12482975750422"><ele>422.2</ele><time>2026-04-04T13:09:59Z</time></trkpt><trkpt lat="43.22681749167814" lon="11.124852545764394"><ele>420.4</ele><time>2026-04-04T13:10:00Z</time></trkpt><trkpt lat="43.22692506762958" lon="11.124850827672889"><ele>418.6</ele><time>2026-04-04T13:10:01Z</time></trkpt><trkpt lat="43.22702961877102" lon="11.12481228087606"><ele>416.8</ele><time>2026-04-04T13:10:02Z</time></trkpt><trkpt lat="43.227134928158954" lon="11.124768459005665"><ele>415.0</ele><time>2026-04-04T13:10:03Z</time></trkpt><trkpt lat="43.22725060367079" lon="11.1247257532315"><ele>414.8</ele><time>2026-04-04T13:10:04Z</time></trkpt><trkpt lat="43.22734750716718" lon="11.124697832121049"><ele>414.6</ele><time>2026-04-04T13:10:05Z</time></trkpt><trkpt lat="43.2274329843226" lon="11.124668118748712"><ele>414.4</ele><time>2026-04-04T13:10:06Z</time></trkpt><trkpt lat="43.227524619953904" lon="11.124672449560487"><ele>414.2</ele><time>2026-04-04T13:10:07Z</time></trkpt><trkpt lat="43.22762411638588" lon="11.124753251985156"><ele>414.0</ele><time>2026-04-04T13:10:08Z</time></trkpt><trkpt lat="43.22772900164036" lon="11.12482276540953"><ele>414.0</ele><time>2026-04-04T13:10:09Z</time></trkpt><trkpt lat="43.22782779542259" lon="11.124855083819917"><ele>414.0</ele><time>2026-04-04T13:10:10Z</time></trkpt><trkpt lat="43.22791966478103" lon="11.124859973232212"><ele>414.0</ele><time>2026-04-04T13:10:11Z</time></trkpt><trkpt lat="43.2280400653039" lon="11.12481473601134"><ele>414.0</ele><time>2026-04-04T13:10:12Z</time></trkpt><trkpt lat="43.22813476015554" lon="11.124787270539127"><ele>414.0</ele><time>2026-04-04T13:10:13Z</time></trkpt><trkpt lat="43.22824393820499" lon="11.124784291504563"><ele>414.2</ele><time>2026-04-04T13:10:14Z</time></trkpt><trkpt lat="43.22833522525577" lon="11.124794512152118"><ele>414.4</ele><time>2026-04-04T13:10:15Z</time></trkpt><trkpt lat="43.22839099804129" lon="11.124877965491995"><ele>414.6</ele><time>2026-04-04T13:10:16Z</time></trkpt><trkpt lat="43.22844841761621" lon="11.124970052777842"><ele>414.8</ele><time>2026-04-04T13:10:17Z</time></trkpt><trkpt lat="43.2285242535138" lon="11.125103139806404"><ele>415.0</ele><time>2026-04-04T13:10:18Z</time></trkpt><trkpt lat="43.228586131888015" lon="11.125240771195747"><ele>416.75</ele><time>2026-04-04T13:10:19Z</time></trkpt><trkpt lat="43.22866751790262" lon="11.125386881141099"><ele>418.5</ele><time>2026-04-04T13:10:20Z</time></trkpt><trkpt lat="43.22875516205375" lon="11.125535015922448"><ele>420.25</ele><time>2026-04-04T13:10:21Z</time></trkpt><trkpt lat="43.22885123603995" lon="11.12564965627483"><ele>422.0</ele><time>2026-04-04T13:10:22Z</time></trkpt><trkpt lat="43.22892117351146" lon="11.125750263290739"><ele>422.6</ele><time>2026-04-04T13:10:23Z</time></trkpt><trkpt lat="43.22901492303552" lon="11.125841273458509"><ele>423.20000000000005</ele><time>2026-04-04T13:10:24Z</time></trkpt><trkpt lat="43.229075681389" lon="11.125960772616665"><ele>423.8</ele><time>2026-04-04T13:10:25Z</time></trkpt><trkpt lat="43.22914573781955" lon="11.126047286375758"><ele>424.4</ele><time>2026-04-04T13:10:26Z</time></trkpt><trkpt lat="43.22919912454856" lon="11.12612020193661"><ele>425.0</ele><time>2026-04-04T13:10:27Z</time></trkpt><trkpt lat="43.22925271016948" lon="11.126171854953261"><ele>425.0</ele><time>2026-04-04T13:10:28Z</time></trkpt><trkpt lat="43.22932845544598" lon="11.126180598844146"><ele>425.0</ele><time>2026-04-04T13:10:30Z</time></trkpt><trkpt lat="43.229373333035994" lon="11.126080461535032"><ele>425.0</ele><time>2026-04-04T13:10:32Z</time></trkpt><trkpt lat="43.229427774382486" lon="11.125981742860835"><ele>425.0</ele><time>2026-04-04T13:10:33Z</time></trkpt><trkpt lat="43.229509885034055" lon="11.12586691136025"><ele>425.0</ele><time>2026-04-04T13:10:34Z</time></trkpt><trkpt lat="43.229622379951955" lon="11.12578279304434"><ele>425.25</ele><time>2026-04-04T13:10:35Z</time></trkpt><trkpt lat="43.229725409654954" lon="11.125664214264754"><ele>425.5</ele><time>2026-04-04T13:10:36Z</time></trkpt><trkpt lat="43.22982589441024" lon="11.125576758775527"><ele>425.75</ele><time>2026-04-04T13:10:37Z</time></trkpt><trkpt lat="43.22993003779472" lon="11.125499353548383"><ele>426.0</ele><time>2026-04-04T13:10:38Z</time></trkpt><trkpt lat="43.23003013129406" lon="11.12543409867233"><ele>423.25</ele><time>2026-04-04T13:10:39Z</time></trkpt><trkpt lat="43.23013483896297" lon="11.125364770055238"><ele>420.5</ele><time>2026-04-04T13:10:40Z</time></trkpt><trkpt lat="43.23025750863549" lon="11.125339929566652"><ele>417.75</ele><time>2026-04-04T13:10:41Z</time></trkpt><trkpt lat="43.2303780420068" lon="11.12531322006428"><ele>415.0</ele><time>2026-04-04T13:10:42Z</time></trkpt><trkpt lat="43.23050359940084" lon="11.12526672515101"><ele>415.0</ele><time>2026-04-04T13:10:43Z</time></trkpt><trkpt lat="43.23062756092192" lon="11.125218192262526"><ele>415.0</ele><time>2026-04-04T13:10:44Z</time></trkpt><trkpt lat="43.23075058558446" lon="11.125184509260762"><ele>415.0</ele><time>2026-04-04T13:10:45Z</time></trkpt><trkpt lat="43.23087408497712" lon="11.125171759939969"><ele>415.0</ele><time>2026-04-04T13:10:46Z</time></trkpt><trkpt lat="43.2309928583119" lon="11.125141285103137"><ele>415.6</ele><time>2026-04-04T13:10:47Z</time></trkpt><trkpt lat="43.23109687792371" lon="11.125086841346345"><ele>416.2</ele><time>2026-04-04T13:10:48Z</time></trkpt><trkpt lat="43.23120246990963" lon="11.12503822711648"><ele>416.79999999999995</ele><time>2026-04-04T13:10:49Z</time></trkpt><trkpt lat="43.23130404731628" lon="11.125078697298015"><ele>417.4</ele><time>2026-04-04T13:10:50Z</time></trkpt><trkpt lat="43.23141180453569" lon="11.125062260286713"><ele>418.0</ele><time>2026-04-04T13:10:51Z</time></trkpt><trkpt lat="43.23152430792415" lon="11.125024365347626"><ele>418.25</ele><time>2026-04-04T13:10:52Z</time></trkpt><trkpt lat="43.23163590446478" lon="11.124953360139466"><ele>418.5</ele><time>2026-04-04T13:10:53Z</time></trkpt><trkpt lat="43.23174165610158" lon="11.124947087413316"><ele>418.75</ele><time>2026-04-04T13:10:54Z</time></trkpt><trkpt lat="43.23185863067843" lon="11.12496443954791"><ele>419.0</ele><time>2026-04-04T13:10:55Z</time></trkpt><trkpt lat="43.23197969314525" lon="11.124976083164347"><ele>419.0</ele><time>2026-04-04T13:10:56Z</time></trkpt><trkpt lat="43.232095100753305" lon="11.124983545759584"><ele>419.0</ele><time>2026-04-04T13:10:57Z</time></trkpt><trkpt lat="43.232215230707766" lon="11.124984348514966"><ele>419.0</ele><time>2026-04-04T13:10:58Z</time></trkpt><trkpt lat="43.232301646794966" lon="11.125040507483508"><ele>419.0</ele><time>2026-04-04T13:10:59Z</time></trkpt><trkpt lat="43.232379539627416" lon="11.125036815774678"><ele>419.0</ele><time>2026-04-04T13:11:00Z</time></trkpt><trkpt lat="43.23244074399514" lon="11.12506842497052"><ele>420.75</ele><time>2026-04-04T13:11:01Z</time></trkpt><trkpt lat="43.23254821448141" lon="11.12507380773198"><ele>422.5</ele><time>2026-04-04T13:11:03Z</time></trkpt><trkpt lat="43.23265742520644" lon="11.125065487616558"><ele>424.25</ele><time>2026-04-04T13:11:05Z</time></trkpt><trkpt lat="43.23280946907757" lon="11.125060179401492"><ele>426.0</ele><time>2026-04-04T13:11:07Z</time></trkpt><trkpt lat="43.2328971234808" lon="11.125040153605555"><ele>426.0</ele><time>2026-04-04T13:11:08Z</time></trkpt><trkpt lat="43.23299138804619" lon="11.125027972181163"><ele>426.0</ele><time>2026-04-04T13:11:09Z</time></trkpt><trkpt lat="43.233076570392" lon="11.125029197690916"><ele>426.0</ele><time>2026-04-04T13:11:10Z</time></trkpt><trkpt lat="43.233173152270965" lon="11.125026926468601"><ele>426.0</ele><time>2026-04-04T13:11:11Z</time></trkpt><trkpt lat="43.23325019513176" lon="11.125009254398622"><ele>426.0</ele><time>2026-04-04T13:11:12Z</time></trkpt><trkpt lat="43.233337534745736" lon="11.124979395984958"><ele>426.0</ele><time>2026-04-04T13:11:13Z</time></trkpt><trkpt lat="43.23341873408512" lon="11.124925456443435"><ele>427.4</ele><time>2026-04-04T13:11:14Z</time></trkpt><trkpt lat="43.23351110529546" lon="11.124876176421976"><ele>428.8</ele><time>2026-04-04T13:11:15Z</time></trkpt><trkpt lat="43.23359710533897" lon="11.124892706074245"><ele>430.19999999999993</ele><time>2026-04-04T13:11:16Z</time></trkpt><trkpt lat="43.233692874677914" lon="11.124875897559882"><ele>431.59999999999997</ele><time>2026-04-04T13:11:17Z</time></trkpt><trkpt lat="43.23378992995127" lon="11.12488960623234"><ele>433.0</ele><time>2026-04-04T13:11:18Z</time></trkpt><trkpt lat="43.23388434125565" lon="11.124869866324076"><ele>433.0</ele><time>2026-04-04T13:11:19Z</time></trkpt><trkpt lat="43.233956351772875" lon="11.124812440100667"><ele>432.99999999999994</ele><time>2026-04-04T13:11:20Z</time></trkpt><trkpt lat="43.2340037770639" lon="11.12471567718159"><ele>432.99999999999994</ele><time>2026-04-04T13:11:21Z</time></trkpt><trkpt lat="43.23403891022295" lon="11.124590109237863"><ele>433.0</ele><time>2026-04-04T13:11:22Z</time></trkpt><trkpt lat="43.23407324681204" lon="11.124438462387651"><ele>433.0</ele><time>2026-04-04T13:11:23Z</time></trkpt><trkpt lat="43.234104628300116" lon="11.124284351766349"><ele>434.6666666666667</ele><time>2026-04-04T13:11:24Z</time></trkpt><trkpt lat="43.23412940624275" lon="11.12414485312696"><ele>436.33333333333337</ele><time>2026-04-04T13:11:25Z</time></trkpt><trkpt lat="43.23416165094385" lon="11.124049070589416"><ele>438.0</ele><time>2026-04-04T13:11:26Z</time></trkpt><trkpt lat="43.23422791717179" lon="11.123973210074373"><ele>439.66666666666663</ele><time>2026-04-04T13:11:27Z</time></trkpt><trkpt lat="43.23431826697588" lon="11.123920327534206"><ele>441.3333333333333</ele><time>2026-04-04T13:11:28Z</time></trkpt><trkpt lat="43.234395565880895" lon="11.123895383359084"><ele>443.0</ele><time>2026-04-04T13:11:29Z</time></trkpt><trkpt lat="43.23446545299592" lon="11.123899560262975"><ele>443.0</ele><time>2026-04-04T13:11:30Z</time></trkpt><trkpt lat="43.23454561268792" lon="11.12394279440424"><ele>442.99999999999994</ele><time>2026-04-04T13:11:31Z</time></trkpt><trkpt lat="43.234640623708664" lon="11.123950779474452"><ele>442.99999999999994</ele><time>2026-04-04T13:11:32Z</time></trkpt><trkpt lat="43.23472820963346" lon="11.123979439385357"><ele>443.0</ele><time>2026-04-04T13:11:33Z</time></trkpt><trkpt lat="43.23480990269427" lon="11.123998761968823"><ele>443.0</ele><time>2026-04-04T13:11:34Z</time></trkpt><trkpt lat="43.23490403693045" lon="11.124024654743552"><ele>445.25</ele><time>2026-04-04T13:11:35Z</time></trkpt><trkpt lat="43.23501061030182" lon="11.124042295519839"><ele>447.5</ele><time>2026-04-04T13:11:36Z</time></trkpt><trkpt lat="43.23512655207257" lon="11.1240622755906"><ele>449.75</ele><time>2026-04-04T13:11:37Z</time></trkpt><trkpt lat="43.23524935055664" lon="11.124091855856513"><ele>452.0</ele><time>2026-04-04T13:11:38Z</time></trkpt><trkpt lat="43.23536839670126" lon="11.124120967517644"><ele>452.5</ele><time>2026-04-04T13:11:39Z</time></trkpt><trkpt lat="43.23548668895118" lon="11.124149294036366"><ele>453.0</ele><time>2026-04-04T13:11:40Z</time></trkpt><trkpt lat="43.23560009149194" lon="11.124174639046545"><ele>453.5</ele><time>2026-04-04T13:11:41Z</time></trkpt><trkpt lat="43.23572332287919" lon="11.124199033649395"><ele>454.0</ele><time>2026-04-04T13:11:42Z</time></trkpt><trkpt lat="43.235827945976546" lon="11.12421778110744"><ele>455.83333333333337</ele><time>2026-04-04T13:11:43Z</time></trkpt><trkpt lat="43.2359272527623" lon="11.124249720564825"><ele>457.6666666666667</ele><time>2026-04-04T13:11:44Z</time></trkpt><trkpt lat="43.235994588358594" lon="11.124337769787648"><ele>459.5</ele><time>2026-04-04T13:11:45Z</time></trkpt><trkpt lat="43.236036336057495" lon="11.124415693196537"><ele>461.33333333333337</ele><time>2026-04-04T13:11:46Z</time></trkpt><trkpt lat="43.236100196777976" lon="11.124488461503994"><ele>463.1666666666667</ele><time>2026-04-04T13:11:47Z</time></trkpt><trkpt lat="43.236149830451374" lon="11.124565511633026"><ele>465.0</ele><time>2026-04-04T13:11:48Z</time></trkpt><trkpt lat="43.23626435204598" lon="11.124611165476274"><ele>465.0</ele><time>2026-04-04T13:11:50Z</time></trkpt><trkpt lat="43.236342499958084" lon="11.124602925633756"><ele>465.0</ele><time>2026-04-04T13:11:51Z</time></trkpt><trkpt lat="43.23642684475766" lon="11.12460244404715"><ele>465.0</ele><time>2026-04-04T13:11:52Z</time></trkpt><trkpt lat="43.236507006877666" lon="11.124618577238696"><ele>465.0</ele><time>2026-04-04T13:11:53Z</time></trkpt><trkpt lat="43.236600099150664" lon="11.12465383119094"><ele>465.0</ele><time>2026-04-04T13:11:54Z</time></trkpt><trkpt lat="43.236710650630094" lon="11.124671572662093"><ele>465.6</ele><time>2026-04-04T13:11:55Z</time></trkpt><trkpt lat="43.236829620300405" lon="11.124658839816956"><ele>466.2</ele><time>2026-04-04T13:11:56Z</time></trkpt><trkpt lat="43.236943822333494" lon="11.124660274927129"><ele>466.79999999999995</ele><time>2026-04-04T13:11:57Z</time></trkpt><trkpt lat="43.23703964428782" lon="11.124690838990986"><ele>467.4</ele><time>2026-04-04T13:11:58Z</time></trkpt><trkpt lat="43.23714093672321" lon="11.124714571374307"><ele>468.0</ele><time>2026-04-04T13:11:59Z</time></trkpt><trkpt lat="43.2372383952872" lon="11.1246868239432"><ele>467.4</ele><time>2026-04-04T13:12:00Z</time></trkpt><trkpt lat="43.2373361525804" lon="11.124645857193364"><ele>466.79999999999995</ele><time>2026-04-04T13:12:01Z</time></trkpt><trkpt lat="43.23743595206565" lon="11.1246101573674"><ele>466.2</ele><time>2026-04-04T13:12:02Z</time></trkpt><trkpt lat="43.237529067437514" lon="11.124629216977596"><ele>465.6</ele><time>2026-04-04T13:12:03Z</time></trkpt><trkpt lat="43.237626523149835" lon="11.124642409427304"><ele>465.0</ele><time>2026-04-04T13:12:04Z</time></trkpt><trkpt lat="43.23771426293284" lon="11.124708136691149"><ele>465.0</ele><time>2026-04-04T13:12:05Z</time></trkpt><trkpt lat="43.23778989790317" lon="11.124737273208362"><ele>465.0</ele><time>2026-04-04T13:12:06Z</time></trkpt><trkpt lat="43.237865857790744" lon="11.124707665985442"><ele>465.0</ele><time>2026-04-04T13:12:07Z</time></trkpt><trkpt lat="43.23793452284643" lon="11.12466357117185"><ele>465.0</ele><time>2026-04-04T13:12:08Z</time></trkpt><trkpt lat="43.238001077833225" lon="11.124599111267953"><ele>465.0</ele><time>2026-04-04T13:12:09Z</time></trkpt><trkpt lat="43.23809467306712" lon="11.124568709482002"><ele>465.0</ele><time>2026-04-04T13:12:10Z</time></trkpt><trkpt lat="43.238186730850494" lon="11.12457177309034"><ele>465.2</ele><time>2026-04-04T13:12:11Z</time></trkpt><trkpt lat="43.238276454982454" lon="11.124547566259828"><ele>465.4</ele><time>2026-04-04T13:12:12Z</time></trkpt><trkpt lat="43.23837807413217" lon="11.124485813572713"><ele>465.6</ele><time>2026-04-04T13:12:13Z</time></trkpt><trkpt lat="43.238486964369535" lon="11.124432872970292"><ele>465.8</ele><time>2026-04-04T13:12:14Z</time></trkpt><trkpt lat="43.23860888527745" lon="11.124375888873434"><ele>466.0</ele><time>2026-04-04T13:12:15Z</time></trkpt><trkpt lat="43.23871418154399" lon="11.124302369440354"><ele>466.0</ele><time>2026-04-04T13:12:16Z</time></trkpt><trkpt lat="43.23881372205921" lon="11.124243392942892"><ele>466.0</ele><time>2026-04-04T13:12:17Z</time></trkpt><trkpt lat="43.23890238372046" lon="11.124161977225913"><ele>466.0</ele><time>2026-04-04T13:12:18Z</time></trkpt><trkpt lat="43.23899198984518" lon="11.124056928174346"><ele>466.0</ele><time>2026-04-04T13:12:19Z</time></trkpt><trkpt lat="43.239102882789645" lon="11.123957730128236"><ele>466.4</ele><time>2026-04-04T13:12:20Z</time></trkpt><trkpt lat="43.23920036034494" lon="11.123877022715947"><ele>466.8</ele><time>2026-04-04T13:12:21Z</time></trkpt><trkpt lat="43.23928217517052" lon="11.123803539351615"><ele>467.19999999999993</ele><time>2026-04-04T13:12:22Z</time></trkpt><trkpt lat="43.239332405180264" lon="11.123746478548073"><ele>467.59999999999997</ele><time>2026-04-04T13:12:23Z</time></trkpt><trkpt lat="43.239407524770336" lon="11.123654355300822"><ele>468.0</ele><time>2026-04-04T13:12:25Z</time></trkpt><trkpt lat="43.23947801067405" lon="11.12360820829106"><ele>468.0</ele><time>2026-04-04T13:12:31Z</time></trkpt><trkpt lat="43.239563131159116" lon="11.123502152393279"><ele>467.99999999999994</ele><time>2026-04-04T13:12:33Z</time></trkpt><trkpt lat="43.239614164774856" lon="11.123445480692968"><ele>467.99999999999994</ele><time>2026-04-04T13:12:34Z</time></trkpt><trkpt lat="43.239681280350446" lon="11.123369249580149"><ele>468.0</ele><time>2026-04-04T13:12:35Z</time></trkpt><trkpt lat="43.2397508431498" lon="11.123285225074975"><ele>468.0</ele><time>2026-04-04T13:12:36Z</time></trkpt><trkpt lat="43.23982793808403" lon="11.123175005456673"><ele>468.75</ele><time>2026-04-04T13:12:37Z</time></trkpt><trkpt lat="43.239910546363376" lon="11.123061956512625"><ele>469.5</ele><time>2026-04-04T13:12:38Z</time></trkpt><trkpt lat="43.23999736667917" lon="11.12295271584819"><ele>470.25</ele><time>2026-04-04T13:12:39Z</time></trkpt><trkpt lat="43.240086926084786" lon="11.122840014011164"><ele>471.0</ele><time>2026-04-04T13:12:40Z</time></trkpt><trkpt lat="43.240189386287895" lon="11.122746424411941"><ele>471.0</ele><time>2026-04-04T13:12:41Z</time></trkpt><trkpt lat="43.240307450314305" lon="11.122639616988543"><ele>471.0</ele><time>2026-04-04T13:12:42Z</time></trkpt><trkpt lat="43.24042782556931" lon="11.122519621539556"><ele>471.0</ele><time>2026-04-04T13:12:43Z</time></trkpt><trkpt lat="43.24054242190193" lon="11.122410126762649"><ele>471.0</ele><time>2026-04-04T13:12:44Z</time></trkpt><trkpt lat="43.24064930251211" lon="11.122280142450371"><ele>472.25</ele><time>2026-04-04T13:12:45Z</time></trkpt><trkpt lat="43.24075237806849" lon="11.122137140124188"><ele>473.5</ele><time>2026-04-04T13:12:46Z</time></trkpt><trkpt lat="43.24086025858499" lon="11.122008462216494"><ele>474.75</ele><time>2026-04-04T13:12:47Z</time></trkpt><trkpt lat="43.24094432185541" lon="11.121898778766035"><ele>476.0</ele><time>2026-04-04T13:12:48Z</time></trkpt><trkpt lat="43.24101587805869" lon="11.121807629302452"><ele>476.0</ele><time>2026-04-04T13:12:49Z</time></trkpt><trkpt lat="43.241077371951405" lon="11.121745834212115"><ele>476.0</ele><time>2026-04-04T13:12:50Z</time></trkpt><trkpt lat="43.24114556836902" lon="11.121708895055832"><ele>476.0</ele><time>2026-04-04T13:12:51Z</time></trkpt><trkpt lat="43.24122136590215" lon="11.121712928501854"><ele>476.0</ele><time>2026-04-04T13:12:52Z</time></trkpt><trkpt lat="43.24132588570154" lon="11.121738666007875"><ele>476.0</ele><time>2026-04-04T13:12:53Z</time></trkpt><trkpt lat="43.24145909653076" lon="11.121754663988519"><ele>476.0</ele><time>2026-04-04T13:12:54Z</time></trkpt><trkpt lat="43.24159797278094" lon="11.1217981356478"><ele>476.0</ele><time>2026-04-04T13:12:55Z</time></trkpt><trkpt lat="43.241748401150545" lon="11.121837895995107"><ele>476.0</ele><time>2026-04-04T13:12:56Z</time></trkpt><trkpt lat="43.24189298347901" lon="11.121875253649828"><ele>476.0</ele><time>2026-04-04T13:12:57Z</time></trkpt><trkpt lat="43.24204614927391" lon="11.121909943286244"><ele>476.0</ele><time>2026-04-04T13:12:58Z</time></trkpt><trkpt lat="43.24218648829949" lon="11.121948544706248"><ele>476.0</ele><time>2026-04-04T13:12:59Z</time></trkpt><trkpt lat="43.24232237115456" lon="11.121976617458898"><ele>476.0</ele><time>2026-04-04T13:13:00Z</time></trkpt><trkpt lat="43.24247435092375" lon="11.12200465130526"><ele>476.0</ele><time>2026-04-04T13:13:01Z</time></trkpt><trkpt lat="43.242629950295175" lon="11.122038730103526"><ele>473.66666666666663</ele><time>2026-04-04T13:13:02Z</time></trkpt><trkpt lat="43.24278382100831" lon="11.122074176592065"><ele>471.33333333333337</ele><time>2026-04-04T13:13:03Z</time></trkpt><trkpt lat="43.24293424094521" lon="11.12210279642321"><ele>469.0</ele><time>2026-04-04T13:13:04Z</time></trkpt><trkpt lat="43.243078156768675" lon="11.12213791578881"><ele>470.5</ele><time>2026-04-04T13:13:05Z</time></trkpt><trkpt lat="43.24321551592543" lon="11.122167433049603"><ele>472.0</ele><time>2026-04-04T13:13:06Z</time></trkpt><trkpt lat="43.2433434656928" lon="11.122181113175541"><ele>473.5</ele><time>2026-04-04T13:13:07Z</time></trkpt><trkpt lat="43.24346913041585" lon="11.122177103519045"><ele>475.0</ele><time>2026-04-04T13:13:08Z</time></trkpt><trkpt lat="43.243588081065965" lon="11.122135266663934"><ele>475.0</ele><time>2026-04-04T13:13:09Z</time></trkpt><trkpt lat="43.24369853986816" lon="11.12205423977754"><ele>475.0</ele><time>2026-04-04T13:13:10Z</time></trkpt><trkpt lat="43.243795298623425" lon="11.122018490209406"><ele>475.0</ele><time>2026-04-04T13:13:11Z</time></trkpt><trkpt lat="43.24390262742742" lon="11.12199879352493"><ele>475.0</ele><time>2026-04-04T13:13:12Z</time></trkpt><trkpt lat="43.244005940550686" lon="11.121953414145143"><ele>475.0</ele><time>2026-04-04T13:13:13Z</time></trkpt><trkpt lat="43.24409892445239" lon="11.121915296405238"><ele>476.6</ele><time>2026-04-04T13:13:14Z</time></trkpt><trkpt lat="43.24417335930614" lon="11.12182962650646"><ele>478.2</ele><time>2026-04-04T13:13:15Z</time></trkpt><trkpt lat="43.24422162253379" lon="11.121721064522596"><ele>479.79999999999995</ele><time>2026-04-04T13:13:16Z</time></trkpt><trkpt lat="43.24426122154681" lon="11.121605181713335"><ele>481.4</ele><time>2026-04-04T13:13:17Z</time></trkpt><trkpt lat="43.24433660618365" lon="11.121465181874443"><ele>483.0</ele><time>2026-04-04T13:13:18Z</time></trkpt><trkpt lat="43.244375812506355" lon="11.12130348512471"><ele>483.0</ele><time>2026-04-04T13:13:19Z</time></trkpt><trkpt lat="43.244402165208854" lon="11.121147598834126"><ele>482.99999999999994</ele><time>2026-04-04T13:13:20Z</time></trkpt><trkpt lat="43.24442626808973" lon="11.12099785061519"><ele>482.99999999999994</ele><time>2026-04-04T13:13:21Z</time></trkpt><trkpt lat="43.244488885514016" lon="11.120907928994887"><ele>483.0</ele><time>2026-04-04T13:13:22Z</time></trkpt><trkpt lat="43.24454400852687" lon="11.120841757982884"><ele>483.0</ele><time>2026-04-04T13:13:23Z</time></trkpt><trkpt lat="43.24461694269416" lon="11.12083167974918"><ele>483.0</ele><time>2026-04-04T13:13:24Z</time></trkpt><trkpt lat="43.24470930764285" lon="11.120812730226856"><ele>483.0</ele><time>2026-04-04T13:13:25Z</time></trkpt><trkpt lat="43.24482503590462" lon="11.120785608056833"><ele>483.0</ele><time>2026-04-04T13:13:26Z</time></trkpt><trkpt lat="43.24494362113034" lon="11.120781850077776"><ele>483.0</ele><time>2026-04-04T13:13:27Z</time></trkpt><trkpt lat="43.24507403828775" lon="11.12076705116708"><ele>485.5</ele><time>2026-04-04T13:13:28Z</time></trkpt><trkpt lat="43.24520503244161" lon="11.120752027222562"><ele>488.0</ele><time>2026-04-04T13:13:29Z</time></trkpt><trkpt lat="43.245332587716895" lon="11.120791997755505"><ele>490.5</ele><time>2026-04-04T13:13:30Z</time></trkpt><trkpt lat="43.24547927214031" lon="11.12084429880611"><ele>493.0</ele><time>2026-04-04T13:13:31Z</time></trkpt><trkpt lat="43.24563728800989" lon="11.120872365471435"><ele>494.6666666666667</ele><time>2026-04-04T13:13:32Z</time></trkpt><trkpt lat="43.24579781496952" lon="11.120913194452061"><ele>496.33333333333337</ele><time>2026-04-04T13:13:33Z</time></trkpt><trkpt lat="43.245942461936956" lon="11.120952664499137"><ele>498.0</ele><time>2026-04-04T13:13:34Z</time></trkpt><trkpt lat="43.246093503040164" lon="11.12098602824544"><ele>498.0</ele><time>2026-04-04T13:13:35Z</time></trkpt><trkpt lat="43.246218171721814" lon="11.121023957526276"><ele>497.99999999999994</ele><time>2026-04-04T13:13:36Z</time></trkpt><trkpt lat="43.246337735544984" lon="11.121053916608092"><ele>497.99999999999994</ele><time>2026-04-04T13:13:37Z</time></trkpt><trkpt lat="43.24643867475426" lon="11.121097722981368"><ele>498.0</ele><time>2026-04-04T13:13:38Z</time></trkpt><trkpt lat="43.24653066532603" lon="11.121125366338848"><ele>498.0</ele><time>2026-04-04T13:13:39Z</time></trkpt><trkpt lat="43.246611421797276" lon="11.121109153662537"><ele>499.2</ele><time>2026-04-04T13:13:40Z</time></trkpt><trkpt lat="43.24667160889562" lon="11.120953495974433"><ele>500.4</ele><time>2026-04-04T13:13:42Z</time></trkpt><trkpt lat="43.246717274655005" lon="11.120860310288094"><ele>501.59999999999997</ele><time>2026-04-04T13:13:43Z</time></trkpt><trkpt lat="43.246783123886516" lon="11.12076596521773"><ele>502.79999999999995</ele><time>2026-04-04T13:13:44Z</time></trkpt><trkpt lat="43.24684999997147" lon="11.120700109229583"><ele>504.0</ele><time>2026-04-04T13:13:45Z</time></trkpt><trkpt lat="43.246928180265954" lon="11.120662639257498"><ele>504.0</ele><time>2026-04-04T13:13:46Z</time></trkpt><trkpt lat="43.24702424564416" lon="11.120676714584253"><ele>504.0</ele><time>2026-04-04T13:13:47Z</time></trkpt><trkpt lat="43.247114241272214" lon="11.120664879237586"><ele>504.0</ele><time>2026-04-04T13:13:48Z</time></trkpt><trkpt lat="43.247217937586086" lon="11.120656163564716"><ele>504.0</ele><time>2026-04-04T13:13:49Z</time></trkpt><trkpt lat="43.24734246767947" lon="11.120650594248689"><ele>504.0</ele><time>2026-04-04T13:13:50Z</time></trkpt><trkpt lat="43.24747140992274" lon="11.12063861321705"><ele>505.6</ele><time>2026-04-04T13:13:51Z</time></trkpt><trkpt lat="43.24758875294223" lon="11.120591992587041"><ele>507.2</ele><time>2026-04-04T13:13:52Z</time></trkpt><trkpt lat="43.24770321557325" lon="11.120588944063757"><ele>508.80000000000007</ele><time>2026-04-04T13:13:53Z</time></trkpt><trkpt lat="43.247801161196776" lon="11.12053967046578"><ele>510.40000000000003</ele><time>2026-04-04T13:13:54Z</time></trkpt><trkpt lat="43.24789629478664" lon="11.120478437503934"><ele>512.0</ele><time>2026-04-04T13:13:55Z</time></trkpt><trkpt lat="43.24799986254098" lon="11.1204308858487"><ele>512.0</ele><time>2026-04-04T13:13:56Z</time></trkpt><trkpt lat="43.24810969480962" lon="11.120385762344593"><ele>512.0</ele><time>2026-04-04T13:13:57Z</time></trkpt><trkpt lat="43.24821149364732" lon="11.120349075735044"><ele>512.0</ele><time>2026-04-04T13:13:58Z</time></trkpt><trkpt lat="43.24830268412643" lon="11.120305838262267"><ele>512.0</ele><time>2026-04-04T13:13:59Z</time></trkpt><trkpt lat="43.24838774827521" lon="11.12025591113284"><ele>512.0</ele><time>2026-04-04T13:14:00Z</time></trkpt><trkpt lat="43.24847969082424" lon="11.1201995051781"><ele>513.6666666666666</ele><time>2026-04-04T13:14:01Z</time></trkpt><trkpt lat="43.24855409601014" lon="11.12011356655099"><ele>515.3333333333333</ele><time>2026-04-04T13:14:02Z</time></trkpt><trkpt lat="43.248608780594594" lon="11.120011717720738"><ele>517.0</ele><time>2026-04-04T13:14:03Z</time></trkpt><trkpt lat="43.248642669829074" lon="11.119901452874224"><ele>518.6666666666666</ele><time>2026-04-04T13:14:04Z</time></trkpt><trkpt lat="43.24866217342475" lon="11.119795362996499"><ele>520.3333333333334</ele><time>2026-04-04T13:14:05Z</time></trkpt><trkpt lat="43.24867611009388" lon="11.1196707531954"><ele>522.0</ele><time>2026-04-04T13:14:06Z</time></trkpt><trkpt lat="43.248687738469734" lon="11.119533525635873"><ele>522.0</ele><time>2026-04-04T13:14:07Z</time></trkpt><trkpt lat="43.2486910952678" lon="11.119379530233724"><ele>522.0</ele><time>2026-04-04T13:14:08Z</time></trkpt><trkpt lat="43.24870060743933" lon="11.119257194408753"><ele>522.0</ele><time>2026-04-04T13:14:09Z</time></trkpt><trkpt lat="43.24873122876338" lon="11.119164631507331"><ele>522.0</ele><time>2026-04-04T13:14:10Z</time></trkpt><trkpt lat="43.24877086102322" lon="11.119086263515017"><ele>522.0</ele><time>2026-04-04T13:14:11Z</time></trkpt><trkpt lat="43.248854082844005" lon="11.119095320358788"><ele>522.0</ele><time>2026-04-04T13:14:13Z</time></trkpt><trkpt lat="43.24894005128794" lon="11.1192225405146"><ele>522.0</ele><time>2026-04-04T13:14:15Z</time></trkpt><trkpt lat="43.248942638096146" lon="11.119339477441345"><ele>522.0</ele><time>2026-04-04T13:14:16Z</time></trkpt><trkpt lat="43.24897221864923" lon="11.11946171232165"><ele>522.0</ele><time>2026-04-04T13:14:17Z</time></trkpt><trkpt lat="43.24898861754363" lon="11.119577138005605"><ele>522.0</ele><time>2026-04-04T13:14:18Z</time></trkpt><trkpt lat="43.24908820513312" lon="11.119685800146767"><ele>522.0</ele><time>2026-04-04T13:14:20Z</time></trkpt><trkpt lat="43.24915848345614" lon="11.1197312778827"><ele>525.4</ele><time>2026-04-04T13:14:21Z</time></trkpt><trkpt lat="43.24922786350659" lon="11.119762333773652"><ele>528.8000000000001</ele><time>2026-04-04T13:14:22Z</time></trkpt><trkpt lat="43.24930766046384" lon="11.119791880063556"><ele>532.2</ele><time>2026-04-04T13:14:23Z</time></trkpt><trkpt lat="43.24939080273545" lon="11.119808824196499"><ele>535.6</ele><time>2026-04-04T13:14:24Z</time></trkpt><trkpt lat="43.24948539793314" lon="11.119789858319718"><ele>539.0</ele><time>2026-04-04T13:14:25Z</time></trkpt><trkpt lat="43.249602961735114" lon="11.119762957939646"><ele>539.0</ele><time>2026-04-04T13:14:26Z</time></trkpt><trkpt lat="43.24973314212568" lon="11.119739625568752"><ele>539.0</ele><time>2026-04-04T13:14:27Z</time></trkpt><trkpt lat="43.249868516953846" lon="11.119712621722725"><ele>539.0</ele><time>2026-04-04T13:14:28Z</time></trkpt><trkpt lat="43.25000944385301" lon="11.11967862917653"><ele>539.0</ele><time>2026-04-04T13:14:29Z</time></trkpt><trkpt lat="43.2501429730114" lon="11.11967826372023"><ele>541.0</ele><time>2026-04-04T13:14:30Z</time></trkpt><trkpt lat="43.25027250964853" lon="11.119657706278511"><ele>543.0</ele><time>2026-04-04T13:14:31Z</time></trkpt><trkpt lat="43.25039870223196" lon="11.119632534108005"><ele>545.0</ele><time>2026-04-04T13:14:32Z</time></trkpt><trkpt lat="43.25051902694487" lon="11.11959502166356"><ele>547.0</ele><time>2026-04-04T13:14:33Z</time></trkpt><trkpt lat="43.25063638039437" lon="11.119576205504291"><ele>548.25</ele><time>2026-04-04T13:14:34Z</time></trkpt><trkpt lat="43.25074956867117" lon="11.119546380295649"><ele>549.5</ele><time>2026-04-04T13:14:35Z</time></trkpt><trkpt lat="43.250866988207" lon="11.119499204421542"><ele>550.75</ele><time>2026-04-04T13:14:36Z</time></trkpt><trkpt lat="43.25097041259566" lon="11.119414549263109"><ele>552.0</ele><time>2026-04-04T13:14:37Z</time></trkpt><trkpt lat="43.25106500776809" lon="11.119301762351112"><ele>552.0</ele><time>2026-04-04T13:14:38Z</time></trkpt><trkpt lat="43.25116701287162" lon="11.119253228056124"><ele>552.0</ele><time>2026-04-04T13:14:39Z</time></trkpt><trkpt lat="43.25125243456895" lon="11.119256195491742"><ele>552.0</ele><time>2026-04-04T13:14:40Z</time></trkpt><trkpt lat="43.251345103636176" lon="11.119282706185842"><ele>552.0</ele><time>2026-04-04T13:14:41Z</time></trkpt><trkpt lat="43.251451629957955" lon="11.119309712765915"><ele>552.0</ele><time>2026-04-04T13:14:42Z</time></trkpt><trkpt lat="43.25156677170861" lon="11.119329978810704"><ele>553.0</ele><time>2026-04-04T13:14:43Z</time></trkpt><trkpt lat="43.251673372214576" lon="11.11936511537059"><ele>554.0</ele><time>2026-04-04T13:14:44Z</time></trkpt><trkpt lat="43.251781073002" lon="11.11937561356672"><ele>555.0</ele><time>2026-04-04T13:14:45Z</time></trkpt><trkpt lat="43.251892702184676" lon="11.119352919280344"><ele>556.0</ele><time>2026-04-04T13:14:46Z</time></trkpt><trkpt lat="43.25200060783315" lon="11.119307948823897"><ele>557.0</ele><time>2026-04-04T13:14:47Z</time></trkpt><trkpt lat="43.25211179963222" lon="11.119325683150716"><ele>557.0</ele><time>2026-04-04T13:14:48Z</time></trkpt><trkpt lat="43.25221260115219" lon="11.119356591279953"><ele>557.0</ele><time>2026-04-04T13:14:49Z</time></trkpt><trkpt lat="43.25230736322606" lon="11.119422802285657"><ele>557.0</ele><time>2026-04-04T13:14:50Z</time></trkpt><trkpt lat="43.25240096004554" lon="11.119496332909156"><ele>557.0</ele><time>2026-04-04T13:14:51Z</time></trkpt><trkpt lat="43.25249467370398" lon="11.119580622730716"><ele>557.0</ele><time>2026-04-04T13:14:52Z</time></trkpt><trkpt lat="43.25260245487427" lon="11.11966875662917"><ele>558.5</ele><time>2026-04-04T13:14:53Z</time></trkpt><trkpt lat="43.252716914702" lon="11.119733002766985"><ele>560.0</ele><time>2026-04-04T13:14:54Z</time></trkpt><trkpt lat="43.252834676823525" lon="11.119805878057713"><ele>561.5</ele><time>2026-04-04T13:14:55Z</time></trkpt><trkpt lat="43.25296323731015" lon="11.119870911205986"><ele>563.0</ele><time>2026-04-04T13:14:56Z</time></trkpt><trkpt lat="43.25308276900056" lon="11.119930755473336"><ele>564.25</ele><time>2026-04-04T13:14:57Z</time></trkpt><trkpt lat="43.2531847571613" lon="11.120032732929959"><ele>565.5</ele><time>2026-04-04T13:14:58Z</time></trkpt><trkpt lat="43.253292811100025" lon="11.12010934086945"><ele>566.75</ele><time>2026-04-04T13:14:59Z</time></trkpt><trkpt lat="43.253368778232854" lon="11.120246249436505"><ele>568.0</ele><time>2026-04-04T13:15:00Z</time></trkpt><trkpt lat="43.253462248431596" lon="11.120362364674442"><ele>568.0</ele><time>2026-04-04T13:15:01Z</time></trkpt><trkpt lat="43.25353660254353" lon="11.120494335802407"><ele>568.0</ele><time>2026-04-04T13:15:02Z</time></trkpt><trkpt lat="43.25361552141207" lon="11.120613220748462"><ele>568.0</ele><time>2026-04-04T13:15:03Z</time></trkpt><trkpt lat="43.25370527010981" lon="11.120712748939972"><ele>568.0</ele><time>2026-04-04T13:15:04Z</time></trkpt><trkpt lat="43.25380581819797" lon="11.120800652001227"><ele>568.5</ele><time>2026-04-04T13:15:05Z</time></trkpt><trkpt lat="43.25391502793298" lon="11.120883744228035"><ele>569.0</ele><time>2026-04-04T13:15:06Z</time></trkpt><trkpt lat="43.25398921488012" lon="11.121009781575175"><ele>569.5</ele><time>2026-04-04T13:15:07Z</time></trkpt><trkpt lat="43.2540697813998" lon="11.121134495116571"><ele>570.0</ele><time>2026-04-04T13:15:08Z</time></trkpt><trkpt lat="43.25415698823766" lon="11.121252241126609"><ele>570.0</ele><time>2026-04-04T13:15:09Z</time></trkpt><trkpt lat="43.254234991301345" lon="11.121375777424246"><ele>570.0</ele><time>2026-04-04T13:15:10Z</time></trkpt><trkpt lat="43.254325833938616" lon="11.121489210900592"><ele>570.0</ele><time>2026-04-04T13:15:11Z</time></trkpt><trkpt lat="43.25438639871161" lon="11.121625969431477"><ele>570.0</ele><time>2026-04-04T13:15:12Z</time></trkpt><trkpt lat="43.254441145510384" lon="11.12175794146069"><ele>570.25</ele><time>2026-04-04T13:15:13Z</time></trkpt><trkpt lat="43.25446299027497" lon="11.121903798775069"><ele>570.5</ele><time>2026-04-04T13:15:14Z</time></trkpt><trkpt lat="43.254492599290906" lon="11.122065372607159"><ele>570.75</ele><time>2026-04-04T13:15:15Z</time></trkpt><trkpt lat="43.25452758420652" lon="11.12222385420026"><ele>571.0</ele><time>2026-04-04T13:15:16Z</time></trkpt><trkpt lat="43.25452868758276" lon="11.122402310438446"><ele>570.5</ele><time>2026-04-04T13:15:17Z</time></trkpt><trkpt lat="43.25454623832939" lon="11.122591667014426"><ele>570.0</ele><time>2026-04-04T13:15:18Z</time></trkpt><trkpt lat="43.25456889894266" lon="11.122781217834417"><ele>569.5</ele><time>2026-04-04T13:15:19Z</time></trkpt><trkpt lat="43.2545924005704" lon="11.122974142957588"><ele>569.0</ele><time>2026-04-04T13:15:20Z</time></trkpt><trkpt lat="43.2546299784884" lon="11.123151936369373"><ele>569.5</ele><time>2026-04-04T13:15:21Z</time></trkpt><trkpt lat="43.25464873519874" lon="11.123323382118064"><ele>570.0</ele><time>2026-04-04T13:15:22Z</time></trkpt><trkpt lat="43.25467297340271" lon="11.123492509693687"><ele>570.5</ele><time>2026-04-04T13:15:23Z</time></trkpt><trkpt lat="43.25471688871732" lon="11.12365412915842"><ele>571.0</ele><time>2026-04-04T13:15:24Z</time></trkpt><trkpt lat="43.25478148044277" lon="11.123802340883472"><ele>574.75</ele><time>2026-04-04T13:15:25Z</time></trkpt><trkpt lat="43.25486642992988" lon="11.123961345951368"><ele>578.5</ele><time>2026-04-04T13:15:26Z</time></trkpt><trkpt lat="43.25493220026331" lon="11.124111641440198"><ele>582.25</ele><time>2026-04-04T13:15:27Z</time></trkpt><trkpt lat="43.2549952336888" lon="11.124243407229711"><ele>586.0</ele><time>2026-04-04T13:15:28Z</time></trkpt><trkpt lat="43.2550640575313" lon="11.124368773498084"><ele>586.0</ele><time>2026-04-04T13:15:29Z</time></trkpt><trkpt lat="43.255115668120794" lon="11.12451853539417"><ele>586.0</ele><time>2026-04-04T13:15:30Z</time></trkpt><trkpt lat="43.25518864750101" lon="11.12465435404944"><ele>586.0</ele><time>2026-04-04T13:15:31Z</time></trkpt><trkpt lat="43.255271482017164" lon="11.124769674956749"><ele>586.0</ele><time>2026-04-04T13:15:32Z</time></trkpt><trkpt lat="43.25535727021761" lon="11.124870254457631"><ele>584.4</ele><time>2026-04-04T13:15:33Z</time></trkpt><trkpt lat="43.25541527021292" lon="11.125007919015529"><ele>582.8</ele><time>2026-04-04T13:15:34Z</time></trkpt><trkpt lat="43.25547233599149" lon="11.125142288910238"><ele>581.1999999999999</ele><time>2026-04-04T13:15:35Z</time></trkpt><trkpt lat="43.25551330084495" lon="11.125274167199143"><ele>579.6</ele><time>2026-04-04T13:15:36Z</time></trkpt><trkpt lat="43.25554361721761" lon="11.125394943213934"><ele>578.0</ele><time>2026-04-04T13:15:37Z</time></trkpt><trkpt lat="43.25556243137232" lon="11.125518776540249"><ele>578.0</ele><time>2026-04-04T13:15:38Z</time></trkpt><trkpt lat="43.25557793282474" lon="11.125633222194068"><ele>578.0</ele><time>2026-04-04T13:15:39Z</time></trkpt><trkpt lat="43.255589089702234" lon="11.125730129870766"><ele>578.0</ele><time>2026-04-04T13:15:40Z</time></trkpt><trkpt lat="43.255595665111755" lon="11.125863551132387"><ele>578.0</ele><time>2026-04-04T13:15:42Z</time></trkpt><trkpt lat="43.25577206645498" lon="11.125794200592718"><ele>578.0</ele><time>2026-04-04T13:16:06Z</time></trkpt><trkpt lat="43.25580112508817" lon="11.125622475653604"><ele>579.4</ele><time>2026-04-04T13:16:08Z</time></trkpt><trkpt lat="43.25584634014722" lon="11.125497942283717"><ele>580.8</ele><time>2026-04-04T13:16:09Z</time></trkpt><trkpt lat="43.25588441183774" lon="11.125380039157337"><ele>582.2</ele><time>2026-04-04T13:16:10Z</time></trkpt><trkpt lat="43.25591389107552" lon="11.125248976660936"><ele>583.6</ele><time>2026-04-04T13:16:11Z</time></trkpt><trkpt lat="43.255941949172545" lon="11.125110498545702"><ele>585.0</ele><time>2026-04-04T13:16:12Z</time></trkpt><trkpt lat="43.25596681404489" lon="11.124968172025385"><ele>586.75</ele><time>2026-04-04T13:16:13Z</time></trkpt><trkpt lat="43.25599907308301" lon="11.124813161738654"><ele>588.5</ele><time>2026-04-04T13:16:14Z</time></trkpt><trkpt lat="43.25603460832143" lon="11.124663865176716"><ele>590.25</ele><time>2026-04-04T13:16:15Z</time></trkpt><trkpt lat="43.256074959262925" lon="11.124509578669596"><ele>592.0</ele><time>2026-04-04T13:16:16Z</time></trkpt><trkpt lat="43.25612015073088" lon="11.124345124275692"><ele>592.0</ele><time>2026-04-04T13:16:17Z</time></trkpt><trkpt lat="43.25617509584647" lon="11.124192114101826"><ele>592.0</ele><time>2026-04-04T13:16:18Z</time></trkpt><trkpt lat="43.25622959114458" lon="11.124040246534888"><ele>592.0</ele><time>2026-04-04T13:16:19Z</time></trkpt><trkpt lat="43.256279226377146" lon="11.12388464083407"><ele>592.0</ele><time>2026-04-04T13:16:20Z</time></trkpt><trkpt lat="43.25632454799246" lon="11.123711520461159"><ele>591.5</ele><time>2026-04-04T13:16:21Z</time></trkpt><trkpt lat="43.25636712291685" lon="11.123541702751817"><ele>591.0</ele><time>2026-04-04T13:16:22Z</time></trkpt><trkpt lat="43.25641521763226" lon="11.123359615234671"><ele>590.5</ele><time>2026-04-04T13:16:23Z</time></trkpt><trkpt lat="43.25645912013575" lon="11.123192635428405"><ele>590.0</ele><time>2026-04-04T13:16:24Z</time></trkpt><trkpt lat="43.25651218107491" lon="11.123018085800991"><ele>590.0</ele><time>2026-04-04T13:16:25Z</time></trkpt><trkpt lat="43.25656195925038" lon="11.122849866559969"><ele>590.0</ele><time>2026-04-04T13:16:26Z</time></trkpt><trkpt lat="43.25660438420542" lon="11.122699818091982"><ele>590.0</ele><time>2026-04-04T13:16:27Z</time></trkpt><trkpt lat="43.256662749881265" lon="11.12256210444967"><ele>590.0</ele><time>2026-04-04T13:16:28Z</time></trkpt><trkpt lat="43.256739208563125" lon="11.122410753551513"><ele>588.5</ele><time>2026-04-04T13:16:29Z</time></trkpt><trkpt lat="43.25680977261898" lon="11.122261905818977"><ele>587.0</ele><time>2026-04-04T13:16:30Z</time></trkpt><trkpt lat="43.256897264512865" lon="11.122119279132733"><ele>585.5</ele><time>2026-04-04T13:16:31Z</time></trkpt><trkpt lat="43.25698645635126" lon="11.121967133716602"><ele>584.0</ele><time>2026-04-04T13:16:32Z</time></trkpt><trkpt lat="43.257073588283774" lon="11.121833421953932"><ele>584.0</ele><time>2026-04-04T13:16:33Z</time></trkpt><trkpt lat="43.25716677525843" lon="11.121722736143024"><ele>584.0</ele><time>2026-04-04T13:16:34Z</time></trkpt><trkpt lat="43.25726795421069" lon="11.12163154358427"><ele>584.0</ele><time>2026-04-04T13:16:35Z</time></trkpt><trkpt lat="43.25736867645118" lon="11.121544283115627"><ele>584.0</ele><time>2026-04-04T13:16:36Z</time></trkpt><trkpt lat="43.25745632900573" lon="11.121460806562201"><ele>582.0</ele><time>2026-04-04T13:16:37Z</time></trkpt><trkpt lat="43.25753378635766" lon="11.121364890138661"><ele>580.0</ele><time>2026-04-04T13:16:38Z</time></trkpt><trkpt lat="43.25760242773177" lon="11.121233841233533"><ele>578.0</ele><time>2026-04-04T13:16:39Z</time></trkpt><trkpt lat="43.2576746588849" lon="11.121082646519522"><ele>576.0</ele><time>2026-04-04T13:16:40Z</time></trkpt><trkpt lat="43.257765981787436" lon="11.120934510259065"><ele>576.0</ele><time>2026-04-04T13:16:41Z</time></trkpt><trkpt lat="43.25784713812126" lon="11.120787938173855"><ele>576.0</ele><time>2026-04-04T13:16:42Z</time></trkpt><trkpt lat="43.25792852975586" lon="11.12064181746521"><ele>576.0</ele><time>2026-04-04T13:16:43Z</time></trkpt><trkpt lat="43.258002528712595" lon="11.120508970252638"><ele>576.0</ele><time>2026-04-04T13:16:44Z</time></trkpt><trkpt lat="43.25807506604159" lon="11.120385008365883"><ele>575.8</ele><time>2026-04-04T13:16:45Z</time></trkpt><trkpt lat="43.25814017920969" lon="11.120278224165006"><ele>575.6</ele><time>2026-04-04T13:16:46Z</time></trkpt><trkpt lat="43.25820974343938" lon="11.120173451647819"><ele>575.4</ele><time>2026-04-04T13:16:47Z</time></trkpt><trkpt lat="43.25827119429254" lon="11.120056970127019"><ele>575.2</ele><time>2026-04-04T13:16:48Z</time></trkpt><trkpt lat="43.25836108946158" lon="11.119968205848224"><ele>575.0</ele><time>2026-04-04T13:16:49Z</time></trkpt><trkpt lat="43.258435052835814" lon="11.119884326478168"><ele>572.4</ele><time>2026-04-04T13:16:50Z</time></trkpt><trkpt lat="43.25849600282618" lon="11.119824017829636"><ele>569.8</ele><time>2026-04-04T13:16:51Z</time></trkpt><trkpt lat="43.25854685932611" lon="11.119768716357367"><ele>567.2</ele><time>2026-04-04T13:16:52Z</time></trkpt><trkpt lat="43.258620529754985" lon="11.11971443637299"><ele>564.6</ele><time>2026-04-04T13:16:53Z</time></trkpt><trkpt lat="43.25872757787564" lon="11.119626433945758"><ele>562.0</ele><time>2026-04-04T13:16:54Z</time></trkpt><trkpt lat="43.25883060855838" lon="11.119538938770122"><ele>562.0</ele><time>2026-04-04T13:16:55Z</time></trkpt><trkpt lat="43.258934737146454" lon="11.119457047170101"><ele>562.0</ele><time>2026-04-04T13:16:56Z</time></trkpt><trkpt lat="43.25904706172579" lon="11.119374420657756"><ele>562.0</ele><time>2026-04-04T13:16:57Z</time></trkpt><trkpt lat="43.25915375819118" lon="11.11931461444661"><ele>562.0</ele><time>2026-04-04T13:16:58Z</time></trkpt><trkpt lat="43.25926086773577" lon="11.119270657429126"><ele>560.8000000000001</ele><time>2026-04-04T13:16:59Z</time></trkpt><trkpt lat="43.259367931554685" lon="11.119236869044117"><ele>559.6</ele><time>2026-04-04T13:17:00Z</time></trkpt><trkpt lat="43.25946712488673" lon="11.119180829409146"><ele>558.4000000000001</ele><time>2026-04-04T13:17:01Z</time></trkpt><trkpt lat="43.25955339372729" lon="11.119095484765968"><ele>557.2</ele><time>2026-04-04T13:17:02Z</time></trkpt><trkpt lat="43.259634544667485" lon="11.119003543608168"><ele>556.0</ele><time>2026-04-04T13:17:03Z</time></trkpt><trkpt lat="43.259703863362546" lon="11.118902172473508"><ele>556.0</ele><time>2026-04-04T13:17:04Z</time></trkpt><trkpt lat="43.25978238512394" lon="11.11882845699097"><ele>556.0</ele><time>2026-04-04T13:17:05Z</time></trkpt><trkpt lat="43.259869398763726" lon="11.118761840559522"><ele>556.0</ele><time>2026-04-04T13:17:06Z</time></trkpt><trkpt lat="43.25997520058317" lon="11.118720221339158"><ele>556.0</ele><time>2026-04-04T13:17:07Z</time></trkpt><trkpt lat="43.26009166405707" lon="11.118696311724682"><ele>556.0</ele><time>2026-04-04T13:17:08Z</time></trkpt><trkpt lat="43.26021711454434" lon="11.118675338214413"><ele>556.2</ele><time>2026-04-04T13:17:09Z</time></trkpt><trkpt lat="43.260336680878865" lon="11.118696312537944"><ele>556.4000000000001</ele><time>2026-04-04T13:17:10Z</time></trkpt><trkpt lat="43.26044500290813" lon="11.118709458613484"><ele>556.6</ele><time>2026-04-04T13:17:11Z</time></trkpt><trkpt lat="43.260550011180506" lon="11.118709955813975"><ele>556.8000000000001</ele><time>2026-04-04T13:17:12Z</time></trkpt><trkpt lat="43.260652154802294" lon="11.118706553541646"><ele>557.0</ele><time>2026-04-04T13:17:13Z</time></trkpt><trkpt lat="43.26074431136221" lon="11.118701206112089"><ele>557.0</ele><time>2026-04-04T13:17:14Z</time></trkpt><trkpt lat="43.260826679199184" lon="11.118711820707803"><ele>557.0</ele><time>2026-04-04T13:17:15Z</time></trkpt><trkpt lat="43.26090050884683" lon="11.118761522172449"><ele>557.0</ele><time>2026-04-04T13:17:16Z</time></trkpt><trkpt lat="43.26096404245475" lon="11.11885705722773"><ele>557.0</ele><time>2026-04-04T13:17:17Z</time></trkpt><trkpt lat="43.26099883544315" lon="11.118998726845822"><ele>557.0</ele><time>2026-04-04T13:17:18Z</time></trkpt><trkpt lat="43.261052575120814" lon="11.119124561738255"><ele>557.6</ele><time>2026-04-04T13:17:19Z</time></trkpt><trkpt lat="43.261102531454455" lon="11.119269097966617"><ele>558.2</ele><time>2026-04-04T13:17:20Z</time></trkpt><trkpt lat="43.26115529613659" lon="11.119375853811496"><ele>558.8</ele><time>2026-04-04T13:17:21Z</time></trkpt><trkpt lat="43.26122218375304" lon="11.119448034193685"><ele>559.4</ele><time>2026-04-04T13:17:22Z</time></trkpt><trkpt lat="43.26134394800793" lon="11.11947172549161"><ele>560.0</ele><time>2026-04-04T13:17:24Z</time></trkpt><trkpt lat="43.26141296503959" lon="11.119400188150179"><ele>556.6</ele><time>2026-04-04T13:17:25Z</time></trkpt><trkpt lat="43.26145961678414" lon="11.119309449886957"><ele>553.2</ele><time>2026-04-04T13:17:26Z</time></trkpt><trkpt lat="43.26149876502747" lon="11.119164691876657"><ele>549.8</ele><time>2026-04-04T13:17:27Z</time></trkpt><trkpt lat="43.26155375911361" lon="11.119019973398395"><ele>546.4</ele><time>2026-04-04T13:17:28Z</time></trkpt><trkpt lat="43.2615976012754" lon="11.118907865190437"><ele>543.0</ele><time>2026-04-04T13:17:29Z</time></trkpt><trkpt lat="43.26166118820814" lon="11.118780364580463"><ele>542.5</ele><time>2026-04-04T13:17:30Z</time></trkpt><trkpt lat="43.26175029117344" lon="11.1186390164337"><ele>542.0</ele><time>2026-04-04T13:17:31Z</time></trkpt><trkpt lat="43.261844569677926" lon="11.118509307841984"><ele>541.5</ele><time>2026-04-04T13:17:32Z</time></trkpt><trkpt lat="43.26194231480272" lon="11.118378662601868"><ele>541.0</ele><time>2026-04-04T13:17:33Z</time></trkpt><trkpt lat="43.26205901539391" lon="11.118280278703013"><ele>540.5</ele><time>2026-04-04T13:17:34Z</time></trkpt><trkpt lat="43.26216746426685" lon="11.118170342831446"><ele>540.0</ele><time>2026-04-04T13:17:35Z</time></trkpt><trkpt lat="43.26227794278446" lon="11.118043668766664"><ele>539.5</ele><time>2026-04-04T13:17:36Z</time></trkpt><trkpt lat="43.26238910474006" lon="11.117944609364942"><ele>539.0</ele><time>2026-04-04T13:17:37Z</time></trkpt><trkpt lat="43.26251101647456" lon="11.117847190179756"><ele>537.75</ele><time>2026-04-04T13:17:38Z</time></trkpt><trkpt lat="43.26262375957979" lon="11.117736000856361"><ele>536.5</ele><time>2026-04-04T13:17:39Z</time></trkpt><trkpt lat="43.2627400992591" lon="11.11762491957214"><ele>535.25</ele><time>2026-04-04T13:17:40Z</time></trkpt><trkpt lat="43.26283892189947" lon="11.117514953072419"><ele>534.0</ele><time>2026-04-04T13:17:41Z</time></trkpt><trkpt lat="43.26293495386389" lon="11.117415041886854"><ele>533.5</ele><time>2026-04-04T13:17:42Z</time></trkpt><trkpt lat="43.263039391807624" lon="11.117342358438753"><ele>533.0</ele><time>2026-04-04T13:17:43Z</time></trkpt><trkpt lat="43.26313240640932" lon="11.117260847383562"><ele>532.5</ele><time>2026-04-04T13:17:44Z</time></trkpt><trkpt lat="43.263247302946155" lon="11.117226380852413"><ele>532.0</ele><time>2026-04-04T13:17:45Z</time></trkpt><trkpt lat="43.26335134371447" lon="11.117164024476732"><ele>533.2</ele><time>2026-04-04T13:17:46Z</time></trkpt><trkpt lat="43.263439371539214" lon="11.117074856728276"><ele>534.4000000000001</ele><time>2026-04-04T13:17:47Z</time></trkpt><trkpt lat="43.26352013396241" lon="11.116995948508428"><ele>535.5999999999999</ele><time>2026-04-04T13:17:48Z</time></trkpt><trkpt lat="43.26361825984374" lon="11.116941183285777"><ele>536.8</ele><time>2026-04-04T13:17:49Z</time></trkpt><trkpt lat="43.26373235264509" lon="11.11689180361277"><ele>538.0</ele><time>2026-04-04T13:17:50Z</time></trkpt><trkpt lat="43.26385924065982" lon="11.116858716109974"><ele>539.5</ele><time>2026-04-04T13:17:51Z</time></trkpt><trkpt lat="43.263989123894255" lon="11.11683509268578"><ele>541.0</ele><time>2026-04-04T13:17:52Z</time></trkpt><trkpt lat="43.264097165721225" lon="11.116833483634238"><ele>542.5</ele><time>2026-04-04T13:17:53Z</time></trkpt><trkpt lat="43.26421482229814" lon="11.116837258066665"><ele>544.0</ele><time>2026-04-04T13:17:54Z</time></trkpt><trkpt lat="43.26433874510907" lon="11.116834564441914"><ele>544.0</ele><time>2026-04-04T13:17:55Z</time></trkpt><trkpt lat="43.26445616367451" lon="11.11684054981262"><ele>544.0</ele><time>2026-04-04T13:17:56Z</time></trkpt><trkpt lat="43.26458575996884" lon="11.116846993105678"><ele>544.0</ele><time>2026-04-04T13:17:57Z</time></trkpt><trkpt lat="43.26470534887114" lon="11.116857806322383"><ele>544.0</ele><time>2026-04-04T13:17:58Z</time></trkpt><trkpt lat="43.26481821423295" lon="11.116838201802148"><ele>546.0</ele><time>2026-04-04T13:17:59Z</time></trkpt><trkpt lat="43.264912827197534" lon="11.116777390201701"><ele>548.0</ele><time>2026-04-04T13:18:00Z</time></trkpt><trkpt lat="43.26499819029357" lon="11.116683918678381"><ele>550.0</ele><time>2026-04-04T13:18:01Z</time></trkpt><trkpt lat="43.26505731141438" lon="11.116578078065677"><ele>552.0</ele><time>2026-04-04T13:18:02Z</time></trkpt><trkpt lat="43.265077490983195" lon="11.116458069176657"><ele>554.0</ele><time>2026-04-04T13:18:03Z</time></trkpt><trkpt lat="43.26508232770129" lon="11.116304573146476"><ele>554.75</ele><time>2026-04-04T13:18:04Z</time></trkpt><trkpt lat="43.265117533018" lon="11.116162901392304"><ele>555.5</ele><time>2026-04-04T13:18:05Z</time></trkpt><trkpt lat="43.26521883808226" lon="11.116087021433081"><ele>556.25</ele><time>2026-04-04T13:18:06Z</time></trkpt><trkpt lat="43.2653075771127" lon="11.115980463889942"><ele>557.0</ele><time>2026-04-04T13:18:07Z</time></trkpt><trkpt lat="43.26540755963045" lon="11.115882396928098"><ele>557.0</ele><time>2026-04-04T13:18:08Z</time></trkpt><trkpt lat="43.265509810919355" lon="11.115765335901173"><ele>557.0</ele><time>2026-04-04T13:18:09Z</time></trkpt><trkpt lat="43.26562991465487" lon="11.115658859708073"><ele>557.0</ele><time>2026-04-04T13:18:10Z</time></trkpt><trkpt lat="43.26575472303032" lon="11.115581374725254"><ele>557.0</ele><time>2026-04-04T13:18:11Z</time></trkpt><trkpt lat="43.26587127053207" lon="11.115532345591452"><ele>558.0</ele><time>2026-04-04T13:18:12Z</time></trkpt><trkpt lat="43.265977307873456" lon="11.115460826756701"><ele>559.0</ele><time>2026-04-04T13:18:13Z</time></trkpt><trkpt lat="43.266090792332584" lon="11.11537328139455"><ele>560.0</ele><time>2026-04-04T13:18:14Z</time></trkpt><trkpt lat="43.26620384895899" lon="11.11527326313137"><ele>561.0</ele><time>2026-04-04T13:18:15Z</time></trkpt><trkpt lat="43.266327370668066" lon="11.115169057016725"><ele>562.3333333333334</ele><time>2026-04-04T13:18:16Z</time></trkpt><trkpt lat="43.26645472553846" lon="11.115041622328652"><ele>563.6666666666667</ele><time>2026-04-04T13:18:17Z</time></trkpt><trkpt lat="43.266588296098675" lon="11.114911298139152"><ele>565.0</ele><time>2026-04-04T13:18:18Z</time></trkpt><trkpt lat="43.26671549241405" lon="11.114788600021544"><ele>566.25</ele><time>2026-04-04T13:18:19Z</time></trkpt><trkpt lat="43.266825192106715" lon="11.114670152728971"><ele>567.5</ele><time>2026-04-04T13:18:20Z</time></trkpt><trkpt lat="43.26692325118576" lon="11.114543316948472"><ele>568.75</ele><time>2026-04-04T13:18:21Z</time></trkpt><trkpt lat="43.26702233378675" lon="11.114405701750547"><ele>570.0</ele><time>2026-04-04T13:18:22Z</time></trkpt><trkpt lat="43.267130653137514" lon="11.114289449838544"><ele>570.0</ele><time>2026-04-04T13:18:23Z</time></trkpt><trkpt lat="43.26722138878997" lon="11.114138236569978"><ele>570.0</ele><time>2026-04-04T13:18:24Z</time></trkpt><trkpt lat="43.2673105461882" lon="11.114023802404294"><ele>570.0</ele><time>2026-04-04T13:18:25Z</time></trkpt><trkpt lat="43.26738855822625" lon="11.113902717625983"><ele>570.0</ele><time>2026-04-04T13:18:26Z</time></trkpt><trkpt lat="43.26746239841231" lon="11.11376443177847"><ele>572.5</ele><time>2026-04-04T13:18:27Z</time></trkpt><trkpt lat="43.26753071416103" lon="11.113616863989284"><ele>575.0</ele><time>2026-04-04T13:18:28Z</time></trkpt><trkpt lat="43.26759737088122" lon="11.113446144089888"><ele>577.5</ele><time>2026-04-04T13:18:29Z</time></trkpt><trkpt lat="43.267671952749325" lon="11.113281112992734"><ele>580.0</ele><time>2026-04-04T13:18:30Z</time></trkpt><trkpt lat="43.26774624513684" lon="11.113134249891178"><ele>581.25</ele><time>2026-04-04T13:18:31Z</time></trkpt><trkpt lat="43.26784510143905" lon="11.113035840641494"><ele>582.5</ele><time>2026-04-04T13:18:32Z</time></trkpt><trkpt lat="43.26794352262637" lon="11.112900176918895"><ele>583.75</ele><time>2026-04-04T13:18:33Z</time></trkpt><trkpt lat="43.26807247581213" lon="11.112754299545788"><ele>585.0</ele><time>2026-04-04T13:18:34Z</time></trkpt><trkpt lat="43.268195144169894" lon="11.112596466401644"><ele>585.25</ele><time>2026-04-04T13:18:35Z</time></trkpt><trkpt lat="43.26829913538846" lon="11.112450940431"><ele>585.5</ele><time>2026-04-04T13:18:36Z</time></trkpt><trkpt lat="43.268399323703115" lon="11.112352178005027"><ele>585.75</ele><time>2026-04-04T13:18:37Z</time></trkpt><trkpt lat="43.26850226259422" lon="11.112270609378436"><ele>586.0</ele><time>2026-04-04T13:18:38Z</time></trkpt><trkpt lat="43.26862152635156" lon="11.112174412103982"><ele>585.25</ele><time>2026-04-04T13:18:39Z</time></trkpt><trkpt lat="43.268739360336795" lon="11.112067453066457"><ele>584.5</ele><time>2026-04-04T13:18:40Z</time></trkpt><trkpt lat="43.268845438086956" lon="11.111943781561084"><ele>583.75</ele><time>2026-04-04T13:18:41Z</time></trkpt><trkpt lat="43.26894790157528" lon="11.11178350284052"><ele>583.0</ele><time>2026-04-04T13:18:42Z</time></trkpt><trkpt lat="43.26904484427173" lon="11.11161762221792"><ele>583.75</ele><time>2026-04-04T13:18:43Z</time></trkpt><trkpt lat="43.26913917642826" lon="11.111458296245088"><ele>584.5</ele><time>2026-04-04T13:18:44Z</time></trkpt><trkpt lat="43.2692328773786" lon="11.111309780225254"><ele>585.25</ele><time>2026-04-04T13:18:45Z</time></trkpt><trkpt lat="43.269325427373055" lon="11.111183982549804"><ele>586.0</ele><time>2026-04-04T13:18:46Z</time></trkpt><trkpt lat="43.269412079662054" lon="11.111049250483633"><ele>586.0</ele><time>2026-04-04T13:18:47Z</time></trkpt><trkpt lat="43.269482263323596" lon="11.11091794393665"><ele>586.0</ele><time>2026-04-04T13:18:48Z</time></trkpt><trkpt lat="43.26955627888319" lon="11.110795680125426"><ele>586.0</ele><time>2026-04-04T13:18:49Z</time></trkpt><trkpt lat="43.269635993280225" lon="11.110681723035318"><ele>586.0</ele><time>2026-04-04T13:18:50Z</time></trkpt><trkpt lat="43.269734072942214" lon="11.110539472242651"><ele>582.75</ele><time>2026-04-04T13:18:51Z</time></trkpt><trkpt lat="43.26984083713866" lon="11.110398720865343"><ele>579.5</ele><time>2026-04-04T13:18:52Z</time></trkpt><trkpt lat="43.26994321178684" lon="11.110267554262828"><ele>576.25</ele><time>2026-04-04T13:18:53Z</time></trkpt><trkpt lat="43.27004521613622" lon="11.110132767143888"><ele>573.0</ele><time>2026-04-04T13:18:54Z</time></trkpt><trkpt lat="43.27014173232007" lon="11.110006086861349"><ele>571.6</ele><time>2026-04-04T13:18:55Z</time></trkpt><trkpt lat="43.270229039859885" lon="11.109882342292673"><ele>570.1999999999999</ele><time>2026-04-04T13:18:56Z</time></trkpt><trkpt lat="43.270310954478745" lon="11.109775576217976"><ele>568.8</ele><time>2026-04-04T13:18:57.001Z</time></trkpt><trkpt lat="43.27038934027696" lon="11.10968351586215"><ele>567.4</ele><time>2026-04-04T13:18:58.001Z</time></trkpt><trkpt lat="43.270478437875745" lon="11.109608025128168"><ele>566.0</ele><time>2026-04-04T13:18:59.001Z</time></trkpt><trkpt lat="43.27058294559424" lon="11.109545693927167"><ele>565.75</ele><time>2026-04-04T13:19:00.001Z</time></trkpt><trkpt lat="43.27069446835048" lon="11.109482733678067"><ele>565.5</ele><time>2026-04-04T13:19:01.001Z</time></trkpt><trkpt lat="43.27081523309658" lon="11.109410390692041"><ele>565.25</ele><time>2026-04-04T13:19:02.001Z</time></trkpt><trkpt lat="43.27092291816266" lon="11.10935210032167"><ele>565.0</ele><time>2026-04-04T13:19:03.001Z</time></trkpt><trkpt lat="43.27100895598483" lon="11.109297181571014"><ele>565.0</ele><time>2026-04-04T13:19:04.001Z</time></trkpt><trkpt lat="43.271089796433714" lon="11.109254973706053"><ele>565.0</ele><time>2026-04-04T13:19:05.001Z</time></trkpt><trkpt lat="43.271167490694125" lon="11.109241323566048"><ele>565.0</ele><time>2026-04-04T13:19:06.001Z</time></trkpt><trkpt lat="43.271240784347256" lon="11.109250385691226"><ele>565.0</ele><time>2026-04-04T13:19:07.001Z</time></trkpt><trkpt lat="43.271310704908046" lon="11.10927554775898"><ele>565.0</ele><time>2026-04-04T13:19:08.001Z</time></trkpt><trkpt lat="43.27138531688584" lon="11.109310309653168"><ele>565.0</ele><time>2026-04-04T13:19:09.001Z</time></trkpt><trkpt lat="43.27143221206732" lon="11.109400231241791"><ele>564.4</ele><time>2026-04-04T13:19:10.001Z</time></trkpt><trkpt lat="43.27149386959793" lon="11.109494788985902"><ele>563.8</ele><time>2026-04-04T13:19:11.001Z</time></trkpt><trkpt lat="43.2715557533212" lon="11.109590634188917"><ele>563.2</ele><time>2026-04-04T13:19:12.001Z</time></trkpt><trkpt lat="43.27161997428171" lon="11.109692730071089"><ele>562.6</ele><time>2026-04-04T13:19:13.001Z</time></trkpt><trkpt lat="43.271685937251746" lon="11.109797595202844"><ele>562.0</ele><time>2026-04-04T13:19:14.001Z</time></trkpt><trkpt lat="43.27175965599244" lon="11.109910535984984"><ele>561.0</ele><time>2026-04-04T13:19:15.001Z</time></trkpt><trkpt lat="43.27183479800375" lon="11.110023616392397"><ele>560.0</ele><time>2026-04-04T13:19:16.001Z</time></trkpt><trkpt lat="43.27191340826951" lon="11.11011232954758"><ele>559.0</ele><time>2026-04-04T13:19:17.001Z</time></trkpt><trkpt lat="43.271974517301445" lon="11.110216271198698"><ele>558.0</ele><time>2026-04-04T13:19:18.001Z</time></trkpt><trkpt lat="43.272024431916165" lon="11.110337777701845"><ele>557.0</ele><time>2026-04-04T13:19:19.001Z</time></trkpt><trkpt lat="43.27208950399764" lon="11.110412743721406"><ele>557.0</ele><time>2026-04-04T13:19:20.001Z</time></trkpt><trkpt lat="43.272131962343416" lon="11.110486921137575"><ele>557.0</ele><time>2026-04-04T13:19:21.001Z</time></trkpt><trkpt lat="43.272229911435396" lon="11.11055952292992"><ele>557.0</ele><time>2026-04-04T13:19:23.001Z</time></trkpt><trkpt lat="43.27229322795998" lon="11.110550395368238"><ele>557.0</ele><time>2026-04-04T13:19:26.001Z</time></trkpt><trkpt lat="43.27235773080885" lon="11.110524673006694"><ele>557.0</ele><time>2026-04-04T13:19:28.001Z</time></trkpt><trkpt lat="43.27241538755725" lon="11.110475066590237"><ele>557.0</ele><time>2026-04-04T13:19:29.001Z</time></trkpt><trkpt lat="43.27248068351086" lon="11.110398494360666"><ele>556.3333333333333</ele><time>2026-04-04T13:19:30.001Z</time></trkpt><trkpt lat="43.2725373223993" lon="11.110322340344903"><ele>555.6666666666666</ele><time>2026-04-04T13:19:31.001Z</time></trkpt><trkpt lat="43.27258545201383" lon="11.110246426261092"><ele>555.0</ele><time>2026-04-04T13:19:32.001Z</time></trkpt><trkpt lat="43.27263953967623" lon="11.110181442035904"><ele>554.3333333333334</ele><time>2026-04-04T13:19:33.001Z</time></trkpt><trkpt lat="43.27268273925892" lon="11.110097962095443"><ele>553.6666666666667</ele><time>2026-04-04T13:19:34.001Z</time></trkpt><trkpt lat="43.27272525440966" lon="11.109979979173136"><ele>553.0</ele><time>2026-04-04T13:19:35.001Z</time></trkpt><trkpt lat="43.27275715197391" lon="11.109868241334416"><ele>552.5</ele><time>2026-04-04T13:19:36.001Z</time></trkpt><trkpt lat="43.2727718415984" lon="11.109718616806381"><ele>552.0</ele><time>2026-04-04T13:19:37.001Z</time></trkpt><trkpt lat="43.272776325569964" lon="11.10956361712353"><ele>551.5</ele><time>2026-04-04T13:19:38.001Z</time></trkpt><trkpt lat="43.27279435055834" lon="11.109389072108785"><ele>551.0</ele><time>2026-04-04T13:19:39.001Z</time></trkpt><trkpt lat="43.27278404170528" lon="11.109225437423724"><ele>551.2</ele><time>2026-04-04T13:19:40.001Z</time></trkpt><trkpt lat="43.27279688054815" lon="11.109075284905927"><ele>551.4000000000001</ele><time>2026-04-04T13:19:41.001Z</time></trkpt><trkpt lat="43.2728125539304" lon="11.10894064789988"><ele>551.6</ele><time>2026-04-04T13:19:42.001Z</time></trkpt><trkpt lat="43.272849803475594" lon="11.108799496039051"><ele>551.8000000000001</ele><time>2026-04-04T13:19:43.001Z</time></trkpt><trkpt lat="43.27290113717707" lon="11.108643871497632"><ele>552.0</ele><time>2026-04-04T13:19:44.001Z</time></trkpt><trkpt lat="43.2729650299734" lon="11.108500721164097"><ele>552.0</ele><time>2026-04-04T13:19:45.001Z</time></trkpt><trkpt lat="43.273006710030735" lon="11.108359124110612"><ele>552.0</ele><time>2026-04-04T13:19:46.001Z</time></trkpt><trkpt lat="43.27304605561869" lon="11.10822213497381"><ele>552.0</ele><time>2026-04-04T13:19:47.001Z</time></trkpt><trkpt lat="43.27306584411743" lon="11.108075381666403"><ele>552.0</ele><time>2026-04-04T13:19:48.001Z</time></trkpt><trkpt lat="43.273128729837076" lon="11.107956444970878"><ele>552.0</ele><time>2026-04-04T13:19:49.001Z</time></trkpt><trkpt lat="43.273177311527014" lon="11.107834384647234"><ele>547.6</ele><time>2026-04-04T13:19:50.001Z</time></trkpt><trkpt lat="43.27326607575856" lon="11.10773105397637"><ele>543.2</ele><time>2026-04-04T13:19:51.001Z</time></trkpt><trkpt lat="43.27334550098989" lon="11.107629381873501"><ele>538.8</ele><time>2026-04-04T13:19:52.001Z</time></trkpt><trkpt lat="43.27339247108806" lon="11.107512590699514"><ele>534.4</ele><time>2026-04-04T13:19:53.001Z</time></trkpt><trkpt lat="43.27342215846882" lon="11.107371104601816"><ele>530.0</ele><time>2026-04-04T13:19:54.001Z</time></trkpt><trkpt lat="43.27343432663031" lon="11.107207592749004"><ele>528.8</ele><time>2026-04-04T13:19:55.001Z</time></trkpt><trkpt lat="43.27346699707645" lon="11.107052675660052"><ele>527.6</ele><time>2026-04-04T13:19:56.001Z</time></trkpt><trkpt lat="43.273451254823705" lon="11.106898890512856"><ele>526.4</ele><time>2026-04-04T13:19:57.001Z</time></trkpt><trkpt lat="43.27345647816802" lon="11.106773392082872"><ele>525.2</ele><time>2026-04-04T13:19:58.001Z</time></trkpt><trkpt lat="43.27343931726837" lon="11.106624270911865"><ele>524.0</ele><time>2026-04-04T13:19:59.001Z</time></trkpt><trkpt lat="43.27338583893049" lon="11.106484803936805"><ele>526.0</ele><time>2026-04-04T13:20:00.001Z</time></trkpt><trkpt lat="43.27330391551179" lon="11.106363239391856"><ele>528.0</ele><time>2026-04-04T13:20:01.001Z</time></trkpt><trkpt lat="43.273246543918454" lon="11.10623252217112"><ele>530.0</ele><time>2026-04-04T13:20:02.001Z</time></trkpt><trkpt lat="43.273182517272154" lon="11.106113276646367"><ele>532.0</ele><time>2026-04-04T13:20:03.001Z</time></trkpt><trkpt lat="43.27312136877811" lon="11.106005372409758"><ele>534.0</ele><time>2026-04-04T13:20:04.001Z</time></trkpt><trkpt lat="43.273074822744704" lon="11.105898690182856"><ele>534.0</ele><time>2026-04-04T13:20:05.001Z</time></trkpt><trkpt lat="43.27305902464219" lon="11.105772915316216"><ele>534.0</ele><time>2026-04-04T13:20:06.001Z</time></trkpt><trkpt lat="43.273085581167365" lon="11.105645463725688"><ele>534.0</ele><time>2026-04-04T13:20:07.001Z</time></trkpt><trkpt lat="43.2731103930691" lon="11.105480000936764"><ele>534.0</ele><time>2026-04-04T13:20:08.001Z</time></trkpt><trkpt lat="43.273129417621696" lon="11.105316000774462"><ele>534.0</ele><time>2026-04-04T13:20:09.001Z</time></trkpt><trkpt lat="43.273162892120894" lon="11.105141591560242"><ele>527.0</ele><time>2026-04-04T13:20:10.001Z</time></trkpt><trkpt lat="43.27318264429685" lon="11.10498444603691"><ele>520.0</ele><time>2026-04-04T13:20:11.001Z</time></trkpt><trkpt lat="43.27320452142743" lon="11.1048271350689"><ele>513.0</ele><time>2026-04-04T13:20:12.001Z</time></trkpt><trkpt lat="43.2732462881426" lon="11.104661078677106"><ele>506.0</ele><time>2026-04-04T13:20:13.001Z</time></trkpt><trkpt lat="43.27326170472695" lon="11.104515289992884"><ele>505.0</ele><time>2026-04-04T13:20:14.001Z</time></trkpt><trkpt lat="43.27326234025773" lon="11.10435504799631"><ele>504.0</ele><time>2026-04-04T13:20:15.001Z</time></trkpt><trkpt lat="43.27324239919579" lon="11.104170166795992"><ele>503.0</ele><time>2026-04-04T13:20:16.001Z</time></trkpt><trkpt lat="43.27322191426121" lon="11.10401664614356"><ele>502.0</ele><time>2026-04-04T13:20:17.001Z</time></trkpt><trkpt lat="43.2732150590631" lon="11.103875820802363"><ele>501.6</ele><time>2026-04-04T13:20:18.001Z</time></trkpt><trkpt lat="43.27322074541269" lon="11.10375773780664"><ele>501.20000000000005</ele><time>2026-04-04T13:20:19.001Z</time></trkpt><trkpt lat="43.27326266535914" lon="11.1036512093117"><ele>500.8</ele><time>2026-04-04T13:20:20.001Z</time></trkpt><trkpt lat="43.27330877315613" lon="11.103548092394696"><ele>500.4</ele><time>2026-04-04T13:20:21.001Z</time></trkpt><trkpt lat="43.273378685566044" lon="11.103428050536243"><ele>500.0</ele><time>2026-04-04T13:20:22.001Z</time></trkpt><trkpt lat="43.273458533621316" lon="11.103304324285617"><ele>501.2</ele><time>2026-04-04T13:20:23.001Z</time></trkpt><trkpt lat="43.27350958667042" lon="11.103188583738792"><ele>502.4</ele><time>2026-04-04T13:20:24.001Z</time></trkpt><trkpt lat="43.27356529856855" lon="11.103112085508593"><ele>503.6</ele><time>2026-04-04T13:20:25.001Z</time></trkpt><trkpt lat="43.27364655021936" lon="11.103066241251495"><ele>504.8</ele><time>2026-04-04T13:20:26.001Z</time></trkpt><trkpt lat="43.273739165846976" lon="11.103027796657281"><ele>506.0</ele><time>2026-04-04T13:20:27.001Z</time></trkpt><trkpt lat="43.273854562010754" lon="11.102975080898222"><ele>502.4</ele><time>2026-04-04T13:20:28.001Z</time></trkpt><trkpt lat="43.27395803637157" lon="11.102916589075694"><ele>498.8</ele><time>2026-04-04T13:20:29.001Z</time></trkpt><trkpt lat="43.27406670665683" lon="11.102853877566934"><ele>495.19999999999993</ele><time>2026-04-04T13:20:30.001Z</time></trkpt><trkpt lat="43.274171596483136" lon="11.102795651667165"><ele>491.59999999999997</ele><time>2026-04-04T13:20:31.001Z</time></trkpt><trkpt lat="43.274261197689164" lon="11.102718958202415"><ele>488.0</ele><time>2026-04-04T13:20:32.001Z</time></trkpt><trkpt lat="43.27433456763258" lon="11.10263260516268"><ele>488.0</ele><time>2026-04-04T13:20:33.001Z</time></trkpt><trkpt lat="43.27440458781234" lon="11.102547380814505"><ele>487.99999999999994</ele><time>2026-04-04T13:20:34.001Z</time></trkpt><trkpt lat="43.274459718216576" lon="11.102438162882606"><ele>487.99999999999994</ele><time>2026-04-04T13:20:35.001Z</time></trkpt><trkpt lat="43.27450276073684" lon="11.102284993863853"><ele>488.0</ele><time>2026-04-04T13:20:36.001Z</time></trkpt><trkpt lat="43.27456094392661" lon="11.102132214643094"><ele>488.0</ele><time>2026-04-04T13:20:37.001Z</time></trkpt><trkpt lat="43.27460328209067" lon="11.102018228690039"><ele>488.2</ele><time>2026-04-04T13:20:38.001Z</time></trkpt><trkpt lat="43.27464966073648" lon="11.101911533049607"><ele>488.4</ele><time>2026-04-04T13:20:39.001Z</time></trkpt><trkpt lat="43.274713176989124" lon="11.101795237606169"><ele>488.59999999999997</ele><time>2026-04-04T13:20:40.001Z</time></trkpt><trkpt lat="43.2747837627643" lon="11.101723825056128"><ele>488.79999999999995</ele><time>2026-04-04T13:20:41.001Z</time></trkpt><trkpt lat="43.2748997636681" lon="11.101702044271667"><ele>489.0</ele><time>2026-04-04T13:20:42.001Z</time></trkpt><trkpt lat="43.27502125935347" lon="11.101641207645898"><ele>481.5</ele><time>2026-04-04T13:20:43.001Z</time></trkpt><trkpt lat="43.27512910196426" lon="11.101553853722729"><ele>474.0</ele><time>2026-04-04T13:20:44.001Z</time></trkpt><trkpt lat="43.27523157152678" lon="11.101479416468132"><ele>466.5</ele><time>2026-04-04T13:20:45.001Z</time></trkpt><trkpt lat="43.27532922856824" lon="11.10138876009215"><ele>459.0</ele><time>2026-04-04T13:20:46.001Z</time></trkpt><trkpt lat="43.27542205994261" lon="11.101327571536032"><ele>459.0</ele><time>2026-04-04T13:20:47.001Z</time></trkpt><trkpt lat="43.27549161667187" lon="11.101263650845913"><ele>459.0</ele><time>2026-04-04T13:20:48.001Z</time></trkpt><trkpt lat="43.2755592564041" lon="11.101212256672891"><ele>459.0</ele><time>2026-04-04T13:20:49.001Z</time></trkpt><trkpt lat="43.27562721931861" lon="11.101194871316777"><ele>459.0</ele><time>2026-04-04T13:20:50.001Z</time></trkpt><trkpt lat="43.27569283246476" lon="11.101227815986194"><ele>459.0</ele><time>2026-04-04T13:20:51.001Z</time></trkpt><trkpt lat="43.27574754082103" lon="11.101290481816738"><ele>459.0</ele><time>2026-04-04T13:20:52.001Z</time></trkpt><trkpt lat="43.27580736510407" lon="11.101363869578764"><ele>458.8333333333333</ele><time>2026-04-04T13:20:53.001Z</time></trkpt><trkpt lat="43.27589215223391" lon="11.101436269704068"><ele>458.66666666666663</ele><time>2026-04-04T13:20:54.001Z</time></trkpt><trkpt lat="43.27595444982248" lon="11.101524149593468"><ele>458.5</ele><time>2026-04-04T13:20:55.001Z</time></trkpt><trkpt lat="43.27601891072777" lon="11.101608126914485"><ele>458.3333333333333</ele><time>2026-04-04T13:20:56.001Z</time></trkpt><trkpt lat="43.276078623968814" lon="11.101697773641918"><ele>458.16666666666663</ele><time>2026-04-04T13:20:57.001Z</time></trkpt><trkpt lat="43.27613228929736" lon="11.101766936363743"><ele>458.0</ele><time>2026-04-04T13:20:58.001Z</time></trkpt><trkpt lat="43.27619308180865" lon="11.10180434776937"><ele>458.0</ele><time>2026-04-04T13:20:59.001Z</time></trkpt><trkpt lat="43.27625837112659" lon="11.101811319272533"><ele>458.0</ele><time>2026-04-04T13:21:00.001Z</time></trkpt><trkpt lat="43.27632698992287" lon="11.101791940008484"><ele>458.0</ele><time>2026-04-04T13:21:01.001Z</time></trkpt><trkpt lat="43.27639554456367" lon="11.101741706282398"><ele>458.0</ele><time>2026-04-04T13:21:02.001Z</time></trkpt><trkpt lat="43.2764577461091" lon="11.101672864132098"><ele>458.0</ele><time>2026-04-04T13:21:03.001Z</time></trkpt><trkpt lat="43.276497202593625" lon="11.101578794604494"><ele>458.0</ele><time>2026-04-04T13:21:04.001Z</time></trkpt><trkpt lat="43.276526754106115" lon="11.101483361775035"><ele>458.0</ele><time>2026-04-04T13:21:05.001Z</time></trkpt><trkpt lat="43.276529829215455" lon="11.101380203677286"><ele>456.66666666666663</ele><time>2026-04-04T13:21:06.001Z</time></trkpt><trkpt lat="43.276519676791786" lon="11.101293509740339"><ele>455.3333333333333</ele><time>2026-04-04T13:21:07.001Z</time></trkpt><trkpt lat="43.27650135301292" lon="11.101177770527842"><ele>454.0</ele><time>2026-04-04T13:21:08.001Z</time></trkpt><trkpt lat="43.2764765632667" lon="11.101066206002972"><ele>452.66666666666663</ele><time>2026-04-04T13:21:09.001Z</time></trkpt><trkpt lat="43.27643447602341" lon="11.100959934137892"><ele>451.3333333333333</ele><time>2026-04-04T13:21:10.001Z</time></trkpt><trkpt lat="43.276383114580874" lon="11.100847241084626"><ele>450.0</ele><time>2026-04-04T13:21:11.001Z</time></trkpt><trkpt lat="43.27630319064673" lon="11.100713993765101"><ele>446.75</ele><time>2026-04-04T13:21:12.001Z</time></trkpt><trkpt lat="43.27622454473976" lon="11.100586950391838"><ele>443.5</ele><time>2026-04-04T13:21:13.001Z</time></trkpt><trkpt lat="43.27613080088165" lon="11.100434349957203"><ele>440.25</ele><time>2026-04-04T13:21:14.001Z</time></trkpt><trkpt lat="43.27603892011574" lon="11.100282908985685"><ele>437.0</ele><time>2026-04-04T13:21:15.001Z</time></trkpt><trkpt lat="43.27594438220709" lon="11.100125121821142"><ele>437.0</ele><time>2026-04-04T13:21:16.001Z</time></trkpt><trkpt lat="43.27585583172464" lon="11.099972682030806"><ele>437.0</ele><time>2026-04-04T13:21:17.001Z</time></trkpt><trkpt lat="43.275766252580794" lon="11.099814673073691"><ele>437.0</ele><time>2026-04-04T13:21:18.001Z</time></trkpt><trkpt lat="43.27568855946672" lon="11.099667412042413"><ele>437.0</ele><time>2026-04-04T13:21:19.001Z</time></trkpt><trkpt lat="43.2756251690778" lon="11.099514645150439"><ele>439.25</ele><time>2026-04-04T13:21:20.001Z</time></trkpt><trkpt lat="43.27557326314572" lon="11.099360132257848"><ele>441.5</ele><time>2026-04-04T13:21:21.001Z</time></trkpt><trkpt lat="43.275523434447706" lon="11.099187603941527"><ele>443.75</ele><time>2026-04-04T13:21:22.001Z</time></trkpt><trkpt lat="43.27547439208891" lon="11.09901358559669"><ele>446.0</ele><time>2026-04-04T13:21:23.001Z</time></trkpt><trkpt lat="43.27543241347706" lon="11.09884394409001"><ele>446.4</ele><time>2026-04-04T13:21:24.001Z</time></trkpt><trkpt lat="43.275407639021836" lon="11.098690409860307"><ele>446.8</ele><time>2026-04-04T13:21:25.001Z</time></trkpt><trkpt lat="43.27539714464998" lon="11.098555241474342"><ele>447.19999999999993</ele><time>2026-04-04T13:21:26.001Z</time></trkpt><trkpt lat="43.27541684802799" lon="11.098438230674413"><ele>447.59999999999997</ele><time>2026-04-04T13:21:27.001Z</time></trkpt><trkpt lat="43.275454951760175" lon="11.098295038891406"><ele>448.0</ele><time>2026-04-04T13:21:28.001Z</time></trkpt><trkpt lat="43.27550936299083" lon="11.098126404180354"><ele>448.75</ele><time>2026-04-04T13:21:29.001Z</time></trkpt><trkpt lat="43.275571187045415" lon="11.097956504089828"><ele>449.5</ele><time>2026-04-04T13:21:30.001Z</time></trkpt><trkpt lat="43.2756400891659" lon="11.097801153178027"><ele>450.25</ele><time>2026-04-04T13:21:31.001Z</time></trkpt><trkpt lat="43.27571113603075" lon="11.09765612551418"><ele>451.0</ele><time>2026-04-04T13:21:32.001Z</time></trkpt><trkpt lat="43.27578278603317" lon="11.097517267418255"><ele>448.8</ele><time>2026-04-04T13:21:33.001Z</time></trkpt><trkpt lat="43.27585426029022" lon="11.097397919179823"><ele>446.6</ele><time>2026-04-04T13:21:34.001Z</time></trkpt><trkpt lat="43.27593239137405" lon="11.09728808995836"><ele>444.4</ele><time>2026-04-04T13:21:35.001Z</time></trkpt><trkpt lat="43.27600654424856" lon="11.097187316830372"><ele>442.2</ele><time>2026-04-04T13:21:36.001Z</time></trkpt><trkpt lat="43.27606508698341" lon="11.09709187738467"><ele>440.0</ele><time>2026-04-04T13:21:37.001Z</time></trkpt><trkpt lat="43.27612200883153" lon="11.097014064505219"><ele>440.0</ele><time>2026-04-04T13:21:38.001Z</time></trkpt><trkpt lat="43.27622148809461" lon="11.096930692750764"><ele>440.0</ele><time>2026-04-04T13:21:40.001Z</time></trkpt><trkpt lat="43.27627404476585" lon="11.096875433757647"><ele>440.0</ele><time>2026-04-04T13:21:41.001Z</time></trkpt><trkpt lat="43.276327040243075" lon="11.096819756529255"><ele>440.0</ele><time>2026-04-04T13:21:42.001Z</time></trkpt><trkpt lat="43.27638686758809" lon="11.096748619481419"><ele>440.0</ele><time>2026-04-04T13:21:43.001Z</time></trkpt><trkpt lat="43.276488810215554" lon="11.096627207953052"><ele>439.75</ele><time>2026-04-04T13:21:44.001Z</time></trkpt><trkpt lat="43.27659014690849" lon="11.096495641560855"><ele>439.5</ele><time>2026-04-04T13:21:45.001Z</time></trkpt><trkpt lat="43.276692516274764" lon="11.096371368246606"><ele>439.25</ele><time>2026-04-04T13:21:46.001Z</time></trkpt><trkpt lat="43.27681999245427" lon="11.096244525993361"><ele>439.0</ele><time>2026-04-04T13:21:47.001Z</time></trkpt><trkpt lat="43.27691983501731" lon="11.096118298440253"><ele>439.0</ele><time>2026-04-04T13:21:48.001Z</time></trkpt><trkpt lat="43.277005472977876" lon="11.096003386364162"><ele>439.0</ele><time>2026-04-04T13:21:49.001Z</time></trkpt><trkpt lat="43.27710420618643" lon="11.095900992978008"><ele>439.0</ele><time>2026-04-04T13:21:50.001Z</time></trkpt><trkpt lat="43.277190035354415" lon="11.095778127390822"><ele>439.0</ele><time>2026-04-04T13:21:51.001Z</time></trkpt><trkpt lat="43.27730654302439" lon="11.095670851276687"><ele>436.6</ele><time>2026-04-04T13:21:52.001Z</time></trkpt><trkpt lat="43.27740820162384" lon="11.095562776646595"><ele>434.2</ele><time>2026-04-04T13:21:53.001Z</time></trkpt><trkpt lat="43.277497356109365" lon="11.095507291892984"><ele>431.80000000000007</ele><time>2026-04-04T13:21:54.001Z</time></trkpt><trkpt lat="43.27759934409525" lon="11.095445629254737"><ele>429.40000000000003</ele><time>2026-04-04T13:21:55.001Z</time></trkpt><trkpt lat="43.277702121881035" lon="11.095396649193717"><ele>427.0</ele><time>2026-04-04T13:21:56.001Z</time></trkpt><trkpt lat="43.27781915749176" lon="11.095354523457429"><ele>427.0</ele><time>2026-04-04T13:21:57.001Z</time></trkpt><trkpt lat="43.27794873696849" lon="11.095319031354318"><ele>427.00000000000006</ele><time>2026-04-04T13:21:58.001Z</time></trkpt><trkpt lat="43.27806070533535" lon="11.095282463643798"><ele>427.00000000000006</ele><time>2026-04-04T13:21:59.001Z</time></trkpt><trkpt lat="43.2781591183363" lon="11.095234944033969"><ele>427.0</ele><time>2026-04-04T13:22:00.001Z</time></trkpt><trkpt lat="43.27825282921259" lon="11.09520195496659"><ele>427.0</ele><time>2026-04-04T13:22:01.001Z</time></trkpt><trkpt lat="43.278324731839746" lon="11.09511527426183"><ele>423.0</ele><time>2026-04-04T13:22:02.001Z</time></trkpt><trkpt lat="43.27836452903254" lon="11.0949672040811"><ele>419.0</ele><time>2026-04-04T13:22:03.001Z</time></trkpt><trkpt lat="43.278398396660116" lon="11.094804128005691"><ele>415.0</ele><time>2026-04-04T13:22:04.001Z</time></trkpt><trkpt lat="43.27842426199252" lon="11.094634658725948"><ele>411.0</ele><time>2026-04-04T13:22:05.001Z</time></trkpt><trkpt lat="43.27847312193813" lon="11.09447842748065"><ele>411.0</ele><time>2026-04-04T13:22:06.001Z</time></trkpt><trkpt lat="43.278506842251375" lon="11.094331197828868"><ele>411.0</ele><time>2026-04-04T13:22:07.001Z</time></trkpt><trkpt lat="43.278544547986975" lon="11.0941845477312"><ele>411.0</ele><time>2026-04-04T13:22:08.001Z</time></trkpt><trkpt lat="43.27858762699617" lon="11.094061752221402"><ele>411.0</ele><time>2026-04-04T13:22:09.001Z</time></trkpt><trkpt lat="43.27865552091534" lon="11.093975084956517"><ele>411.0</ele><time>2026-04-04T13:22:10.001Z</time></trkpt><trkpt lat="43.27872673257753" lon="11.093925232273909"><ele>412.4</ele><time>2026-04-04T13:22:11.001Z</time></trkpt><trkpt lat="43.27880074101592" lon="11.093898633327706"><ele>413.8</ele><time>2026-04-04T13:22:12.001Z</time></trkpt><trkpt lat="43.278896564591506" lon="11.093896411721271"><ele>415.2</ele><time>2026-04-04T13:22:13.001Z</time></trkpt><trkpt lat="43.279020541838086" lon="11.093873220259109"><ele>416.59999999999997</ele><time>2026-04-04T13:22:14.001Z</time></trkpt><trkpt lat="43.27916625509952" lon="11.093862754889052"><ele>418.0</ele><time>2026-04-04T13:22:15.001Z</time></trkpt><trkpt lat="43.27930400161801" lon="11.093825110120376"><ele>418.5</ele><time>2026-04-04T13:22:16.001Z</time></trkpt><trkpt lat="43.27943908242695" lon="11.093760169508046"><ele>419.0</ele><time>2026-04-04T13:22:17.001Z</time></trkpt><trkpt lat="43.27955914797241" lon="11.093690353750914"><ele>419.5</ele><time>2026-04-04T13:22:18.001Z</time></trkpt><trkpt lat="43.27965714303708" lon="11.093609076044018"><ele>420.0</ele><time>2026-04-04T13:22:19.001Z</time></trkpt><trkpt lat="43.27975802278564" lon="11.0934830365949"><ele>419.0</ele><time>2026-04-04T13:22:20.001Z</time></trkpt><trkpt lat="43.27984461306864" lon="11.093340071971102"><ele>418.0</ele><time>2026-04-04T13:22:21.001Z</time></trkpt><trkpt lat="43.279941685497285" lon="11.093245442319793"><ele>417.0</ele><time>2026-04-04T13:22:22.001Z</time></trkpt><trkpt lat="43.280027808641606" lon="11.093170797857253"><ele>416.0</ele><time>2026-04-04T13:22:23.001Z</time></trkpt><trkpt lat="43.2800995002658" lon="11.093127177729944"><ele>415.0</ele><time>2026-04-04T13:22:24.001Z</time></trkpt><trkpt lat="43.28016332480239" lon="11.093108167917723"><ele>415.0</ele><time>2026-04-04T13:22:25.001Z</time></trkpt><trkpt lat="43.28023106520112" lon="11.093112889744097"><ele>415.0</ele><time>2026-04-04T13:22:26.001Z</time></trkpt><trkpt lat="43.28030061354301" lon="11.093205439986882"><ele>415.0</ele><time>2026-04-04T13:22:27.001Z</time></trkpt><trkpt lat="43.28040342610124" lon="11.093287271358223"><ele>415.0</ele><time>2026-04-04T13:22:28.001Z</time></trkpt><trkpt lat="43.28052228781296" lon="11.093369133819557"><ele>415.0</ele><time>2026-04-04T13:22:29.001Z</time></trkpt><trkpt lat="43.28063394084518" lon="11.093453118171984"><ele>415.75</ele><time>2026-04-04T13:22:30.001Z</time></trkpt><trkpt lat="43.280760808699256" lon="11.093511483491314"><ele>416.5</ele><time>2026-04-04T13:22:31.001Z</time></trkpt><trkpt lat="43.280879629644545" lon="11.09356610461781"><ele>417.25</ele><time>2026-04-04T13:22:32.001Z</time></trkpt><trkpt lat="43.280991597893205" lon="11.093626835429168"><ele>418.0</ele><time>2026-04-04T13:22:33.001Z</time></trkpt><trkpt lat="43.28109389390408" lon="11.09368340994791"><ele>418.0</ele><time>2026-04-04T13:22:34.001Z</time></trkpt><trkpt lat="43.28119785069382" lon="11.093721472864543"><ele>418.0</ele><time>2026-04-04T13:22:35.001Z</time></trkpt><trkpt lat="43.28130367467105" lon="11.093733900809193"><ele>418.0</ele><time>2026-04-04T13:22:36.001Z</time></trkpt><trkpt lat="43.28142032976759" lon="11.093726276109624"><ele>418.0</ele><time>2026-04-04T13:22:37.001Z</time></trkpt><trkpt lat="43.28156366102627" lon="11.093705624741048"><ele>416.75</ele><time>2026-04-04T13:22:38.001Z</time></trkpt><trkpt lat="43.28170550121151" lon="11.09369346216755"><ele>415.5</ele><time>2026-04-04T13:22:39.001Z</time></trkpt><trkpt lat="43.2818284299057" lon="11.093670375239927"><ele>414.25</ele><time>2026-04-04T13:22:40.001Z</time></trkpt><trkpt lat="43.28194523264696" lon="11.093659577855208"><ele>413.0</ele><time>2026-04-04T13:22:41.001Z</time></trkpt><trkpt lat="43.28206867143961" lon="11.093649595636714"><ele>413.0</ele><time>2026-04-04T13:22:42.001Z</time></trkpt><trkpt lat="43.28219920852595" lon="11.093633635093816"><ele>413.0</ele><time>2026-04-04T13:22:43.001Z</time></trkpt><trkpt lat="43.282327154618024" lon="11.093636830680339"><ele>413.0</ele><time>2026-04-04T13:22:44.001Z</time></trkpt><trkpt lat="43.282455746006114" lon="11.093653783345971"><ele>413.0</ele><time>2026-04-04T13:22:45.001Z</time></trkpt><trkpt lat="43.282576823763534" lon="11.093705104418946"><ele>413.75</ele><time>2026-04-04T13:22:46.001Z</time></trkpt><trkpt lat="43.2827061522023" lon="11.093745320203263"><ele>414.5</ele><time>2026-04-04T13:22:47.001Z</time></trkpt><trkpt lat="43.2828331705834" lon="11.093771802056246"><ele>415.25</ele><time>2026-04-04T13:22:48.001Z</time></trkpt><trkpt lat="43.28295387650839" lon="11.093804543050737"><ele>416.0</ele><time>2026-04-04T13:22:49.001Z</time></trkpt><trkpt lat="43.28306506062429" lon="11.09384721300823"><ele>417.0</ele><time>2026-04-04T13:22:50.001Z</time></trkpt><trkpt lat="43.28316569291738" lon="11.093906818158244"><ele>418.0</ele><time>2026-04-04T13:22:51.001Z</time></trkpt><trkpt lat="43.28326765651262" lon="11.093929973253598"><ele>419.0</ele><time>2026-04-04T13:22:52.001Z</time></trkpt><trkpt lat="43.283362750870445" lon="11.0939753733756"><ele>420.0</ele><time>2026-04-04T13:22:53.001Z</time></trkpt><trkpt lat="43.28345112264999" lon="11.094033523100471"><ele>421.0</ele><time>2026-04-04T13:22:54.001Z</time></trkpt><trkpt lat="43.2835453716253" lon="11.094066499396009"><ele>421.00000000000006</ele><time>2026-04-04T13:22:55.001Z</time></trkpt><trkpt lat="43.28363773204826" lon="11.094071344143401"><ele>421.0</ele><time>2026-04-04T13:22:56.001Z</time></trkpt><trkpt lat="43.283731285783425" lon="11.094049291892778"><ele>421.0</ele><time>2026-04-04T13:22:57.001Z</time></trkpt><trkpt lat="43.28380646602741" lon="11.093996938806422"><ele>421.0</ele><time>2026-04-04T13:22:58.001Z</time></trkpt><trkpt lat="43.28386124951917" lon="11.093909442608359"><ele>421.00000000000006</ele><time>2026-04-04T13:22:59.001Z</time></trkpt><trkpt lat="43.28389789216284" lon="11.09380164027746"><ele>421.0</ele><time>2026-04-04T13:23:00.001Z</time></trkpt><trkpt lat="43.28391161465376" lon="11.09367600845206"><ele>421.0</ele><time>2026-04-04T13:23:01.001Z</time></trkpt><trkpt lat="43.28390789058495" lon="11.093537670461766"><ele>421.0</ele><time>2026-04-04T13:23:02.001Z</time></trkpt><trkpt lat="43.28389682984082" lon="11.093398478418584"><ele>421.0</ele><time>2026-04-04T13:23:03.001Z</time></trkpt><trkpt lat="43.28392311884316" lon="11.093273255276031"><ele>421.0</ele><time>2026-04-04T13:23:04.001Z</time></trkpt><trkpt lat="43.28394522229205" lon="11.093146485618714"><ele>421.0</ele><time>2026-04-04T13:23:05.001Z</time></trkpt><trkpt lat="43.28395786157437" lon="11.093007571911846"><ele>420.75</ele><time>2026-04-04T13:23:06.001Z</time></trkpt><trkpt lat="43.28401913671689" lon="11.092872592920012"><ele>420.5</ele><time>2026-04-04T13:23:07.001Z</time></trkpt><trkpt lat="43.28411471377102" lon="11.09274045060709"><ele>420.25</ele><time>2026-04-04T13:23:08.001Z</time></trkpt><trkpt lat="43.28417787897091" lon="11.092571365621959"><ele>420.0</ele><time>2026-04-04T13:23:09.001Z</time></trkpt><trkpt lat="43.284248030714586" lon="11.092425471624471"><ele>421.6</ele><time>2026-04-04T13:23:10.001Z</time></trkpt><trkpt lat="43.28431373488664" lon="11.092286352960365"><ele>423.2</ele><time>2026-04-04T13:23:11.001Z</time></trkpt><trkpt lat="43.284379704191686" lon="11.092174341464537"><ele>424.79999999999995</ele><time>2026-04-04T13:23:12.001Z</time></trkpt><trkpt lat="43.28444072803569" lon="11.092067674871968"><ele>426.4</ele><time>2026-04-04T13:23:13.001Z</time></trkpt><trkpt lat="43.28449818506801" lon="11.091956717105207"><ele>428.0</ele><time>2026-04-04T13:23:14.001Z</time></trkpt><trkpt lat="43.28457798969596" lon="11.091879375012772"><ele>427.99999999999994</ele><time>2026-04-04T13:23:15.001Z</time></trkpt><trkpt lat="43.28463864816882" lon="11.091811955939878"><ele>428.0</ele><time>2026-04-04T13:23:16.001Z</time></trkpt><trkpt lat="43.28469802795651" lon="11.091769407789723"><ele>428.0</ele><time>2026-04-04T13:23:17.001Z</time></trkpt><trkpt lat="43.284765566965326" lon="11.091737789808246"><ele>428.0</ele><time>2026-04-04T13:23:18.001Z</time></trkpt><trkpt lat="43.284833520063735" lon="11.091779688432677"><ele>427.99999999999994</ele><time>2026-04-04T13:23:19.001Z</time></trkpt><trkpt lat="43.284875166983724" lon="11.091887647906148"><ele>428.0</ele><time>2026-04-04T13:23:20.001Z</time></trkpt><trkpt lat="43.28495324016748" lon="11.091964440395575"><ele>426.0</ele><time>2026-04-04T13:23:21.001Z</time></trkpt><trkpt lat="43.285023061854424" lon="11.092071861816075"><ele>424.0</ele><time>2026-04-04T13:23:22.001Z</time></trkpt><trkpt lat="43.28511403649208" lon="11.092185710345722"><ele>422.0</ele><time>2026-04-04T13:23:23.001Z</time></trkpt><trkpt lat="43.28520661800935" lon="11.09229825632426"><ele>420.0</ele><time>2026-04-04T13:23:24.001Z</time></trkpt><trkpt lat="43.285283215820684" lon="11.092398420555769"><ele>417.6</ele><time>2026-04-04T13:23:25.001Z</time></trkpt><trkpt lat="43.285358194770204" lon="11.09249350105279"><ele>415.2</ele><time>2026-04-04T13:23:26.001Z</time></trkpt><trkpt lat="43.28543302564051" lon="11.09258478566222"><ele>412.79999999999995</ele><time>2026-04-04T13:23:27.001Z</time></trkpt><trkpt lat="43.285532461060996" lon="11.092646334249709"><ele>410.4</ele><time>2026-04-04T13:23:28.001Z</time></trkpt><trkpt lat="43.28565112588224" lon="11.09268446608566"><ele>408.0</ele><time>2026-04-04T13:23:29.001Z</time></trkpt><trkpt lat="43.28575649477746" lon="11.09271630491067"><ele>408.0</ele><time>2026-04-04T13:23:30.001Z</time></trkpt><trkpt lat="43.28585957072384" lon="11.092756154334442"><ele>408.0</ele><time>2026-04-04T13:23:31.001Z</time></trkpt><trkpt lat="43.2859601271948" lon="11.092804482872712"><ele>408.0</ele><time>2026-04-04T13:23:32.001Z</time></trkpt><trkpt lat="43.286059217749155" lon="11.092869452566779"><ele>408.0</ele><time>2026-04-04T13:23:33.001Z</time></trkpt><trkpt lat="43.28615604282315" lon="11.092948795503952"><ele>408.0</ele><time>2026-04-04T13:23:34.001Z</time></trkpt><trkpt lat="43.28624923777504" lon="11.09303773638777"><ele>408.0</ele><time>2026-04-04T13:23:35.001Z</time></trkpt><trkpt lat="43.286327333573645" lon="11.093117539155037"><ele>408.0</ele><time>2026-04-04T13:23:36.001Z</time></trkpt><trkpt lat="43.2864018162322" lon="11.093212237114445"><ele>408.0</ele><time>2026-04-04T13:23:37.001Z</time></trkpt><trkpt lat="43.286461281609874" lon="11.093331080825855"><ele>408.0</ele><time>2026-04-04T13:23:38.001Z</time></trkpt><trkpt lat="43.286497600630405" lon="11.093471239562557"><ele>408.0</ele><time>2026-04-04T13:23:39.001Z</time></trkpt><trkpt lat="43.28650418837474" lon="11.093613175921416"><ele>405.59999999999997</ele><time>2026-04-04T13:23:40.001Z</time></trkpt><trkpt lat="43.2864988288576" lon="11.093752758479594"><ele>403.2</ele><time>2026-04-04T13:23:41.001Z</time></trkpt><trkpt lat="43.28649702392629" lon="11.0938875046073"><ele>400.8</ele><time>2026-04-04T13:23:42.001Z</time></trkpt><trkpt lat="43.286522913450455" lon="11.094004317737948"><ele>398.4</ele><time>2026-04-04T13:23:43.001Z</time></trkpt><trkpt lat="43.28658073100899" lon="11.094107090005643"><ele>396.0</ele><time>2026-04-04T13:23:44.001Z</time></trkpt><trkpt lat="43.28665388565195" lon="11.0941815345465"><ele>394.20000000000005</ele><time>2026-04-04T13:23:45.001Z</time></trkpt><trkpt lat="43.28674132479884" lon="11.094240519099845"><ele>392.40000000000003</ele><time>2026-04-04T13:23:46.001Z</time></trkpt><trkpt lat="43.28683805526746" lon="11.094275990988523"><ele>390.6</ele><time>2026-04-04T13:23:47.001Z</time></trkpt><trkpt lat="43.28692870603896" lon="11.094264224324753"><ele>388.8</ele><time>2026-04-04T13:23:48.001Z</time></trkpt><trkpt lat="43.28702047817587" lon="11.09421104865011"><ele>387.0</ele><time>2026-04-04T13:23:49.001Z</time></trkpt><trkpt lat="43.287086369205774" lon="11.094130451276344"><ele>386.8</ele><time>2026-04-04T13:23:50.001Z</time></trkpt><trkpt lat="43.28714119140712" lon="11.094022567687299"><ele>386.6</ele><time>2026-04-04T13:23:51.001Z</time></trkpt><trkpt lat="43.28719186775539" lon="11.093931857644876"><ele>386.40000000000003</ele><time>2026-04-04T13:23:52.001Z</time></trkpt><trkpt lat="43.28726300675903" lon="11.093842867294706"><ele>386.20000000000005</ele><time>2026-04-04T13:23:53.001Z</time></trkpt><trkpt lat="43.28734722385291" lon="11.093770749131998"><ele>386.0</ele><time>2026-04-04T13:23:54.001Z</time></trkpt><trkpt lat="43.28743473108922" lon="11.093707752882763"><ele>386.0</ele><time>2026-04-04T13:23:55.001Z</time></trkpt><trkpt lat="43.287526131134754" lon="11.093658476918305"><ele>386.0</ele><time>2026-04-04T13:23:56.001Z</time></trkpt><trkpt lat="43.28762419780342" lon="11.09361162815499"><ele>386.0</ele><time>2026-04-04T13:23:57.001Z</time></trkpt><trkpt lat="43.28771486363635" lon="11.093580424638787"><ele>386.0</ele><time>2026-04-04T13:23:58.001Z</time></trkpt><trkpt lat="43.28781055082425" lon="11.093557053418952"><ele>386.0</ele><time>2026-04-04T13:23:59.001Z</time></trkpt><trkpt lat="43.28791131231485" lon="11.09352490503717"><ele>386.0</ele><time>2026-04-04T13:24:00.001Z</time></trkpt><trkpt lat="43.28800971546984" lon="11.093475171607823"><ele>386.0</ele><time>2026-04-04T13:24:01.001Z</time></trkpt><trkpt lat="43.2880931430826" lon="11.093406355335306"><ele>386.0</ele><time>2026-04-04T13:24:02.001Z</time></trkpt><trkpt lat="43.28815288110754" lon="11.093320104196142"><ele>386.0</ele><time>2026-04-04T13:24:03.001Z</time></trkpt><trkpt lat="43.28820378756711" lon="11.09321685246425"><ele>386.0</ele><time>2026-04-04T13:24:04.001Z</time></trkpt><trkpt lat="43.288250018970764" lon="11.093085786501593"><ele>384.4</ele><time>2026-04-04T13:24:05.001Z</time></trkpt><trkpt lat="43.28828867730633" lon="11.092956079485292"><ele>382.8</ele><time>2026-04-04T13:24:06.001Z</time></trkpt><trkpt lat="43.28832333964605" lon="11.092825089712232"><ele>381.2</ele><time>2026-04-04T13:24:07.001Z</time></trkpt><trkpt lat="43.2883761582556" lon="11.0927207464278"><ele>379.59999999999997</ele><time>2026-04-04T13:24:08.001Z</time></trkpt><trkpt lat="43.2884569069498" lon="11.092643053270706"><ele>378.0</ele><time>2026-04-04T13:24:09.001Z</time></trkpt><trkpt lat="43.28855264006409" lon="11.09259040512749"><ele>378.0</ele><time>2026-04-04T13:24:10.001Z</time></trkpt><trkpt lat="43.28866530948165" lon="11.092552099001505"><ele>378.0</ele><time>2026-04-04T13:24:11.001Z</time></trkpt><trkpt lat="43.288779842627626" lon="11.092502812255937"><ele>378.0</ele><time>2026-04-04T13:24:12.001Z</time></trkpt><trkpt lat="43.28887593836618" lon="11.092446440961389"><ele>378.0</ele><time>2026-04-04T13:24:13.001Z</time></trkpt><trkpt lat="43.288943186383555" lon="11.092353011526809"><ele>378.0</ele><time>2026-04-04T13:24:14.001Z</time></trkpt><trkpt lat="43.2889999046523" lon="11.09222921964923"><ele>376.0</ele><time>2026-04-04T13:24:15.001Z</time></trkpt><trkpt lat="43.28904346374982" lon="11.092073565099339"><ele>374.0</ele><time>2026-04-04T13:24:16.001Z</time></trkpt><trkpt lat="43.289087020783505" lon="11.091905024783491"><ele>372.0</ele><time>2026-04-04T13:24:17.001Z</time></trkpt><trkpt lat="43.289124822273344" lon="11.091774899780885"><ele>370.0</ele><time>2026-04-04T13:24:18.001Z</time></trkpt><trkpt lat="43.289162352653015" lon="11.091659686744523"><ele>368.0</ele><time>2026-04-04T13:24:19.001Z</time></trkpt><trkpt lat="43.289197428930954" lon="11.091568269058362"><ele>368.0</ele><time>2026-04-04T13:24:20.001Z</time></trkpt><trkpt lat="43.289235123585634" lon="11.091491511395272"><ele>368.0</ele><time>2026-04-04T13:24:21.001Z</time></trkpt><trkpt lat="43.28933438187723" lon="11.09146735411081"><ele>368.0</ele><time>2026-04-04T13:24:23.001Z</time></trkpt><trkpt lat="43.28938931469905" lon="11.091509661146267"><ele>368.0</ele><time>2026-04-04T13:24:24.001Z</time></trkpt><trkpt lat="43.2894278484121" lon="11.091585050576233"><ele>368.0</ele><time>2026-04-04T13:24:25.001Z</time></trkpt><trkpt lat="43.2894400664417" lon="11.091684985068273"><ele>368.0</ele><time>2026-04-04T13:24:26.001Z</time></trkpt><trkpt lat="43.289419530407244" lon="11.091773721578049"><ele>368.0</ele><time>2026-04-04T13:24:27.001Z</time></trkpt><trkpt lat="43.28937497973173" lon="11.091848537194968"><ele>367.79999999999995</ele><time>2026-04-04T13:24:28.001Z</time></trkpt><trkpt lat="43.28931666835735" lon="11.091947359834435"><ele>367.6</ele><time>2026-04-04T13:24:29.001Z</time></trkpt><trkpt lat="43.28927977332364" lon="11.09205000382077"><ele>367.4</ele><time>2026-04-04T13:24:30.001Z</time></trkpt><trkpt lat="43.28925881340915" lon="11.092180780524325"><ele>367.20000000000005</ele><time>2026-04-04T13:24:31.001Z</time></trkpt><trkpt lat="43.289254055127316" lon="11.092311404338703"><ele>367.0</ele><time>2026-04-04T13:24:32.001Z</time></trkpt><trkpt lat="43.28926889669468" lon="11.092435462269211"><ele>365.75</ele><time>2026-04-04T13:24:33.001Z</time></trkpt><trkpt lat="43.28930835816273" lon="11.092553373752851"><ele>364.5</ele><time>2026-04-04T13:24:34.001Z</time></trkpt><trkpt lat="43.28937149512168" lon="11.092677749304544"><ele>363.25</ele><time>2026-04-04T13:24:35.001Z</time></trkpt><trkpt lat="43.28944090060053" lon="11.092821547225602"><ele>362.0</ele><time>2026-04-04T13:24:36.001Z</time></trkpt><trkpt lat="43.28951676989867" lon="11.09296237500779"><ele>362.0</ele><time>2026-04-04T13:24:37.001Z</time></trkpt><trkpt lat="43.28959891950703" lon="11.093076330669904"><ele>362.0</ele><time>2026-04-04T13:24:38.001Z</time></trkpt><trkpt lat="43.28968042138244" lon="11.093172788080865"><ele>362.0</ele><time>2026-04-04T13:24:39.001Z</time></trkpt><trkpt lat="43.28976035060556" lon="11.093257070201192"><ele>362.0</ele><time>2026-04-04T13:24:40.001Z</time></trkpt><trkpt lat="43.289812542831015" lon="11.093379649408622"><ele>362.0</ele><time>2026-04-04T13:24:41.001Z</time></trkpt><trkpt lat="43.289871935172386" lon="11.093495217952103"><ele>359.20000000000005</ele><time>2026-04-04T13:24:42.001Z</time></trkpt><trkpt lat="43.28993321181869" lon="11.09360391982901"><ele>356.4</ele><time>2026-04-04T13:24:43.001Z</time></trkpt><trkpt lat="43.28997168143994" lon="11.093721920931324"><ele>353.6</ele><time>2026-04-04T13:24:44.001Z</time></trkpt><trkpt lat="43.290001094835844" lon="11.093803696246532"><ele>350.79999999999995</ele><time>2026-04-04T13:24:45.001Z</time></trkpt><trkpt lat="43.290111660497814" lon="11.093873160154455"><ele>348.0</ele><time>2026-04-04T13:24:47.001Z</time></trkpt><trkpt lat="43.29019955198621" lon="11.093853295133233"><ele>348.0</ele><time>2026-04-04T13:24:48.001Z</time></trkpt><trkpt lat="43.29028278562866" lon="11.093806776264755"><ele>348.0</ele><time>2026-04-04T13:24:49.001Z</time></trkpt><trkpt lat="43.29034753932169" lon="11.093720999234174"><ele>348.0</ele><time>2026-04-04T13:24:50.001Z</time></trkpt><trkpt lat="43.290402409935396" lon="11.093608338557233"><ele>348.0</ele><time>2026-04-04T13:24:51.001Z</time></trkpt><trkpt lat="43.29044513496439" lon="11.09346946489384"><ele>348.0</ele><time>2026-04-04T13:24:52.001Z</time></trkpt><trkpt lat="43.2904782501246" lon="11.093318565445834"><ele>348.59999999999997</ele><time>2026-04-04T13:24:53.001Z</time></trkpt><trkpt lat="43.290528978369835" lon="11.093175301211602"><ele>349.2</ele><time>2026-04-04T13:24:54.001Z</time></trkpt><trkpt lat="43.29058200237444" lon="11.093041113469848"><ele>349.8</ele><time>2026-04-04T13:24:55.001Z</time></trkpt><trkpt lat="43.2906313749811" lon="11.092914011209565"><ele>350.4</ele><time>2026-04-04T13:24:56.001Z</time></trkpt><trkpt lat="43.29067923302887" lon="11.092806382254011"><ele>351.0</ele><time>2026-04-04T13:24:57.001Z</time></trkpt><trkpt lat="43.290753850336365" lon="11.092716502066132"><ele>348.1666666666667</ele><time>2026-04-04T13:24:58.001Z</time></trkpt><trkpt lat="43.29082464977018" lon="11.092633482907175"><ele>345.3333333333333</ele><time>2026-04-04T13:24:59.001Z</time></trkpt><trkpt lat="43.290882787090105" lon="11.092539080161652"><ele>342.5</ele><time>2026-04-04T13:25:00.001Z</time></trkpt><trkpt lat="43.290960299850454" lon="11.092468414644062"><ele>339.66666666666663</ele><time>2026-04-04T13:25:01.001Z</time></trkpt><trkpt lat="43.291024009109165" lon="11.092391470570119"><ele>336.8333333333333</ele><time>2026-04-04T13:25:02.001Z</time></trkpt><trkpt lat="43.29106884821286" lon="11.092301730593231"><ele>334.0</ele><time>2026-04-04T13:25:03.001Z</time></trkpt><trkpt lat="43.291108896626085" lon="11.092181357632782"><ele>333.6</ele><time>2026-04-04T13:25:04.001Z</time></trkpt><trkpt lat="43.291143284430454" lon="11.092056060216228"><ele>333.2</ele><time>2026-04-04T13:25:05.001Z</time></trkpt><trkpt lat="43.29116642746421" lon="11.091913386831845"><ele>332.8</ele><time>2026-04-04T13:25:06Z</time></trkpt><trkpt lat="43.291172843809186" lon="11.091743731198656"><ele>332.40000000000003</ele><time>2026-04-04T13:25:07Z</time></trkpt><trkpt lat="43.29115607040504" lon="11.091592213662192"><ele>332.0</ele><time>2026-04-04T13:25:08Z</time></trkpt><trkpt lat="43.29112829232873" lon="11.091445607569954"><ele>330.6</ele><time>2026-04-04T13:25:09Z</time></trkpt><trkpt lat="43.29108554812492" lon="11.091310804280685"><ele>329.20000000000005</ele><time>2026-04-04T13:25:10Z</time></trkpt><trkpt lat="43.29102227918768" lon="11.091190523071525"><ele>327.8</ele><time>2026-04-04T13:25:11Z</time></trkpt><trkpt lat="43.290948696145946" lon="11.091070858240839"><ele>326.4</ele><time>2026-04-04T13:25:12Z</time></trkpt><trkpt lat="43.29090387913893" lon="11.090926620130649"><ele>325.0</ele><time>2026-04-04T13:25:13Z</time></trkpt><trkpt lat="43.290863543683216" lon="11.090819962775775"><ele>325.0</ele><time>2026-04-04T13:25:14Z</time></trkpt><trkpt lat="43.290866878421426" lon="11.09070443091807"><ele>325.0</ele><time>2026-04-04T13:25:15.001Z</time></trkpt><trkpt lat="43.290900254904614" lon="11.090602936184013"><ele>325.0</ele><time>2026-04-04T13:25:16.001Z</time></trkpt><trkpt lat="43.29095537903777" lon="11.090495868263496"><ele>325.0</ele><time>2026-04-04T13:25:17.001Z</time></trkpt><trkpt lat="43.291010663090404" lon="11.090419436871024"><ele>325.0</ele><time>2026-04-04T13:25:18.001Z</time></trkpt><trkpt lat="43.291076809662755" lon="11.090386345542301"><ele>325.0</ele><time>2026-04-04T13:25:19.001Z</time></trkpt><trkpt lat="43.29115623397177" lon="11.090395252040974"><ele>325.0</ele><time>2026-04-04T13:25:20.001Z</time></trkpt><trkpt lat="43.29126029792396" lon="11.090422511923522"><ele>325.0</ele><time>2026-04-04T13:25:21.001Z</time></trkpt><trkpt lat="43.29137931330953" lon="11.09044785464087"><ele>325.0</ele><time>2026-04-04T13:25:22.001Z</time></trkpt><trkpt lat="43.291502306097485" lon="11.090468354194549"><ele>325.0</ele><time>2026-04-04T13:25:23.001Z</time></trkpt><trkpt lat="43.291618153123906" lon="11.090476379626391"><ele>323.6</ele><time>2026-04-04T13:25:24.001Z</time></trkpt><trkpt lat="43.29172706112702" lon="11.090494843544786"><ele>322.2</ele><time>2026-04-04T13:25:25.001Z</time></trkpt><trkpt lat="43.29182984066127" lon="11.090534337815882"><ele>320.8</ele><time>2026-04-04T13:25:26.001Z</time></trkpt><trkpt lat="43.291929012818024" lon="11.090587807541903"><ele>319.4</ele><time>2026-04-04T13:25:27.001Z</time></trkpt><trkpt lat="43.29202553159418" lon="11.090655956988618"><ele>318.0</ele><time>2026-04-04T13:25:28.001Z</time></trkpt><trkpt lat="43.29212731440137" lon="11.090721901520993"><ele>317.0</ele><time>2026-04-04T13:25:29.001Z</time></trkpt><trkpt lat="43.292228192025455" lon="11.090783169907754"><ele>316.0</ele><time>2026-04-04T13:25:30.001Z</time></trkpt><trkpt lat="43.292311268015474" lon="11.090836516648286"><ele>315.0</ele><time>2026-04-04T13:25:31.001Z</time></trkpt><trkpt lat="43.29238136262906" lon="11.09087090420665"><ele>314.0</ele><time>2026-04-04T13:25:32.001Z</time></trkpt><trkpt lat="43.29250077409823" lon="11.090897835979483"><ele>313.0</ele><time>2026-04-04T13:25:34.001Z</time></trkpt><trkpt lat="43.29259119563678" lon="11.090931632706207"><ele>310.8</ele><time>2026-04-04T13:25:36.001Z</time></trkpt><trkpt lat="43.29251795221745" lon="11.09105628696304"><ele>308.6</ele><time>2026-04-04T13:25:40.001Z</time></trkpt><trkpt lat="43.292489643663565" lon="11.091189868997489"><ele>306.4</ele><time>2026-04-04T13:25:42.001Z</time></trkpt><trkpt lat="43.29249072889841" lon="11.091288577044107"><ele>304.2</ele><time>2026-04-04T13:25:43.001Z</time></trkpt><trkpt lat="43.29253844419885" lon="11.091398906335078"><ele>302.0</ele><time>2026-04-04T13:25:44.001Z</time></trkpt><trkpt lat="43.292595494345186" lon="11.09149783362277"><ele>302.0</ele><time>2026-04-04T13:25:45.001Z</time></trkpt><trkpt lat="43.29267394250003" lon="11.091563595374797"><ele>302.0</ele><time>2026-04-04T13:25:46.001Z</time></trkpt><trkpt lat="43.29277746597427" lon="11.091629714550304"><ele>302.0</ele><time>2026-04-04T13:25:47.001Z</time></trkpt><trkpt lat="43.29289186413798" lon="11.091684704714964"><ele>302.0</ele><time>2026-04-04T13:25:48.001Z</time></trkpt><trkpt lat="43.29300355628833" lon="11.091717781846997"><ele>302.0</ele><time>2026-04-04T13:25:49.001Z</time></trkpt><trkpt lat="43.29310655064413" lon="11.091749419174535"><ele>300.8</ele><time>2026-04-04T13:25:50.001Z</time></trkpt><trkpt lat="43.29320856451693" lon="11.09180245148025"><ele>299.6</ele><time>2026-04-04T13:25:51.001Z</time></trkpt><trkpt lat="43.29327817826504" lon="11.091919919918276"><ele>298.40000000000003</ele><time>2026-04-04T13:25:52.001Z</time></trkpt><trkpt lat="43.2933234847103" lon="11.092048780596773"><ele>297.2</ele><time>2026-04-04T13:25:53.001Z</time></trkpt><trkpt lat="43.29333198108213" lon="11.092187120297043"><ele>296.0</ele><time>2026-04-04T13:25:54.001Z</time></trkpt><trkpt lat="43.293341594290006" lon="11.092337022614704"><ele>296.6</ele><time>2026-04-04T13:25:55.001Z</time></trkpt><trkpt lat="43.293331945459585" lon="11.092470670812917"><ele>297.20000000000005</ele><time>2026-04-04T13:25:56.001Z</time></trkpt><trkpt lat="43.29330369816988" lon="11.09260223764003"><ele>297.79999999999995</ele><time>2026-04-04T13:25:57.001Z</time></trkpt><trkpt lat="43.29326205452334" lon="11.09272235794555"><ele>298.4</ele><time>2026-04-04T13:25:58.001Z</time></trkpt><trkpt lat="43.29319797878356" lon="11.092814237456583"><ele>299.0</ele><time>2026-04-04T13:25:59.001Z</time></trkpt><trkpt lat="43.29311422024559" lon="11.09289914143783"><ele>300.25</ele><time>2026-04-04T13:26:00.001Z</time></trkpt><trkpt lat="43.293026466152526" lon="11.093000329499468"><ele>301.5</ele><time>2026-04-04T13:26:01.001Z</time></trkpt><trkpt lat="43.29293859175843" lon="11.093121648808838"><ele>302.75</ele><time>2026-04-04T13:26:02.001Z</time></trkpt><trkpt lat="43.292856625590325" lon="11.093255797567615"><ele>304.0</ele><time>2026-04-04T13:26:03.001Z</time></trkpt><trkpt lat="43.29281802464017" lon="11.09341311521676"><ele>304.0</ele><time>2026-04-04T13:26:04.001Z</time></trkpt><trkpt lat="43.2928326131835" lon="11.093572522660795"><ele>304.0</ele><time>2026-04-04T13:26:05.001Z</time></trkpt><trkpt lat="43.29286888176552" lon="11.093726099815282"><ele>304.0</ele><time>2026-04-04T13:26:06.001Z</time></trkpt><trkpt lat="43.29291882176867" lon="11.093897896531104"><ele>304.0</ele><time>2026-04-04T13:26:07.001Z</time></trkpt><trkpt lat="43.292964334899686" lon="11.094077945707589"><ele>303.75</ele><time>2026-04-04T13:26:08.001Z</time></trkpt><trkpt lat="43.29304152492141" lon="11.09425225310277"><ele>303.5</ele><time>2026-04-04T13:26:09.001Z</time></trkpt><trkpt lat="43.29313902677256" lon="11.0944025884257"><ele>303.25</ele><time>2026-04-04T13:26:10.001Z</time></trkpt><trkpt lat="43.293225012568705" lon="11.094527889674506"><ele>303.0</ele><time>2026-04-04T13:26:11.001Z</time></trkpt><trkpt lat="43.29328887806364" lon="11.09466135148134"><ele>301.0</ele><time>2026-04-04T13:26:12.001Z</time></trkpt><trkpt lat="43.29332803097859" lon="11.094802312594512"><ele>299.0</ele><time>2026-04-04T13:26:13.001Z</time></trkpt><trkpt lat="43.293333507071935" lon="11.094943161610537"><ele>297.0</ele><time>2026-04-04T13:26:14.001Z</time></trkpt><trkpt lat="43.2932699127741" lon="11.095058458062663"><ele>295.0</ele><time>2026-04-04T13:26:15.001Z</time></trkpt><trkpt lat="43.293186232467804" lon="11.095113462545655"><ele>293.0</ele><time>2026-04-04T13:26:16.001Z</time></trkpt><trkpt lat="43.29309122389568" lon="11.095154059513037"><ele>295.0</ele><time>2026-04-04T13:26:17.001Z</time></trkpt><trkpt lat="43.2929802114721" lon="11.095209939196918"><ele>297.0</ele><time>2026-04-04T13:26:18.001Z</time></trkpt><trkpt lat="43.29287622389808" lon="11.095299179339756"><ele>299.0</ele><time>2026-04-04T13:26:19.001Z</time></trkpt><trkpt lat="43.29278256423808" lon="11.095406067961738"><ele>301.0</ele><time>2026-04-04T13:26:20.001Z</time></trkpt><trkpt lat="43.29271447684357" lon="11.095536824123739"><ele>301.0</ele><time>2026-04-04T13:26:21.001Z</time></trkpt><trkpt lat="43.29272874130653" lon="11.09571716864776"><ele>301.0</ele><time>2026-04-04T13:26:22.001Z</time></trkpt><trkpt lat="43.292763019982154" lon="11.095882615528872"><ele>301.0</ele><time>2026-04-04T13:26:23.001Z</time></trkpt><trkpt lat="43.29282709723439" lon="11.096030885455864"><ele>301.0</ele><time>2026-04-04T13:26:24.001Z</time></trkpt><trkpt lat="43.29293056060719" lon="11.096122304947201"><ele>301.0</ele><time>2026-04-04T13:26:25.001Z</time></trkpt><trkpt lat="43.29304596501248" lon="11.096196385773945"><ele>301.0</ele><time>2026-04-04T13:26:26.001Z</time></trkpt><trkpt lat="43.29314471925442" lon="11.09626906692287"><ele>301.0</ele><time>2026-04-04T13:26:27.001Z</time></trkpt><trkpt lat="43.29323900763329" lon="11.09634344058818"><ele>301.0</ele><time>2026-04-04T13:26:28.001Z</time></trkpt><trkpt lat="43.29329800571088" lon="11.096473992472793"><ele>299.5</ele><time>2026-04-04T13:26:29.001Z</time></trkpt><trkpt lat="43.29331206908246" lon="11.096639741265328"><ele>298.0</ele><time>2026-04-04T13:26:30.001Z</time></trkpt><trkpt lat="43.29332872236875" lon="11.096818744841482"><ele>296.5</ele><time>2026-04-04T13:26:31.001Z</time></trkpt><trkpt lat="43.29335199666288" lon="11.097011941072955"><ele>295.0</ele><time>2026-04-04T13:26:32.001Z</time></trkpt><trkpt lat="43.29337848904618" lon="11.097213148050074"><ele>295.0</ele><time>2026-04-04T13:26:33.001Z</time></trkpt><trkpt lat="43.29343103628569" lon="11.097381899726154"><ele>295.0</ele><time>2026-04-04T13:26:34.001Z</time></trkpt><trkpt lat="43.29349659043482" lon="11.097532507524482"><ele>295.0</ele><time>2026-04-04T13:26:35.001Z</time></trkpt><trkpt lat="43.29353663210631" lon="11.097685251403004"><ele>295.0</ele><time>2026-04-04T13:26:36.001Z</time></trkpt><trkpt lat="43.29357602790614" lon="11.09783695900598"><ele>294.75</ele><time>2026-04-04T13:26:37.001Z</time></trkpt><trkpt lat="43.29360128716827" lon="11.098013675681784"><ele>294.5</ele><time>2026-04-04T13:26:38.001Z</time></trkpt><trkpt lat="43.29361893110522" lon="11.098189534050068"><ele>294.25</ele><time>2026-04-04T13:26:39.001Z</time></trkpt><trkpt lat="43.29362986086465" lon="11.098351475726624"><ele>294.0</ele><time>2026-04-04T13:26:40.001Z</time></trkpt><trkpt lat="43.29366457795344" lon="11.098525016533875"><ele>294.5</ele><time>2026-04-04T13:26:41.001Z</time></trkpt><trkpt lat="43.29370349521771" lon="11.098694792043235"><ele>295.0</ele><time>2026-04-04T13:26:42.001Z</time></trkpt><trkpt lat="43.293775798397185" lon="11.09883966138776"><ele>295.5</ele><time>2026-04-04T13:26:43.001Z</time></trkpt><trkpt lat="43.29387021669832" lon="11.098960097397324"><ele>296.0</ele><time>2026-04-04T13:26:44.001Z</time></trkpt><trkpt lat="43.293985473943515" lon="11.099057061942588"><ele>294.25</ele><time>2026-04-04T13:26:45.001Z</time></trkpt><trkpt lat="43.294096314465286" lon="11.099147170886361"><ele>292.5</ele><time>2026-04-04T13:26:46.001Z</time></trkpt><trkpt lat="43.29421103185801" lon="11.099227486220112"><ele>290.75</ele><time>2026-04-04T13:26:47.001Z</time></trkpt><trkpt lat="43.29432974586244" lon="11.099299123740856"><ele>289.0</ele><time>2026-04-04T13:26:48.001Z</time></trkpt><trkpt lat="43.29444658434792" lon="11.099354584632021"><ele>289.0</ele><time>2026-04-04T13:26:49.001Z</time></trkpt><trkpt lat="43.294569250779496" lon="11.099389134994121"><ele>289.0</ele><time>2026-04-04T13:26:50.001Z</time></trkpt><trkpt lat="43.29469415059178" lon="11.099416974401644"><ele>289.0</ele><time>2026-04-04T13:26:51.001Z</time></trkpt><trkpt lat="43.294817328009856" lon="11.099427114690515"><ele>289.0</ele><time>2026-04-04T13:26:52.001Z</time></trkpt><trkpt lat="43.29494585906517" lon="11.099437398848409"><ele>288.5</ele><time>2026-04-04T13:26:53.001Z</time></trkpt><trkpt lat="43.295079910962336" lon="11.099451923494929"><ele>288.0</ele><time>2026-04-04T13:26:54.001Z</time></trkpt><trkpt lat="43.29522029111677" lon="11.099470063250019"><ele>287.5</ele><time>2026-04-04T13:26:55.001Z</time></trkpt><trkpt lat="43.295344625543706" lon="11.099486496882125"><ele>287.0</ele><time>2026-04-04T13:26:56.001Z</time></trkpt><trkpt lat="43.29546161333841" lon="11.099500861021557"><ele>287.0</ele><time>2026-04-04T13:26:57.001Z</time></trkpt><trkpt lat="43.295567793096644" lon="11.099515729167742"><ele>287.0</ele><time>2026-04-04T13:26:58.001Z</time></trkpt><trkpt lat="43.29566857031099" lon="11.099527279989134"><ele>287.0</ele><time>2026-04-04T13:26:59.001Z</time></trkpt><trkpt lat="43.2957655143453" lon="11.099536514155147"><ele>287.0</ele><time>2026-04-04T13:27:00.001Z</time></trkpt><trkpt lat="43.295854606142605" lon="11.09954709944044"><ele>287.0</ele><time>2026-04-04T13:27:01.001Z</time></trkpt><trkpt lat="43.295948184814605" lon="11.099569771283845"><ele>287.0</ele><time>2026-04-04T13:27:02.001Z</time></trkpt><trkpt lat="43.296048218977226" lon="11.099591574690768"><ele>287.0</ele><time>2026-04-04T13:27:03.001Z</time></trkpt><trkpt lat="43.296144255658994" lon="11.099630468972856"><ele>287.0</ele><time>2026-04-04T13:27:04.001Z</time></trkpt><trkpt lat="43.29624202301742" lon="11.099681911396878"><ele>287.0</ele><time>2026-04-04T13:27:05.001Z</time></trkpt><trkpt lat="43.296336533697705" lon="11.099730849383738"><ele>287.0</ele><time>2026-04-04T13:27:06.001Z</time></trkpt><trkpt lat="43.296419795923214" lon="11.099801349241902"><ele>287.33333333333337</ele><time>2026-04-04T13:27:07.001Z</time></trkpt><trkpt lat="43.296499373785664" lon="11.099848813827206"><ele>287.6666666666667</ele><time>2026-04-04T13:27:08.001Z</time></trkpt><trkpt lat="43.296564839032946" lon="11.099870528926091"><ele>288.0</ele><time>2026-04-04T13:27:09Z</time></trkpt><trkpt lat="43.29663444967185" lon="11.099877922243767"><ele>288.3333333333333</ele><time>2026-04-04T13:27:11Z</time></trkpt><trkpt lat="43.2966877252798" lon="11.099669427629399"><ele>288.66666666666663</ele><time>2026-04-04T13:27:24.001Z</time></trkpt><trkpt lat="43.29669850745115" lon="11.099583248590967"><ele>289.0</ele><time>2026-04-04T13:27:25.001Z</time></trkpt><trkpt lat="43.29674060744482" lon="11.099431458190113"><ele>289.0</ele><time>2026-04-04T13:27:27.001Z</time></trkpt><trkpt lat="43.296816626146466" lon="11.099317540734443"><ele>289.0</ele><time>2026-04-04T13:27:29.001Z</time></trkpt><trkpt lat="43.296874147752014" lon="11.099260976374008"><ele>289.0</ele><time>2026-04-04T13:27:30.001Z</time></trkpt><trkpt lat="43.296940897779244" lon="11.09921875747012"><ele>289.0</ele><time>2026-04-04T13:27:31.001Z</time></trkpt><trkpt lat="43.29701905000911" lon="11.099176882865514"><ele>289.0</ele><time>2026-04-04T13:27:32.001Z</time></trkpt><trkpt lat="43.29709010589871" lon="11.099127935598318"><ele>289.0</ele><time>2026-04-04T13:27:33.001Z</time></trkpt><trkpt lat="43.29715320563184" lon="11.0990659924585"><ele>288.8</ele><time>2026-04-04T13:27:34.001Z</time></trkpt><trkpt lat="43.2972212157984" lon="11.098992291836431"><ele>288.59999999999997</ele><time>2026-04-04T13:27:35.001Z</time></trkpt><trkpt lat="43.29728462179083" lon="11.098909416183284"><ele>288.4</ele><time>2026-04-04T13:27:36.001Z</time></trkpt><trkpt lat="43.29734861640511" lon="11.098821763575229"><ele>288.2</ele><time>2026-04-04T13:27:37.001Z</time></trkpt><trkpt lat="43.29741686857057" lon="11.098729841567604"><ele>288.0</ele><time>2026-04-04T13:27:38.001Z</time></trkpt><trkpt lat="43.297490779127564" lon="11.098639820045067"><ele>287.8</ele><time>2026-04-04T13:27:39.001Z</time></trkpt><trkpt lat="43.297562293572156" lon="11.098548188872135"><ele>287.6</ele><time>2026-04-04T13:27:40.001Z</time></trkpt><trkpt lat="43.297640091722904" lon="11.09844685696259"><ele>287.4</ele><time>2026-04-04T13:27:41.001Z</time></trkpt><trkpt lat="43.29772570431538" lon="11.098337082711184"><ele>287.2</ele><time>2026-04-04T13:27:42.001Z</time></trkpt><trkpt lat="43.29781235775691" lon="11.098220080341608"><ele>287.0</ele><time>2026-04-04T13:27:43.001Z</time></trkpt><trkpt lat="43.29789152311583" lon="11.098122324977023"><ele>286.0</ele><time>2026-04-04T13:27:44.001Z</time></trkpt><trkpt lat="43.29797951723054" lon="11.098038872444281"><ele>285.0</ele><time>2026-04-04T13:27:45.001Z</time></trkpt><trkpt lat="43.29808224838887" lon="11.09796039013737"><ele>284.0</ele><time>2026-04-04T13:27:46.001Z</time></trkpt><trkpt lat="43.298200539307956" lon="11.097899884459615"><ele>283.0</ele><time>2026-04-04T13:27:47.001Z</time></trkpt><trkpt lat="43.298310587337674" lon="11.097842247159878"><ele>283.0</ele><time>2026-04-04T13:27:48.001Z</time></trkpt><trkpt lat="43.29841910582668" lon="11.097800540480854"><ele>283.0</ele><time>2026-04-04T13:27:49.001Z</time></trkpt><trkpt lat="43.29854314958511" lon="11.097765665124243"><ele>283.0</ele><time>2026-04-04T13:27:50.001Z</time></trkpt><trkpt lat="43.298671993134015" lon="11.097751615659037"><ele>283.0</ele><time>2026-04-04T13:27:51.001Z</time></trkpt><trkpt lat="43.29880969170744" lon="11.0977342942239"><ele>283.0</ele><time>2026-04-04T13:27:52.001Z</time></trkpt><trkpt lat="43.29895667535597" lon="11.097714248150295"><ele>283.0</ele><time>2026-04-04T13:27:53.001Z</time></trkpt><trkpt lat="43.29909891060647" lon="11.097701931683934"><ele>283.0</ele><time>2026-04-04T13:27:54.001Z</time></trkpt><trkpt lat="43.2992465703867" lon="11.097686682988119"><ele>283.0</ele><time>2026-04-04T13:27:55.001Z</time></trkpt><trkpt lat="43.29939241623112" lon="11.097675006473349"><ele>283.0</ele><time>2026-04-04T13:27:56.001Z</time></trkpt><trkpt lat="43.299537094968805" lon="11.097661159943343"><ele>283.0</ele><time>2026-04-04T13:27:57.001Z</time></trkpt><trkpt lat="43.29967814944522" lon="11.097649460629464"><ele>283.0</ele><time>2026-04-04T13:27:58.001Z</time></trkpt><trkpt lat="43.29982746733708" lon="11.097632220299806"><ele>283.0</ele><time>2026-04-04T13:27:59.001Z</time></trkpt><trkpt lat="43.29997730838348" lon="11.097615796753312"><ele>282.0</ele><time>2026-04-04T13:28:00.001Z</time></trkpt><trkpt lat="43.30012065177156" lon="11.0976065714901"><ele>281.0</ele><time>2026-04-04T13:28:01.001Z</time></trkpt><trkpt lat="43.30026735428711" lon="11.097600884637693"><ele>280.0</ele><time>2026-04-04T13:28:02.001Z</time></trkpt><trkpt lat="43.30041567708892" lon="11.09759677278247"><ele>279.0</ele><time>2026-04-04T13:28:03.001Z</time></trkpt><trkpt lat="43.300560541019415" lon="11.097593247719761"><ele>278.0</ele><time>2026-04-04T13:28:04.001Z</time></trkpt><trkpt lat="43.300703544450926" lon="11.09758749869772"><ele>277.0</ele><time>2026-04-04T13:28:05.001Z</time></trkpt><trkpt lat="43.30085236153493" lon="11.097580046350542"><ele>276.0</ele><time>2026-04-04T13:28:06.001Z</time></trkpt><trkpt lat="43.30100017754863" lon="11.097575452257171"><ele>275.0</ele><time>2026-04-04T13:28:07.001Z</time></trkpt><trkpt lat="43.301146490793506" lon="11.097570644399623"><ele>275.0</ele><time>2026-04-04T13:28:08.001Z</time></trkpt><trkpt lat="43.30129390853139" lon="11.097563385997725"><ele>275.0</ele><time>2026-04-04T13:28:09.001Z</time></trkpt><trkpt lat="43.30143782161908" lon="11.097556305101747"><ele>275.0</ele><time>2026-04-04T13:28:10.001Z</time></trkpt><trkpt lat="43.30158927305778" lon="11.097548087324727"><ele>275.0</ele><time>2026-04-04T13:28:11.001Z</time></trkpt><trkpt lat="43.30172587221055" lon="11.097530837351579"><ele>274.5</ele><time>2026-04-04T13:28:12.001Z</time></trkpt><trkpt lat="43.301851524973" lon="11.097513535887252"><ele>274.0</ele><time>2026-04-04T13:28:13.001Z</time></trkpt><trkpt lat="43.3019815750593" lon="11.097501222592502"><ele>273.5</ele><time>2026-04-04T13:28:14.001Z</time></trkpt><trkpt lat="43.30212247345532" lon="11.097493429053086"><ele>273.0</ele><time>2026-04-04T13:28:15.001Z</time></trkpt><trkpt lat="43.30226569854155" lon="11.097481816356476"><ele>272.5</ele><time>2026-04-04T13:28:16.001Z</time></trkpt><trkpt lat="43.30239867149687" lon="11.097463049270495"><ele>272.0</ele><time>2026-04-04T13:28:17.001Z</time></trkpt><trkpt lat="43.30251777573646" lon="11.09744216236429"><ele>271.5</ele><time>2026-04-04T13:28:18.001Z</time></trkpt><trkpt lat="43.302630407955576" lon="11.097429732503118"><ele>271.0</ele><time>2026-04-04T13:28:19.001Z</time></trkpt><trkpt lat="43.30273916019172" lon="11.09741568405205"><ele>270.0</ele><time>2026-04-04T13:28:20.001Z</time></trkpt><trkpt lat="43.30284548898654" lon="11.097412642502924"><ele>269.0</ele><time>2026-04-04T13:28:21.001Z</time></trkpt><trkpt lat="43.30294761097202" lon="11.097395368702747"><ele>268.0</ele><time>2026-04-04T13:28:22.001Z</time></trkpt><trkpt lat="43.30304073441911" lon="11.097381086628792"><ele>267.0</ele><time>2026-04-04T13:28:23.001Z</time></trkpt><trkpt lat="43.303126775061344" lon="11.097362470974536"><ele>266.0</ele><time>2026-04-04T13:28:24Z</time></trkpt><trkpt lat="43.30320465467754" lon="11.097343295587658"><ele>265.8</ele><time>2026-04-04T13:28:25Z</time></trkpt><trkpt lat="43.30327354663815" lon="11.097342333979597"><ele>265.6</ele><time>2026-04-04T13:28:26Z</time></trkpt><trkpt lat="43.303335304217896" lon="11.097360250673246"><ele>265.4</ele><time>2026-04-04T13:28:28Z</time></trkpt><trkpt lat="43.30327412449716" lon="11.097492790611367"><ele>265.2</ele><time>2026-04-04T13:28:30Z</time></trkpt><trkpt lat="43.3032147595416" lon="11.097600503450883"><ele>265.0</ele><time>2026-04-04T13:28:32Z</time></trkpt><trkpt lat="43.303149964227124" lon="11.09771985010717"><ele>266.0</ele><time>2026-04-04T13:28:34Z</time></trkpt><trkpt lat="43.30311483106184" lon="11.097794082478929"><ele>267.0</ele><time>2026-04-04T13:28:35Z</time></trkpt><trkpt lat="43.303070131733826" lon="11.09789031714766"><ele>268.0</ele><time>2026-04-04T13:28:36Z</time></trkpt><trkpt lat="43.3030228545176" lon="11.098011586205377"><ele>269.0</ele><time>2026-04-04T13:28:37Z</time></trkpt><trkpt lat="43.302956309529826" lon="11.098128524165295"><ele>270.0</ele><time>2026-04-04T13:28:38Z</time></trkpt><trkpt lat="43.30289687404775" lon="11.0982392259303"><ele>269.5</ele><time>2026-04-04T13:28:39Z</time></trkpt><trkpt lat="43.30284391046077" lon="11.09834858868751"><ele>269.0</ele><time>2026-04-04T13:28:40Z</time></trkpt><trkpt lat="43.302798466400326" lon="11.09845253676022"><ele>268.5</ele><time>2026-04-04T13:28:41Z</time></trkpt><trkpt lat="43.30275900167991" lon="11.098551881939594"><ele>268.0</ele><time>2026-04-04T13:28:42Z</time></trkpt><trkpt lat="43.302722680585006" lon="11.09865311090162"><ele>267.5</ele><time>2026-04-04T13:28:43Z</time></trkpt><trkpt lat="43.30269163611339" lon="11.098771069290212"><ele>267.0</ele><time>2026-04-04T13:28:44Z</time></trkpt><trkpt lat="43.302665810095085" lon="11.09889812984592"><ele>267.0</ele><time>2026-04-04T13:28:44.999Z</time></trkpt><trkpt lat="43.302630054063926" lon="11.099014418455797"><ele>267.0</ele><time>2026-04-04T13:28:45.999Z</time></trkpt><trkpt lat="43.30260235802189" lon="11.099118238179095"><ele>267.0</ele><time>2026-04-04T13:28:46.999Z</time></trkpt><trkpt lat="43.30256913687964" lon="11.099217371472221"><ele>267.0</ele><time>2026-04-04T13:28:47.999Z</time></trkpt><trkpt lat="43.30253056066404" lon="11.099309021777815"><ele>267.0</ele><time>2026-04-04T13:28:48.999Z</time></trkpt><trkpt lat="43.302488114097" lon="11.099399103941963"><ele>267.0</ele><time>2026-04-04T13:28:49.999Z</time></trkpt><trkpt lat="43.30244273943552" lon="11.099469740112461"><ele>266.0</ele><time>2026-04-04T13:28:50.999Z</time></trkpt><trkpt lat="43.30236358452893" lon="11.099548883966374"><ele>265.0</ele><time>2026-04-04T13:28:52.999Z</time></trkpt><trkpt lat="43.30230250856799" lon="11.099609962782143"><ele>264.0</ele><time>2026-04-04T13:28:56.999Z</time></trkpt><trkpt lat="43.30238843089183" lon="11.09987294064494"><ele>263.0</ele><time>2026-04-04T13:29:00.999Z</time></trkpt><trkpt lat="43.302480229549985" lon="11.099934505977375"><ele>262.1666666666667</ele><time>2026-04-04T13:29:02.999Z</time></trkpt><trkpt lat="43.30253413255521" lon="11.100014342942924"><ele>261.33333333333337</ele><time>2026-04-04T13:29:05.999Z</time></trkpt><trkpt lat="43.30254247096801" lon="11.100119027589344"><ele>260.5</ele><time>2026-04-04T13:29:12.999Z</time></trkpt><trkpt lat="43.30247859328821" lon="11.100190522214422"><ele>259.6666666666667</ele><time>2026-04-04T13:29:14.999Z</time></trkpt><trkpt lat="43.30241569760488" lon="11.100266098562633"><ele>258.8333333333333</ele><time>2026-04-04T13:29:17.999Z</time></trkpt><trkpt lat="43.30243296571434" lon="11.10035791526753"><ele>258.0</ele><time>2026-04-04T13:29:20.999Z</time></trkpt><trkpt lat="43.302433204358636" lon="11.10026720619952"><ele>258.0</ele><time>2026-04-04T13:29:27Z</time></trkpt><trkpt lat="43.30242902747767" lon="11.10016639776807"><ele>258.0</ele><time>2026-04-04T13:29:29Z</time></trkpt><trkpt lat="43.3024872287471" lon="11.100038445507778"><ele>258.0</ele><time>2026-04-04T13:29:31Z</time></trkpt><trkpt lat="43.30251414067733" lon="11.099947958683687"><ele>258.0</ele><time>2026-04-04T13:29:33Z</time></trkpt><trkpt lat="43.302447147730575" lon="11.099865557703753"><ele>258.0</ele><time>2026-04-04T13:29:39Z</time></trkpt><trkpt lat="43.302383058193016" lon="11.099806089986389"><ele>258.0</ele><time>2026-04-04T13:29:41Z</time></trkpt><trkpt lat="43.30234309368734" lon="11.099714407677709"><ele>258.8333333333333</ele><time>2026-04-04T13:29:43Z</time></trkpt><trkpt lat="43.30237525787862" lon="11.099634305777386"><ele>259.6666666666667</ele><time>2026-04-04T13:29:45Z</time></trkpt><trkpt lat="43.302437755493685" lon="11.09955301947551"><ele>260.5</ele><time>2026-04-04T13:29:47Z</time></trkpt><trkpt lat="43.30248595712351" lon="11.099465583451192"><ele>261.33333333333337</ele><time>2026-04-04T13:29:49Z</time></trkpt><trkpt lat="43.30253085795015" lon="11.099379576208197"><ele>262.1666666666667</ele><time>2026-04-04T13:29:51Z</time></trkpt><trkpt lat="43.30258846791885" lon="11.099229351823883"><ele>263.0</ele><time>2026-04-04T13:29:52.999Z</time></trkpt><trkpt lat="43.3026284738217" lon="11.09915206940189"><ele>263.6666666666667</ele><time>2026-04-04T13:29:53.999Z</time></trkpt><trkpt lat="43.30264002611664" lon="11.099047465556533"><ele>264.33333333333337</ele><time>2026-04-04T13:29:54.999Z</time></trkpt><trkpt lat="43.302671250767354" lon="11.098941537164157"><ele>265.0</ele><time>2026-04-04T13:29:55.999Z</time></trkpt><trkpt lat="43.30270734679029" lon="11.098827206156756"><ele>265.6666666666667</ele><time>2026-04-04T13:29:56.999Z</time></trkpt><trkpt lat="43.302728706148415" lon="11.098733496911262"><ele>266.3333333333333</ele><time>2026-04-04T13:29:57.999Z</time></trkpt><trkpt lat="43.30274500226502" lon="11.098646703132667"><ele>267.0</ele><time>2026-04-04T13:29:58.999Z</time></trkpt><trkpt lat="43.302800406146964" lon="11.098542510067539"><ele>267.0</ele><time>2026-04-04T13:30:00.999Z</time></trkpt><trkpt lat="43.302750118848614" lon="11.09867149601652"><ele>267.0</ele><time>2026-04-04T13:30:07.999Z</time></trkpt><trkpt lat="43.30271957407925" lon="11.09878346437467"><ele>267.0</ele><time>2026-04-04T13:30:08.999Z</time></trkpt><trkpt lat="43.3026999380316" lon="11.098876292830639"><ele>267.0</ele><time>2026-04-04T13:30:09.999Z</time></trkpt><trkpt lat="43.30266208760157" lon="11.099027233646298"><ele>267.0</ele><time>2026-04-04T13:30:11.999Z</time></trkpt><trkpt lat="43.302622386556614" lon="11.099185121705533"><ele>266.0</ele><time>2026-04-04T13:30:13.999Z</time></trkpt><trkpt lat="43.30274297840519" lon="11.099346031933766"><ele>265.0</ele><time>2026-04-04T13:30:14.999Z</time></trkpt><trkpt lat="43.302777736744915" lon="11.099522175219668"><ele>264.0</ele><time>2026-04-04T13:30:16.999Z</time></trkpt><trkpt lat="43.30279483198833" lon="11.099630624487496"><ele>263.0</ele><time>2026-04-04T13:30:17.999Z</time></trkpt><trkpt lat="43.302808288296696" lon="11.099751053908149"><ele>263.0</ele><time>2026-04-04T13:30:18.999Z</time></trkpt><trkpt lat="43.302824363204905" lon="11.099882056536508"><ele>263.0</ele><time>2026-04-04T13:30:19.999Z</time></trkpt><trkpt lat="43.302830881214646" lon="11.09999657427087"><ele>263.0</ele><time>2026-04-04T13:30:20.999Z</time></trkpt><trkpt lat="43.30284336134645" lon="11.100110201714369"><ele>263.0</ele><time>2026-04-04T13:30:21.999Z</time></trkpt><trkpt lat="43.30286829111332" lon="11.100207699184239"><ele>263.0</ele><time>2026-04-04T13:30:22.999Z</time></trkpt><trkpt lat="43.302893426717375" lon="11.10031616060607"><ele>263.0</ele><time>2026-04-04T13:30:23.999Z</time></trkpt><trkpt lat="43.302912920082136" lon="11.100430246380553"><ele>262.1666666666667</ele><time>2026-04-04T13:30:24.999Z</time></trkpt><trkpt lat="43.302931026261724" lon="11.100544468323681"><ele>261.33333333333337</ele><time>2026-04-04T13:30:25.999Z</time></trkpt><trkpt lat="43.30295299657477" lon="11.100662129041089"><ele>260.5</ele><time>2026-04-04T13:30:26.999Z</time></trkpt><trkpt lat="43.30298247803339" lon="11.100773759875777"><ele>259.6666666666667</ele><time>2026-04-04T13:30:27.999Z</time></trkpt><trkpt lat="43.303026405666024" lon="11.100884267262604"><ele>258.8333333333333</ele><time>2026-04-04T13:30:28.999Z</time></trkpt><trkpt lat="43.30307319538177" lon="11.10098740207112"><ele>258.0</ele><time>2026-04-04T13:30:29.999Z</time></trkpt><trkpt lat="43.303099746012805" lon="11.10108992851445"><ele>256.8</ele><time>2026-04-04T13:30:30.999Z</time></trkpt><trkpt lat="43.30304960568103" lon="11.101218163247633"><ele>255.60000000000002</ele><time>2026-04-04T13:30:32.999Z</time></trkpt><trkpt lat="43.30295888277028" lon="11.101351550040636"><ele>254.39999999999998</ele><time>2026-04-04T13:30:34.999Z</time></trkpt><trkpt lat="43.302924003817026" lon="11.101443206342472"><ele>253.2</ele><time>2026-04-04T13:30:35.999Z</time></trkpt><trkpt lat="43.302897278994294" lon="11.101581481570731"><ele>252.0</ele><time>2026-04-04T13:30:36.999Z</time></trkpt><trkpt lat="43.30289682387929" lon="11.10169506521619"><ele>251.8</ele><time>2026-04-04T13:30:37.999Z</time></trkpt><trkpt lat="43.30291568886745" lon="11.101876473132961"><ele>251.6</ele><time>2026-04-04T13:30:39.999Z</time></trkpt><trkpt lat="43.30291635105236" lon="11.101992922743202"><ele>251.40000000000003</ele><time>2026-04-04T13:30:40.999Z</time></trkpt><trkpt lat="43.302917242595704" lon="11.102090046024385"><ele>251.20000000000002</ele><time>2026-04-04T13:30:41.999Z</time></trkpt><trkpt lat="43.30292374215637" lon="11.102209433967735"><ele>251.0</ele><time>2026-04-04T13:30:42.999Z</time></trkpt><trkpt lat="43.30292842870636" lon="11.10234044725028"><ele>250.75</ele><time>2026-04-04T13:30:43.999Z</time></trkpt><trkpt lat="43.30292692947546" lon="11.102457669072354"><ele>250.5</ele><time>2026-04-04T13:30:44.999Z</time></trkpt><trkpt lat="43.302907122639205" lon="11.102557361612158"><ele>250.25</ele><time>2026-04-04T13:30:45.999Z</time></trkpt><trkpt lat="43.30286642547247" lon="11.102647333389664"><ele>250.0</ele><time>2026-04-04T13:30:46.999Z</time></trkpt><trkpt lat="43.30278573061238" lon="11.10293132293357"><ele>250.0</ele><time>2026-04-04T13:30:48.999Z</time></trkpt><trkpt lat="43.30275817437555" lon="11.103096519561081"><ele>250.0</ele><time>2026-04-04T13:30:49.999Z</time></trkpt><trkpt lat="43.302741285018186" lon="11.1032574572955"><ele>250.0</ele><time>2026-04-04T13:30:50.999Z</time></trkpt><trkpt lat="43.30273199104187" lon="11.103367852430976"><ele>250.0</ele><time>2026-04-04T13:30:51.999Z</time></trkpt><trkpt lat="43.30272795861596" lon="11.103461756213438"><ele>250.0</ele><time>2026-04-04T13:31:04.999Z</time></trkpt><trkpt lat="43.302687175376924" lon="11.103567569351753"><ele>250.57142857142856</ele><time>2026-04-04T13:31:06.999Z</time></trkpt><trkpt lat="43.302616205720625" lon="11.103586384684293"><ele>251.14285714285717</ele><time>2026-04-04T13:31:09.999Z</time></trkpt><trkpt lat="43.30258787442501" lon="11.103494987994019"><ele>251.71428571428572</ele><time>2026-04-04T13:31:12.999Z</time></trkpt><trkpt lat="43.302531995944264" lon="11.10343904969691"><ele>252.28571428571428</ele><time>2026-04-04T13:31:15.999Z</time></trkpt><trkpt lat="43.302483223090526" lon="11.103367261482386"><ele>252.85714285714283</ele><time>2026-04-04T13:31:17.999Z</time></trkpt><trkpt lat="43.30245295044476" lon="11.103460111941386"><ele>253.42857142857144</ele><time>2026-04-04T13:31:20.999Z</time></trkpt><trkpt lat="43.30251988489098" lon="11.103525270466875"><ele>254.0</ele><time>2026-04-04T13:31:22.999Z</time></trkpt><trkpt lat="43.30259832992867" lon="11.103568337981999"><ele>254.0</ele><time>2026-04-04T13:31:24.999Z</time></trkpt><trkpt lat="43.30269199240058" lon="11.103578821933224"><ele>253.99999999999997</ele><time>2026-04-04T13:31:26.999Z</time></trkpt><trkpt lat="43.302790907569666" lon="11.103505480916949"><ele>253.99999999999997</ele><time>2026-04-04T13:31:28.999Z</time></trkpt><trkpt lat="43.30287977529231" lon="11.103531029057189"><ele>254.0</ele><time>2026-04-04T13:31:30.999Z</time></trkpt><trkpt lat="43.30291594096916" lon="11.103649275892575"><ele>254.0</ele><time>2026-04-04T13:31:32.999Z</time></trkpt><trkpt lat="43.30293436761946" lon="11.103740542050623"><ele>254.0</ele><time>2026-04-04T13:31:33.999Z</time></trkpt><trkpt lat="43.30296558735419" lon="11.10385969283779"><ele>253.99999999999997</ele><time>2026-04-04T13:31:34.999Z</time></trkpt><trkpt lat="43.30299504830309" lon="11.103973579209478"><ele>253.99999999999997</ele><time>2026-04-04T13:31:35.999Z</time></trkpt><trkpt lat="43.30302475395107" lon="11.104095269022528"><ele>254.0</ele><time>2026-04-04T13:31:36.999Z</time></trkpt><trkpt lat="43.30304677044958" lon="11.104225961851865"><ele>254.0</ele><time>2026-04-04T13:31:37.999Z</time></trkpt><trkpt lat="43.30305708548491" lon="11.104341302899991"><ele>253.50000000000003</ele><time>2026-04-04T13:31:38.999Z</time></trkpt><trkpt lat="43.30305895412208" lon="11.104447675687902"><ele>253.0</ele><time>2026-04-04T13:31:39.999Z</time></trkpt><trkpt lat="43.303062724113566" lon="11.104547829705444"><ele>252.5</ele><time>2026-04-04T13:31:40.999Z</time></trkpt><trkpt lat="43.30306651241078" lon="11.104652022877213"><ele>252.0</ele><time>2026-04-04T13:31:41.999Z</time></trkpt><trkpt lat="43.30311246007654" lon="11.104794543874517"><ele>251.50000000000003</ele><time>2026-04-04T13:31:43.999Z</time></trkpt><trkpt lat="43.30314716368928" lon="11.104867986616906"><ele>251.0</ele><time>2026-04-04T13:31:44.999Z</time></trkpt><trkpt lat="43.30318904316969" lon="11.104950010471399"><ele>251.0</ele><time>2026-04-04T13:31:45.999Z</time></trkpt><trkpt lat="43.303235547200636" lon="11.105027648084858"><ele>251.00000000000003</ele><time>2026-04-04T13:31:46.999Z</time></trkpt><trkpt lat="43.303350468622945" lon="11.105109932726675"><ele>251.00000000000003</ele><time>2026-04-04T13:31:48.999Z</time></trkpt><trkpt lat="43.30341211597448" lon="11.105129334857914"><ele>251.0</ele><time>2026-04-04T13:31:49.999Z</time></trkpt><trkpt lat="43.30351198922946" lon="11.105156379809724"><ele>251.0</ele><time>2026-04-04T13:31:51.999Z</time></trkpt><trkpt lat="43.303630262220686" lon="11.105193704327526"><ele>251.00000000000003</ele><time>2026-04-04T13:31:53.999Z</time></trkpt><trkpt lat="43.30370994930194" lon="11.105230253857629"><ele>251.0</ele><time>2026-04-04T13:31:54.999Z</time></trkpt><trkpt lat="43.30380031899567" lon="11.105280817565172"><ele>251.0</ele><time>2026-04-04T13:31:55.999Z</time></trkpt><trkpt lat="43.30387799611161" lon="11.10532220700335"><ele>251.0</ele><time>2026-04-04T13:31:56.999Z</time></trkpt><trkpt lat="43.303954250676014" lon="11.105359821608685"><ele>251.00000000000003</ele><time>2026-04-04T13:31:57.999Z</time></trkpt><trkpt lat="43.30402569182894" lon="11.105416746812136"><ele>251.0</ele><time>2026-04-04T13:31:58.999Z</time></trkpt><trkpt lat="43.30407488184187" lon="11.105481011689168"><ele>250.66666666666669</ele><time>2026-04-04T13:31:59.999Z</time></trkpt><trkpt lat="43.30413073992339" lon="11.105576879349307"><ele>250.33333333333334</ele><time>2026-04-04T13:32:00.999Z</time></trkpt><trkpt lat="43.30417931970997" lon="11.105671134954594"><ele>250.0</ele><time>2026-04-04T13:32:01.999Z</time></trkpt><trkpt lat="43.30424079465832" lon="11.105770977735855"><ele>249.66666666666669</ele><time>2026-04-04T13:32:02.999Z</time></trkpt><trkpt lat="43.30429994622654" lon="11.10585340402668"><ele>249.33333333333334</ele><time>2026-04-04T13:32:03.999Z</time></trkpt><trkpt lat="43.30434989316304" lon="11.105938852473276"><ele>249.0</ele><time>2026-04-04T13:32:04.999Z</time></trkpt><trkpt lat="43.304393262602986" lon="11.106023913900014"><ele>249.0</ele><time>2026-04-04T13:32:05.999Z</time></trkpt><trkpt lat="43.304447233322676" lon="11.106091373252092"><ele>249.0</ele><time>2026-04-04T13:32:06.999Z</time></trkpt><trkpt lat="43.304556328011856" lon="11.10618900253172"><ele>249.0</ele><time>2026-04-04T13:32:08.999Z</time></trkpt><trkpt lat="43.30465450214186" lon="11.106252546451532"><ele>249.0</ele><time>2026-04-04T13:32:10.999Z</time></trkpt><trkpt lat="43.30471028919516" lon="11.10629437906816"><ele>249.0</ele><time>2026-04-04T13:32:12.999Z</time></trkpt><trkpt lat="43.30470035196508" lon="11.106379913813596"><ele>249.0</ele><time>2026-04-04T13:32:15.999Z</time></trkpt><trkpt lat="43.30464269316898" lon="11.106507256251833"><ele>248.39999999999998</ele><time>2026-04-04T13:32:17.999Z</time></trkpt><trkpt lat="43.304612031380785" lon="11.106639559187265"><ele>247.79999999999998</ele><time>2026-04-04T13:32:19.999Z</time></trkpt><trkpt lat="43.30461395317023" lon="11.106769635549318"><ele>247.20000000000002</ele><time>2026-04-04T13:32:21.999Z</time></trkpt><trkpt lat="43.304563416152206" lon="11.106822788005218"><ele>246.60000000000002</ele><time>2026-04-04T13:32:22.999Z</time></trkpt><trkpt lat="43.30454591208135" lon="11.106954223065197"><ele>246.0</ele><time>2026-04-04T13:32:24.999Z</time></trkpt><trkpt lat="43.304522748496574" lon="11.107120711409062"><ele>246.0</ele><time>2026-04-04T13:32:26.999Z</time></trkpt><trkpt lat="43.304505827131024" lon="11.107234879200677"><ele>246.00000000000003</ele><time>2026-04-04T13:32:27.999Z</time></trkpt><trkpt lat="43.304486200127286" lon="11.10736436870958"><ele>246.00000000000003</ele><time>2026-04-04T13:32:28.999Z</time></trkpt><trkpt lat="43.3044662883234" lon="11.107495736565163"><ele>246.0</ele><time>2026-04-04T13:32:29.999Z</time></trkpt><trkpt lat="43.30444330500819" lon="11.10764736897676"><ele>246.0</ele><time>2026-04-04T13:32:30.999Z</time></trkpt><trkpt lat="43.30442209488714" lon="11.107787302678235"><ele>245.20000000000002</ele><time>2026-04-04T13:32:31.999Z</time></trkpt><trkpt lat="43.30440217039674" lon="11.10791875464012"><ele>244.40000000000003</ele><time>2026-04-04T13:32:32.999Z</time></trkpt><trkpt lat="43.30438302146236" lon="11.108045089602161"><ele>243.6</ele><time>2026-04-04T13:32:33.999Z</time></trkpt><trkpt lat="43.30436308040723" lon="11.108176650720571"><ele>242.8</ele><time>2026-04-04T13:32:34.999Z</time></trkpt><trkpt lat="43.304343517342026" lon="11.108308225653"><ele>242.0</ele><time>2026-04-04T13:32:35.999Z</time></trkpt><trkpt lat="43.30432491128379" lon="11.108434977779766"><ele>241.8</ele><time>2026-04-04T13:32:36.999Z</time></trkpt><trkpt lat="43.304305535242825" lon="11.108566975332302"><ele>241.6</ele><time>2026-04-04T13:32:37.999Z</time></trkpt><trkpt lat="43.30428534368171" lon="11.108704528659542"><ele>241.40000000000003</ele><time>2026-04-04T13:32:38.999Z</time></trkpt><trkpt lat="43.30426714713665" lon="11.108850637357515"><ele>241.20000000000002</ele><time>2026-04-04T13:32:39.999Z</time></trkpt><trkpt lat="43.30425145415219" lon="11.108988012922703"><ele>241.0</ele><time>2026-04-04T13:32:40.999Z</time></trkpt><trkpt lat="43.30423135326284" lon="11.109108751488591"><ele>241.0</ele><time>2026-04-04T13:32:41.999Z</time></trkpt><trkpt lat="43.30420535780507" lon="11.109216467875548"><ele>241.00000000000003</ele><time>2026-04-04T13:32:42.999Z</time></trkpt><trkpt lat="43.304179869547305" lon="11.10931772424483"><ele>241.00000000000003</ele><time>2026-04-04T13:32:44.999Z</time></trkpt><trkpt lat="43.30415838054529" lon="11.109403096155633"><ele>241.0</ele><time>2026-04-04T13:32:51.999Z</time></trkpt><trkpt lat="43.30432467577267" lon="11.109549567253644"><ele>241.0</ele><time>2026-04-04T13:32:52.999Z</time></trkpt><trkpt lat="43.304411328472945" lon="11.109654134082996"><ele>241.0</ele><time>2026-04-04T13:32:53.999Z</time></trkpt><trkpt lat="43.3045163461113" lon="11.109770868825763"><ele>241.0</ele><time>2026-04-04T13:32:54.999Z</time></trkpt><trkpt lat="43.30457332070863" lon="11.109868160314038"><ele>241.0</ele><time>2026-04-04T13:32:55.999Z</time></trkpt><trkpt lat="43.30465970512388" lon="11.109989275198611"><ele>241.0</ele><time>2026-04-04T13:32:56.999Z</time></trkpt><trkpt lat="43.30476968101134" lon="11.11015238040758"><ele>239.33333333333331</ele><time>2026-04-04T13:32:57.999Z</time></trkpt><trkpt lat="43.30488512559071" lon="11.110316930805055"><ele>237.66666666666669</ele><time>2026-04-04T13:32:58.999Z</time></trkpt><trkpt lat="43.304995352862306" lon="11.110522125436418"><ele>236.0</ele><time>2026-04-04T13:32:59.999Z</time></trkpt><trkpt lat="43.30510697832299" lon="11.110715551938428"><ele>236.0</ele><time>2026-04-04T13:33:00.999Z</time></trkpt><trkpt lat="43.30520122081469" lon="11.110884091656473"><ele>236.0</ele><time>2026-04-04T13:33:01.999Z</time></trkpt><trkpt lat="43.30529874912707" lon="11.111060695659376"><ele>236.0</ele><time>2026-04-04T13:33:02.999Z</time></trkpt><trkpt lat="43.305399063550844" lon="11.111242364997796"><ele>236.0</ele><time>2026-04-04T13:33:03.999Z</time></trkpt><trkpt lat="43.30550043654404" lon="11.111425951693308"><ele>236.0</ele><time>2026-04-04T13:33:04.999Z</time></trkpt><trkpt lat="43.30560070736608" lon="11.111607785514911"><ele>236.0</ele><time>2026-04-04T13:33:05.999Z</time></trkpt><trkpt lat="43.30569933599065" lon="11.11178815325826"><ele>235.33333333333334</ele><time>2026-04-04T13:33:06.999Z</time></trkpt><trkpt lat="43.30579663946546" lon="11.11196609734973"><ele>234.66666666666669</ele><time>2026-04-04T13:33:07.999Z</time></trkpt><trkpt lat="43.30589383259838" lon="11.112143839663347"><ele>234.0</ele><time>2026-04-04T13:33:08.999Z</time></trkpt><trkpt lat="43.305992937168455" lon="11.112325077573704"><ele>234.25</ele><time>2026-04-04T13:33:09.999Z</time></trkpt><trkpt lat="43.306090423542365" lon="11.112503354862328"><ele>234.5</ele><time>2026-04-04T13:33:10.999Z</time></trkpt><trkpt lat="43.30617893288104" lon="11.112664481130858"><ele>234.75</ele><time>2026-04-04T13:33:11.999Z</time></trkpt><trkpt lat="43.3062623837273" lon="11.1128165220489"><ele>235.0</ele><time>2026-04-04T13:33:12.999Z</time></trkpt><trkpt lat="43.306339755386865" lon="11.112957487086696"><ele>235.25</ele><time>2026-04-04T13:33:13.999Z</time></trkpt><trkpt lat="43.30641733475864" lon="11.113098830609712"><ele>235.5</ele><time>2026-04-04T13:33:14.999Z</time></trkpt><trkpt lat="43.30649577440706" lon="11.113243067355597"><ele>235.75</ele><time>2026-04-04T13:33:15.999Z</time></trkpt><trkpt lat="43.30657415016907" lon="11.113387524134792"><ele>236.0</ele><time>2026-04-04T13:33:16.999Z</time></trkpt><trkpt lat="43.30664143676665" lon="11.113511541833764"><ele>235.60000000000002</ele><time>2026-04-04T13:33:17.999Z</time></trkpt><trkpt lat="43.30670698099975" lon="11.113636755742247"><ele>235.20000000000002</ele><time>2026-04-04T13:33:18.999Z</time></trkpt><trkpt lat="43.30676760248359" lon="11.113759333326415"><ele>234.79999999999998</ele><time>2026-04-04T13:33:19.999Z</time></trkpt><trkpt lat="43.306825138973075" lon="11.113875672155258"><ele>234.39999999999998</ele><time>2026-04-04T13:33:20.999Z</time></trkpt><trkpt lat="43.30686960890406" lon="11.113998624390902"><ele>234.0</ele><time>2026-04-04T13:33:21.999Z</time></trkpt><trkpt lat="43.306842035033114" lon="11.1141394289198"><ele>233.39999999999998</ele><time>2026-04-04T13:33:22.999Z</time></trkpt><trkpt lat="43.30681663693392" lon="11.114282456523878"><ele>232.79999999999998</ele><time>2026-04-04T13:33:23.999Z</time></trkpt><trkpt lat="43.306780080846984" lon="11.114359667676037"><ele>232.20000000000002</ele><time>2026-04-04T13:33:24.999Z</time></trkpt><trkpt lat="43.30673148382402" lon="11.114466360027366"><ele>231.60000000000002</ele><time>2026-04-04T13:33:25.999Z</time></trkpt><trkpt lat="43.306608457778864" lon="11.114504600230093"><ele>231.0</ele><time>2026-04-04T13:33:26.999Z</time></trkpt><trkpt lat="43.30649804062133" lon="11.114619747198965"><ele>231.75</ele><time>2026-04-04T13:33:27.999Z</time></trkpt><trkpt lat="43.30638182199574" lon="11.114740944408107"><ele>232.5</ele><time>2026-04-04T13:33:28.999Z</time></trkpt><trkpt lat="43.306268791242374" lon="11.114858817131864"><ele>233.25</ele><time>2026-04-04T13:33:29.999Z</time></trkpt><trkpt lat="43.3061741525397" lon="11.114957509921496"><ele>234.0</ele><time>2026-04-04T13:33:30.999Z</time></trkpt><trkpt lat="43.30608996657639" lon="11.115047213921745"><ele>234.25</ele><time>2026-04-04T13:33:31.999Z</time></trkpt><trkpt lat="43.30601280916639" lon="11.115129435294659"><ele>234.5</ele><time>2026-04-04T13:33:32.999Z</time></trkpt><trkpt lat="43.305947914419406" lon="11.115198256613754"><ele>234.75</ele><time>2026-04-04T13:33:33.999Z</time></trkpt><trkpt lat="43.30587458562371" lon="11.11527592912184"><ele>235.0</ele><time>2026-04-04T13:33:35.999Z</time></trkpt><trkpt lat="43.306000233723786" lon="11.115500033705771"><ele>235.0</ele><time>2026-04-04T13:33:36.999Z</time></trkpt><trkpt lat="43.306068116637924" lon="11.115626761045352"><ele>235.0</ele><time>2026-04-04T13:33:37.999Z</time></trkpt><trkpt lat="43.3061426434286" lon="11.11577288720858"><ele>235.0</ele><time>2026-04-04T13:33:38.999Z</time></trkpt><trkpt lat="43.30621551170033" lon="11.115955002279897"><ele>235.0</ele><time>2026-04-04T13:33:39.999Z</time></trkpt><trkpt lat="43.30630399817104" lon="11.116151923539828"><ele>234.0</ele><time>2026-04-04T13:33:40.999Z</time></trkpt><trkpt lat="43.30638704315766" lon="11.116357804524194"><ele>233.0</ele><time>2026-04-04T13:33:41.999Z</time></trkpt><trkpt lat="43.30647546577526" lon="11.11656151998792"><ele>232.0</ele><time>2026-04-04T13:33:42.999Z</time></trkpt><trkpt lat="43.306568307228055" lon="11.116775715767796"><ele>232.0</ele><time>2026-04-04T13:33:43.999Z</time></trkpt><trkpt lat="43.30663919168756" lon="11.116985601059376"><ele>232.0</ele><time>2026-04-04T13:33:44.999Z</time></trkpt><trkpt lat="43.306727219191544" lon="11.117195736367664"><ele>232.0</ele><time>2026-04-04T13:33:45.999Z</time></trkpt><trkpt lat="43.30681831162978" lon="11.117412614372524"><ele>232.0</ele><time>2026-04-04T13:33:46.999Z</time></trkpt><trkpt lat="43.30690452847022" lon="11.117616874088728"><ele>232.0</ele><time>2026-04-04T13:33:47.999Z</time></trkpt><trkpt lat="43.3069889170015" lon="11.117816876311805"><ele>232.0</ele><time>2026-04-04T13:33:48.999Z</time></trkpt><trkpt lat="43.307074712944384" lon="11.118020472556049"><ele>232.0</ele><time>2026-04-04T13:33:49.999Z</time></trkpt><trkpt lat="43.30716280483414" lon="11.118230013129368"><ele>232.0</ele><time>2026-04-04T13:33:50.999Z</time></trkpt><trkpt lat="43.30724780331026" lon="11.118431684618168"><ele>232.0</ele><time>2026-04-04T13:33:51.999Z</time></trkpt><trkpt lat="43.30733622052414" lon="11.118641596575323"><ele>231.33333333333331</ele><time>2026-04-04T13:33:52.999Z</time></trkpt><trkpt lat="43.30742379384552" lon="11.118849505064748"><ele>230.66666666666669</ele><time>2026-04-04T13:33:53.999Z</time></trkpt><trkpt lat="43.307521495311256" lon="11.119046370445368"><ele>230.0</ele><time>2026-04-04T13:33:54.999Z</time></trkpt><trkpt lat="43.307602610983366" lon="11.119251377716843"><ele>231.33333333333334</ele><time>2026-04-04T13:33:55.999Z</time></trkpt><trkpt lat="43.30768586597093" lon="11.119460007446193"><ele>232.66666666666669</ele><time>2026-04-04T13:33:56.999Z</time></trkpt><trkpt lat="43.30777374594587" lon="11.119667102468672"><ele>234.0</ele><time>2026-04-04T13:33:57.999Z</time></trkpt><trkpt lat="43.30786444992305" lon="11.11987752025364"><ele>234.33333333333331</ele><time>2026-04-04T13:33:58.999Z</time></trkpt><trkpt lat="43.30795194986982" lon="11.1200838607928"><ele>234.66666666666666</ele><time>2026-04-04T13:33:59.999Z</time></trkpt><trkpt lat="43.3080416286708" lon="11.120294697398291"><ele>235.0</ele><time>2026-04-04T13:34:00.999Z</time></trkpt><trkpt lat="43.308130685558375" lon="11.120511415891437"><ele>235.33333333333331</ele><time>2026-04-04T13:34:01.999Z</time></trkpt><trkpt lat="43.308222368599566" lon="11.120724864970128"><ele>235.66666666666669</ele><time>2026-04-04T13:34:02.999Z</time></trkpt><trkpt lat="43.30831332912398" lon="11.120938394294166"><ele>236.0</ele><time>2026-04-04T13:34:03.999Z</time></trkpt><trkpt lat="43.30840053855105" lon="11.12114900308315"><ele>236.33333333333334</ele><time>2026-04-04T13:34:04.999Z</time></trkpt><trkpt lat="43.308488758932846" lon="11.121359723868272"><ele>236.66666666666669</ele><time>2026-04-04T13:34:05.999Z</time></trkpt><trkpt lat="43.3085777175137" lon="11.12156515369503"><ele>237.0</ele><time>2026-04-04T13:34:06.999Z</time></trkpt><trkpt lat="43.30866622974123" lon="11.121775256922527"><ele>238.33333333333331</ele><time>2026-04-04T13:34:07.999Z</time></trkpt><trkpt lat="43.30875199538101" lon="11.121988846228565"><ele>239.66666666666666</ele><time>2026-04-04T13:34:08.999Z</time></trkpt><trkpt lat="43.3088254276038" lon="11.122209504764959"><ele>241.0</ele><time>2026-04-04T13:34:09.999Z</time></trkpt><trkpt lat="43.30890677553112" lon="11.122420885896268"><ele>242.0</ele><time>2026-04-04T13:34:10.999Z</time></trkpt><trkpt lat="43.30898604704022" lon="11.122637947668895"><ele>243.0</ele><time>2026-04-04T13:34:11.999Z</time></trkpt><trkpt lat="43.30905956448519" lon="11.122859872900383"><ele>244.0</ele><time>2026-04-04T13:34:12.999Z</time></trkpt><trkpt lat="43.309127429132175" lon="11.123078431546633"><ele>245.0</ele><time>2026-04-04T13:34:13.999Z</time></trkpt><trkpt lat="43.30919510262494" lon="11.123302520713173"><ele>246.0</ele><time>2026-04-04T13:34:14.999Z</time></trkpt><trkpt lat="43.30926197630566" lon="11.123531236431628"><ele>247.0</ele><time>2026-04-04T13:34:15.999Z</time></trkpt><trkpt lat="43.30932315881222" lon="11.12374964225929"><ele>247.0</ele><time>2026-04-04T13:34:16.999Z</time></trkpt><trkpt lat="43.309381047360176" lon="11.123971636894764"><ele>247.0</ele><time>2026-04-04T13:34:17.999Z</time></trkpt><trkpt lat="43.30943847671713" lon="11.124196833910636"><ele>247.0</ele><time>2026-04-04T13:34:18.999Z</time></trkpt><trkpt lat="43.309496370919014" lon="11.124424346471121"><ele>247.33333333333331</ele><time>2026-04-04T13:34:19.999Z</time></trkpt><trkpt lat="43.309552697989126" lon="11.124649669519792"><ele>247.66666666666669</ele><time>2026-04-04T13:34:20.999Z</time></trkpt><trkpt lat="43.309610377059485" lon="11.124884830106202"><ele>248.0</ele><time>2026-04-04T13:34:21.999Z</time></trkpt><trkpt lat="43.30966574773017" lon="11.125110583195479"><ele>248.0</ele><time>2026-04-04T13:34:22.999Z</time></trkpt><trkpt lat="43.309719527966074" lon="11.125333077939656"><ele>248.0</ele><time>2026-04-04T13:34:23.999Z</time></trkpt><trkpt lat="43.309774393865894" lon="11.125554702983695"><ele>248.0</ele><time>2026-04-04T13:34:24.999Z</time></trkpt><trkpt lat="43.309828784916824" lon="11.125774409960709"><ele>250.66666666666669</ele><time>2026-04-04T13:34:25.999Z</time></trkpt><trkpt lat="43.30988248285187" lon="11.125991317043683"><ele>253.33333333333331</ele><time>2026-04-04T13:34:26.999Z</time></trkpt><trkpt lat="43.30993620303058" lon="11.126208314097472"><ele>256.0</ele><time>2026-04-04T13:34:27.999Z</time></trkpt><trkpt lat="43.30999003008088" lon="11.12642574280084"><ele>256.66666666666663</ele><time>2026-04-04T13:34:28.999Z</time></trkpt><trkpt lat="43.310043778767835" lon="11.126643578972313"><ele>257.3333333333333</ele><time>2026-04-04T13:34:29.999Z</time></trkpt><trkpt lat="43.31009979496152" lon="11.126874531007816"><ele>258.0</ele><time>2026-04-04T13:34:30.999Z</time></trkpt><trkpt lat="43.31015603202203" lon="11.12710676419729"><ele>258.0</ele><time>2026-04-04T13:34:31.999Z</time></trkpt><trkpt lat="43.310211331898174" lon="11.127335641352863"><ele>258.0</ele><time>2026-04-04T13:34:32.999Z</time></trkpt><trkpt lat="43.31026364625985" lon="11.127552161358269"><ele>258.0</ele><time>2026-04-04T13:34:33.999Z</time></trkpt><trkpt lat="43.31030926569062" lon="11.127746901353193"><ele>258.6666666666667</ele><time>2026-04-04T13:34:34.999Z</time></trkpt><trkpt lat="43.310388275384625" lon="11.128115338047577"><ele>259.33333333333337</ele><time>2026-04-04T13:34:36.999Z</time></trkpt><trkpt lat="43.31042012911889" lon="11.12831000291765"><ele>260.0</ele><time>2026-04-04T13:34:37.999Z</time></trkpt><trkpt lat="43.31043417305877" lon="11.12852154298811"><ele>260.6666666666667</ele><time>2026-04-04T13:34:38.999Z</time></trkpt><trkpt lat="43.31042794843637" lon="11.128733931185376"><ele>261.3333333333333</ele><time>2026-04-04T13:34:39.999Z</time></trkpt><trkpt lat="43.31040776663901" lon="11.12894686268763"><ele>262.0</ele><time>2026-04-04T13:34:40.999Z</time></trkpt><trkpt lat="43.31037359806162" lon="11.129178290144251"><ele>263.3333333333333</ele><time>2026-04-04T13:34:41.999Z</time></trkpt><trkpt lat="43.31032443388284" lon="11.129383903078018"><ele>264.6666666666667</ele><time>2026-04-04T13:34:42.999Z</time></trkpt><trkpt lat="43.3102742086002" lon="11.129580330457722"><ele>266.0</ele><time>2026-04-04T13:34:43.999Z</time></trkpt><trkpt lat="43.310226462736615" lon="11.129767060892048"><ele>266.5</ele><time>2026-04-04T13:34:44.999Z</time></trkpt><trkpt lat="43.3101833946298" lon="11.129934770811772"><ele>267.0</ele><time>2026-04-04T13:34:45.999Z</time></trkpt><trkpt lat="43.310139619879116" lon="11.130099979482154"><ele>267.5</ele><time>2026-04-04T13:34:46.999Z</time></trkpt><trkpt lat="43.310099133705236" lon="11.130251234265005"><ele>268.0</ele><time>2026-04-04T13:34:47.999Z</time></trkpt><trkpt lat="43.31005918976063" lon="11.130394702374453"><ele>268.0</ele><time>2026-04-04T13:34:48.999Z</time></trkpt><trkpt lat="43.310025395289586" lon="11.130523543108156"><ele>268.0</ele><time>2026-04-04T13:34:49.999Z</time></trkpt><trkpt lat="43.310002702498906" lon="11.130627298720634"><ele>268.0</ele><time>2026-04-04T13:34:50.999Z</time></trkpt><trkpt lat="43.31002445462695" lon="11.130735403969684"><ele>268.0</ele><time>2026-04-04T13:34:51.999Z</time></trkpt><trkpt lat="43.31002415625483" lon="11.130839018500104"><ele>268.0</ele><time>2026-04-04T13:34:52.999Z</time></trkpt><trkpt lat="43.310126556233705" lon="11.13091029360247"><ele>268.66666666666663</ele><time>2026-04-04T13:34:53.999Z</time></trkpt><trkpt lat="43.31018359817847" lon="11.130998667619343"><ele>269.3333333333333</ele><time>2026-04-04T13:34:54.999Z</time></trkpt><trkpt lat="43.3102328959128" lon="11.131078423511587"><ele>270.0</ele><time>2026-04-04T13:34:55.999Z</time></trkpt><trkpt lat="43.30272795861596" lon="11.103461756213438"><ele>267.7142857142857</ele><time>2026-04-04T13:31:04.999Z</time></trkpt><trkpt lat="43.302687175376924" lon="11.103567569351753"><ele>265.4285714285714</ele><time>2026-04-04T13:31:06.999Z</time></trkpt><trkpt lat="43.302616205720625" lon="11.103586384684293"><ele>263.1428571428571</ele><time>2026-04-04T13:31:09.999Z</time></trkpt><trkpt lat="43.30258787442501" lon="11.103494987994019"><ele>260.85714285714283</ele><time>2026-04-04T13:31:12.999Z</time></trkpt><trkpt lat="43.302531995944264" lon="11.10343904969691"><ele>258.57142857142856</ele><time>2026-04-04T13:31:15.999Z</time></trkpt><trkpt lat="43.302483223090526" lon="11.103367261482386"><ele>256.2857142857143</ele><time>2026-04-04T13:31:17.999Z</time></trkpt><trkpt lat="43.30245295044476" lon="11.103460111941386"><ele>254.0</ele><time>2026-04-04T13:31:20.999Z</time></trkpt><trkpt lat="43.30251988489098" lon="11.103525270466875"><ele>254.0</ele><time>2026-04-04T13:31:22.999Z</time></trkpt><trkpt lat="43.30259832992867" lon="11.103568337981999"><ele>253.99999999999997</ele><time>2026-04-04T13:31:24.999Z</time></trkpt><trkpt lat="43.30269199240058" lon="11.103578821933224"><ele>253.99999999999997</ele><time>2026-04-04T13:31:26.999Z</time></trkpt><trkpt lat="43.302790907569666" lon="11.103505480916949"><ele>254.0</ele><time>2026-04-04T13:31:28.999Z</time></trkpt><trkpt lat="43.30287977529231" lon="11.103531029057189"><ele>254.0</ele><time>2026-04-04T13:31:30.999Z</time></trkpt><trkpt lat="43.30291594096916" lon="11.103649275892575"><ele>254.00000000000003</ele><time>2026-04-04T13:31:32.999Z</time></trkpt><trkpt lat="43.30293436761946" lon="11.103740542050623"><ele>254.0</ele><time>2026-04-04T13:31:33.999Z</time></trkpt><trkpt lat="43.30296558735419" lon="11.10385969283779"><ele>254.0</ele><time>2026-04-04T13:31:34.999Z</time></trkpt><trkpt lat="43.30299504830309" lon="11.103973579209478"><ele>254.0</ele><time>2026-04-04T13:31:35.999Z</time></trkpt><trkpt lat="43.30302475395107" lon="11.104095269022528"><ele>254.00000000000003</ele><time>2026-04-04T13:31:36.999Z</time></trkpt><trkpt lat="43.30304677044958" lon="11.104225961851865"><ele>254.0</ele><time>2026-04-04T13:31:37.999Z</time></trkpt><trkpt lat="43.30305708548491" lon="11.104341302899991"><ele>253.50000000000003</ele><time>2026-04-04T13:31:38.999Z</time></trkpt><trkpt lat="43.30305895412208" lon="11.104447675687902"><ele>253.0</ele><time>2026-04-04T13:31:39.999Z</time></trkpt><trkpt lat="43.303062724113566" lon="11.104547829705444"><ele>252.5</ele><time>2026-04-04T13:31:40.999Z</time></trkpt><trkpt lat="43.30306651241078" lon="11.104652022877213"><ele>252.0</ele><time>2026-04-04T13:31:41.999Z</time></trkpt><trkpt lat="43.30311246007654" lon="11.104794543874517"><ele>251.50000000000003</ele><time>2026-04-04T13:31:43.999Z</time></trkpt><trkpt lat="43.30314716368928" lon="11.104867986616906"><ele>251.0</ele><time>2026-04-04T13:31:44.999Z</time></trkpt><trkpt lat="43.30318904316969" lon="11.104950010471399"><ele>251.0</ele><time>2026-04-04T13:31:45.999Z</time></trkpt><trkpt lat="43.303235547200636" lon="11.105027648084858"><ele>251.00000000000003</ele><time>2026-04-04T13:31:46.999Z</time></trkpt><trkpt lat="43.303350468622945" lon="11.105109932726675"><ele>251.00000000000003</ele><time>2026-04-04T13:31:48.999Z</time></trkpt><trkpt lat="43.30341211597448" lon="11.105129334857914"><ele>251.0</ele><time>2026-04-04T13:31:49.999Z</time></trkpt><trkpt lat="43.30351198922946" lon="11.105156379809724"><ele>251.0</ele><time>2026-04-04T13:31:51.999Z</time></trkpt><trkpt lat="43.303630262220686" lon="11.105193704327526"><ele>251.00000000000003</ele><time>2026-04-04T13:31:53.999Z</time></trkpt><trkpt lat="43.30370994930194" lon="11.105230253857629"><ele>251.0</ele><time>2026-04-04T13:31:54.999Z</time></trkpt><trkpt lat="43.30380031899567" lon="11.105280817565172"><ele>251.0</ele><time>2026-04-04T13:31:55.999Z</time></trkpt><trkpt lat="43.30387799611161" lon="11.10532220700335"><ele>251.0</ele><time>2026-04-04T13:31:56.999Z</time></trkpt><trkpt lat="43.303954250676014" lon="11.105359821608685"><ele>251.00000000000003</ele><time>2026-04-04T13:31:57.999Z</time></trkpt><trkpt lat="43.30402569182894" lon="11.105416746812136"><ele>251.0</ele><time>2026-04-04T13:31:58.999Z</time></trkpt><trkpt lat="43.30407488184187" lon="11.105481011689168"><ele>250.66666666666669</ele><time>2026-04-04T13:31:59.999Z</time></trkpt><trkpt lat="43.30413073992339" lon="11.105576879349307"><ele>250.33333333333334</ele><time>2026-04-04T13:32:00.999Z</time></trkpt><trkpt lat="43.30417931970997" lon="11.105671134954594"><ele>250.0</ele><time>2026-04-04T13:32:01.999Z</time></trkpt><trkpt lat="43.30424079465832" lon="11.105770977735855"><ele>249.66666666666669</ele><time>2026-04-04T13:32:02.999Z</time></trkpt><trkpt lat="43.30429994622654" lon="11.10585340402668"><ele>249.33333333333334</ele><time>2026-04-04T13:32:03.999Z</time></trkpt><trkpt lat="43.30434989316304" lon="11.105938852473276"><ele>249.0</ele><time>2026-04-04T13:32:04.999Z</time></trkpt><trkpt lat="43.304393262602986" lon="11.106023913900014"><ele>249.0</ele><time>2026-04-04T13:32:05.999Z</time></trkpt><trkpt lat="43.304447233322676" lon="11.106091373252092"><ele>249.0</ele><time>2026-04-04T13:32:06.999Z</time></trkpt><trkpt lat="43.304556328011856" lon="11.10618900253172"><ele>249.0</ele><time>2026-04-04T13:32:08.999Z</time></trkpt><trkpt lat="43.30465450214186" lon="11.106252546451532"><ele>249.0</ele><time>2026-04-04T13:32:10.999Z</time></trkpt><trkpt lat="43.30471028919516" lon="11.10629437906816"><ele>249.0</ele><time>2026-04-04T13:32:12.999Z</time></trkpt><trkpt lat="43.30470035196508" lon="11.106379913813596"><ele>249.0</ele><time>2026-04-04T13:32:15.999Z</time></trkpt><trkpt lat="43.30464269316898" lon="11.106507256251833"><ele>248.39999999999998</ele><time>2026-04-04T13:32:17.999Z</time></trkpt><trkpt lat="43.304612031380785" lon="11.106639559187265"><ele>247.79999999999998</ele><time>2026-04-04T13:32:19.999Z</time></trkpt><trkpt lat="43.30461395317023" lon="11.106769635549318"><ele>247.20000000000002</ele><time>2026-04-04T13:32:21.999Z</time></trkpt><trkpt lat="43.304563416152206" lon="11.106822788005218"><ele>246.60000000000002</ele><time>2026-04-04T13:32:22.999Z</time></trkpt><trkpt lat="43.30454591208135" lon="11.106954223065197"><ele>246.0</ele><time>2026-04-04T13:32:24.999Z</time></trkpt><trkpt lat="43.304522748496574" lon="11.107120711409062"><ele>246.0</ele><time>2026-04-04T13:32:26.999Z</time></trkpt><trkpt lat="43.304505827131024" lon="11.107234879200677"><ele>246.00000000000003</ele><time>2026-04-04T13:32:27.999Z</time></trkpt><trkpt lat="43.304486200127286" lon="11.10736436870958"><ele>246.00000000000003</ele><time>2026-04-04T13:32:28.999Z</time></trkpt><trkpt lat="43.3044662883234" lon="11.107495736565163"><ele>246.0</ele><time>2026-04-04T13:32:29.999Z</time></trkpt><trkpt lat="43.30444330500819" lon="11.10764736897676"><ele>246.0</ele><time>2026-04-04T13:32:30.999Z</time></trkpt><trkpt lat="43.30442209488714" lon="11.107787302678235"><ele>245.20000000000002</ele><time>2026-04-04T13:32:31.999Z</time></trkpt><trkpt lat="43.30440217039674" lon="11.10791875464012"><ele>244.40000000000003</ele><time>2026-04-04T13:32:32.999Z</time></trkpt><trkpt lat="43.30438302146236" lon="11.108045089602161"><ele>243.6</ele><time>2026-04-04T13:32:33.999Z</time></trkpt><trkpt lat="43.30436308040723" lon="11.108176650720571"><ele>242.8</ele><time>2026-04-04T13:32:34.999Z</time></trkpt><trkpt lat="43.304343517342026" lon="11.108308225653"><ele>242.0</ele><time>2026-04-04T13:32:35.999Z</time></trkpt><trkpt lat="43.30432491128379" lon="11.108434977779766"><ele>241.8</ele><time>2026-04-04T13:32:36.999Z</time></trkpt><trkpt lat="43.304305535242825" lon="11.108566975332302"><ele>241.6</ele><time>2026-04-04T13:32:37.999Z</time></trkpt><trkpt lat="43.30428534368171" lon="11.108704528659542"><ele>241.40000000000003</ele><time>2026-04-04T13:32:38.999Z</time></trkpt><trkpt lat="43.30426714713665" lon="11.108850637357515"><ele>241.20000000000002</ele><time>2026-04-04T13:32:39.999Z</time></trkpt><trkpt lat="43.30425145415219" lon="11.108988012922703"><ele>241.0</ele><time>2026-04-04T13:32:40.999Z</time></trkpt><trkpt lat="43.30423135326284" lon="11.109108751488591"><ele>241.0</ele><time>2026-04-04T13:32:41.999Z</time></trkpt><trkpt lat="43.30420535780507" lon="11.109216467875548"><ele>241.00000000000003</ele><time>2026-04-04T13:32:42.999Z</time></trkpt><trkpt lat="43.304179869547305" lon="11.10931772424483"><ele>241.00000000000003</ele><time>2026-04-04T13:32:44.999Z</time></trkpt><trkpt lat="43.30415838054529" lon="11.109403096155633"><ele>241.0</ele><time>2026-04-04T13:32:51.999Z</time></trkpt><trkpt lat="43.30432467577267" lon="11.109549567253644"><ele>241.0</ele><time>2026-04-04T13:32:52.999Z</time></trkpt><trkpt lat="43.304411328472945" lon="11.109654134082996"><ele>241.0</ele><time>2026-04-04T13:32:53.999Z</time></trkpt><trkpt lat="43.3045163461113" lon="11.109770868825763"><ele>241.0</ele><time>2026-04-04T13:32:54.999Z</time></trkpt><trkpt lat="43.30457332070863" lon="11.109868160314038"><ele>241.0</ele><time>2026-04-04T13:32:55.999Z</time></trkpt><trkpt lat="43.30465970512388" lon="11.109989275198611"><ele>241.0</ele><time>2026-04-04T13:32:56.999Z</time></trkpt><trkpt lat="43.30476968101134" lon="11.11015238040758"><ele>239.33333333333331</ele><time>2026-04-04T13:32:57.999Z</time></trkpt><trkpt lat="43.30488512559071" lon="11.110316930805055"><ele>237.66666666666669</ele><time>2026-04-04T13:32:58.999Z</time></trkpt><trkpt lat="43.304995352862306" lon="11.110522125436418"><ele>236.0</ele><time>2026-04-04T13:32:59.999Z</time></trkpt><trkpt lat="43.30510697832299" lon="11.110715551938428"><ele>236.0</ele><time>2026-04-04T13:33:00.999Z</time></trkpt><trkpt lat="43.30520122081469" lon="11.110884091656473"><ele>236.0</ele><time>2026-04-04T13:33:01.999Z</time></trkpt><trkpt lat="43.30529874912707" lon="11.111060695659376"><ele>236.0</ele><time>2026-04-04T13:33:02.999Z</time></trkpt><trkpt lat="43.305399063550844" lon="11.111242364997796"><ele>236.0</ele><time>2026-04-04T13:33:03.999Z</time></trkpt><trkpt lat="43.30550043654404" lon="11.111425951693308"><ele>236.0</ele><time>2026-04-04T13:33:04.999Z</time></trkpt><trkpt lat="43.30560070736608" lon="11.111607785514911"><ele>236.0</ele><time>2026-04-04T13:33:05.999Z</time></trkpt><trkpt lat="43.30569933599065" lon="11.11178815325826"><ele>235.33333333333334</ele><time>2026-04-04T13:33:06.999Z</time></trkpt><trkpt lat="43.30579663946546" lon="11.11196609734973"><ele>234.66666666666669</ele><time>2026-04-04T13:33:07.999Z</time></trkpt><trkpt lat="43.30589383259838" lon="11.112143839663347"><ele>234.0</ele><time>2026-04-04T13:33:08.999Z</time></trkpt><trkpt lat="43.305992937168455" lon="11.112325077573704"><ele>234.25</ele><time>2026-04-04T13:33:09.999Z</time></trkpt><trkpt lat="43.306090423542365" lon="11.112503354862328"><ele>234.5</ele><time>2026-04-04T13:33:10.999Z</time></trkpt><trkpt lat="43.30617893288104" lon="11.112664481130858"><ele>234.75</ele><time>2026-04-04T13:33:11.999Z</time></trkpt><trkpt lat="43.3062623837273" lon="11.1128165220489"><ele>235.0</ele><time>2026-04-04T13:33:12.999Z</time></trkpt><trkpt lat="43.306339755386865" lon="11.112957487086696"><ele>235.25</ele><time>2026-04-04T13:33:13.999Z</time></trkpt><trkpt lat="43.30641733475864" lon="11.113098830609712"><ele>235.5</ele><time>2026-04-04T13:33:14.999Z</time></trkpt><trkpt lat="43.30649577440706" lon="11.113243067355597"><ele>235.75</ele><time>2026-04-04T13:33:15.999Z</time></trkpt><trkpt lat="43.30657415016907" lon="11.113387524134792"><ele>236.0</ele><time>2026-04-04T13:33:16.999Z</time></trkpt><trkpt lat="43.30664143676665" lon="11.113511541833764"><ele>235.60000000000002</ele><time>2026-04-04T13:33:17.999Z</time></trkpt><trkpt lat="43.30670698099975" lon="11.113636755742247"><ele>235.20000000000002</ele><time>2026-04-04T13:33:18.999Z</time></trkpt><trkpt lat="43.30676760248359" lon="11.113759333326415"><ele>234.79999999999998</ele><time>2026-04-04T13:33:19.999Z</time></trkpt><trkpt lat="43.306825138973075" lon="11.113875672155258"><ele>234.39999999999998</ele><time>2026-04-04T13:33:20.999Z</time></trkpt><trkpt lat="43.30686960890406" lon="11.113998624390902"><ele>234.0</ele><time>2026-04-04T13:33:21.999Z</time></trkpt><trkpt lat="43.306842035033114" lon="11.1141394289198"><ele>233.39999999999998</ele><time>2026-04-04T13:33:22.999Z</time></trkpt><trkpt lat="43.30681663693392" lon="11.114282456523878"><ele>232.79999999999998</ele><time>2026-04-04T13:33:23.999Z</time></trkpt><trkpt lat="43.306780080846984" lon="11.114359667676037"><ele>232.20000000000002</ele><time>2026-04-04T13:33:24.999Z</time></trkpt><trkpt lat="43.30673148382402" lon="11.114466360027366"><ele>231.60000000000002</ele><time>2026-04-04T13:33:25.999Z</time></trkpt><trkpt lat="43.306608457778864" lon="11.114504600230093"><ele>231.0</ele><time>2026-04-04T13:33:26.999Z</time></trkpt><trkpt lat="43.30649804062133" lon="11.114619747198965"><ele>231.75</ele><time>2026-04-04T13:33:27.999Z</time></trkpt><trkpt lat="43.30638182199574" lon="11.114740944408107"><ele>232.5</ele><time>2026-04-04T13:33:28.999Z</time></trkpt><trkpt lat="43.306268791242374" lon="11.114858817131864"><ele>233.25</ele><time>2026-04-04T13:33:29.999Z</time></trkpt><trkpt lat="43.3061741525397" lon="11.114957509921496"><ele>234.0</ele><time>2026-04-04T13:33:30.999Z</time></trkpt><trkpt lat="43.30608996657639" lon="11.115047213921745"><ele>234.25</ele><time>2026-04-04T13:33:31.999Z</time></trkpt><trkpt lat="43.30601280916639" lon="11.115129435294659"><ele>234.5</ele><time>2026-04-04T13:33:32.999Z</time></trkpt><trkpt lat="43.305947914419406" lon="11.115198256613754"><ele>234.75</ele><time>2026-04-04T13:33:33.999Z</time></trkpt><trkpt lat="43.30587458562371" lon="11.11527592912184"><ele>235.0</ele><time>2026-04-04T13:33:35.999Z</time></trkpt><trkpt lat="43.306000233723786" lon="11.115500033705771"><ele>235.0</ele><time>2026-04-04T13:33:36.999Z</time></trkpt><trkpt lat="43.306068116637924" lon="11.115626761045352"><ele>235.0</ele><time>2026-04-04T13:33:37.999Z</time></trkpt><trkpt lat="43.3061426434286" lon="11.11577288720858"><ele>235.0</ele><time>2026-04-04T13:33:38.999Z</time></trkpt><trkpt lat="43.30621551170033" lon="11.115955002279897"><ele>235.0</ele><time>2026-04-04T13:33:39.999Z</time></trkpt><trkpt lat="43.30630399817104" lon="11.116151923539828"><ele>234.0</ele><time>2026-04-04T13:33:40.999Z</time></trkpt><trkpt lat="43.30638704315766" lon="11.116357804524194"><ele>233.0</ele><time>2026-04-04T13:33:41.999Z</time></trkpt><trkpt lat="43.30647546577526" lon="11.11656151998792"><ele>232.0</ele><time>2026-04-04T13:33:42.999Z</time></trkpt><trkpt lat="43.306568307228055" lon="11.116775715767796"><ele>232.0</ele><time>2026-04-04T13:33:43.999Z</time></trkpt><trkpt lat="43.30663919168756" lon="11.116985601059376"><ele>232.0</ele><time>2026-04-04T13:33:44.999Z</time></trkpt><trkpt lat="43.306727219191544" lon="11.117195736367664"><ele>232.0</ele><time>2026-04-04T13:33:45.999Z</time></trkpt><trkpt lat="43.30681831162978" lon="11.117412614372524"><ele>232.0</ele><time>2026-04-04T13:33:46.999Z</time></trkpt><trkpt lat="43.30690452847022" lon="11.117616874088728"><ele>232.0</ele><time>2026-04-04T13:33:47.999Z</time></trkpt><trkpt lat="43.3069889170015" lon="11.117816876311805"><ele>232.0</ele><time>2026-04-04T13:33:48.999Z</time></trkpt><trkpt lat="43.307074712944384" lon="11.118020472556049"><ele>232.0</ele><time>2026-04-04T13:33:49.999Z</time></trkpt><trkpt lat="43.30716280483414" lon="11.118230013129368"><ele>232.0</ele><time>2026-04-04T13:33:50.999Z</time></trkpt><trkpt lat="43.30724780331026" lon="11.118431684618168"><ele>232.0</ele><time>2026-04-04T13:33:51.999Z</time></trkpt><trkpt lat="43.30733622052414" lon="11.118641596575323"><ele>231.33333333333331</ele><time>2026-04-04T13:33:52.999Z</time></trkpt><trkpt lat="43.30742379384552" lon="11.118849505064748"><ele>230.66666666666669</ele><time>2026-04-04T13:33:53.999Z</time></trkpt><trkpt lat="43.307521495311256" lon="11.119046370445368"><ele>230.0</ele><time>2026-04-04T13:33:54.999Z</time></trkpt><trkpt lat="43.307602610983366" lon="11.119251377716843"><ele>231.33333333333334</ele><time>2026-04-04T13:33:55.999Z</time></trkpt><trkpt lat="43.30768586597093" lon="11.119460007446193"><ele>232.66666666666669</ele><time>2026-04-04T13:33:56.999Z</time></trkpt><trkpt lat="43.30777374594587" lon="11.119667102468672"><ele>234.0</ele><time>2026-04-04T13:33:57.999Z</time></trkpt><trkpt lat="43.30786444992305" lon="11.11987752025364"><ele>234.33333333333331</ele><time>2026-04-04T13:33:58.999Z</time></trkpt><trkpt lat="43.30795194986982" lon="11.1200838607928"><ele>234.66666666666666</ele><time>2026-04-04T13:33:59.999Z</time></trkpt><trkpt lat="43.3080416286708" lon="11.120294697398291"><ele>235.0</ele><time>2026-04-04T13:34:00.999Z</time></trkpt><trkpt lat="43.308130685558375" lon="11.120511415891437"><ele>235.33333333333331</ele><time>2026-04-04T13:34:01.999Z</time></trkpt><trkpt lat="43.308222368599566" lon="11.120724864970128"><ele>235.66666666666669</ele><time>2026-04-04T13:34:02.999Z</time></trkpt><trkpt lat="43.30831332912398" lon="11.120938394294166"><ele>236.0</ele><time>2026-04-04T13:34:03.999Z</time></trkpt><trkpt lat="43.30840053855105" lon="11.12114900308315"><ele>236.33333333333334</ele><time>2026-04-04T13:34:04.999Z</time></trkpt><trkpt lat="43.308488758932846" lon="11.121359723868272"><ele>236.66666666666669</ele><time>2026-04-04T13:34:05.999Z</time></trkpt><trkpt lat="43.3085777175137" lon="11.12156515369503"><ele>237.0</ele><time>2026-04-04T13:34:06.999Z</time></trkpt><trkpt lat="43.30866622974123" lon="11.121775256922527"><ele>238.33333333333331</ele><time>2026-04-04T13:34:07.999Z</time></trkpt><trkpt lat="43.30875199538101" lon="11.121988846228565"><ele>239.66666666666666</ele><time>2026-04-04T13:34:08.999Z</time></trkpt><trkpt lat="43.3088254276038" lon="11.122209504764959"><ele>241.0</ele><time>2026-04-04T13:34:09.999Z</time></trkpt><trkpt lat="43.30890677553112" lon="11.122420885896268"><ele>242.0</ele><time>2026-04-04T13:34:10.999Z</time></trkpt><trkpt lat="43.30898604704022" lon="11.122637947668895"><ele>243.0</ele><time>2026-04-04T13:34:11.999Z</time></trkpt><trkpt lat="43.30905956448519" lon="11.122859872900383"><ele>244.0</ele><time>2026-04-04T13:34:12.999Z</time></trkpt><trkpt lat="43.309127429132175" lon="11.123078431546633"><ele>245.0</ele><time>2026-04-04T13:34:13.999Z</time></trkpt><trkpt lat="43.30919510262494" lon="11.123302520713173"><ele>246.0</ele><time>2026-04-04T13:34:14.999Z</time></trkpt><trkpt lat="43.30926197630566" lon="11.123531236431628"><ele>247.0</ele><time>2026-04-04T13:34:15.999Z</time></trkpt><trkpt lat="43.30932315881222" lon="11.12374964225929"><ele>247.0</ele><time>2026-04-04T13:34:16.999Z</time></trkpt><trkpt lat="43.309381047360176" lon="11.123971636894764"><ele>247.0</ele><time>2026-04-04T13:34:17.999Z</time></trkpt><trkpt lat="43.30943847671713" lon="11.124196833910636"><ele>247.0</ele><time>2026-04-04T13:34:18.999Z</time></trkpt><trkpt lat="43.309496370919014" lon="11.124424346471121"><ele>247.33333333333331</ele><time>2026-04-04T13:34:19.999Z</time></trkpt><trkpt lat="43.309552697989126" lon="11.124649669519792"><ele>247.66666666666669</ele><time>2026-04-04T13:34:20.999Z</time></trkpt><trkpt lat="43.309610377059485" lon="11.124884830106202"><ele>248.0</ele><time>2026-04-04T13:34:21.999Z</time></trkpt><trkpt lat="43.30966574773017" lon="11.125110583195479"><ele>248.0</ele><time>2026-04-04T13:34:22.999Z</time></trkpt><trkpt lat="43.309719527966074" lon="11.125333077939656"><ele>248.0</ele><time>2026-04-04T13:34:23.999Z</time></trkpt><trkpt lat="43.309774393865894" lon="11.125554702983695"><ele>248.0</ele><time>2026-04-04T13:34:24.999Z</time></trkpt><trkpt lat="43.309828784916824" lon="11.125774409960709"><ele>250.66666666666669</ele><time>2026-04-04T13:34:25.999Z</time></trkpt><trkpt lat="43.30988248285187" lon="11.125991317043683"><ele>253.33333333333331</ele><time>2026-04-04T13:34:26.999Z</time></trkpt><trkpt lat="43.30993620303058" lon="11.126208314097472"><ele>256.0</ele><time>2026-04-04T13:34:27.999Z</time></trkpt><trkpt lat="43.30999003008088" lon="11.12642574280084"><ele>256.66666666666663</ele><time>2026-04-04T13:34:28.999Z</time></trkpt><trkpt lat="43.310043778767835" lon="11.126643578972313"><ele>257.3333333333333</ele><time>2026-04-04T13:34:29.999Z</time></trkpt><trkpt lat="43.31009979496152" lon="11.126874531007816"><ele>258.0</ele><time>2026-04-04T13:34:30.999Z</time></trkpt><trkpt lat="43.31015603202203" lon="11.12710676419729"><ele>258.0</ele><time>2026-04-04T13:34:31.999Z</time></trkpt><trkpt lat="43.310211331898174" lon="11.127335641352863"><ele>258.0</ele><time>2026-04-04T13:34:32.999Z</time></trkpt><trkpt lat="43.31026364625985" lon="11.127552161358269"><ele>258.0</ele><time>2026-04-04T13:34:33.999Z</time></trkpt><trkpt lat="43.31030926569062" lon="11.127746901353193"><ele>258.6666666666667</ele><time>2026-04-04T13:34:34.999Z</time></trkpt><trkpt lat="43.310388275384625" lon="11.128115338047577"><ele>259.33333333333337</ele><time>2026-04-04T13:34:36.999Z</time></trkpt><trkpt lat="43.31042012911889" lon="11.12831000291765"><ele>260.0</ele><time>2026-04-04T13:34:37.999Z</time></trkpt><trkpt lat="43.31043417305877" lon="11.12852154298811"><ele>260.6666666666667</ele><time>2026-04-04T13:34:38.999Z</time></trkpt><trkpt lat="43.31042794843637" lon="11.128733931185376"><ele>261.3333333333333</ele><time>2026-04-04T13:34:39.999Z</time></trkpt><trkpt lat="43.31040776663901" lon="11.12894686268763"><ele>262.0</ele><time>2026-04-04T13:34:40.999Z</time></trkpt><trkpt lat="43.31037359806162" lon="11.129178290144251"><ele>263.3333333333333</ele><time>2026-04-04T13:34:41.999Z</time></trkpt><trkpt lat="43.31032443388284" lon="11.129383903078018"><ele>264.6666666666667</ele><time>2026-04-04T13:34:42.999Z</time></trkpt><trkpt lat="43.3102742086002" lon="11.129580330457722"><ele>266.0</ele><time>2026-04-04T13:34:43.999Z</time></trkpt><trkpt lat="43.310226462736615" lon="11.129767060892048"><ele>266.5</ele><time>2026-04-04T13:34:44.999Z</time></trkpt><trkpt lat="43.3101833946298" lon="11.129934770811772"><ele>267.0</ele><time>2026-04-04T13:34:45.999Z</time></trkpt><trkpt lat="43.310139619879116" lon="11.130099979482154"><ele>267.5</ele><time>2026-04-04T13:34:46.999Z</time></trkpt><trkpt lat="43.310099133705236" lon="11.130251234265005"><ele>268.0</ele><time>2026-04-04T13:34:47.999Z</time></trkpt><trkpt lat="43.31005918976063" lon="11.130394702374453"><ele>268.0</ele><time>2026-04-04T13:34:48.999Z</time></trkpt><trkpt lat="43.310025395289586" lon="11.130523543108156"><ele>268.0</ele><time>2026-04-04T13:34:49.999Z</time></trkpt><trkpt lat="43.310002702498906" lon="11.130627298720634"><ele>268.0</ele><time>2026-04-04T13:34:50.999Z</time></trkpt><trkpt lat="43.31002445462695" lon="11.130735403969684"><ele>268.0</ele><time>2026-04-04T13:34:51.999Z</time></trkpt><trkpt lat="43.31002415625483" lon="11.130839018500104"><ele>268.0</ele><time>2026-04-04T13:34:52.999Z</time></trkpt><trkpt lat="43.310126556233705" lon="11.13091029360247"><ele>268.3333333333333</ele><time>2026-04-04T13:34:53.999Z</time></trkpt><trkpt lat="43.31018359817847" lon="11.130998667619343"><ele>268.66666666666663</ele><time>2026-04-04T13:34:54.999Z</time></trkpt><trkpt lat="43.3102328959128" lon="11.131078423511587"><ele>269.0</ele><time>2026-04-04T13:34:55.999Z</time></trkpt><trkpt lat="43.31028837675581" lon="11.131166376679182"><ele>269.3333333333333</ele><time>2026-04-04T13:34:56.999Z</time></trkpt><trkpt lat="43.31034097017136" lon="11.131252767253516"><ele>269.6666666666667</ele><time>2026-04-04T13:34:57.999Z</time></trkpt><trkpt lat="43.31037252718645" lon="11.131349248288831"><ele>270.0</ele><time>2026-04-04T13:34:58.999Z</time></trkpt><trkpt lat="43.31041529002014" lon="11.13143361354018"><ele>270.0</ele><time>2026-04-04T13:34:59.999Z</time></trkpt><trkpt lat="43.310450787708625" lon="11.131524991742317"><ele>270.0</ele><time>2026-04-04T13:35:00.999Z</time></trkpt><trkpt lat="43.31047045669692" lon="11.131614391979083"><ele>270.0</ele><time>2026-04-04T13:35:01.999Z</time></trkpt><trkpt lat="43.310504889092144" lon="11.131745660076565"><ele>270.0</ele><time>2026-04-04T13:35:03.999Z</time></trkpt><trkpt lat="43.310638842884046" lon="11.131704690897955"><ele>270.0</ele><time>2026-04-04T13:35:04.999Z</time></trkpt><trkpt lat="43.310709623618344" lon="11.131699455771729"><ele>270.5</ele><time>2026-04-04T13:35:05.999Z</time></trkpt><trkpt lat="43.310783033064524" lon="11.131721863897422"><ele>271.0</ele><time>2026-04-04T13:35:06.999Z</time></trkpt><trkpt lat="43.3108498258203" lon="11.131798557054221"><ele>271.5</ele><time>2026-04-04T13:35:07.999Z</time></trkpt><trkpt lat="43.31091839090295" lon="11.131839373344224"><ele>272.0</ele><time>2026-04-04T13:35:08.999Z</time></trkpt><trkpt lat="43.31098563918393" lon="11.131890258926603"><ele>272.5</ele><time>2026-04-04T13:35:09.999Z</time></trkpt><trkpt lat="43.31106865265792" lon="11.131944169750943"><ele>273.0</ele><time>2026-04-04T13:35:10.999Z</time></trkpt><trkpt lat="43.31115596591975" lon="11.132000203806815"><ele>273.0</ele><time>2026-04-04T13:35:11.999Z</time></trkpt><trkpt lat="43.31124420276369" lon="11.132051128171737"><ele>273.0</ele><time>2026-04-04T13:35:12.999Z</time></trkpt><trkpt lat="43.31134479009177" lon="11.132086440091898"><ele>273.0</ele><time>2026-04-04T13:35:13.999Z</time></trkpt><trkpt lat="43.3114715250602" lon="11.132093102447467"><ele>273.0</ele><time>2026-04-04T13:35:14.999Z</time></trkpt><trkpt lat="43.31161252482943" lon="11.132074200756222"><ele>273.6666666666667</ele><time>2026-04-04T13:35:15.999Z</time></trkpt><trkpt lat="43.311755390847516" lon="11.132023254202062"><ele>274.33333333333337</ele><time>2026-04-04T13:35:16.999Z</time></trkpt><trkpt lat="43.31189826828762" lon="11.131939439031488"><ele>275.0</ele><time>2026-04-04T13:35:17.999Z</time></trkpt><trkpt lat="43.312058496506914" lon="11.131833646490698"><ele>275.0</ele><time>2026-04-04T13:35:18.999Z</time></trkpt><trkpt lat="43.31220066268272" lon="11.13175122386502"><ele>275.0</ele><time>2026-04-04T13:35:19.999Z</time></trkpt><trkpt lat="43.31234381035236" lon="11.131672383688215"><ele>275.0</ele><time>2026-04-04T13:35:20.999Z</time></trkpt><trkpt lat="43.31248822447154" lon="11.131605724779785"><ele>274.25</ele><time>2026-04-04T13:35:21.999Z</time></trkpt><trkpt lat="43.31262606340276" lon="11.131548074531288"><ele>273.5</ele><time>2026-04-04T13:35:22.999Z</time></trkpt><trkpt lat="43.31275095161898" lon="11.131498919755934"><ele>272.75</ele><time>2026-04-04T13:35:23.999Z</time></trkpt><trkpt lat="43.31287539158897" lon="11.131444133713764"><ele>272.0</ele><time>2026-04-04T13:35:24.999Z</time></trkpt><trkpt lat="43.313003563271174" lon="11.131381039249634"><ele>272.5</ele><time>2026-04-04T13:35:25.999Z</time></trkpt><trkpt lat="43.31313042611818" lon="11.131323851658285"><ele>273.0</ele><time>2026-04-04T13:35:26.999Z</time></trkpt><trkpt lat="43.31324999791456" lon="11.131307708801012"><ele>273.5</ele><time>2026-04-04T13:35:27.999Z</time></trkpt><trkpt lat="43.31336229506638" lon="11.131300697709714"><ele>274.0</ele><time>2026-04-04T13:35:28.999Z</time></trkpt><trkpt lat="43.31348501868358" lon="11.131310886625918"><ele>274.0</ele><time>2026-04-04T13:35:29.999Z</time></trkpt><trkpt lat="43.31362648541605" lon="11.131311440355327"><ele>274.0</ele><time>2026-04-04T13:35:30.999Z</time></trkpt><trkpt lat="43.31377349769598" lon="11.131326838548572"><ele>274.0</ele><time>2026-04-04T13:35:31.999Z</time></trkpt><trkpt lat="43.313922814943304" lon="11.131336865764759"><ele>274.0</ele><time>2026-04-04T13:35:32.999Z</time></trkpt><trkpt lat="43.314059499909774" lon="11.131340360480221"><ele>274.75</ele><time>2026-04-04T13:35:33.999Z</time></trkpt><trkpt lat="43.314193252507565" lon="11.131339354926185"><ele>275.5</ele><time>2026-04-04T13:35:34.999Z</time></trkpt><trkpt lat="43.31432358834978" lon="11.131343598188895"><ele>276.25</ele><time>2026-04-04T13:35:35.999Z</time></trkpt><trkpt lat="43.31443471708767" lon="11.131396530306535"><ele>277.0</ele><time>2026-04-04T13:35:36.999Z</time></trkpt><trkpt lat="43.314543434925014" lon="11.131446039316927"><ele>277.0</ele><time>2026-04-04T13:35:37.999Z</time></trkpt><trkpt lat="43.314649130656136" lon="11.131529238101502"><ele>277.0</ele><time>2026-04-04T13:35:38.999Z</time></trkpt><trkpt lat="43.314756149916164" lon="11.131625853532634"><ele>277.0</ele><time>2026-04-04T13:35:39.999Z</time></trkpt><trkpt lat="43.31486120578437" lon="11.131735018607353"><ele>277.0</ele><time>2026-04-04T13:35:40.999Z</time></trkpt><trkpt lat="43.31496818568869" lon="11.131852783714056"><ele>276.3333333333333</ele><time>2026-04-04T13:35:41.999Z</time></trkpt><trkpt lat="43.315096232558275" lon="11.131956201159353"><ele>275.6666666666667</ele><time>2026-04-04T13:35:42.999Z</time></trkpt><trkpt lat="43.31522261287124" lon="11.132069287599554"><ele>275.0</ele><time>2026-04-04T13:35:43.999Z</time></trkpt><trkpt lat="43.31538301300401" lon="11.13215122793647"><ele>275.0</ele><time>2026-04-04T13:35:44.999Z</time></trkpt><trkpt lat="43.315555656621825" lon="11.132196987403308"><ele>275.0</ele><time>2026-04-04T13:35:45.999Z</time></trkpt><trkpt lat="43.31571380980376" lon="11.132236497209083"><ele>275.0</ele><time>2026-04-04T13:35:46.999Z</time></trkpt><trkpt lat="43.315849223392604" lon="11.1322780515682"><ele>275.33333333333337</ele><time>2026-04-04T13:35:47.999Z</time></trkpt><trkpt lat="43.31598731555786" lon="11.132322702004561"><ele>275.6666666666667</ele><time>2026-04-04T13:35:48.999Z</time></trkpt><trkpt lat="43.31613325795082" lon="11.132365382867212"><ele>276.0</ele><time>2026-04-04T13:35:49.999Z</time></trkpt><trkpt lat="43.31629110356123" lon="11.132408015022586"><ele>277.3333333333333</ele><time>2026-04-04T13:35:50.999Z</time></trkpt><trkpt lat="43.31645015650957" lon="11.132445237705582"><ele>278.66666666666663</ele><time>2026-04-04T13:35:51.999Z</time></trkpt><trkpt lat="43.31660453994221" lon="11.132486179159098"><ele>280.0</ele><time>2026-04-04T13:35:52.999Z</time></trkpt><trkpt lat="43.316759858060806" lon="11.132523356212515"><ele>280.0</ele><time>2026-04-04T13:35:53.999Z</time></trkpt><trkpt lat="43.31691270962664" lon="11.132562754376726"><ele>280.0</ele><time>2026-04-04T13:35:54.999Z</time></trkpt><trkpt lat="43.317041871949726" lon="11.132619674677377"><ele>280.0</ele><time>2026-04-04T13:35:55.999Z</time></trkpt><trkpt lat="43.31716264007104" lon="11.13265505061111"><ele>280.0</ele><time>2026-04-04T13:35:56.999Z</time></trkpt><trkpt lat="43.317285855430356" lon="11.132650995551936"><ele>280.75</ele><time>2026-04-04T13:35:57.999Z</time></trkpt><trkpt lat="43.31741518213354" lon="11.132663092231835"><ele>281.5</ele><time>2026-04-04T13:35:58.999Z</time></trkpt><trkpt lat="43.31756004529923" lon="11.13266043245173"><ele>282.25</ele><time>2026-04-04T13:35:59.999Z</time></trkpt><trkpt lat="43.317677451753276" lon="11.132727146851202"><ele>283.0</ele><time>2026-04-04T13:36:00.999Z</time></trkpt><trkpt lat="43.31779556761288" lon="11.132815469879432"><ele>283.0</ele><time>2026-04-04T13:36:01.999Z</time></trkpt><trkpt lat="43.31791911690353" lon="11.132921936787762"><ele>283.0</ele><time>2026-04-04T13:36:02.999Z</time></trkpt><trkpt lat="43.31804680360869" lon="11.13301341526178"><ele>283.0</ele><time>2026-04-04T13:36:03.999Z</time></trkpt><trkpt lat="43.318163267250746" lon="11.1330864667901"><ele>283.0</ele><time>2026-04-04T13:36:04.999Z</time></trkpt><trkpt lat="43.318302022583985" lon="11.13310551983613"><ele>282.66666666666663</ele><time>2026-04-04T13:36:05.999Z</time></trkpt><trkpt lat="43.31844702638318" lon="11.13307341858624"><ele>282.3333333333333</ele><time>2026-04-04T13:36:06.999Z</time></trkpt><trkpt lat="43.31859759764616" lon="11.132996100927372"><ele>282.0</ele><time>2026-04-04T13:36:07.999Z</time></trkpt><trkpt lat="43.318757347840496" lon="11.132907227883942"><ele>282.0</ele><time>2026-04-04T13:36:08.999Z</time></trkpt><trkpt lat="43.318899665185526" lon="11.132832852359948"><ele>282.0</ele><time>2026-04-04T13:36:09.999Z</time></trkpt><trkpt lat="43.319033328784315" lon="11.132765337737567"><ele>282.0</ele><time>2026-04-04T13:36:10.999Z</time></trkpt><trkpt lat="43.319210062444185" lon="11.132690109784102"><ele>284.0</ele><time>2026-04-04T13:36:11.999Z</time></trkpt><trkpt lat="43.3194084800012" lon="11.132627520430649"><ele>286.0</ele><time>2026-04-04T13:36:12.999Z</time></trkpt><trkpt lat="43.31956630033781" lon="11.132587502142256"><ele>288.0</ele><time>2026-04-04T13:36:13.999Z</time></trkpt><trkpt lat="43.31969445825078" lon="11.13255147696494"><ele>289.2</ele><time>2026-04-04T13:36:14.999Z</time></trkpt><trkpt lat="43.319818308593156" lon="11.132524838649376"><ele>290.4</ele><time>2026-04-04T13:36:15.999Z</time></trkpt><trkpt lat="43.31993257337148" lon="11.132502733604579"><ele>291.59999999999997</ele><time>2026-04-04T13:36:16.999Z</time></trkpt><trkpt lat="43.3200328937451" lon="11.132486785484987"><ele>292.8</ele><time>2026-04-04T13:36:17.999Z</time></trkpt><trkpt lat="43.3201320670198" lon="11.132472580015005"><ele>294.0</ele><time>2026-04-04T13:36:18.999Z</time></trkpt><trkpt lat="43.32023602206664" lon="11.132460414780356"><ele>294.0</ele><time>2026-04-04T13:36:19.999Z</time></trkpt><trkpt lat="43.320339971549" lon="11.132466396568308"><ele>294.0</ele><time>2026-04-04T13:36:20.999Z</time></trkpt><trkpt lat="43.32046062585399" lon="11.132542799837678"><ele>294.0</ele><time>2026-04-04T13:36:21.999Z</time></trkpt><trkpt lat="43.32060160383984" lon="11.132579515517017"><ele>294.0</ele><time>2026-04-04T13:36:22.999Z</time></trkpt><trkpt lat="43.320764739890706" lon="11.132587491038727"><ele>292.6666666666667</ele><time>2026-04-04T13:36:23.999Z</time></trkpt><trkpt lat="43.32093242699843" lon="11.132565176983872"><ele>291.33333333333337</ele><time>2026-04-04T13:36:24.999Z</time></trkpt><trkpt lat="43.321093448772594" lon="11.132513101432785"><ele>290.0</ele><time>2026-04-04T13:36:25.999Z</time></trkpt><trkpt lat="43.32123869822983" lon="11.132435084486705"><ele>289.75</ele><time>2026-04-04T13:36:26.999Z</time></trkpt><trkpt lat="43.3213598979728" lon="11.132351939052414"><ele>289.5</ele><time>2026-04-04T13:36:27.999Z</time></trkpt><trkpt lat="43.32148283565053" lon="11.132286877277291"><ele>289.25</ele><time>2026-04-04T13:36:28.999Z</time></trkpt><trkpt lat="43.32161811055428" lon="11.132262333661593"><ele>289.0</ele><time>2026-04-04T13:36:29.999Z</time></trkpt><trkpt lat="43.32175893905355" lon="11.132319221536976"><ele>289.0</ele><time>2026-04-04T13:36:30.999Z</time></trkpt><trkpt lat="43.321910011660336" lon="11.132349056033068"><ele>289.0</ele><time>2026-04-04T13:36:31.999Z</time></trkpt><trkpt lat="43.32205597222941" lon="11.132406521648969"><ele>289.0</ele><time>2026-04-04T13:36:32.999Z</time></trkpt><trkpt lat="43.322194572391986" lon="11.132416994087555"><ele>289.0</ele><time>2026-04-04T13:36:33.999Z</time></trkpt><trkpt lat="43.32234323981453" lon="11.132403456354195"><ele>289.66666666666663</ele><time>2026-04-04T13:36:34.999Z</time></trkpt><trkpt lat="43.32250147074889" lon="11.132384255073026"><ele>290.3333333333333</ele><time>2026-04-04T13:36:35.999Z</time></trkpt><trkpt lat="43.32266321523005" lon="11.132356700663001"><ele>291.0</ele><time>2026-04-04T13:36:36.999Z</time></trkpt><trkpt lat="43.322820272729494" lon="11.132307632439145"><ele>291.0</ele><time>2026-04-04T13:36:37.999Z</time></trkpt><trkpt lat="43.3229761770406" lon="11.132252798458786"><ele>291.0</ele><time>2026-04-04T13:36:38.999Z</time></trkpt><trkpt lat="43.323131022986246" lon="11.132206610257848"><ele>291.0</ele><time>2026-04-04T13:36:39.999Z</time></trkpt><trkpt lat="43.32327788452539" lon="11.132180212467372"><ele>292.0</ele><time>2026-04-04T13:36:40.999Z</time></trkpt><trkpt lat="43.3234098130446" lon="11.132160398874781"><ele>293.0</ele><time>2026-04-04T13:36:41.999Z</time></trkpt><trkpt lat="43.32353566404431" lon="11.13213455805146"><ele>294.0</ele><time>2026-04-04T13:36:42.999Z</time></trkpt><trkpt lat="43.323661083123426" lon="11.132111998810167"><ele>295.0</ele><time>2026-04-04T13:36:43.999Z</time></trkpt><trkpt lat="43.32376781388178" lon="11.132141711075253"><ele>295.0</ele><time>2026-04-04T13:36:44.999Z</time></trkpt><trkpt lat="43.32385991983069" lon="11.132183133832848"><ele>295.0</ele><time>2026-04-04T13:36:45.999Z</time></trkpt><trkpt lat="43.32397196720966" lon="11.132215866850714"><ele>295.0</ele><time>2026-04-04T13:36:46.999Z</time></trkpt><trkpt lat="43.32408791396385" lon="11.132275326112259"><ele>295.0</ele><time>2026-04-04T13:36:47.999Z</time></trkpt><trkpt lat="43.32422181955982" lon="11.13233645245314"><ele>295.66666666666663</ele><time>2026-04-04T13:36:48.999Z</time></trkpt><trkpt lat="43.324377086279796" lon="11.132403199615275"><ele>296.3333333333333</ele><time>2026-04-04T13:36:49.999Z</time></trkpt><trkpt lat="43.324527136972286" lon="11.132469244785582"><ele>297.0</ele><time>2026-04-04T13:36:50.999Z</time></trkpt><trkpt lat="43.324664318663906" lon="11.132530795974569"><ele>295.75</ele><time>2026-04-04T13:36:51.999Z</time></trkpt><trkpt lat="43.32480518273221" lon="11.132599577970172"><ele>294.5</ele><time>2026-04-04T13:36:52.999Z</time></trkpt><trkpt lat="43.32491818231191" lon="11.132696170428629"><ele>293.25</ele><time>2026-04-04T13:36:53.999Z</time></trkpt><trkpt lat="43.325003446239386" lon="11.132788368385135"><ele>292.0</ele><time>2026-04-04T13:36:54.999Z</time></trkpt><trkpt lat="43.32505714807462" lon="11.132914175114967"><ele>292.0</ele><time>2026-04-04T13:36:55.999Z</time></trkpt><trkpt lat="43.325079510530315" lon="11.133072148675817"><ele>292.0</ele><time>2026-04-04T13:36:56.999Z</time></trkpt><trkpt lat="43.32507839550911" lon="11.13325345978865"><ele>292.0</ele><time>2026-04-04T13:36:57.999Z</time></trkpt><trkpt lat="43.325071457428784" lon="11.133455049592975"><ele>292.0</ele><time>2026-04-04T13:36:58.999Z</time></trkpt><trkpt lat="43.32506110539432" lon="11.133654840309235"><ele>291.75</ele><time>2026-04-04T13:36:59.999Z</time></trkpt><trkpt lat="43.32504400306902" lon="11.133832058567156"><ele>291.5</ele><time>2026-04-04T13:37:00.999Z</time></trkpt><trkpt lat="43.32502514825204" lon="11.1339984897588"><ele>291.25</ele><time>2026-04-04T13:37:01.999Z</time></trkpt><trkpt lat="43.32500756930561" lon="11.134153839912418"><ele>291.0</ele><time>2026-04-04T13:37:02.999Z</time></trkpt><trkpt lat="43.32499547230483" lon="11.134305901592588"><ele>291.0</ele><time>2026-04-04T13:37:03.999Z</time></trkpt><trkpt lat="43.325016727633454" lon="11.134455782934241"><ele>291.0</ele><time>2026-04-04T13:37:04.999Z</time></trkpt><trkpt lat="43.32503983536533" lon="11.134607960318194"><ele>291.0</ele><time>2026-04-04T13:37:05.999Z</time></trkpt><trkpt lat="43.325122144731246" lon="11.134735093076994"><ele>291.0</ele><time>2026-04-04T13:37:06.999Z</time></trkpt><trkpt lat="43.32525587809803" lon="11.134789247787642"><ele>291.0</ele><time>2026-04-04T13:37:07.999Z</time></trkpt><trkpt lat="43.32538035042037" lon="11.134856470525627"><ele>291.0</ele><time>2026-04-04T13:37:08.999Z</time></trkpt><trkpt lat="43.32549372932824" lon="11.134932508926157"><ele>291.0</ele><time>2026-04-04T13:37:09.999Z</time></trkpt><trkpt lat="43.32560898269218" lon="11.135007054363314"><ele>291.0</ele><time>2026-04-04T13:37:10.999Z</time></trkpt><trkpt lat="43.32572100760086" lon="11.135077412158923"><ele>292.0</ele><time>2026-04-04T13:37:11.999Z</time></trkpt><trkpt lat="43.32581116653864" lon="11.13516271300602"><ele>293.0</ele><time>2026-04-04T13:37:12.999Z</time></trkpt><trkpt lat="43.32590033728125" lon="11.135219645978108"><ele>294.0</ele><time>2026-04-04T13:37:13.999Z</time></trkpt><trkpt lat="43.32599567544877" lon="11.135268965966882"><ele>295.0</ele><time>2026-04-04T13:37:14.999Z</time></trkpt><trkpt lat="43.32610019820513" lon="11.135328753532512"><ele>296.0</ele><time>2026-04-04T13:37:15.999Z</time></trkpt><trkpt lat="43.32621064404086" lon="11.135401592701465"><ele>296.0</ele><time>2026-04-04T13:37:16.999Z</time></trkpt><trkpt lat="43.32633522675195" lon="11.135465908399977"><ele>296.0</ele><time>2026-04-04T13:37:17.999Z</time></trkpt><trkpt lat="43.32645502657825" lon="11.135560877056175"><ele>296.0</ele><time>2026-04-04T13:37:18.999Z</time></trkpt><trkpt lat="43.326589779977" lon="11.135620049001755"><ele>296.0</ele><time>2026-04-04T13:37:19.999Z</time></trkpt><trkpt lat="43.326713981731544" lon="11.135698858782344"><ele>295.75</ele><time>2026-04-04T13:37:20.999Z</time></trkpt><trkpt lat="43.32683708248075" lon="11.135774333941841"><ele>295.5</ele><time>2026-04-04T13:37:21.999Z</time></trkpt><trkpt lat="43.32695034774824" lon="11.13584736985446"><ele>295.25</ele><time>2026-04-04T13:37:22.999Z</time></trkpt><trkpt lat="43.32705268449331" lon="11.135929352772438"><ele>295.0</ele><time>2026-04-04T13:37:23.999Z</time></trkpt><trkpt lat="43.327155476363764" lon="11.135993658289156"><ele>293.2</ele><time>2026-04-04T13:37:24.999Z</time></trkpt><trkpt lat="43.327253097109335" lon="11.136054728322334"><ele>291.4</ele><time>2026-04-04T13:37:25.999Z</time></trkpt><trkpt lat="43.32734699271742" lon="11.136115623252897"><ele>289.6</ele><time>2026-04-04T13:37:26.999Z</time></trkpt><trkpt lat="43.32743453071591" lon="11.13617424438889"><ele>287.8</ele><time>2026-04-04T13:37:27.999Z</time></trkpt><trkpt lat="43.327517357829805" lon="11.136229957229071"><ele>286.0</ele><time>2026-04-04T13:37:28.999Z</time></trkpt><trkpt lat="43.327598756874295" lon="11.136284016377903"><ele>286.0</ele><time>2026-04-04T13:37:29.999Z</time></trkpt><trkpt lat="43.32772227197102" lon="11.136180013999985"><ele>286.0</ele><time>2026-04-04T13:37:30.999Z</time></trkpt><trkpt lat="43.32781596935663" lon="11.136140305256493"><ele>286.0</ele><time>2026-04-04T13:37:31.999Z</time></trkpt><trkpt lat="43.32790664593758" lon="11.136067544084588"><ele>286.0</ele><time>2026-04-04T13:37:32.999Z</time></trkpt><trkpt lat="43.32800079069924" lon="11.13597166832436"><ele>284.75</ele><time>2026-04-04T13:37:33.999Z</time></trkpt><trkpt lat="43.328101942864464" lon="11.135859665983238"><ele>283.5</ele><time>2026-04-04T13:37:34.999Z</time></trkpt><trkpt lat="43.32821840244129" lon="11.135776390761084"><ele>282.25</ele><time>2026-04-04T13:37:35.999Z</time></trkpt><trkpt lat="43.32831397434438" lon="11.135667537381705"><ele>281.0</ele><time>2026-04-04T13:37:36.999Z</time></trkpt><trkpt lat="43.32842517194003" lon="11.135563843149201"><ele>279.75</ele><time>2026-04-04T13:37:37.999Z</time></trkpt><trkpt lat="43.3285372923214" lon="11.135461976235852"><ele>278.5</ele><time>2026-04-04T13:37:38.999Z</time></trkpt><trkpt lat="43.328651818982635" lon="11.13536094948223"><ele>277.25</ele><time>2026-04-04T13:37:39.999Z</time></trkpt><trkpt lat="43.32876856920666" lon="11.135258842303195"><ele>276.0</ele><time>2026-04-04T13:37:40.999Z</time></trkpt><trkpt lat="43.328871337220725" lon="11.135158881817919"><ele>277.0</ele><time>2026-04-04T13:37:41.999Z</time></trkpt><trkpt lat="43.32896976454399" lon="11.13506447413285"><ele>278.0</ele><time>2026-04-04T13:37:42.999Z</time></trkpt><trkpt lat="43.329064876548806" lon="11.134976141158099"><ele>279.0</ele><time>2026-04-04T13:37:43.999Z</time></trkpt><trkpt lat="43.329140005766256" lon="11.134889858390709"><ele>280.0</ele><time>2026-04-04T13:37:44.999Z</time></trkpt><trkpt lat="43.32919228087048" lon="11.13478818908912"><ele>281.0</ele><time>2026-04-04T13:37:45.999Z</time></trkpt><trkpt lat="43.3292385635082" lon="11.134662792426331"><ele>281.0</ele><time>2026-04-04T13:37:46.999Z</time></trkpt><trkpt lat="43.32927633959873" lon="11.134501698562483"><ele>281.0</ele><time>2026-04-04T13:37:47.999Z</time></trkpt><trkpt lat="43.32930228275265" lon="11.134313520084413"><ele>281.0</ele><time>2026-04-04T13:37:48.999Z</time></trkpt><trkpt lat="43.32931895655316" lon="11.13413205585112"><ele>281.0</ele><time>2026-04-04T13:37:49.999Z</time></trkpt><trkpt lat="43.329331073878194" lon="11.13396146750518"><ele>281.0</ele><time>2026-04-04T13:37:50.999Z</time></trkpt><trkpt lat="43.32934462189968" lon="11.133796861818784"><ele>281.0</ele><time>2026-04-04T13:37:51.999Z</time></trkpt><trkpt lat="43.329367942894315" lon="11.133639876891746"><ele>281.0</ele><time>2026-04-04T13:37:52.999Z</time></trkpt><trkpt lat="43.32939056537268" lon="11.133463321503186"><ele>281.0</ele><time>2026-04-04T13:37:53.999Z</time></trkpt><trkpt lat="43.32942107113635" lon="11.133303634877883"><ele>279.5</ele><time>2026-04-04T13:37:54.999Z</time></trkpt><trkpt lat="43.329471433213705" lon="11.133158852903899"><ele>278.0</ele><time>2026-04-04T13:37:55.999Z</time></trkpt><trkpt lat="43.3295408414966" lon="11.133036304409217"><ele>276.5</ele><time>2026-04-04T13:37:56.999Z</time></trkpt><trkpt lat="43.329617163825624" lon="11.132910018124106"><ele>275.0</ele><time>2026-04-04T13:37:57.999Z</time></trkpt><trkpt lat="43.32970612694357" lon="11.132802985645773"><ele>277.8</ele><time>2026-04-04T13:37:58.999Z</time></trkpt><trkpt lat="43.329797119479615" lon="11.13272806544542"><ele>280.6</ele><time>2026-04-04T13:37:59.999Z</time></trkpt><trkpt lat="43.329891988137526" lon="11.132677454838563"><ele>283.4</ele><time>2026-04-04T13:38:00.999Z</time></trkpt><trkpt lat="43.330002098985894" lon="11.132638828646975"><ele>286.2</ele><time>2026-04-04T13:38:01.999Z</time></trkpt><trkpt lat="43.33011181556394" lon="11.132602950630087"><ele>289.0</ele><time>2026-04-04T13:38:02.999Z</time></trkpt><trkpt lat="43.33022307095362" lon="11.13256506770077"><ele>289.0</ele><time>2026-04-04T13:38:03.999Z</time></trkpt><trkpt lat="43.330343447885554" lon="11.132522449780554"><ele>289.0</ele><time>2026-04-04T13:38:04.999Z</time></trkpt><trkpt lat="43.33046564151781" lon="11.132480266052452"><ele>289.0</ele><time>2026-04-04T13:38:05.999Z</time></trkpt><trkpt lat="43.33058769704788" lon="11.132438308166318"><ele>289.0</ele><time>2026-04-04T13:38:06.999Z</time></trkpt><trkpt lat="43.330696193431656" lon="11.132402040216014"><ele>287.0</ele><time>2026-04-04T13:38:07.999Z</time></trkpt><trkpt lat="43.33080441191186" lon="11.132369661654659"><ele>285.0</ele><time>2026-04-04T13:38:08.999Z</time></trkpt><trkpt lat="43.330923420797305" lon="11.13234083960624"><ele>283.0</ele><time>2026-04-04T13:38:09.999Z</time></trkpt><trkpt lat="43.33103187216687" lon="11.132316778302254"><ele>281.0</ele><time>2026-04-04T13:38:10.999Z</time></trkpt><trkpt lat="43.33113816078903" lon="11.132284932559704"><ele>281.0</ele><time>2026-04-04T13:38:11.999Z</time></trkpt><trkpt lat="43.33125349750692" lon="11.132263261090825"><ele>281.0</ele><time>2026-04-04T13:38:12.999Z</time></trkpt><trkpt lat="43.33137518412192" lon="11.132210160869539"><ele>281.0</ele><time>2026-04-04T13:38:13.999Z</time></trkpt><trkpt lat="43.331488021407424" lon="11.13216257363759"><ele>281.0</ele><time>2026-04-04T13:38:14.999Z</time></trkpt><trkpt lat="43.33160948251119" lon="11.13212543399075"><ele>281.5</ele><time>2026-04-04T13:38:15.999Z</time></trkpt><trkpt lat="43.33174386940266" lon="11.132095337625172"><ele>282.0</ele><time>2026-04-04T13:38:16.999Z</time></trkpt><trkpt lat="43.331860135890906" lon="11.132013308599051"><ele>282.5</ele><time>2026-04-04T13:38:17.999Z</time></trkpt><trkpt lat="43.331971767955515" lon="11.131960531982893"><ele>283.0</ele><time>2026-04-04T13:38:18.999Z</time></trkpt><trkpt lat="43.33206552175846" lon="11.131897604456103"><ele>283.0</ele><time>2026-04-04T13:38:19.999Z</time></trkpt><trkpt lat="43.33215002176204" lon="11.131863065070263"><ele>283.0</ele><time>2026-04-04T13:38:20.999Z</time></trkpt><trkpt lat="43.33222737546768" lon="11.131852002595693"><ele>283.0</ele><time>2026-04-04T13:38:21.999Z</time></trkpt><trkpt lat="43.33230329705753" lon="11.131887585040463"><ele>283.0</ele><time>2026-04-04T13:38:22.999Z</time></trkpt><trkpt lat="43.33239743273062" lon="11.131948016987263"><ele>283.0</ele><time>2026-04-04T13:38:23.999Z</time></trkpt><trkpt lat="43.33249774397554" lon="11.132006646385014"><ele>283.8333333333333</ele><time>2026-04-04T13:38:24.999Z</time></trkpt><trkpt lat="43.33259688439614" lon="11.132043532782781"><ele>284.66666666666663</ele><time>2026-04-04T13:38:25.999Z</time></trkpt><trkpt lat="43.33268072445383" lon="11.132074628382021"><ele>285.5</ele><time>2026-04-04T13:38:26.999Z</time></trkpt><trkpt lat="43.332759544920656" lon="11.132056744107878"><ele>286.3333333333333</ele><time>2026-04-04T13:38:27.999Z</time></trkpt><trkpt lat="43.33282408330152" lon="11.132005357894966"><ele>287.1666666666667</ele><time>2026-04-04T13:38:28.999Z</time></trkpt><trkpt lat="43.33285096793817" lon="11.131890837283091"><ele>288.0</ele><time>2026-04-04T13:38:29.999Z</time></trkpt><trkpt lat="43.3328259610607" lon="11.131780426239143"><ele>288.0</ele><time>2026-04-04T13:38:30.999Z</time></trkpt><trkpt lat="43.332837465611206" lon="11.13168313759574"><ele>288.0</ele><time>2026-04-04T13:38:31.999Z</time></trkpt><trkpt lat="43.33281344601835" lon="11.131542158794716"><ele>288.0</ele><time>2026-04-04T13:38:32.999Z</time></trkpt><trkpt lat="43.33281187944649" lon="11.131401700212928"><ele>288.0</ele><time>2026-04-04T13:38:33.999Z</time></trkpt><trkpt lat="43.332781312198875" lon="11.13128258059562"><ele>288.0</ele><time>2026-04-04T13:38:34.999Z</time></trkpt><trkpt lat="43.33276494714227" lon="11.131169824360297"><ele>287.5</ele><time>2026-04-04T13:38:35.999Z</time></trkpt><trkpt lat="43.33279272971692" lon="11.13106351915921"><ele>287.0</ele><time>2026-04-04T13:38:36.999Z</time></trkpt><trkpt lat="43.332834177828964" lon="11.130967165459312"><ele>286.5</ele><time>2026-04-04T13:38:37.999Z</time></trkpt><trkpt lat="43.33287880880859" lon="11.130846822320331"><ele>286.0</ele><time>2026-04-04T13:38:38.999Z</time></trkpt><trkpt lat="43.332913815333605" lon="11.13072869563279"><ele>285.5</ele><time>2026-04-04T13:38:39.999Z</time></trkpt><trkpt lat="43.33296077349282" lon="11.130642668588111"><ele>285.0</ele><time>2026-04-04T13:38:40.999Z</time></trkpt><trkpt lat="43.33302410861666" lon="11.130604174267265"><ele>284.8</ele><time>2026-04-04T13:38:41.999Z</time></trkpt><trkpt lat="43.333085619635014" lon="11.130566018823282"><ele>284.6</ele><time>2026-04-04T13:38:42.999Z</time></trkpt><trkpt lat="43.33315930925868" lon="11.130502008019436"><ele>284.4</ele><time>2026-04-04T13:38:43.999Z</time></trkpt><trkpt lat="43.333252272383724" lon="11.13042859194933"><ele>284.2</ele><time>2026-04-04T13:38:44.999Z</time></trkpt><trkpt lat="43.33333955250301" lon="11.13035737282666"><ele>284.0</ele><time>2026-04-04T13:38:45.999Z</time></trkpt><trkpt lat="43.33343500736123" lon="11.130326588806586"><ele>284.0</ele><time>2026-04-04T13:38:46.999Z</time></trkpt><trkpt lat="43.33352133941956" lon="11.13027567203224"><ele>284.0</ele><time>2026-04-04T13:38:47.999Z</time></trkpt><trkpt lat="43.333622239898496" lon="11.130277215214312"><ele>284.0</ele><time>2026-04-04T13:38:48.999Z</time></trkpt><trkpt lat="43.33372562156936" lon="11.13027944216746"><ele>284.0</ele><time>2026-04-04T13:38:49.999Z</time></trkpt><trkpt lat="43.33383214587043" lon="11.130293762734736"><ele>284.0</ele><time>2026-04-04T13:38:50.999Z</time></trkpt><trkpt lat="43.33393917608979" lon="11.130266247521712"><ele>283.5</ele><time>2026-04-04T13:38:51.999Z</time></trkpt><trkpt lat="43.334046080796476" lon="11.130200939631687"><ele>283.0</ele><time>2026-04-04T13:38:52.999Z</time></trkpt><trkpt lat="43.33415538735128" lon="11.130141975000539"><ele>282.5</ele><time>2026-04-04T13:38:53.999Z</time></trkpt><trkpt lat="43.33426073407784" lon="11.130085060010009"><ele>282.0</ele><time>2026-04-04T13:38:54.999Z</time></trkpt><trkpt lat="43.33436429954964" lon="11.13002910734407"><ele>282.0</ele><time>2026-04-04T13:38:55.999Z</time></trkpt><trkpt lat="43.334471674269196" lon="11.129972152235203"><ele>282.0</ele><time>2026-04-04T13:38:56.999Z</time></trkpt><trkpt lat="43.33458307475611" lon="11.129914604135447"><ele>282.0</ele><time>2026-04-04T13:38:57.999Z</time></trkpt><trkpt lat="43.334690148549676" lon="11.12985234956146"><ele>282.0</ele><time>2026-04-04T13:38:58.999Z</time></trkpt><trkpt lat="43.3347932716209" lon="11.129782841214247"><ele>282.0</ele><time>2026-04-04T13:38:59.999Z</time></trkpt><trkpt lat="43.33489010371187" lon="11.129685633661733"><ele>282.0</ele><time>2026-04-04T13:39:00.999Z</time></trkpt><trkpt lat="43.334976683181864" lon="11.129548000091456"><ele>282.0</ele><time>2026-04-04T13:39:01.999Z</time></trkpt><trkpt lat="43.33505230677459" lon="11.12942829076255"><ele>282.0</ele><time>2026-04-04T13:39:02.999Z</time></trkpt><trkpt lat="43.33513730183436" lon="11.129298518867651"><ele>282.0</ele><time>2026-04-04T13:39:03.999Z</time></trkpt><trkpt lat="43.335221092755454" lon="11.129168241266658"><ele>282.0</ele><time>2026-04-04T13:39:04.999Z</time></trkpt><trkpt lat="43.335308460027534" lon="11.129021642349713"><ele>282.0</ele><time>2026-04-04T13:39:05.999Z</time></trkpt><trkpt lat="43.335394756658886" lon="11.128874271004628"><ele>282.0</ele><time>2026-04-04T13:39:06.999Z</time></trkpt><trkpt lat="43.335485659019376" lon="11.128730821388364"><ele>283.0</ele><time>2026-04-04T13:39:07.999Z</time></trkpt><trkpt lat="43.33556956059207" lon="11.12858851495295"><ele>284.0</ele><time>2026-04-04T13:39:08.999Z</time></trkpt><trkpt lat="43.33563848081359" lon="11.128454151172962"><ele>285.0</ele><time>2026-04-04T13:39:09.999Z</time></trkpt><trkpt lat="43.33571518564531" lon="11.128323645996465"><ele>286.0</ele><time>2026-04-04T13:39:10.999Z</time></trkpt><trkpt lat="43.33580969320899" lon="11.128214642537076"><ele>283.0</ele><time>2026-04-04T13:39:11.999Z</time></trkpt><trkpt lat="43.335913429172024" lon="11.12810668299545"><ele>280.0</ele><time>2026-04-04T13:39:12.999Z</time></trkpt><trkpt lat="43.33600935048488" lon="11.127981293029825"><ele>277.0</ele><time>2026-04-04T13:39:13.999Z</time></trkpt><trkpt lat="43.3360727679092" lon="11.127828666705849"><ele>274.0</ele><time>2026-04-04T13:39:14.999Z</time></trkpt><trkpt lat="43.33614261895866" lon="11.127674006884567"><ele>274.0</ele><time>2026-04-04T13:39:15.999Z</time></trkpt><trkpt lat="43.33621876224151" lon="11.12752573912909"><ele>274.0</ele><time>2026-04-04T13:39:16.999Z</time></trkpt><trkpt lat="43.33630153775009" lon="11.127379719188859"><ele>274.0</ele><time>2026-04-04T13:39:17.999Z</time></trkpt><trkpt lat="43.33637946379107" lon="11.127209627673798"><ele>274.0</ele><time>2026-04-04T13:39:18.999Z</time></trkpt><trkpt lat="43.33643961373923" lon="11.127041092961903"><ele>274.5</ele><time>2026-04-04T13:39:19.999Z</time></trkpt><trkpt lat="43.33650268491169" lon="11.12689069146743"><ele>275.0</ele><time>2026-04-04T13:39:20.999Z</time></trkpt><trkpt lat="43.33657169708981" lon="11.126746271932857"><ele>275.5</ele><time>2026-04-04T13:39:21.999Z</time></trkpt><trkpt lat="43.33663179919812" lon="11.1266168871368"><ele>276.0</ele><time>2026-04-04T13:39:22.999Z</time></trkpt><trkpt lat="43.33668735430986" lon="11.12649649032966"><ele>274.3333333333333</ele><time>2026-04-04T13:39:23.999Z</time></trkpt><trkpt lat="43.33673947187873" lon="11.12638408562"><ele>272.6666666666667</ele><time>2026-04-04T13:39:24.999Z</time></trkpt><trkpt lat="43.33678910740857" lon="11.126284054512244"><ele>271.0</ele><time>2026-04-04T13:39:25.999Z</time></trkpt><trkpt lat="43.33682969798005" lon="11.126188832413458"><ele>269.33333333333337</ele><time>2026-04-04T13:39:26.999Z</time></trkpt><trkpt lat="43.33689783932492" lon="11.126139342469322"><ele>267.6666666666667</ele><time>2026-04-04T13:39:27.999Z</time></trkpt><trkpt lat="43.33697727166919" lon="11.126149333966676"><ele>266.0</ele><time>2026-04-04T13:39:28.999Z</time></trkpt><trkpt lat="43.337063383125056" lon="11.126122142259053"><ele>266.0</ele><time>2026-04-04T13:39:29.999Z</time></trkpt><trkpt lat="43.33716111568952" lon="11.126117060701834"><ele>266.0</ele><time>2026-04-04T13:39:30.999Z</time></trkpt><trkpt lat="43.33726821792388" lon="11.126095112100002"><ele>266.0</ele><time>2026-04-04T13:39:31.999Z</time></trkpt><trkpt lat="43.33737723821684" lon="11.126059348679869"><ele>266.0</ele><time>2026-04-04T13:39:32.999Z</time></trkpt><trkpt lat="43.33748873169653" lon="11.12600865911358"><ele>266.0</ele><time>2026-04-04T13:39:33.999Z</time></trkpt><trkpt lat="43.337595262218805" lon="11.125945400281505"><ele>266.75</ele><time>2026-04-04T13:39:34.999Z</time></trkpt><trkpt lat="43.33769972789763" lon="11.125886019413143"><ele>267.5</ele><time>2026-04-04T13:39:35.999Z</time></trkpt><trkpt lat="43.337817793889926" lon="11.125826375455896"><ele>268.25</ele><time>2026-04-04T13:39:36.999Z</time></trkpt><trkpt lat="43.33793149157073" lon="11.125770024472192"><ele>269.0</ele><time>2026-04-04T13:39:37.999Z</time></trkpt><trkpt lat="43.33805860791624" lon="11.125749915503317"><ele>269.2</ele><time>2026-04-04T13:39:38.999Z</time></trkpt><trkpt lat="43.33816333123269" lon="11.125675389270057"><ele>269.4</ele><time>2026-04-04T13:39:39.999Z</time></trkpt><trkpt lat="43.33826631224124" lon="11.125622736050486"><ele>269.6</ele><time>2026-04-04T13:39:40.999Z</time></trkpt><trkpt lat="43.33834381105867" lon="11.125539517403347"><ele>269.8</ele><time>2026-04-04T13:39:41.999Z</time></trkpt><trkpt lat="43.33840303228522" lon="11.125440051639703"><ele>270.0</ele><time>2026-04-04T13:39:42.999Z</time></trkpt><trkpt lat="43.338446198765254" lon="11.125312936436535"><ele>270.0</ele><time>2026-04-04T13:39:43.999Z</time></trkpt><trkpt lat="43.338499303678624" lon="11.125189547025885"><ele>270.0</ele><time>2026-04-04T13:39:44.999Z</time></trkpt><trkpt lat="43.33854025091999" lon="11.125042403666994"><ele>270.0</ele><time>2026-04-04T13:39:45.999Z</time></trkpt><trkpt lat="43.33857669475451" lon="11.124899193719529"><ele>270.0</ele><time>2026-04-04T13:39:46.999Z</time></trkpt><trkpt lat="43.33859961363118" lon="11.124755955036049"><ele>270.0</ele><time>2026-04-04T13:39:47.999Z</time></trkpt><trkpt lat="43.338630506003796" lon="11.124628091417154"><ele>268.6666666666667</ele><time>2026-04-04T13:39:48.999Z</time></trkpt><trkpt lat="43.33864371425981" lon="11.124501535051163"><ele>267.3333333333333</ele><time>2026-04-04T13:39:49.999Z</time></trkpt><trkpt lat="43.338655033921164" lon="11.124398002484925"><ele>266.0</ele><time>2026-04-04T13:39:50.999Z</time></trkpt><trkpt lat="43.33870593902097" lon="11.124331757619307"><ele>264.66666666666663</ele><time>2026-04-04T13:39:51.999Z</time></trkpt><trkpt lat="43.3387683559692" lon="11.124255901449127"><ele>263.3333333333333</ele><time>2026-04-04T13:39:52.999Z</time></trkpt><trkpt lat="43.33884597795461" lon="11.124154888872244"><ele>262.0</ele><time>2026-04-04T13:39:53.999Z</time></trkpt><trkpt lat="43.338925685898054" lon="11.124012954082993"><ele>261.5</ele><time>2026-04-04T13:39:54.999Z</time></trkpt><trkpt lat="43.33902544905332" lon="11.123865828881865"><ele>261.0</ele><time>2026-04-04T13:39:56Z</time></trkpt><trkpt lat="43.33910186151083" lon="11.123723927052769"><ele>260.5</ele><time>2026-04-04T13:39:57Z</time></trkpt><trkpt lat="43.33917315619853" lon="11.123596855263722"><ele>260.0</ele><time>2026-04-04T13:39:58Z</time></trkpt><trkpt lat="43.33926581990693" lon="11.123494191266872"><ele>260.0</ele><time>2026-04-04T13:39:59Z</time></trkpt><trkpt lat="43.33935271894936" lon="11.123382044973932"><ele>260.0</ele><time>2026-04-04T13:40:00Z</time></trkpt><trkpt lat="43.33944560540166" lon="11.1232698689073"><ele>260.0</ele><time>2026-04-04T13:40:01Z</time></trkpt><trkpt lat="43.3395433327776" lon="11.123157990449664"><ele>260.0</ele><time>2026-04-04T13:40:02Z</time></trkpt><trkpt lat="43.33963655142535" lon="11.123061972576075"><ele>260.0</ele><time>2026-04-04T13:40:03Z</time></trkpt><trkpt lat="43.339721790078016" lon="11.122980103244501"><ele>260.0</ele><time>2026-04-04T13:40:04Z</time></trkpt><trkpt lat="43.33979815774574" lon="11.12291779140451"><ele>260.0</ele><time>2026-04-04T13:40:05Z</time></trkpt><trkpt lat="43.339879392034135" lon="11.122872600112299"><ele>260.0</ele><time>2026-04-04T13:40:06Z</time></trkpt><trkpt lat="43.33998184098002" lon="11.122836925948935"><ele>260.0</ele><time>2026-04-04T13:40:07Z</time></trkpt><trkpt lat="43.34009783827955" lon="11.122832455117916"><ele>260.0</ele><time>2026-04-04T13:40:08Z</time></trkpt><trkpt lat="43.34021567526231" lon="11.122803924581257"><ele>260.0</ele><time>2026-04-04T13:40:09Z</time></trkpt><trkpt lat="43.34032930710861" lon="11.122731890927032"><ele>260.0</ele><time>2026-04-04T13:40:10Z</time></trkpt><trkpt lat="43.3404346262419" lon="11.122635957098014"><ele>260.0</ele><time>2026-04-04T13:40:11Z</time></trkpt><trkpt lat="43.340531981879785" lon="11.122550698302186"><ele>259.2</ele><time>2026-04-04T13:40:12Z</time></trkpt><trkpt lat="43.340632625040506" lon="11.122473864765045"><ele>258.4</ele><time>2026-04-04T13:40:13Z</time></trkpt><trkpt lat="43.34072574906037" lon="11.122396945285338"><ele>257.6</ele><time>2026-04-04T13:40:14Z</time></trkpt><trkpt lat="43.340819402095676" lon="11.122336296652204"><ele>256.8</ele><time>2026-04-04T13:40:15Z</time></trkpt><trkpt lat="43.34088708845508" lon="11.122253163184064"><ele>256.0</ele><time>2026-04-04T13:40:16Z</time></trkpt><trkpt lat="43.34093145235447" lon="11.122176215625172"><ele>255.83333333333331</ele><time>2026-04-04T13:40:17Z</time></trkpt><trkpt lat="43.341007108097536" lon="11.122035306347346"><ele>255.66666666666666</ele><time>2026-04-04T13:40:19Z</time></trkpt><trkpt lat="43.34106744376033" lon="11.121921878460546"><ele>255.5</ele><time>2026-04-04T13:40:21Z</time></trkpt><trkpt lat="43.34109599521427" lon="11.121836849952064"><ele>255.33333333333331</ele><time>2026-04-04T13:40:23Z</time></trkpt><trkpt lat="43.3411563457435" lon="11.121776869146679"><ele>255.16666666666666</ele><time>2026-04-04T13:40:26Z</time></trkpt><trkpt lat="43.34121557459604" lon="11.121734388261407"><ele>255.0</ele><time>2026-04-04T13:40:33Z</time></trkpt><trkpt lat="43.34130955146251" lon="11.121659717562837"><ele>255.0</ele><time>2026-04-04T13:40:35Z</time></trkpt><trkpt lat="43.341367314052846" lon="11.121618788671515"><ele>255.00000000000003</ele><time>2026-04-04T13:40:36Z</time></trkpt><trkpt lat="43.341422443043896" lon="11.121570477534773"><ele>255.0</ele><time>2026-04-04T13:40:37Z</time></trkpt><trkpt lat="43.34149175411647" lon="11.121540487329742"><ele>255.0</ele><time>2026-04-04T13:40:38Z</time></trkpt><trkpt lat="43.34155352100283" lon="11.121491845796516"><ele>255.00000000000003</ele><time>2026-04-04T13:40:39Z</time></trkpt><trkpt lat="43.34162112049656" lon="11.1214376833538"><ele>255.0</ele><time>2026-04-04T13:40:40Z</time></trkpt><trkpt lat="43.34169607014955" lon="11.12137475989541"><ele>255.0</ele><time>2026-04-04T13:40:41Z</time></trkpt><trkpt lat="43.341776303950816" lon="11.121289054262073"><ele>255.0</ele><time>2026-04-04T13:40:42Z</time></trkpt><trkpt lat="43.34187087952135" lon="11.121230125405397"><ele>255.0</ele><time>2026-04-04T13:40:43Z</time></trkpt><trkpt lat="43.34193944224964" lon="11.121069160484652"><ele>255.0</ele><time>2026-04-04T13:40:44Z</time></trkpt><trkpt lat="43.342024807023286" lon="11.120949260801684"><ele>255.0</ele><time>2026-04-04T13:40:45Z</time></trkpt><trkpt lat="43.34212746052189" lon="11.120830236805382"><ele>255.6</ele><time>2026-04-04T13:40:46Z</time></trkpt><trkpt lat="43.34220471321324" lon="11.120706533486473"><ele>256.2</ele><time>2026-04-04T13:40:47Z</time></trkpt><trkpt lat="43.3422624631342" lon="11.12057466824826"><ele>256.8</ele><time>2026-04-04T13:40:48Z</time></trkpt><trkpt lat="43.34233284211406" lon="11.12045579266768"><ele>257.4</ele><time>2026-04-04T13:40:49Z</time></trkpt><trkpt lat="43.3424107658744" lon="11.120363132043648"><ele>258.0</ele><time>2026-04-04T13:40:50Z</time></trkpt><trkpt lat="43.34247254073454" lon="11.120255235395755"><ele>260.75</ele><time>2026-04-04T13:40:51Z</time></trkpt><trkpt lat="43.342557241773896" lon="11.120162521105717"><ele>263.5</ele><time>2026-04-04T13:40:52Z</time></trkpt><trkpt lat="43.342637800007296" lon="11.120059590707672"><ele>266.25</ele><time>2026-04-04T13:40:53Z</time></trkpt><trkpt lat="43.34272205430729" lon="11.119937921341823"><ele>269.0</ele><time>2026-04-04T13:40:54Z</time></trkpt><trkpt lat="43.342810694234366" lon="11.119822578305406"><ele>269.5</ele><time>2026-04-04T13:40:55Z</time></trkpt><trkpt lat="43.34289639179433" lon="11.119738733969792"><ele>270.0</ele><time>2026-04-04T13:40:56Z</time></trkpt><trkpt lat="43.342968354656094" lon="11.119675552087438"><ele>270.5</ele><time>2026-04-04T13:40:57Z</time></trkpt><trkpt lat="43.34305501515906" lon="11.119660822072492"><ele>271.0</ele><time>2026-04-04T13:40:58Z</time></trkpt><trkpt lat="43.34313781258577" lon="11.119624383856676"><ele>271.5</ele><time>2026-04-04T13:40:59Z</time></trkpt><trkpt lat="43.34320882647079" lon="11.11958515128415"><ele>272.0</ele><time>2026-04-04T13:41:00Z</time></trkpt><trkpt lat="43.343254097791934" lon="11.11948426461751"><ele>272.0</ele><time>2026-04-04T13:41:01Z</time></trkpt><trkpt lat="43.34328920892075" lon="11.119382207562667"><ele>272.0</ele><time>2026-04-04T13:41:02Z</time></trkpt><trkpt lat="43.34330866011674" lon="11.119258311672077"><ele>272.0</ele><time>2026-04-04T13:41:03Z</time></trkpt><trkpt lat="43.34333114676747" lon="11.119098716163512"><ele>272.0</ele><time>2026-04-04T13:41:04Z</time></trkpt><trkpt lat="43.34336558815274" lon="11.11892784709045"><ele>272.0</ele><time>2026-04-04T13:41:05Z</time></trkpt><trkpt lat="43.34338458526819" lon="11.118754542225819"><ele>273.0</ele><time>2026-04-04T13:41:06Z</time></trkpt><trkpt lat="43.343387556418655" lon="11.118577249878404"><ele>274.0</ele><time>2026-04-04T13:41:07Z</time></trkpt><trkpt lat="43.34342350530039" lon="11.118399616409652"><ele>275.0</ele><time>2026-04-04T13:41:08Z</time></trkpt><trkpt lat="43.34345549706112" lon="11.118249029420818"><ele>276.0</ele><time>2026-04-04T13:41:09Z</time></trkpt><trkpt lat="43.34351062712337" lon="11.118114027411977"><ele>277.0</ele><time>2026-04-04T13:41:10Z</time></trkpt><trkpt lat="43.343586758401734" lon="11.117979473477398"><ele>278.0</ele><time>2026-04-04T13:41:11Z</time></trkpt><trkpt lat="43.34367459830872" lon="11.117848719427053"><ele>279.0</ele><time>2026-04-04T13:41:12Z</time></trkpt><trkpt lat="43.343769406564675" lon="11.117712530484633"><ele>280.0</ele><time>2026-04-04T13:41:13Z</time></trkpt><trkpt lat="43.343854691440875" lon="11.117566371632321"><ele>280.0</ele><time>2026-04-04T13:41:14Z</time></trkpt><trkpt lat="43.34395329146786" lon="11.117428793544967"><ele>280.0</ele><time>2026-04-04T13:41:15Z</time></trkpt><trkpt lat="43.34405686095198" lon="11.117284459963736"><ele>280.0</ele><time>2026-04-04T13:41:16Z</time></trkpt><trkpt lat="43.344169023032705" lon="11.11716550331079"><ele>280.0</ele><time>2026-04-04T13:41:17Z</time></trkpt><trkpt lat="43.34426507116338" lon="11.117091281055282"><ele>280.2</ele><time>2026-04-04T13:41:18Z</time></trkpt><trkpt lat="43.34435861220542" lon="11.117038736860364"><ele>280.4</ele><time>2026-04-04T13:41:19Z</time></trkpt><trkpt lat="43.344443040443934" lon="11.116986182812422"><ele>280.6</ele><time>2026-04-04T13:41:20Z</time></trkpt><trkpt lat="43.34455681442465" lon="11.116909315588998"><ele>280.8</ele><time>2026-04-04T13:41:22Z</time></trkpt><trkpt lat="43.34462595776115" lon="11.1168602576459"><ele>281.0</ele><time>2026-04-04T13:41:24Z</time></trkpt><trkpt lat="43.34463494894421" lon="11.116987997405444"><ele>281.0</ele><time>2026-04-04T13:41:26Z</time></trkpt><trkpt lat="43.34464430557094" lon="11.117088832332149"><ele>281.0</ele><time>2026-04-04T13:41:27Z</time></trkpt><trkpt lat="43.344656095967416" lon="11.117208779575172"><ele>281.0</ele><time>2026-04-04T13:41:28Z</time></trkpt><trkpt lat="43.34468176946096" lon="11.11733150851586"><ele>281.0</ele><time>2026-04-04T13:41:29Z</time></trkpt><trkpt lat="43.34468965663104" lon="11.117481095780203"><ele>281.0</ele><time>2026-04-04T13:41:30Z</time></trkpt><trkpt lat="43.34470465097578" lon="11.117608973245229"><ele>282.75</ele><time>2026-04-04T13:41:31Z</time></trkpt><trkpt lat="43.3447274625252" lon="11.117766078968165"><ele>284.5</ele><time>2026-04-04T13:41:33Z</time></trkpt><trkpt lat="43.34477845038738" lon="11.117938570571095"><ele>286.25</ele><time>2026-04-04T13:41:35Z</time></trkpt><trkpt lat="43.344761593310615" lon="11.118096211454901"><ele>288.0</ele><time>2026-04-04T13:41:36Z</time></trkpt><trkpt lat="43.34478023579483" lon="11.118236914532256"><ele>289.0</ele><time>2026-04-04T13:41:37Z</time></trkpt><trkpt lat="43.34479969102362" lon="11.118377888675829"><ele>290.0</ele><time>2026-04-04T13:41:38Z</time></trkpt><trkpt lat="43.34480434801036" lon="11.11851626465592"><ele>291.0</ele><time>2026-04-04T13:41:39Z</time></trkpt><trkpt lat="43.34480828450411" lon="11.11864299131176"><ele>292.0</ele><time>2026-04-04T13:41:40Z</time></trkpt><trkpt lat="43.3448133704557" lon="11.1187850986448"><ele>293.0</ele><time>2026-04-04T13:41:41Z</time></trkpt><trkpt lat="43.34481873542531" lon="11.118927234389883"><ele>292.6</ele><time>2026-04-04T13:41:42Z</time></trkpt><trkpt lat="43.34483294105111" lon="11.119070758802232"><ele>292.20000000000005</ele><time>2026-04-04T13:41:43Z</time></trkpt><trkpt lat="43.34485333672907" lon="11.11921229425975"><ele>291.8</ele><time>2026-04-04T13:41:44Z</time></trkpt><trkpt lat="43.34487656650609" lon="11.1193429019167"><ele>291.40000000000003</ele><time>2026-04-04T13:41:45Z</time></trkpt><trkpt lat="43.34490217247959" lon="11.119464221084428"><ele>291.0</ele><time>2026-04-04T13:41:46Z</time></trkpt><trkpt lat="43.34492570705876" lon="11.119591022713948"><ele>291.0</ele><time>2026-04-04T13:41:47Z</time></trkpt><trkpt lat="43.34495024496567" lon="11.119711082721574"><ele>291.0</ele><time>2026-04-04T13:41:48Z</time></trkpt><trkpt lat="43.34498121236196" lon="11.119813675770434"><ele>291.0</ele><time>2026-04-04T13:41:49Z</time></trkpt><trkpt lat="43.345019293571255" lon="11.119936731725929"><ele>291.0</ele><time>2026-04-04T13:41:50Z</time></trkpt><trkpt lat="43.34506221505089" lon="11.120041780322424"><ele>291.0</ele><time>2026-04-04T13:41:51Z</time></trkpt><trkpt lat="43.345110846897704" lon="11.12013684697583"><ele>291.0</ele><time>2026-04-04T13:41:52Z</time></trkpt><trkpt lat="43.34516882270061" lon="11.120209718975362"><ele>289.3333333333333</ele><time>2026-04-04T13:41:53Z</time></trkpt><trkpt lat="43.34523742659883" lon="11.12033024961972"><ele>287.6666666666667</ele><time>2026-04-04T13:41:55Z</time></trkpt><trkpt lat="43.34526899829865" lon="11.120406695002666"><ele>286.0</ele><time>2026-04-04T13:41:56Z</time></trkpt><trkpt lat="43.34530787393879" lon="11.120476183215056"><ele>284.33333333333337</ele><time>2026-04-04T13:41:57Z</time></trkpt><trkpt lat="43.34535903879694" lon="11.120565150457558"><ele>282.6666666666667</ele><time>2026-04-04T13:41:58Z</time></trkpt><trkpt lat="43.34541283372281" lon="11.120647335444701"><ele>281.0</ele><time>2026-04-04T13:41:59Z</time></trkpt><trkpt lat="43.345468671842454" lon="11.120729974530128"><ele>279.83333333333337</ele><time>2026-04-04T13:42:00Z</time></trkpt><trkpt lat="43.345531594121574" lon="11.120822300453518"><ele>278.6666666666667</ele><time>2026-04-04T13:42:01Z</time></trkpt><trkpt lat="43.34558298403433" lon="11.120903667414774"><ele>277.5</ele><time>2026-04-04T13:42:02Z</time></trkpt><trkpt lat="43.345636240637965" lon="11.120987947829358"><ele>276.3333333333333</ele><time>2026-04-04T13:42:03Z</time></trkpt><trkpt lat="43.345686987803376" lon="11.121064794202018"><ele>275.16666666666663</ele><time>2026-04-04T13:42:04Z</time></trkpt><trkpt lat="43.34574363265791" lon="11.121154191313947"><ele>274.0</ele><time>2026-04-04T13:42:05Z</time></trkpt><trkpt lat="43.3457981789476" lon="11.121234419648106"><ele>274.0</ele><time>2026-04-04T13:42:06Z</time></trkpt><trkpt lat="43.345836419270064" lon="11.121324568443455"><ele>274.0</ele><time>2026-04-04T13:42:07Z</time></trkpt><trkpt lat="43.345882013862166" lon="11.121396887545759"><ele>274.0</ele><time>2026-04-04T13:42:08Z</time></trkpt><trkpt lat="43.345947442535845" lon="11.121468442538406"><ele>274.0</ele><time>2026-04-04T13:42:09Z</time></trkpt><trkpt lat="43.3459929566025" lon="11.12155999994465"><ele>274.0</ele><time>2026-04-04T13:42:10Z</time></trkpt><trkpt lat="43.34603978367942" lon="11.121643728841464"><ele>274.0</ele><time>2026-04-04T13:42:11Z</time></trkpt><trkpt lat="43.346100695973895" lon="11.121723849076492"><ele>273.8</ele><time>2026-04-04T13:42:12Z</time></trkpt><trkpt lat="43.34614743000174" lon="11.121817623781824"><ele>273.59999999999997</ele><time>2026-04-04T13:42:13Z</time></trkpt><trkpt lat="43.3462023577344" lon="11.121901826079236"><ele>273.4</ele><time>2026-04-04T13:42:14Z</time></trkpt><trkpt lat="43.346260328931244" lon="11.121998642712931"><ele>273.2</ele><time>2026-04-04T13:42:15Z</time></trkpt><trkpt lat="43.34632316044836" lon="11.12210357492987"><ele>273.0</ele><time>2026-04-04T13:42:16Z</time></trkpt><trkpt lat="43.346389423140344" lon="11.122214237407434"><ele>273.0</ele><time>2026-04-04T13:42:17Z</time></trkpt><trkpt lat="43.34645737742291" lon="11.122317921769582"><ele>273.0</ele><time>2026-04-04T13:42:18Z</time></trkpt><trkpt lat="43.34652400726155" lon="11.122413106054882"><ele>273.0</ele><time>2026-04-04T13:42:19Z</time></trkpt><trkpt lat="43.34657159863927" lon="11.122490933545873"><ele>273.0</ele><time>2026-04-04T13:42:20Z</time></trkpt><trkpt lat="43.34661002319199" lon="11.122575004358785"><ele>273.0</ele><time>2026-04-04T13:42:21Z</time></trkpt><trkpt lat="43.34665665430614" lon="11.122643232601865"><ele>273.0</ele><time>2026-04-04T13:42:22Z</time></trkpt><trkpt lat="43.346707209364524" lon="11.1226959856777"><ele>270.6</ele><time>2026-04-04T13:42:23Z</time></trkpt><trkpt lat="43.34677433369924" lon="11.122781238244627"><ele>268.20000000000005</ele><time>2026-04-04T13:42:24Z</time></trkpt><trkpt lat="43.34688329930782" lon="11.12283854511291"><ele>265.8</ele><time>2026-04-04T13:42:25Z</time></trkpt><trkpt lat="43.34699090661719" lon="11.12288523292843"><ele>263.40000000000003</ele><time>2026-04-04T13:42:26Z</time></trkpt><trkpt lat="43.347063762633155" lon="11.122922896195593"><ele>261.0</ele><time>2026-04-04T13:42:27Z</time></trkpt><trkpt lat="43.347142598914324" lon="11.12294101548407"><ele>260.8</ele><time>2026-04-04T13:42:28Z</time></trkpt><trkpt lat="43.34722210571085" lon="11.122924954401016"><ele>260.6</ele><time>2026-04-04T13:42:29Z</time></trkpt><trkpt lat="43.34730221586331" lon="11.122888252036145"><ele>260.4</ele><time>2026-04-04T13:42:30Z</time></trkpt><trkpt lat="43.34740161703482" lon="11.122883176771982"><ele>260.2</ele><time>2026-04-04T13:42:31Z</time></trkpt><trkpt lat="43.347500592707114" lon="11.122867355099588"><ele>260.0</ele><time>2026-04-04T13:42:32Z</time></trkpt><trkpt lat="43.347608242471445" lon="11.122875144582402"><ele>260.0</ele><time>2026-04-04T13:42:34Z</time></trkpt><trkpt lat="43.34766927313039" lon="11.122913656088468"><ele>260.0</ele><time>2026-04-04T13:42:35Z</time></trkpt><trkpt lat="43.34772656323913" lon="11.12300298077994"><ele>260.0</ele><time>2026-04-04T13:42:36Z</time></trkpt><trkpt lat="43.347785272190634" lon="11.123068780794659"><ele>260.0</ele><time>2026-04-04T13:42:37Z</time></trkpt><trkpt lat="43.34781515851446" lon="11.123221035416549"><ele>260.0</ele><time>2026-04-04T13:42:39Z</time></trkpt><trkpt lat="43.34782253327772" lon="11.123337061519253"><ele>260.0</ele><time>2026-04-04T13:42:40Z</time></trkpt><trkpt lat="43.34781873337791" lon="11.123486582487157"><ele>257.83333333333337</ele><time>2026-04-04T13:42:41Z</time></trkpt><trkpt lat="43.347818766629445" lon="11.123646206500101"><ele>255.66666666666669</ele><time>2026-04-04T13:42:42Z</time></trkpt><trkpt lat="43.34780745384257" lon="11.123759437905132"><ele>253.5</ele><time>2026-04-04T13:42:43Z</time></trkpt><trkpt lat="43.34778452161665" lon="11.123867419911477"><ele>251.33333333333331</ele><time>2026-04-04T13:42:44Z</time></trkpt><trkpt lat="43.34776956061411" lon="11.123987325315811"><ele>249.16666666666666</ele><time>2026-04-04T13:42:45Z</time></trkpt><trkpt lat="43.34776651833912" lon="11.12408626067493"><ele>247.0</ele><time>2026-04-04T13:42:46Z</time></trkpt><trkpt lat="43.34777932068705" lon="11.124188340628967"><ele>245.2</ele><time>2026-04-04T13:42:47Z</time></trkpt><trkpt lat="43.34782270836525" lon="11.124364912760704"><ele>243.39999999999998</ele><time>2026-04-04T13:42:49Z</time></trkpt><trkpt lat="43.347878692207665" lon="11.124451638036772"><ele>241.60000000000002</ele><time>2026-04-04T13:42:50Z</time></trkpt><trkpt lat="43.34795975493558" lon="11.124545456366466"><ele>239.8</ele><time>2026-04-04T13:42:51Z</time></trkpt><trkpt lat="43.348042417153984" lon="11.124588872775213"><ele>238.0</ele><time>2026-04-04T13:42:52Z</time></trkpt><trkpt lat="43.34813076232657" lon="11.124637978401378"><ele>237.99999999999997</ele><time>2026-04-04T13:42:53Z</time></trkpt><trkpt lat="43.348195477265776" lon="11.124684424873921"><ele>238.0</ele><time>2026-04-04T13:42:54Z</time></trkpt><trkpt lat="43.348252098572516" lon="11.124739359825494"><ele>238.0</ele><time>2026-04-04T13:42:55Z</time></trkpt><trkpt lat="43.348320148875175" lon="11.124806048773124"><ele>238.0</ele><time>2026-04-04T13:42:56Z</time></trkpt><trkpt lat="43.34840500308903" lon="11.124898780436979"><ele>237.99999999999997</ele><time>2026-04-04T13:42:57Z</time></trkpt><trkpt lat="43.34848170664977" lon="11.124983585099603"><ele>238.0</ele><time>2026-04-04T13:42:58Z</time></trkpt><trkpt lat="43.34855558238849" lon="11.12506304882218"><ele>235.4</ele><time>2026-04-04T13:42:59Z</time></trkpt><trkpt lat="43.34863498030914" lon="11.125117879934805"><ele>232.8</ele><time>2026-04-04T13:43:00Z</time></trkpt><trkpt lat="43.348717968909774" lon="11.125192186668722"><ele>230.2</ele><time>2026-04-04T13:43:01Z</time></trkpt><trkpt lat="43.34880077352189" lon="11.125263182364424"><ele>227.6</ele><time>2026-04-04T13:43:02Z</time></trkpt><trkpt lat="43.348877146818715" lon="11.125351064295643"><ele>225.0</ele><time>2026-04-04T13:43:03Z</time></trkpt><trkpt lat="43.34893375483198" lon="11.125486325272608"><ele>223.4</ele><time>2026-04-04T13:43:04Z</time></trkpt><trkpt lat="43.349008197183466" lon="11.125584039977129"><ele>221.8</ele><time>2026-04-04T13:43:05Z</time></trkpt><trkpt lat="43.34906864833518" lon="11.125683738891677"><ele>220.2</ele><time>2026-04-04T13:43:06Z</time></trkpt><trkpt lat="43.34909718265673" lon="11.125797849743064"><ele>218.6</ele><time>2026-04-04T13:43:07Z</time></trkpt><trkpt lat="43.34915005126553" lon="11.125912224835119"><ele>217.0</ele><time>2026-04-04T13:43:08Z</time></trkpt><trkpt lat="43.34924427849945" lon="11.12600122689843"><ele>215.0</ele><time>2026-04-04T13:43:09Z</time></trkpt><trkpt lat="43.34935350015219" lon="11.126109626408349"><ele>213.0</ele><time>2026-04-04T13:43:10Z</time></trkpt><trkpt lat="43.34948214037653" lon="11.126248007531784"><ele>211.0</ele><time>2026-04-04T13:43:11Z</time></trkpt><trkpt lat="43.3496055919844" lon="11.12640580253321"><ele>210.0</ele><time>2026-04-04T13:43:12Z</time></trkpt><trkpt lat="43.34974023544547" lon="11.126576867906966"><ele>209.0</ele><time>2026-04-04T13:43:13Z</time></trkpt><trkpt lat="43.349867760204994" lon="11.126733560179996"><ele>208.0</ele><time>2026-04-04T13:43:14Z</time></trkpt><trkpt lat="43.34998325142742" lon="11.126878572922239"><ele>208.0</ele><time>2026-04-04T13:43:15Z</time></trkpt><trkpt lat="43.35008970630379" lon="11.127008364378923"><ele>208.0</ele><time>2026-04-04T13:43:16Z</time></trkpt><trkpt lat="43.35017760397782" lon="11.1271420013618"><ele>208.0</ele><time>2026-04-04T13:43:17Z</time></trkpt><trkpt lat="43.3502774919843" lon="11.127238888387401"><ele>208.0</ele><time>2026-04-04T13:43:18Z</time></trkpt><trkpt lat="43.35032813759801" lon="11.127350946972614"><ele>207.60000000000002</ele><time>2026-04-04T13:43:19Z</time></trkpt><trkpt lat="43.35037464296907" lon="11.127459890853126"><ele>207.20000000000002</ele><time>2026-04-04T13:43:20Z</time></trkpt><trkpt lat="43.35040253605041" lon="11.127580212729713"><ele>206.8</ele><time>2026-04-04T13:43:21Z</time></trkpt><trkpt lat="43.350417361530326" lon="11.127706740199308"><ele>206.4</ele><time>2026-04-04T13:43:22Z</time></trkpt><trkpt lat="43.350403643115804" lon="11.127850330695518"><ele>206.0</ele><time>2026-04-04T13:43:23Z</time></trkpt><trkpt lat="43.35037636124172" lon="11.128007710299865"><ele>206.0</ele><time>2026-04-04T13:43:24Z</time></trkpt><trkpt lat="43.35034680585661" lon="11.128158749942518"><ele>206.0</ele><time>2026-04-04T13:43:25Z</time></trkpt><trkpt lat="43.35030942921787" lon="11.128323984248826"><ele>206.0</ele><time>2026-04-04T13:43:26Z</time></trkpt><trkpt lat="43.350275962632765" lon="11.128482162516498"><ele>206.0</ele><time>2026-04-04T13:43:27Z</time></trkpt><trkpt lat="43.35024977714503" lon="11.128632464695025"><ele>205.8</ele><time>2026-04-04T13:43:28Z</time></trkpt><trkpt lat="43.350243644021056" lon="11.12876957027281"><ele>205.60000000000002</ele><time>2026-04-04T13:43:29Z</time></trkpt><trkpt lat="43.35021898751787" lon="11.128873460666172"><ele>205.4</ele><time>2026-04-04T13:43:30Z</time></trkpt><trkpt lat="43.350244295147895" lon="11.12902607746387"><ele>205.2</ele><time>2026-04-04T13:43:32Z</time></trkpt><trkpt lat="43.35034790470902" lon="11.129098822766643"><ele>205.0</ele><time>2026-04-04T13:43:34Z</time></trkpt><trkpt lat="43.3504123544531" lon="11.129105279384696"><ele>205.66666666666666</ele><time>2026-04-04T13:43:35Z</time></trkpt><trkpt lat="43.35047285884408" lon="11.129145884657007"><ele>206.33333333333331</ele><time>2026-04-04T13:43:37Z</time></trkpt><trkpt lat="43.35054627718963" lon="11.129098675264162"><ele>207.0</ele><time>2026-04-04T13:43:39Z</time></trkpt><trkpt lat="43.350605954023166" lon="11.129133991006"><ele>207.66666666666669</ele><time>2026-04-04T13:43:41Z</time></trkpt><trkpt lat="43.35069869358166" lon="11.129148502056154"><ele>208.33333333333334</ele><time>2026-04-04T13:44:24Z</time></trkpt><trkpt lat="43.35084028949875" lon="11.129154688703299"><ele>209.0</ele><time>2026-04-04T13:44:26Z</time></trkpt><trkpt lat="43.3509169010243" lon="11.129151982826524"><ele>209.0</ele><time>2026-04-04T13:44:27Z</time></trkpt><trkpt lat="43.351006207737925" lon="11.129147368658659"><ele>209.0</ele><time>2026-04-04T13:44:28Z</time></trkpt><trkpt lat="43.351106905173815" lon="11.12913838606156"><ele>209.0</ele><time>2026-04-04T13:44:29Z</time></trkpt><trkpt lat="43.35120464453051" lon="11.129107112854557"><ele>209.0</ele><time>2026-04-04T13:44:30Z</time></trkpt><trkpt lat="43.351306182164286" lon="11.129124644765163"><ele>209.0</ele><time>2026-04-04T13:44:31Z</time></trkpt><trkpt lat="43.35140761581053" lon="11.129120824606463"><ele>208.25</ele><time>2026-04-04T13:44:32Z</time></trkpt><trkpt lat="43.35150953855647" lon="11.129101726442574"><ele>207.5</ele><time>2026-04-04T13:44:33Z</time></trkpt><trkpt lat="43.35162489700329" lon="11.1290939910069"><ele>206.75</ele><time>2026-04-04T13:44:34Z</time></trkpt><trkpt lat="43.3517509614316" lon="11.129107887470505"><ele>206.0</ele><time>2026-04-04T13:44:35Z</time></trkpt><trkpt lat="43.351884193234035" lon="11.129099607649882"><ele>206.0</ele><time>2026-04-04T13:44:36Z</time></trkpt><trkpt lat="43.352017623968386" lon="11.129087401052697"><ele>206.0</ele><time>2026-04-04T13:44:37Z</time></trkpt><trkpt lat="43.352135582094036" lon="11.129069685883728"><ele>206.0</ele><time>2026-04-04T13:44:38Z</time></trkpt><trkpt lat="43.35224330284975" lon="11.129056449180439"><ele>206.0</ele><time>2026-04-04T13:44:39Z</time></trkpt><trkpt lat="43.35233553332488" lon="11.129084511016183"><ele>205.83333333333334</ele><time>2026-04-04T13:44:40Z</time></trkpt><trkpt lat="43.35240913682854" lon="11.1291047450774"><ele>205.66666666666669</ele><time>2026-04-04T13:44:41Z</time></trkpt><trkpt lat="43.352524023880434" lon="11.129166558865633"><ele>205.5</ele><time>2026-04-04T13:44:43Z</time></trkpt><trkpt lat="43.35255966357921" lon="11.129265406912534"><ele>205.33333333333331</ele><time>2026-04-04T13:44:45Z</time></trkpt><trkpt lat="43.35259294318785" lon="11.129357339833172"><ele>205.16666666666666</ele><time>2026-04-04T13:44:47Z</time></trkpt><trkpt lat="43.35263398752269" lon="11.129436965199917"><ele>205.0</ele><time>2026-04-04T13:44:48Z</time></trkpt><trkpt lat="43.35266590456642" lon="11.129539640389039"><ele>205.0</ele><time>2026-04-04T13:44:49Z</time></trkpt><trkpt lat="43.35269989176705" lon="11.12961930717374"><ele>205.0</ele><time>2026-04-04T13:44:50Z</time></trkpt><trkpt lat="43.35276563510342" lon="11.129731929353326"><ele>205.0</ele><time>2026-04-04T13:44:52Z</time></trkpt><trkpt lat="43.35290789837304" lon="11.129644069187293"><ele>205.0</ele><time>2026-04-04T13:44:54Z</time></trkpt><trkpt lat="43.35296372654033" lon="11.129581862723963"><ele>205.0</ele><time>2026-04-04T13:44:55Z</time></trkpt><trkpt lat="43.35304983824705" lon="11.129496525980848"><ele>205.25</ele><time>2026-04-04T13:44:56Z</time></trkpt><trkpt lat="43.35314751074056" lon="11.129408096315325"><ele>205.5</ele><time>2026-04-04T13:44:57Z</time></trkpt><trkpt lat="43.3532470168554" lon="11.129308292704982"><ele>205.75</ele><time>2026-04-04T13:44:58Z</time></trkpt><trkpt lat="43.35335075467295" lon="11.129200731509494"><ele>206.0</ele><time>2026-04-04T13:44:59Z</time></trkpt><trkpt lat="43.35346655981909" lon="11.129085617802666"><ele>204.66666666666669</ele><time>2026-04-04T13:45:00Z</time></trkpt><trkpt lat="43.353591394060004" lon="11.128965191402841"><ele>203.33333333333331</ele><time>2026-04-04T13:45:01Z</time></trkpt><trkpt lat="43.353723353680834" lon="11.128835467899469"><ele>202.0</ele><time>2026-04-04T13:45:02Z</time></trkpt><trkpt lat="43.35386150996338" lon="11.128697463955023"><ele>202.0</ele><time>2026-04-04T13:45:03Z</time></trkpt><trkpt lat="43.35399225027815" lon="11.128571822904757"><ele>202.0</ele><time>2026-04-04T13:45:04Z</time></trkpt><trkpt lat="43.35412272232368" lon="11.128442845606505"><ele>202.0</ele><time>2026-04-04T13:45:05Z</time></trkpt><trkpt lat="43.35425077409538" lon="11.128315352570473"><ele>201.33333333333331</ele><time>2026-04-04T13:45:06Z</time></trkpt><trkpt lat="43.354382049220135" lon="11.128182603667586"><ele>200.66666666666669</ele><time>2026-04-04T13:45:07Z</time></trkpt><trkpt lat="43.35451583578317" lon="11.128048477719506"><ele>200.0</ele><time>2026-04-04T13:45:08Z</time></trkpt><trkpt lat="43.354649271190695" lon="11.127917298495177"><ele>200.0</ele><time>2026-04-04T13:45:09Z</time></trkpt><trkpt lat="43.354786269507215" lon="11.127780673093168"><ele>200.0</ele><time>2026-04-04T13:45:10Z</time></trkpt><trkpt lat="43.354925831082355" lon="11.127639083640537"><ele>200.0</ele><time>2026-04-04T13:45:11Z</time></trkpt><trkpt lat="43.35506446564061" lon="11.127501243624875"><ele>199.33333333333334</ele><time>2026-04-04T13:45:12Z</time></trkpt><trkpt lat="43.3552064005471" lon="11.127360745476922"><ele>198.66666666666669</ele><time>2026-04-04T13:45:13Z</time></trkpt><trkpt lat="43.35534882574452" lon="11.127216272132769"><ele>198.0</ele><time>2026-04-04T13:45:14Z</time></trkpt><trkpt lat="43.355490819963585" lon="11.127081767894678"><ele>197.33333333333331</ele><time>2026-04-04T13:45:15Z</time></trkpt><trkpt lat="43.35562755538213" lon="11.126939389942054"><ele>196.66666666666666</ele><time>2026-04-04T13:45:16Z</time></trkpt><trkpt lat="43.35576921640934" lon="11.126802608671015"><ele>196.0</ele><time>2026-04-04T13:45:17Z</time></trkpt><trkpt lat="43.35590159371307" lon="11.12666761752105"><ele>195.66666666666666</ele><time>2026-04-04T13:45:18Z</time></trkpt><trkpt lat="43.35603271711046" lon="11.126531945782103"><ele>195.33333333333331</ele><time>2026-04-04T13:45:19Z</time></trkpt><trkpt lat="43.35616937515669" lon="11.12639234058829"><ele>195.0</ele><time>2026-04-04T13:45:20Z</time></trkpt><trkpt lat="43.356321817167014" lon="11.126271821988851"><ele>195.0</ele><time>2026-04-04T13:45:21Z</time></trkpt><trkpt lat="43.35644646432407" lon="11.126099829221173"><ele>195.0</ele><time>2026-04-04T13:45:22Z</time></trkpt><trkpt lat="43.356563824960574" lon="11.125953418989251"><ele>195.0</ele><time>2026-04-04T13:45:23Z</time></trkpt><trkpt lat="43.35668943880857" lon="11.125807401858529"><ele>194.0</ele><time>2026-04-04T13:45:24Z</time></trkpt><trkpt lat="43.356813506537925" lon="11.125688563760098"><ele>193.0</ele><time>2026-04-04T13:45:25Z</time></trkpt><trkpt lat="43.356934098704535" lon="11.125591068781732"><ele>192.0</ele><time>2026-04-04T13:45:26Z</time></trkpt><trkpt lat="43.35705322472301" lon="11.125518407367004"><ele>191.0</ele><time>2026-04-04T13:45:27Z</time></trkpt><trkpt lat="43.35718705279394" lon="11.12547841376563"><ele>190.75</ele><time>2026-04-04T13:45:28Z</time></trkpt><trkpt lat="43.357321161889104" lon="11.125436982760112"><ele>190.5</ele><time>2026-04-04T13:45:29Z</time></trkpt><trkpt lat="43.35745899240083" lon="11.125401921342684"><ele>190.25</ele><time>2026-04-04T13:45:30Z</time></trkpt><trkpt lat="43.35761104100673" lon="11.125362586069603"><ele>190.0</ele><time>2026-04-04T13:45:31Z</time></trkpt><trkpt lat="43.35776480911997" lon="11.125299597666663"><ele>190.0</ele><time>2026-04-04T13:45:32Z</time></trkpt><trkpt lat="43.35792845557166" lon="11.125258280622399"><ele>190.0</ele><time>2026-04-04T13:45:33Z</time></trkpt><trkpt lat="43.35808261333623" lon="11.125213001912211"><ele>190.0</ele><time>2026-04-04T13:45:34Z</time></trkpt><trkpt lat="43.358245680124845" lon="11.125167013729786"><ele>190.0</ele><time>2026-04-04T13:45:35Z</time></trkpt><trkpt lat="43.35839680926127" lon="11.125139575078554"><ele>190.0</ele><time>2026-04-04T13:45:36Z</time></trkpt><trkpt lat="43.358562432912095" lon="11.12510371626107"><ele>190.0</ele><time>2026-04-04T13:45:37Z</time></trkpt><trkpt lat="43.35872248619065" lon="11.125065619015778"><ele>190.33333333333334</ele><time>2026-04-04T13:45:38Z</time></trkpt><trkpt lat="43.358880065179264" lon="11.125002577141043"><ele>190.66666666666666</ele><time>2026-04-04T13:45:39Z</time></trkpt><trkpt lat="43.35903383324318" lon="11.12490870953838"><ele>191.0</ele><time>2026-04-04T13:45:40Z</time></trkpt><trkpt lat="43.35918413326395" lon="11.124797188006605"><ele>191.0</ele><time>2026-04-04T13:45:41Z</time></trkpt><trkpt lat="43.359339955935745" lon="11.124696076548625"><ele>191.0</ele><time>2026-04-04T13:45:42Z</time></trkpt><trkpt lat="43.35948990464233" lon="11.124585913504655"><ele>191.0</ele><time>2026-04-04T13:45:43Z</time></trkpt><trkpt lat="43.35963637077569" lon="11.124455722415844"><ele>190.66666666666666</ele><time>2026-04-04T13:45:44Z</time></trkpt><trkpt lat="43.359786927664516" lon="11.124342478958697"><ele>190.33333333333334</ele><time>2026-04-04T13:45:45Z</time></trkpt><trkpt lat="43.35994465692498" lon="11.124239897497858"><ele>190.0</ele><time>2026-04-04T13:45:46Z</time></trkpt><trkpt lat="43.360089044785354" lon="11.124087105730034"><ele>189.66666666666669</ele><time>2026-04-04T13:45:47Z</time></trkpt><trkpt lat="43.36022945114973" lon="11.123964684947838"><ele>189.33333333333334</ele><time>2026-04-04T13:45:48Z</time></trkpt><trkpt lat="43.36037194339698" lon="11.1238408658657"><ele>189.0</ele><time>2026-04-04T13:45:49Z</time></trkpt><trkpt lat="43.360526806860925" lon="11.123714788944433"><ele>188.66666666666666</ele><time>2026-04-04T13:45:50Z</time></trkpt><trkpt lat="43.3606827275844" lon="11.123624521051454"><ele>188.33333333333331</ele><time>2026-04-04T13:45:51Z</time></trkpt><trkpt lat="43.36083881180336" lon="11.123509934169766"><ele>188.0</ele><time>2026-04-04T13:45:52Z</time></trkpt><trkpt lat="43.36098901652751" lon="11.12339611114839"><ele>188.0</ele><time>2026-04-04T13:45:53Z</time></trkpt><trkpt lat="43.36111917491319" lon="11.123298993767317"><ele>188.0</ele><time>2026-04-04T13:45:54Z</time></trkpt><trkpt lat="43.36124472166142" lon="11.12320361389019"><ele>188.0</ele><time>2026-04-04T13:45:55Z</time></trkpt><trkpt lat="43.36136053089087" lon="11.123092828254673"><ele>188.0</ele><time>2026-04-04T13:45:56Z</time></trkpt><trkpt lat="43.361476575106394" lon="11.122955514705769"><ele>188.5</ele><time>2026-04-04T13:45:57Z</time></trkpt><trkpt lat="43.361597006996334" lon="11.122842906399677"><ele>189.0</ele><time>2026-04-04T13:45:58Z</time></trkpt><trkpt lat="43.36172279284961" lon="11.12277223076222"><ele>189.5</ele><time>2026-04-04T13:45:59Z</time></trkpt><trkpt lat="43.36183873496373" lon="11.122706859469368"><ele>190.0</ele><time>2026-04-04T13:46:00Z</time></trkpt><trkpt lat="43.36195307256133" lon="11.122654717273418"><ele>190.0</ele><time>2026-04-04T13:46:01Z</time></trkpt><trkpt lat="43.36205862964889" lon="11.122607840401978"><ele>190.0</ele><time>2026-04-04T13:46:02Z</time></trkpt><trkpt lat="43.362156450442384" lon="11.122542469481047"><ele>190.0</ele><time>2026-04-04T13:46:03Z</time></trkpt><trkpt lat="43.36225007857408" lon="11.122484345273211"><ele>190.0</ele><time>2026-04-04T13:46:04Z</time></trkpt><trkpt lat="43.36233239348165" lon="11.122404821453754"><ele>190.0</ele><time>2026-04-04T13:46:05Z</time></trkpt><trkpt lat="43.36240461059769" lon="11.122320736794258"><ele>189.83333333333334</ele><time>2026-04-04T13:46:06Z</time></trkpt><trkpt lat="43.36246118527918" lon="11.1222722741753"><ele>189.66666666666669</ele><time>2026-04-04T13:46:07Z</time></trkpt><trkpt lat="43.3625275535564" lon="11.122256905881152"><ele>189.5</ele><time>2026-04-04T13:46:08Z</time></trkpt><trkpt lat="43.36259466827125" lon="11.122310159775818"><ele>189.33333333333334</ele><time>2026-04-04T13:46:09Z</time></trkpt><trkpt lat="43.36266038364389" lon="11.122351553967443"><ele>189.16666666666666</ele><time>2026-04-04T13:46:10Z</time></trkpt><trkpt lat="43.362751865393996" lon="11.122384865155095"><ele>189.0</ele><time>2026-04-04T13:46:11Z</time></trkpt><trkpt lat="43.36285866150655" lon="11.122451181352291"><ele>189.0</ele><time>2026-04-04T13:46:12Z</time></trkpt><trkpt lat="43.362970948865836" lon="11.122532837483803"><ele>189.0</ele><time>2026-04-04T13:46:13Z</time></trkpt><trkpt lat="43.36307839377305" lon="11.122605497605667"><ele>189.0</ele><time>2026-04-04T13:46:14Z</time></trkpt><trkpt lat="43.36318253299465" lon="11.12266967293443"><ele>189.0</ele><time>2026-04-04T13:46:15Z</time></trkpt><trkpt lat="43.3632712294464" lon="11.122722162309334"><ele>188.5</ele><time>2026-04-04T13:46:16Z</time></trkpt><trkpt lat="43.36336171700694" lon="11.122762000609555"><ele>188.0</ele><time>2026-04-04T13:46:17Z</time></trkpt><trkpt lat="43.363449886772806" lon="11.122792147844269"><ele>187.5</ele><time>2026-04-04T13:46:18Z</time></trkpt><trkpt lat="43.363528222127506" lon="11.122810242239677"><ele>187.0</ele><time>2026-04-04T13:46:19Z</time></trkpt><trkpt lat="43.36359307998786" lon="11.122815580497042"><ele>186.5</ele><time>2026-04-04T13:46:20Z</time></trkpt><trkpt lat="43.36367817962024" lon="11.122813266401606"><ele>186.0</ele><time>2026-04-04T13:46:22Z</time></trkpt><trkpt lat="43.363746420553476" lon="11.122794158167777"><ele>186.0</ele><time>2026-04-04T13:46:40Z</time></trkpt><trkpt lat="43.36380715844698" lon="11.123138589612926"><ele>186.0</ele><time>2026-04-04T13:46:48Z</time></trkpt><trkpt lat="43.363813020295105" lon="11.123261945447974"><ele>186.0</ele><time>2026-04-04T13:46:50Z</time></trkpt><trkpt lat="43.36374146282279" lon="11.123321566779639"><ele>186.0</ele><time>2026-04-04T13:46:53Z</time></trkpt><trkpt lat="43.36370150340991" lon="11.123394310907456"><ele>186.4</ele><time>2026-04-04T13:46:55Z</time></trkpt><trkpt lat="43.3636534188357" lon="11.12346707615022"><ele>186.8</ele><time>2026-04-04T13:46:58Z</time></trkpt><trkpt lat="43.363578983446324" lon="11.123593777821988"><ele>187.20000000000002</ele><time>2026-04-04T13:47:00Z</time></trkpt><trkpt lat="43.36349996827684" lon="11.123735507768844"><ele>187.60000000000002</ele><time>2026-04-04T13:47:02Z</time></trkpt><trkpt lat="43.363461532779574" lon="11.12382967631975"><ele>188.0</ele><time>2026-04-04T13:47:03Z</time></trkpt><trkpt lat="43.36341994452601" lon="11.123894988968077"><ele>188.0</ele><time>2026-04-04T13:47:04Z</time></trkpt><trkpt lat="43.363373311522096" lon="11.123956481571527"><ele>188.0</ele><time>2026-04-04T13:47:05Z</time></trkpt><trkpt lat="43.3633297081298" lon="11.12403319946485"><ele>188.0</ele><time>2026-04-04T13:47:06Z</time></trkpt><trkpt lat="43.36327316851379" lon="11.124133203925341"><ele>188.0</ele><time>2026-04-04T13:47:07Z</time></trkpt><trkpt lat="43.36319090175981" lon="11.124278673298216"><ele>188.0</ele><time>2026-04-04T13:47:08Z</time></trkpt><trkpt lat="43.36308696463394" lon="11.124461764354567"><ele>188.0</ele><time>2026-04-04T13:47:09Z</time></trkpt><trkpt lat="43.362974830113174" lon="11.124661848188643"><ele>188.0</ele><time>2026-04-04T13:47:10Z</time></trkpt><trkpt lat="43.362853467044104" lon="11.124882079975068"><ele>188.0</ele><time>2026-04-04T13:47:11Z</time></trkpt><trkpt lat="43.36272947047884" lon="11.125094926619692"><ele>188.0</ele><time>2026-04-04T13:47:12Z</time></trkpt><trkpt lat="43.362625558560396" lon="11.125276124856903"><ele>188.0</ele><time>2026-04-04T13:47:13Z</time></trkpt><trkpt lat="43.362537597131514" lon="11.125432713554288"><ele>188.0</ele><time>2026-04-04T13:47:14Z</time></trkpt><trkpt lat="43.362465534260224" lon="11.125592629073646"><ele>188.0</ele><time>2026-04-04T13:47:15Z</time></trkpt><trkpt lat="43.36238882181698" lon="11.125729744827815"><ele>188.0</ele><time>2026-04-04T13:47:16Z</time></trkpt><trkpt lat="43.36231375321072" lon="11.125855861876685"><ele>188.0</ele><time>2026-04-04T13:47:17Z</time></trkpt><trkpt lat="43.36223843331802" lon="11.125954524068757"><ele>188.0</ele><time>2026-04-04T13:47:18Z</time></trkpt><trkpt lat="43.362181884986434" lon="11.126051952463603"><ele>188.0</ele><time>2026-04-04T13:47:19Z</time></trkpt><trkpt lat="43.36212854610223" lon="11.126143851143286"><ele>188.0</ele><time>2026-04-04T13:47:20Z</time></trkpt><trkpt lat="43.36207829612495" lon="11.126228109684316"><ele>188.0</ele><time>2026-04-04T13:47:21Z</time></trkpt><trkpt lat="43.36202696221504" lon="11.126305943204608"><ele>188.0</ele><time>2026-04-04T13:47:22Z</time></trkpt><trkpt lat="43.3619741777143" lon="11.12638068111717"><ele>188.0</ele><time>2026-04-04T13:47:23Z</time></trkpt><trkpt lat="43.3619268681997" lon="11.12647454726742"><ele>188.0</ele><time>2026-04-04T13:47:24Z</time></trkpt><trkpt lat="43.36188026884009" lon="11.12656510356981"><ele>188.0</ele><time>2026-04-04T13:47:25Z</time></trkpt><trkpt lat="43.361827488472635" lon="11.126663429940342"><ele>188.0</ele><time>2026-04-04T13:47:26Z</time></trkpt><trkpt lat="43.36177091614566" lon="11.126767156438733"><ele>188.2</ele><time>2026-04-04T13:47:27Z</time></trkpt><trkpt lat="43.36171019554436" lon="11.126874352182702"><ele>188.4</ele><time>2026-04-04T13:47:28Z</time></trkpt><trkpt lat="43.361650396700384" lon="11.126980215284597"><ele>188.6</ele><time>2026-04-04T13:47:29Z</time></trkpt><trkpt lat="43.36158860025614" lon="11.12708961483045"><ele>188.79999999999998</ele><time>2026-04-04T13:47:30Z</time></trkpt><trkpt lat="43.36152356565555" lon="11.12720474693416"><ele>189.0</ele><time>2026-04-04T13:47:31Z</time></trkpt><trkpt lat="43.361454041310765" lon="11.127330689298946"><ele>189.0</ele><time>2026-04-04T13:47:32Z</time></trkpt><trkpt lat="43.36139002529122" lon="11.127482429765362"><ele>189.0</ele><time>2026-04-04T13:47:33Z</time></trkpt><trkpt lat="43.361304680681144" lon="11.12762606692324"><ele>189.0</ele><time>2026-04-04T13:47:34Z</time></trkpt><trkpt lat="43.36121626433985" lon="11.12777995849253"><ele>189.0</ele><time>2026-04-04T13:47:35Z</time></trkpt><trkpt lat="43.36112917179793" lon="11.127945451524148"><ele>189.0</ele><time>2026-04-04T13:47:36Z</time></trkpt><trkpt lat="43.36103237446348" lon="11.128074370894337"><ele>189.0</ele><time>2026-04-04T13:47:37Z</time></trkpt><trkpt lat="43.3609566139443" lon="11.128188125989187"><ele>189.0</ele><time>2026-04-04T13:47:38Z</time></trkpt><trkpt lat="43.36087578466718" lon="11.128282827012308"><ele>189.0</ele><time>2026-04-04T13:47:39Z</time></trkpt><trkpt lat="43.360771770744286" lon="11.128353533337508"><ele>189.2</ele><time>2026-04-04T13:47:40Z</time></trkpt><trkpt lat="43.360673968186234" lon="11.128418216447255"><ele>189.39999999999998</ele><time>2026-04-04T13:47:41Z</time></trkpt><trkpt lat="43.36058532954155" lon="11.12847098059683"><ele>189.6</ele><time>2026-04-04T13:47:42Z</time></trkpt><trkpt lat="43.36050375617971" lon="11.128517660881197"><ele>189.8</ele><time>2026-04-04T13:47:43Z</time></trkpt><trkpt lat="43.36042609085898" lon="11.128562177399234"><ele>190.0</ele><time>2026-04-04T13:47:44Z</time></trkpt><trkpt lat="43.36034850973913" lon="11.128605373701872"><ele>191.0</ele><time>2026-04-04T13:47:45Z</time></trkpt><trkpt lat="43.36028219754707" lon="11.128641769504458"><ele>192.0</ele><time>2026-04-04T13:47:46Z</time></trkpt><trkpt lat="43.360188174430824" lon="11.128693374645957"><ele>193.0</ele><time>2026-04-04T13:47:48Z</time></trkpt><trkpt lat="43.360213963629704" lon="11.128967603573022"><ele>194.0</ele><time>2026-04-04T13:47:50Z</time></trkpt><trkpt lat="43.36025943583346" lon="11.129091325908963"><ele>194.2</ele><time>2026-04-04T13:47:51Z</time></trkpt><trkpt lat="43.36032250631155" lon="11.129227086227353"><ele>194.39999999999998</ele><time>2026-04-04T13:47:52Z</time></trkpt><trkpt lat="43.360383782024606" lon="11.129349732683181"><ele>194.6</ele><time>2026-04-04T13:47:53Z</time></trkpt><trkpt lat="43.360439272618954" lon="11.129477812521563"><ele>194.8</ele><time>2026-04-04T13:47:54Z</time></trkpt><trkpt lat="43.36048738325983" lon="11.129613157732532"><ele>195.0</ele><time>2026-04-04T13:47:55Z</time></trkpt><trkpt lat="43.36050474866611" lon="11.129734522022341"><ele>195.0</ele><time>2026-04-04T13:47:56Z</time></trkpt><trkpt lat="43.36051647817295" lon="11.129848309029246"><ele>195.0</ele><time>2026-04-04T13:47:57Z</time></trkpt><trkpt lat="43.360526812175934" lon="11.129955052619085"><ele>195.0</ele><time>2026-04-04T13:47:58Z</time></trkpt><trkpt lat="43.360541670133955" lon="11.130069646195375"><ele>195.0</ele><time>2026-04-04T13:47:59Z</time></trkpt><trkpt lat="43.36056823485427" lon="11.130232903269848"><ele>195.0</ele><time>2026-04-04T13:48:01Z</time></trkpt><trkpt lat="43.36065471038423" lon="11.130257281101992"><ele>195.66666666666666</ele><time>2026-04-04T13:48:02Z</time></trkpt><trkpt lat="43.36072618757379" lon="11.130276940035474"><ele>196.33333333333331</ele><time>2026-04-04T13:48:03Z</time></trkpt><trkpt lat="43.36080133586805" lon="11.130311769593728"><ele>197.0</ele><time>2026-04-04T13:48:04Z</time></trkpt><trkpt lat="43.36086826564806" lon="11.130370372335618"><ele>197.66666666666666</ele><time>2026-04-04T13:48:05Z</time></trkpt><trkpt lat="43.3609154276261" lon="11.13045173615723"><ele>198.33333333333331</ele><time>2026-04-04T13:48:06Z</time></trkpt><trkpt lat="43.36089866561137" lon="11.130584105638768"><ele>199.0</ele><time>2026-04-04T13:48:08Z</time></trkpt><trkpt lat="43.36083909755912" lon="11.130720228720866"><ele>200.6</ele><time>2026-04-04T13:48:10Z</time></trkpt><trkpt lat="43.360824708065934" lon="11.130860541634563"><ele>202.2</ele><time>2026-04-04T13:48:12Z</time></trkpt><trkpt lat="43.36086276568191" lon="11.130987549236183"><ele>203.79999999999998</ele><time>2026-04-04T13:48:14Z</time></trkpt><trkpt lat="43.36098481981936" lon="11.13100021807823"><ele>205.39999999999998</ele><time>2026-04-04T13:48:16Z</time></trkpt><trkpt lat="43.361099863741075" lon="11.130974423116305"><ele>207.0</ele><time>2026-04-04T13:48:18Z</time></trkpt><trkpt lat="43.36119755219717" lon="11.130946163299587"><ele>207.0</ele><time>2026-04-04T13:48:20Z</time></trkpt><trkpt lat="43.36123556082511" lon="11.131138103387293"><ele>207.0</ele><time>2026-04-04T13:48:25Z</time></trkpt><trkpt lat="43.36119458306549" lon="11.131301061617146"><ele>207.0</ele><time>2026-04-04T13:48:27Z</time></trkpt><trkpt lat="43.36120432563658" lon="11.131436603338193"><ele>207.0</ele><time>2026-04-04T13:48:29Z</time></trkpt><trkpt lat="43.361274996921296" lon="11.1315233000831"><ele>207.0</ele><time>2026-04-04T13:48:31Z</time></trkpt><trkpt lat="43.361348555619465" lon="11.131519818875583"><ele>207.0</ele><time>2026-04-04T13:48:32Z</time></trkpt><trkpt lat="43.3614157778483" lon="11.131522281876048"><ele>207.0</ele><time>2026-04-04T13:48:34Z</time></trkpt><trkpt lat="43.361403186018684" lon="11.131708561150337"><ele>207.0</ele><time>2026-04-04T13:48:40Z</time></trkpt><trkpt lat="43.36140218313908" lon="11.131871067128994"><ele>207.0</ele><time>2026-04-04T13:48:42Z</time></trkpt><trkpt lat="43.36139928932691" lon="11.13198462490993"><ele>207.0</ele><time>2026-04-04T13:48:43Z</time></trkpt><trkpt lat="43.36140043110934" lon="11.132106901556934"><ele>207.0</ele><time>2026-04-04T13:48:44Z</time></trkpt><trkpt lat="43.361407784911044" lon="11.13223318299887"><ele>207.0</ele><time>2026-04-04T13:48:45Z</time></trkpt><trkpt lat="43.36141228531231" lon="11.132367019902054"><ele>207.0</ele><time>2026-04-04T13:48:46Z</time></trkpt><trkpt lat="43.361422367117775" lon="11.13251506852771"><ele>207.0</ele><time>2026-04-04T13:48:47Z</time></trkpt><trkpt lat="43.36143597735742" lon="11.132668150076366"><ele>207.0</ele><time>2026-04-04T13:48:48Z</time></trkpt><trkpt lat="43.361457394176995" lon="11.132831881212988"><ele>207.0</ele><time>2026-04-04T13:48:49Z</time></trkpt><trkpt lat="43.3614935987201" lon="11.132987309718665"><ele>207.0</ele><time>2026-04-04T13:48:50Z</time></trkpt><trkpt lat="43.36152853247963" lon="11.133147790179335"><ele>207.0</ele><time>2026-04-04T13:48:51Z</time></trkpt><trkpt lat="43.36155945272788" lon="11.133306155126528"><ele>207.5</ele><time>2026-04-04T13:48:52Z</time></trkpt><trkpt lat="43.36157476028227" lon="11.13347446293929"><ele>208.0</ele><time>2026-04-04T13:48:53Z</time></trkpt><trkpt lat="43.3616191034952" lon="11.133632403817327"><ele>208.5</ele><time>2026-04-04T13:48:54Z</time></trkpt><trkpt lat="43.361629145669426" lon="11.133805246481634"><ele>209.0</ele><time>2026-04-04T13:48:55Z</time></trkpt><trkpt lat="43.3616701248078" lon="11.133971535597219"><ele>209.75</ele><time>2026-04-04T13:48:56Z</time></trkpt><trkpt lat="43.36170016105651" lon="11.134150923463096"><ele>210.5</ele><time>2026-04-04T13:48:57Z</time></trkpt><trkpt lat="43.36172665376603" lon="11.134321518526237"><ele>211.25</ele><time>2026-04-04T13:48:58Z</time></trkpt><trkpt lat="43.361764051248315" lon="11.134477973996285"><ele>212.0</ele><time>2026-04-04T13:48:59Z</time></trkpt><trkpt lat="43.36182005861422" lon="11.134639948543489"><ele>212.0</ele><time>2026-04-04T13:49:00Z</time></trkpt><trkpt lat="43.36185992293192" lon="11.134786839426297"><ele>212.0</ele><time>2026-04-04T13:49:01Z</time></trkpt><trkpt lat="43.361900148984844" lon="11.134935578299915"><ele>212.0</ele><time>2026-04-04T13:49:02Z</time></trkpt><trkpt lat="43.36194367624757" lon="11.135080916851605"><ele>212.0</ele><time>2026-04-04T13:49:03Z</time></trkpt><trkpt lat="43.361986366625146" lon="11.13522521399192"><ele>213.2</ele><time>2026-04-04T13:49:04Z</time></trkpt><trkpt lat="43.36202088585208" lon="11.13536819717057"><ele>214.39999999999998</ele><time>2026-04-04T13:49:05Z</time></trkpt><trkpt lat="43.36206064632918" lon="11.135508367543224"><ele>215.60000000000002</ele><time>2026-04-04T13:49:06Z</time></trkpt><trkpt lat="43.362108260166146" lon="11.135647166106924"><ele>216.8</ele><time>2026-04-04T13:49:07Z</time></trkpt><trkpt lat="43.36215552835647" lon="11.13578446276454"><ele>218.0</ele><time>2026-04-04T13:49:08Z</time></trkpt><trkpt lat="43.36220441393524" lon="11.135923370257993"><ele>219.4</ele><time>2026-04-04T13:49:09Z</time></trkpt><trkpt lat="43.36225493134678" lon="11.136065746392836"><ele>220.8</ele><time>2026-04-04T13:49:10Z</time></trkpt><trkpt lat="43.36229496190439" lon="11.136213370572072"><ele>222.2</ele><time>2026-04-04T13:49:11Z</time></trkpt><trkpt lat="43.3623436475391" lon="11.136343581003663"><ele>223.6</ele><time>2026-04-04T13:49:12Z</time></trkpt><trkpt lat="43.36240323521227" lon="11.136459976001863"><ele>225.0</ele><time>2026-04-04T13:49:13Z</time></trkpt><trkpt lat="43.362444764314986" lon="11.136576644147977"><ele>226.4</ele><time>2026-04-04T13:49:14Z</time></trkpt><trkpt lat="43.36248545064427" lon="11.1366680860721"><ele>227.8</ele><time>2026-04-04T13:49:15Z</time></trkpt><trkpt lat="43.362508449241" lon="11.136757491725412"><ele>229.2</ele><time>2026-04-04T13:49:16Z</time></trkpt><trkpt lat="43.36264262688997" lon="11.13683800078434"><ele>230.6</ele><time>2026-04-04T13:49:18Z</time></trkpt><trkpt lat="43.36271898117988" lon="11.136858771546947"><ele>232.0</ele><time>2026-04-04T13:49:19Z</time></trkpt><trkpt lat="43.36281061400565" lon="11.136872707836206"><ele>232.0</ele><time>2026-04-04T13:49:20Z</time></trkpt><trkpt lat="43.3629135045781" lon="11.136883623744568"><ele>232.0</ele><time>2026-04-04T13:49:21Z</time></trkpt><trkpt lat="43.363004436420134" lon="11.136902445104756"><ele>232.0</ele><time>2026-04-04T13:49:22Z</time></trkpt><trkpt lat="43.363087094363834" lon="11.136941487188098"><ele>232.0</ele><time>2026-04-04T13:49:23Z</time></trkpt><trkpt lat="43.36316648432929" lon="11.137033226863535"><ele>232.0</ele><time>2026-04-04T13:49:24Z</time></trkpt><trkpt lat="43.36326538123931" lon="11.137066287511772"><ele>232.0</ele><time>2026-04-04T13:49:25Z</time></trkpt><trkpt lat="43.363351317053045" lon="11.137113815914276"><ele>232.0</ele><time>2026-04-04T13:49:26Z</time></trkpt><trkpt lat="43.363417252746544" lon="11.137181367625699"><ele>232.0</ele><time>2026-04-04T13:49:27Z</time></trkpt><trkpt lat="43.363458538993456" lon="11.137272818758541"><ele>232.0</ele><time>2026-04-04T13:49:28Z</time></trkpt><trkpt lat="43.36350530215938" lon="11.137394369997951"><ele>232.0</ele><time>2026-04-04T13:49:29Z</time></trkpt><trkpt lat="43.363599750929225" lon="11.137531519876504"><ele>231.33333333333331</ele><time>2026-04-04T13:49:30Z</time></trkpt><trkpt lat="43.363688423406145" lon="11.137697803754342"><ele>230.66666666666669</ele><time>2026-04-04T13:49:31Z</time></trkpt><trkpt lat="43.36378550871678" lon="11.137867476618943"><ele>230.0</ele><time>2026-04-04T13:49:32Z</time></trkpt><trkpt lat="43.36388758258068" lon="11.138034936006758"><ele>228.75</ele><time>2026-04-04T13:49:33Z</time></trkpt><trkpt lat="43.363979872480364" lon="11.138196309791638"><ele>227.5</ele><time>2026-04-04T13:49:34Z</time></trkpt><trkpt lat="43.36410461938353" lon="11.138320401323986"><ele>226.25</ele><time>2026-04-04T13:49:35Z</time></trkpt><trkpt lat="43.364217906910724" lon="11.13843844740822"><ele>225.0</ele><time>2026-04-04T13:49:36Z</time></trkpt><trkpt lat="43.364334173582776" lon="11.138541844364335"><ele>225.0</ele><time>2026-04-04T13:49:37Z</time></trkpt><trkpt lat="43.36445116211978" lon="11.138638235193847"><ele>225.0</ele><time>2026-04-04T13:49:38Z</time></trkpt><trkpt lat="43.364554398733986" lon="11.138740904787838"><ele>225.0</ele><time>2026-04-04T13:49:39Z</time></trkpt><trkpt lat="43.36465104868287" lon="11.138843049196671"><ele>225.0</ele><time>2026-04-04T13:49:40Z</time></trkpt><trkpt lat="43.3647507491692" lon="11.138940100997768"><ele>223.33333333333331</ele><time>2026-04-04T13:49:41Z</time></trkpt><trkpt lat="43.364877590557946" lon="11.139067707772716"><ele>221.66666666666666</ele><time>2026-04-04T13:49:42Z</time></trkpt><trkpt lat="43.36500424512261" lon="11.139204144699097"><ele>220.0</ele><time>2026-04-04T13:49:43Z</time></trkpt><trkpt lat="43.36510998048959" lon="11.139363397186127"><ele>220.0</ele><time>2026-04-04T13:49:44Z</time></trkpt><trkpt lat="43.36521934865736" lon="11.139497516585703"><ele>220.0</ele><time>2026-04-04T13:49:45Z</time></trkpt><trkpt lat="43.365317063035654" lon="11.13962265417916"><ele>220.0</ele><time>2026-04-04T13:49:46Z</time></trkpt><trkpt lat="43.36540925804783" lon="11.139739450733359"><ele>220.0</ele><time>2026-04-04T13:49:47Z</time></trkpt><trkpt lat="43.36550290384861" lon="11.139834811499759"><ele>219.75</ele><time>2026-04-04T13:49:48Z</time></trkpt><trkpt lat="43.36561461304254" lon="11.13992437844553"><ele>219.5</ele><time>2026-04-04T13:49:49Z</time></trkpt><trkpt lat="43.36574749530587" lon="11.139988444534833"><ele>219.25</ele><time>2026-04-04T13:49:50Z</time></trkpt><trkpt lat="43.365904264960506" lon="11.140033603427936"><ele>219.0</ele><time>2026-04-04T13:49:51Z</time></trkpt><trkpt lat="43.36604894042404" lon="11.140065287246703"><ele>219.0</ele><time>2026-04-04T13:49:52Z</time></trkpt><trkpt lat="43.36620448153911" lon="11.140100035787123"><ele>219.0</ele><time>2026-04-04T13:49:53Z</time></trkpt><trkpt lat="43.36636223197124" lon="11.140121431851497"><ele>219.0</ele><time>2026-04-04T13:49:54Z</time></trkpt><trkpt lat="43.36650509856349" lon="11.14011543703983"><ele>217.33333333333331</ele><time>2026-04-04T13:49:55Z</time></trkpt><trkpt lat="43.36666944218727" lon="11.14010332900555"><ele>215.66666666666666</ele><time>2026-04-04T13:49:56Z</time></trkpt><trkpt lat="43.36681939768582" lon="11.140097194847817"><ele>214.0</ele><time>2026-04-04T13:49:57Z</time></trkpt><trkpt lat="43.36696336870342" lon="11.140086733973451"><ele>214.0</ele><time>2026-04-04T13:49:58Z</time></trkpt><trkpt lat="43.367098820161026" lon="11.140075106185629"><ele>214.0</ele><time>2026-04-04T13:49:59Z</time></trkpt><trkpt lat="43.367226213833696" lon="11.14006362819964"><ele>214.0</ele><time>2026-04-04T13:50:00Z</time></trkpt><trkpt lat="43.36734103223716" lon="11.140069974960815"><ele>214.0</ele><time>2026-04-04T13:50:01Z</time></trkpt><trkpt lat="43.367452044629104" lon="11.140106373190068"><ele>213.2</ele><time>2026-04-04T13:50:02Z</time></trkpt><trkpt lat="43.36755558787477" lon="11.140158973838576"><ele>212.39999999999998</ele><time>2026-04-04T13:50:03Z</time></trkpt><trkpt lat="43.367643480255644" lon="11.140245247803485"><ele>211.6</ele><time>2026-04-04T13:50:04Z</time></trkpt><trkpt lat="43.36774969940189" lon="11.140298854335397"><ele>210.8</ele><time>2026-04-04T13:50:05Z</time></trkpt><trkpt lat="43.367846296133266" lon="11.140377569074792"><ele>210.0</ele><time>2026-04-04T13:50:06Z</time></trkpt><trkpt lat="43.36794837298118" lon="11.140456481599754"><ele>208.4</ele><time>2026-04-04T13:50:07Z</time></trkpt><trkpt lat="43.368039468684245" lon="11.140536941653526"><ele>206.8</ele><time>2026-04-04T13:50:08Z</time></trkpt><trkpt lat="43.36812531183604" lon="11.14061181062254"><ele>205.2</ele><time>2026-04-04T13:50:09Z</time></trkpt><trkpt lat="43.36821606955434" lon="11.140680314340043"><ele>203.6</ele><time>2026-04-04T13:50:10Z</time></trkpt><trkpt lat="43.36829680939617" lon="11.140751467645906"><ele>202.0</ele><time>2026-04-04T13:50:11Z</time></trkpt><trkpt lat="43.36837096940573" lon="11.14083667686128"><ele>201.33333333333331</ele><time>2026-04-04T13:50:12Z</time></trkpt><trkpt lat="43.368415673620184" lon="11.140931106016788"><ele>200.66666666666666</ele><time>2026-04-04T13:50:13Z</time></trkpt><trkpt lat="43.368453369624675" lon="11.141001747982504"><ele>200.0</ele><time>2026-04-04T13:50:14Z</time></trkpt><trkpt lat="43.36848263361706" lon="11.141108500783343"><ele>199.33333333333331</ele><time>2026-04-04T13:50:16Z</time></trkpt><trkpt lat="43.368427356104405" lon="11.141156221534414"><ele>198.66666666666666</ele><time>2026-04-04T13:50:17Z</time></trkpt><trkpt lat="43.36838440216925" lon="11.141243001320039"><ele>198.0</ele><time>2026-04-04T13:50:18Z</time></trkpt><trkpt lat="43.368322818512944" lon="11.141362170545571"><ele>198.0</ele><time>2026-04-04T13:50:19Z</time></trkpt><trkpt lat="43.368253768799704" lon="11.141499255715022"><ele>198.0</ele><time>2026-04-04T13:50:20Z</time></trkpt><trkpt lat="43.36817249244366" lon="11.14166187999459"><ele>198.0</ele><time>2026-04-04T13:50:21Z</time></trkpt><trkpt lat="43.368096967854" lon="11.141811696788047"><ele>198.0</ele><time>2026-04-04T13:50:22Z</time></trkpt><trkpt lat="43.36802073921647" lon="11.141958168698"><ele>197.75</ele><time>2026-04-04T13:50:23Z</time></trkpt><trkpt lat="43.3679413530735" lon="11.1421083345056"><ele>197.5</ele><time>2026-04-04T13:50:24Z</time></trkpt><trkpt lat="43.36783926657006" lon="11.142266086421667"><ele>197.25</ele><time>2026-04-04T13:50:25Z</time></trkpt><trkpt lat="43.36775197937885" lon="11.142426881832913"><ele>197.0</ele><time>2026-04-04T13:50:26Z</time></trkpt><trkpt lat="43.36768356928046" lon="11.142591691880959"><ele>196.33333333333334</ele><time>2026-04-04T13:50:27Z</time></trkpt><trkpt lat="43.3676177703783" lon="11.142712407393253"><ele>195.66666666666669</ele><time>2026-04-04T13:50:28Z</time></trkpt><trkpt lat="43.3675585276614" lon="11.142792680667478"><ele>195.0</ele><time>2026-04-04T13:50:29Z</time></trkpt><trkpt lat="43.36750408954633" lon="11.142898741258929"><ele>194.33333333333331</ele><time>2026-04-04T13:50:31Z</time></trkpt><trkpt lat="43.36747495529896" lon="11.142984248681758"><ele>193.66666666666666</ele><time>2026-04-04T13:50:39Z</time></trkpt><trkpt lat="43.36742491112364" lon="11.143054986671583"><ele>193.0</ele><time>2026-04-04T13:50:42Z</time></trkpt><trkpt lat="43.367377378155844" lon="11.143148785065302"><ele>192.99999999999997</ele><time>2026-04-04T13:50:44Z</time></trkpt><trkpt lat="43.36733333817664" lon="11.14323569061798"><ele>193.0</ele><time>2026-04-04T13:50:46Z</time></trkpt><trkpt lat="43.367286467942684" lon="11.143327487679825"><ele>193.0</ele><time>2026-04-04T13:50:48Z</time></trkpt><trkpt lat="43.36723134941891" lon="11.143432994397772"><ele>193.0</ele><time>2026-04-04T13:50:50Z</time></trkpt><trkpt lat="43.36720340627415" lon="11.143524280809343"><ele>192.99999999999997</ele><time>2026-04-04T13:50:51Z</time></trkpt><trkpt lat="43.36715023857784" lon="11.143617106891641"><ele>193.0</ele><time>2026-04-04T13:50:52Z</time></trkpt><trkpt lat="43.36708376741991" lon="11.143706240693593"><ele>193.2</ele><time>2026-04-04T13:50:53Z</time></trkpt><trkpt lat="43.36703471997057" lon="11.14383066154146"><ele>193.4</ele><time>2026-04-04T13:50:54Z</time></trkpt><trkpt lat="43.366958188301105" lon="11.143940692350014"><ele>193.6</ele><time>2026-04-04T13:50:55Z</time></trkpt><trkpt lat="43.36690767484684" lon="11.14406814486936"><ele>193.79999999999998</ele><time>2026-04-04T13:50:56Z</time></trkpt><trkpt lat="43.36686401835863" lon="11.144173387041935"><ele>194.0</ele><time>2026-04-04T13:50:57Z</time></trkpt><trkpt lat="43.36680344045654" lon="11.144262579563282"><ele>194.16666666666669</ele><time>2026-04-04T13:50:58Z</time></trkpt><trkpt lat="43.36677073608533" lon="11.144375929405191"><ele>194.33333333333334</ele><time>2026-04-04T13:50:59Z</time></trkpt><trkpt lat="43.366726278962396" lon="11.144458759455722"><ele>194.5</ele><time>2026-04-04T13:51:00Z</time></trkpt><trkpt lat="43.366678786064064" lon="11.144538415418683"><ele>194.66666666666669</ele><time>2026-04-04T13:51:01Z</time></trkpt><trkpt lat="43.366647272215516" lon="11.144637081647188"><ele>194.83333333333334</ele><time>2026-04-04T13:51:02Z</time></trkpt><trkpt lat="43.36661364883966" lon="11.144783091820633"><ele>195.0</ele><time>2026-04-04T13:51:04Z</time></trkpt><trkpt lat="43.3666530153001" lon="11.144891202888944"><ele>195.0</ele><time>2026-04-04T13:51:06Z</time></trkpt><trkpt lat="43.36681209049366" lon="11.144775523762986"><ele>195.0</ele><time>2026-04-04T13:51:08Z</time></trkpt><trkpt lat="43.366894792501036" lon="11.144716812002818"><ele>195.0</ele><time>2026-04-04T13:51:09Z</time></trkpt><trkpt lat="43.36700566886143" lon="11.144686412425282"><ele>195.0</ele><time>2026-04-04T13:51:10Z</time></trkpt><trkpt lat="43.36713205784693" lon="11.14465876274637"><ele>194.66666666666669</ele><time>2026-04-04T13:51:11Z</time></trkpt><trkpt lat="43.36728589540833" lon="11.144632327548727"><ele>194.33333333333334</ele><time>2026-04-04T13:51:12Z</time></trkpt><trkpt lat="43.36746973999499" lon="11.144600586680161"><ele>194.0</ele><time>2026-04-04T13:51:13Z</time></trkpt><trkpt lat="43.36767166268517" lon="11.144565724615498"><ele>194.0</ele><time>2026-04-04T13:51:14Z</time></trkpt><trkpt lat="43.36784471814241" lon="11.144535887924393"><ele>194.0</ele><time>2026-04-04T13:51:15Z</time></trkpt><trkpt lat="43.367992513280925" lon="11.144490677234836"><ele>194.0</ele><time>2026-04-04T13:51:16Z</time></trkpt><trkpt lat="43.36814934516449" lon="11.144456834752773"><ele>194.0</ele><time>2026-04-04T13:51:17Z</time></trkpt><trkpt lat="43.36832042315262" lon="11.144389193180892"><ele>194.0</ele><time>2026-04-04T13:51:18Z</time></trkpt><trkpt lat="43.36849190078119" lon="11.144296551117886"><ele>194.0</ele><time>2026-04-04T13:51:19Z</time></trkpt><trkpt lat="43.368672743789446" lon="11.144178119173018"><ele>193.33333333333334</ele><time>2026-04-04T13:51:20Z</time></trkpt><trkpt lat="43.36886798771509" lon="11.144082649855687"><ele>192.66666666666669</ele><time>2026-04-04T13:51:21Z</time></trkpt><trkpt lat="43.36906513425922" lon="11.143967588980715"><ele>192.0</ele><time>2026-04-04T13:51:22Z</time></trkpt><trkpt lat="43.369272292435305" lon="11.143846684987558"><ele>191.66666666666666</ele><time>2026-04-04T13:51:23Z</time></trkpt><trkpt lat="43.36947748042634" lon="11.143702650479904"><ele>191.33333333333331</ele><time>2026-04-04T13:51:24Z</time></trkpt><trkpt lat="43.369670711028085" lon="11.143613460925966"><ele>191.0</ele><time>2026-04-04T13:51:25Z</time></trkpt><trkpt lat="43.3698459514854" lon="11.143509790153802"><ele>191.0</ele><time>2026-04-04T13:51:26Z</time></trkpt><trkpt lat="43.370012259473235" lon="11.143411403740554"><ele>191.0</ele><time>2026-04-04T13:51:27Z</time></trkpt><trkpt lat="43.37017372308959" lon="11.143317112369786"><ele>191.0</ele><time>2026-04-04T13:51:28Z</time></trkpt><trkpt lat="43.37033606169334" lon="11.14322234218425"><ele>190.0</ele><time>2026-04-04T13:51:29Z</time></trkpt><trkpt lat="43.370493006344" lon="11.143144380164676"><ele>189.0</ele><time>2026-04-04T13:51:30Z</time></trkpt><trkpt lat="43.37063963308287" lon="11.143109378399467"><ele>188.0</ele><time>2026-04-04T13:51:31Z</time></trkpt><trkpt lat="43.37077780379966" lon="11.143124048156153"><ele>188.0</ele><time>2026-04-04T13:51:32Z</time></trkpt><trkpt lat="43.37091127436162" lon="11.143178236386909"><ele>188.0</ele><time>2026-04-04T13:51:33Z</time></trkpt><trkpt lat="43.37105501384518" lon="11.143255773691067"><ele>188.0</ele><time>2026-04-04T13:51:34Z</time></trkpt><trkpt lat="43.37119520055742" lon="11.143334067461355"><ele>188.0</ele><time>2026-04-04T13:51:35Z</time></trkpt><trkpt lat="43.37134483757795" lon="11.143416080053598"><ele>188.5</ele><time>2026-04-04T13:51:36Z</time></trkpt><trkpt lat="43.371488529241745" lon="11.143494834159524"><ele>189.0</ele><time>2026-04-04T13:51:37Z</time></trkpt><trkpt lat="43.37163108303413" lon="11.143571294107005"><ele>189.5</ele><time>2026-04-04T13:51:38Z</time></trkpt><trkpt lat="43.37176294178169" lon="11.143641372812985"><ele>190.0</ele><time>2026-04-04T13:51:39Z</time></trkpt><trkpt lat="43.37189184352355" lon="11.143686197881912"><ele>190.0</ele><time>2026-04-04T13:51:40Z</time></trkpt><trkpt lat="43.37201234071644" lon="11.143773922297514"><ele>190.0</ele><time>2026-04-04T13:51:41Z</time></trkpt><trkpt lat="43.372145784380315" lon="11.143802892413609"><ele>190.0</ele><time>2026-04-04T13:51:42Z</time></trkpt><trkpt lat="43.372278429349564" lon="11.143835496816504"><ele>190.0</ele><time>2026-04-04T13:51:43Z</time></trkpt><trkpt lat="43.37239223976891" lon="11.143874121711226"><ele>190.0</ele><time>2026-04-04T13:51:44Z</time></trkpt><trkpt lat="43.37250876665164" lon="11.14389810866165"><ele>190.0</ele><time>2026-04-04T13:51:45Z</time></trkpt><trkpt lat="43.3726264033756" lon="11.143920445195665"><ele>190.0</ele><time>2026-04-04T13:51:46Z</time></trkpt><trkpt lat="43.37274298564281" lon="11.143913701747556"><ele>190.0</ele><time>2026-04-04T13:51:47Z</time></trkpt><trkpt lat="43.3728594059647" lon="11.143878344067225"><ele>190.0</ele><time>2026-04-04T13:51:48Z</time></trkpt><trkpt lat="43.37296337523474" lon="11.143792085565282"><ele>190.0</ele><time>2026-04-04T13:51:49Z</time></trkpt><trkpt lat="43.373059214338085" lon="11.14365719575835"><ele>190.0</ele><time>2026-04-04T13:51:50Z</time></trkpt><trkpt lat="43.37312225000947" lon="11.14350292108596"><ele>190.0</ele><time>2026-04-04T13:51:51Z</time></trkpt><trkpt lat="43.373191672504966" lon="11.143383761154563"><ele>190.6</ele><time>2026-04-04T13:51:52Z</time></trkpt><trkpt lat="43.373244518614854" lon="11.143277954452808"><ele>191.2</ele><time>2026-04-04T13:51:53Z</time></trkpt><trkpt lat="43.3732946190072" lon="11.143178377320629"><ele>191.8</ele><time>2026-04-04T13:51:54Z</time></trkpt><trkpt lat="43.373342608115834" lon="11.143082996482821"><ele>192.4</ele><time>2026-04-04T13:51:55Z</time></trkpt><trkpt lat="43.37340035954018" lon="11.14296821241527"><ele>193.0</ele><time>2026-04-04T13:51:56Z</time></trkpt><trkpt lat="43.3734809995266" lon="11.142815751497746"><ele>193.0</ele><time>2026-04-04T13:51:57Z</time></trkpt><trkpt lat="43.3735710805358" lon="11.142653327724693"><ele>193.0</ele><time>2026-04-04T13:51:58Z</time></trkpt><trkpt lat="43.37367623441352" lon="11.142495775587266"><ele>193.0</ele><time>2026-04-04T13:51:59Z</time></trkpt><trkpt lat="43.37376617553392" lon="11.142370323831932"><ele>193.0</ele><time>2026-04-04T13:52:00Z</time></trkpt><trkpt lat="43.37385841448326" lon="11.142250507271095"><ele>193.75</ele><time>2026-04-04T13:52:01Z</time></trkpt><trkpt lat="43.37395495076117" lon="11.14212720268304"><ele>194.5</ele><time>2026-04-04T13:52:02Z</time></trkpt><trkpt lat="43.374049870251675" lon="11.142027263186943"><ele>195.25</ele><time>2026-04-04T13:52:03Z</time></trkpt><trkpt lat="43.37414130713232" lon="11.141940336946718"><ele>196.0</ele><time>2026-04-04T13:52:04Z</time></trkpt><trkpt lat="43.37422608571078" lon="11.141862248431035"><ele>196.0</ele><time>2026-04-04T13:52:05Z</time></trkpt><trkpt lat="43.37430310839894" lon="11.141791303767956"><ele>196.0</ele><time>2026-04-04T13:52:06Z</time></trkpt><trkpt lat="43.37437303948405" lon="11.141725067154173"><ele>196.0</ele><time>2026-04-04T13:52:07Z</time></trkpt><trkpt lat="43.37443066464742" lon="11.141667571928714"><ele>196.0</ele><time>2026-04-04T13:52:08Z</time></trkpt><trkpt lat="43.37449554751825" lon="11.141572236455401"><ele>196.0</ele><time>2026-04-04T13:52:10Z</time></trkpt><trkpt lat="43.37455286255876" lon="11.141713865425183"><ele>196.0</ele><time>2026-04-04T13:52:13Z</time></trkpt><trkpt lat="43.37458236976122" lon="11.141839845116616"><ele>196.0</ele><time>2026-04-04T13:52:15Z</time></trkpt><trkpt lat="43.374612958697384" lon="11.1419479999298"><ele>196.0</ele><time>2026-04-04T13:52:16Z</time></trkpt><trkpt lat="43.37464967943041" lon="11.14207972114222"><ele>196.0</ele><time>2026-04-04T13:52:17Z</time></trkpt><trkpt lat="43.3746845243288" lon="11.142222160874672"><ele>196.0</ele><time>2026-04-04T13:52:18Z</time></trkpt><trkpt lat="43.37472109504957" lon="11.142367790611846"><ele>197.5</ele><time>2026-04-04T13:52:19Z</time></trkpt><trkpt lat="43.37476417099629" lon="11.142518583097562"><ele>199.0</ele><time>2026-04-04T13:52:20Z</time></trkpt><trkpt lat="43.3747946293536" lon="11.142689574021988"><ele>200.5</ele><time>2026-04-04T13:52:21Z</time></trkpt><trkpt lat="43.37485162823622" lon="11.142850619941166"><ele>202.0</ele><time>2026-04-04T13:52:22Z</time></trkpt><trkpt lat="43.37488880568934" lon="11.143013707872809"><ele>202.0</ele><time>2026-04-04T13:52:23Z</time></trkpt><trkpt lat="43.3749297713754" lon="11.143164756785525"><ele>202.0</ele><time>2026-04-04T13:52:24Z</time></trkpt><trkpt lat="43.37497134338879" lon="11.143319238151275"><ele>202.0</ele><time>2026-04-04T13:52:25Z</time></trkpt><trkpt lat="43.37501615780945" lon="11.143470478414718"><ele>202.0</ele><time>2026-04-04T13:52:26Z</time></trkpt><trkpt lat="43.37504579350867" lon="11.14362705476585"><ele>203.0</ele><time>2026-04-04T13:52:27Z</time></trkpt><trkpt lat="43.3750733012563" lon="11.143764630305828"><ele>204.0</ele><time>2026-04-04T13:52:28Z</time></trkpt><trkpt lat="43.37510520050862" lon="11.143903736030701"><ele>205.0</ele><time>2026-04-04T13:52:29Z</time></trkpt><trkpt lat="43.37509037384976" lon="11.14404793405084"><ele>206.0</ele><time>2026-04-04T13:52:30Z</time></trkpt><trkpt lat="43.375076109693715" lon="11.144196694869615"><ele>207.0</ele><time>2026-04-04T13:52:31Z</time></trkpt><trkpt lat="43.37503089886278" lon="11.144347286319828"><ele>209.39999999999998</ele><time>2026-04-04T13:52:32Z</time></trkpt><trkpt lat="43.37499893098236" lon="11.144505187271163"><ele>211.79999999999998</ele><time>2026-04-04T13:52:33Z</time></trkpt><trkpt lat="43.374967521604745" lon="11.14464484475107"><ele>214.2</ele><time>2026-04-04T13:52:34Z</time></trkpt><trkpt lat="43.37493613393815" lon="11.144782917066415"><ele>216.6</ele><time>2026-04-04T13:52:35Z</time></trkpt><trkpt lat="43.374914738999635" lon="11.144929684342717"><ele>219.0</ele><time>2026-04-04T13:52:36Z</time></trkpt><trkpt lat="43.37492360840291" lon="11.145072254257126"><ele>220.2</ele><time>2026-04-04T13:52:37Z</time></trkpt><trkpt lat="43.374935609476" lon="11.145210512783098"><ele>221.39999999999998</ele><time>2026-04-04T13:52:38Z</time></trkpt><trkpt lat="43.37499081662479" lon="11.14533522383777"><ele>222.6</ele><time>2026-04-04T13:52:39Z</time></trkpt><trkpt lat="43.37502312731866" lon="11.145486148196222"><ele>223.8</ele><time>2026-04-04T13:52:40Z</time></trkpt><trkpt lat="43.3750963004492" lon="11.145613851819492"><ele>225.0</ele><time>2026-04-04T13:52:41Z</time></trkpt><trkpt lat="43.37514328664759" lon="11.145757362402943"><ele>225.4</ele><time>2026-04-04T13:52:42Z</time></trkpt><trkpt lat="43.375169376449286" lon="11.145893771398391"><ele>225.8</ele><time>2026-04-04T13:52:43Z</time></trkpt><trkpt lat="43.37517881248007" lon="11.146010205622195"><ele>226.2</ele><time>2026-04-04T13:52:44Z</time></trkpt><trkpt lat="43.37517448839403" lon="11.14610365306363"><ele>226.6</ele><time>2026-04-04T13:52:45Z</time></trkpt><trkpt lat="43.37522173776285" lon="11.146185681548777"><ele>227.0</ele><time>2026-04-04T13:52:46Z</time></trkpt><trkpt lat="43.37533496465329" lon="11.146311222165805"><ele>227.0</ele><time>2026-04-04T13:52:48Z</time></trkpt><trkpt lat="43.37539648878526" lon="11.14640004338837"><ele>227.0</ele><time>2026-04-04T13:52:49Z</time></trkpt><trkpt lat="43.375477499389476" lon="11.146460144771941"><ele>227.0</ele><time>2026-04-04T13:52:50Z</time></trkpt><trkpt lat="43.37555412740696" lon="11.14653363023861"><ele>227.0</ele><time>2026-04-04T13:52:51Z</time></trkpt><trkpt lat="43.375627055967264" lon="11.14661283509111"><ele>227.0</ele><time>2026-04-04T13:52:52Z</time></trkpt><trkpt lat="43.375704501116694" lon="11.146687280789985"><ele>228.0</ele><time>2026-04-04T13:52:53Z</time></trkpt><trkpt lat="43.37579336706535" lon="11.14676039635403"><ele>229.0</ele><time>2026-04-04T13:52:54Z</time></trkpt><trkpt lat="43.37587023379347" lon="11.146851075196967"><ele>230.0</ele><time>2026-04-04T13:52:55Z</time></trkpt><trkpt lat="43.37595242432004" lon="11.146924817315577"><ele>231.0</ele><time>2026-04-04T13:52:56Z</time></trkpt><trkpt lat="43.37602777953606" lon="11.146992427031858"><ele>232.0</ele><time>2026-04-04T13:52:57Z</time></trkpt><trkpt lat="43.376109996561794" lon="11.14706610241923"><ele>232.0</ele><time>2026-04-04T13:52:58Z</time></trkpt><trkpt lat="43.37619988115024" lon="11.147121597934722"><ele>232.0</ele><time>2026-04-04T13:52:59Z</time></trkpt><trkpt lat="43.376272603355176" lon="11.147204889210002"><ele>232.0</ele><time>2026-04-04T13:53:00Z</time></trkpt><trkpt lat="43.376350823706424" lon="11.147252844194098"><ele>232.0</ele><time>2026-04-04T13:53:01Z</time></trkpt><trkpt lat="43.376414793872634" lon="11.147328982429816"><ele>232.0</ele><time>2026-04-04T13:53:02Z</time></trkpt><trkpt lat="43.37648833720291" lon="11.147398125442782"><ele>234.33333333333331</ele><time>2026-04-04T13:53:03Z</time></trkpt><trkpt lat="43.376553841883265" lon="11.147467966676642"><ele>236.66666666666666</ele><time>2026-04-04T13:53:04Z</time></trkpt><trkpt lat="43.37660952606711" lon="11.147540210324351"><ele>239.0</ele><time>2026-04-04T13:53:05Z</time></trkpt><trkpt lat="43.3766171015907" lon="11.147688928604783"><ele>241.33333333333331</ele><time>2026-04-04T13:53:07Z</time></trkpt><trkpt lat="43.376594953290116" lon="11.147831291054217"><ele>243.66666666666666</ele><time>2026-04-04T13:53:09Z</time></trkpt><trkpt lat="43.37658327562164" lon="11.14792019330643"><ele>246.0</ele><time>2026-04-04T13:53:11Z</time></trkpt><trkpt lat="43.37657150834054" lon="11.148009777757089"><ele>246.0</ele><time>2026-04-04T13:53:13Z</time></trkpt><trkpt lat="43.37655427573055" lon="11.148140969841897"><ele>246.0</ele><time>2026-04-04T13:53:15Z</time></trkpt><trkpt lat="43.3766407081495" lon="11.148231131198234"><ele>246.0</ele><time>2026-04-04T13:53:18Z</time></trkpt><trkpt lat="43.37669710498256" lon="11.14830218725163"><ele>246.0</ele><time>2026-04-04T13:53:19Z</time></trkpt><trkpt lat="43.37676665511811" lon="11.14834410493554"><ele>246.0</ele><time>2026-04-04T13:53:20Z</time></trkpt><trkpt lat="43.37684150284798" lon="11.148377278431553"><ele>246.0</ele><time>2026-04-04T13:53:21Z</time></trkpt><trkpt lat="43.37691373549739" lon="11.148418091897135"><ele>246.83333333333334</ele><time>2026-04-04T13:53:22Z</time></trkpt><trkpt lat="43.37697838270359" lon="11.148448957889556"><ele>247.66666666666669</ele><time>2026-04-04T13:53:23Z</time></trkpt><trkpt lat="43.37704139177642" lon="11.148475740124187"><ele>248.5</ele><time>2026-04-04T13:53:24Z</time></trkpt><trkpt lat="43.37713785250377" lon="11.148521385384985"><ele>249.33333333333334</ele><time>2026-04-04T13:53:26Z</time></trkpt><trkpt lat="43.37724375993971" lon="11.148558052260293"><ele>250.16666666666669</ele><time>2026-04-04T13:53:28Z</time></trkpt><trkpt lat="43.3773389574742" lon="11.14859838931297"><ele>251.0</ele><time>2026-04-04T13:53:30Z</time></trkpt><trkpt lat="43.37739267787919" lon="11.148653040780282"><ele>251.0</ele><time>2026-04-04T13:53:31Z</time></trkpt><trkpt lat="43.377441904081536" lon="11.148738111946303"><ele>251.00000000000003</ele><time>2026-04-04T13:53:32Z</time></trkpt><trkpt lat="43.377509888194275" lon="11.14885005666119"><ele>251.00000000000003</ele><time>2026-04-04T13:53:33Z</time></trkpt><trkpt lat="43.37757053521284" lon="11.14898594958569"><ele>251.0</ele><time>2026-04-04T13:53:34Z</time></trkpt><trkpt lat="43.377652501743015" lon="11.149112695492013"><ele>251.0</ele><time>2026-04-04T13:53:35Z</time></trkpt><trkpt lat="43.37772397777579" lon="11.149243466749002"><ele>250.20000000000002</ele><time>2026-04-04T13:53:36Z</time></trkpt><trkpt lat="43.377778961898635" lon="11.149364821454169"><ele>249.40000000000003</ele><time>2026-04-04T13:53:37Z</time></trkpt><trkpt lat="43.37782614554066" lon="11.149473043368404"><ele>248.6</ele><time>2026-04-04T13:53:38Z</time></trkpt><trkpt lat="43.37787856706096" lon="11.149588565347266"><ele>247.8</ele><time>2026-04-04T13:53:39Z</time></trkpt><trkpt lat="43.37792982159022" lon="11.149700799484076"><ele>247.0</ele><time>2026-04-04T13:53:40Z</time></trkpt><trkpt lat="43.37798182204922" lon="11.149814667013699"><ele>246.83333333333331</ele><time>2026-04-04T13:53:41Z</time></trkpt><trkpt lat="43.37803744821601" lon="11.149935242103231"><ele>246.66666666666666</ele><time>2026-04-04T13:53:42Z</time></trkpt><trkpt lat="43.378087161939305" lon="11.15004141780154"><ele>246.5</ele><time>2026-04-04T13:53:43Z</time></trkpt><trkpt lat="43.37813265495933" lon="11.150138579131875"><ele>246.33333333333331</ele><time>2026-04-04T13:53:44Z</time></trkpt><trkpt lat="43.378178255303276" lon="11.150229586140432"><ele>246.16666666666666</ele><time>2026-04-04T13:53:45Z</time></trkpt><trkpt lat="43.37823715320507" lon="11.150308325710931"><ele>246.0</ele><time>2026-04-04T13:53:46Z</time></trkpt><trkpt lat="43.378285038665155" lon="11.150365617195018"><ele>246.0</ele><time>2026-04-04T13:53:47Z</time></trkpt><trkpt lat="43.37836405010738" lon="11.150449993961388"><ele>246.00000000000003</ele><time>2026-04-04T13:53:49Z</time></trkpt><trkpt lat="43.37834431502544" lon="11.150562819300864"><ele>246.00000000000003</ele><time>2026-04-04T13:53:50Z</time></trkpt><trkpt lat="43.37835243635929" lon="11.150711623852606"><ele>246.0</ele><time>2026-04-04T13:53:51Z</time></trkpt><trkpt lat="43.378387001812506" lon="11.150868199930986"><ele>246.0</ele><time>2026-04-04T13:53:52Z</time></trkpt><trkpt lat="43.378426696926994" lon="11.1510611131274"><ele>245.75</ele><time>2026-04-04T13:53:53Z</time></trkpt><trkpt lat="43.37844526193507" lon="11.15126241344631"><ele>245.5</ele><time>2026-04-04T13:53:54Z</time></trkpt><trkpt lat="43.37847707746808" lon="11.15143738929976"><ele>245.25</ele><time>2026-04-04T13:53:55Z</time></trkpt><trkpt lat="43.378522384790955" lon="11.151595394404806"><ele>245.0</ele><time>2026-04-04T13:53:56Z</time></trkpt><trkpt lat="43.37853672124601" lon="11.151758164363107"><ele>245.5</ele><time>2026-04-04T13:53:57Z</time></trkpt><trkpt lat="43.37856643587933" lon="11.151917389603474"><ele>246.0</ele><time>2026-04-04T13:53:58Z</time></trkpt><trkpt lat="43.378594945022876" lon="11.152070155250943"><ele>246.5</ele><time>2026-04-04T13:53:59Z</time></trkpt><trkpt lat="43.37863570270859" lon="11.152208827241846"><ele>247.0</ele><time>2026-04-04T13:54:00Z</time></trkpt><trkpt lat="43.378665158650335" lon="11.152365128856252"><ele>246.25</ele><time>2026-04-04T13:54:01Z</time></trkpt><trkpt lat="43.378693763038335" lon="11.152518600429135"><ele>245.5</ele><time>2026-04-04T13:54:02Z</time></trkpt><trkpt lat="43.37870795993825" lon="11.152677269071486"><ele>244.75</ele><time>2026-04-04T13:54:03Z</time></trkpt><trkpt lat="43.378737699125935" lon="11.152837945097357"><ele>244.0</ele><time>2026-04-04T13:54:04Z</time></trkpt><trkpt lat="43.378767293348695" lon="11.152998279392762"><ele>244.0</ele><time>2026-04-04T13:54:05Z</time></trkpt><trkpt lat="43.37879696353944" lon="11.153164673028721"><ele>244.0</ele><time>2026-04-04T13:54:06Z</time></trkpt><trkpt lat="43.378827752116095" lon="11.15333733869195"><ele>244.0</ele><time>2026-04-04T13:54:07Z</time></trkpt><trkpt lat="43.37887097485375" lon="11.153508265230665"><ele>244.0</ele><time>2026-04-04T13:54:08Z</time></trkpt><trkpt lat="43.3789044926973" lon="11.15369017870688"><ele>244.25</ele><time>2026-04-04T13:54:09Z</time></trkpt><trkpt lat="43.3789281795613" lon="11.153881172453273"><ele>244.5</ele><time>2026-04-04T13:54:10Z</time></trkpt><trkpt lat="43.37896697149538" lon="11.154068751593"><ele>244.75</ele><time>2026-04-04T13:54:11Z</time></trkpt><trkpt lat="43.379008727135954" lon="11.154264351314245"><ele>245.0</ele><time>2026-04-04T13:54:12Z</time></trkpt><trkpt lat="43.37905121728786" lon="11.154459637174854"><ele>245.0</ele><time>2026-04-04T13:54:13Z</time></trkpt><trkpt lat="43.37909687982405" lon="11.154655809567615"><ele>245.0</ele><time>2026-04-04T13:54:14Z</time></trkpt><trkpt lat="43.37915489823181" lon="11.154841386943177"><ele>245.0</ele><time>2026-04-04T13:54:15Z</time></trkpt><trkpt lat="43.37919839762431" lon="11.155037144045393"><ele>245.0</ele><time>2026-04-04T13:54:16Z</time></trkpt><trkpt lat="43.37923683403495" lon="11.155243558092518"><ele>246.0</ele><time>2026-04-04T13:54:17Z</time></trkpt><trkpt lat="43.37928780053769" lon="11.15544452601085"><ele>247.0</ele><time>2026-04-04T13:54:18Z</time></trkpt><trkpt lat="43.37933304135808" lon="11.155653849426686"><ele>248.0</ele><time>2026-04-04T13:54:19Z</time></trkpt><trkpt lat="43.37937767997686" lon="11.155865185405515"><ele>248.25</ele><time>2026-04-04T13:54:20Z</time></trkpt><trkpt lat="43.379425012172916" lon="11.15607100821791"><ele>248.5</ele><time>2026-04-04T13:54:21Z</time></trkpt><trkpt lat="43.37946964996294" lon="11.156242605530025"><ele>248.75</ele><time>2026-04-04T13:54:22Z</time></trkpt><trkpt lat="43.37953899782961" lon="11.156403700728694"><ele>249.0</ele><time>2026-04-04T13:54:23Z</time></trkpt><trkpt lat="43.37966190449336" lon="11.156550287995262"><ele>251.5</ele><time>2026-04-04T13:54:24Z</time></trkpt><trkpt lat="43.37979736681696" lon="11.156686622887388"><ele>254.0</ele><time>2026-04-04T13:54:25Z</time></trkpt><trkpt lat="43.37989802501674" lon="11.156815614564472"><ele>256.5</ele><time>2026-04-04T13:54:26Z</time></trkpt><trkpt lat="43.37997892513425" lon="11.156962301690834"><ele>259.0</ele><time>2026-04-04T13:54:27Z</time></trkpt><trkpt lat="43.38004071550702" lon="11.157150292735384"><ele>259.0</ele><time>2026-04-04T13:54:28Z</time></trkpt><trkpt lat="43.380075239702116" lon="11.157365672949219"><ele>259.0</ele><time>2026-04-04T13:54:29Z</time></trkpt><trkpt lat="43.38010123581114" lon="11.157590304080607"><ele>259.0</ele><time>2026-04-04T13:54:30Z</time></trkpt><trkpt lat="43.38013277642954" lon="11.157816222393459"><ele>257.66666666666663</ele><time>2026-04-04T13:54:31Z</time></trkpt><trkpt lat="43.38016266787912" lon="11.158023489593846"><ele>256.3333333333333</ele><time>2026-04-04T13:54:32Z</time></trkpt><trkpt lat="43.38015898493894" lon="11.158230988944"><ele>255.0</ele><time>2026-04-04T13:54:33Z</time></trkpt><trkpt lat="43.38015412613146" lon="11.158464761495347"><ele>253.66666666666669</ele><time>2026-04-04T13:54:34Z</time></trkpt><trkpt lat="43.38014598188104" lon="11.158724376938556"><ele>252.33333333333334</ele><time>2026-04-04T13:54:35Z</time></trkpt><trkpt lat="43.380124833223924" lon="11.158988554978327"><ele>251.0</ele><time>2026-04-04T13:54:36Z</time></trkpt><trkpt lat="43.38010662284604" lon="11.15922419654563"><ele>251.0</ele><time>2026-04-04T13:54:37Z</time></trkpt><trkpt lat="43.38009148350125" lon="11.159459496364043"><ele>251.0</ele><time>2026-04-04T13:54:38Z</time></trkpt><trkpt lat="43.38008206519385" lon="11.15969039604829"><ele>251.0</ele><time>2026-04-04T13:54:39Z</time></trkpt><trkpt lat="43.380041139654736" lon="11.159907515587406"><ele>253.33333333333334</ele><time>2026-04-04T13:54:40Z</time></trkpt><trkpt lat="43.37999388174531" lon="11.160127908012443"><ele>255.66666666666669</ele><time>2026-04-04T13:54:41Z</time></trkpt><trkpt lat="43.37988311268538" lon="11.160320536610962"><ele>258.0</ele><time>2026-04-04T13:54:42Z</time></trkpt><trkpt lat="43.37976323945622" lon="11.160516551120509"><ele>256.0</ele><time>2026-04-04T13:54:43Z</time></trkpt><trkpt lat="43.37963338743798" lon="11.160662779287405"><ele>254.0</ele><time>2026-04-04T13:54:44Z</time></trkpt><trkpt lat="43.379511977948816" lon="11.160822532627195"><ele>252.0</ele><time>2026-04-04T13:54:45Z</time></trkpt><trkpt lat="43.379410862888676" lon="11.16099645868886"><ele>256.3333333333333</ele><time>2026-04-04T13:54:46Z</time></trkpt><trkpt lat="43.3793346165585" lon="11.161193833216892"><ele>260.66666666666663</ele><time>2026-04-04T13:54:47Z</time></trkpt><trkpt lat="43.37927660737838" lon="11.16141277250462"><ele>265.0</ele><time>2026-04-04T13:54:48Z</time></trkpt><trkpt lat="43.379234364101286" lon="11.161642659231159"><ele>267.0</ele><time>2026-04-04T13:54:49Z</time></trkpt><trkpt lat="43.379181701648655" lon="11.161863938511074"><ele>269.0</ele><time>2026-04-04T13:54:50Z</time></trkpt><trkpt lat="43.379126517686984" lon="11.162085403878738"><ele>271.0</ele><time>2026-04-04T13:54:51Z</time></trkpt><trkpt lat="43.37907126207879" lon="11.162313392460222"><ele>271.66666666666663</ele><time>2026-04-04T13:54:52Z</time></trkpt><trkpt lat="43.379014809171" lon="11.1625407010666"><ele>272.3333333333333</ele><time>2026-04-04T13:54:53Z</time></trkpt><trkpt lat="43.37896203736396" lon="11.162767059521302"><ele>273.0</ele><time>2026-04-04T13:54:54Z</time></trkpt><trkpt lat="43.378905759553554" lon="11.162990159806212"><ele>275.0</ele><time>2026-04-04T13:54:55Z</time></trkpt><trkpt lat="43.37884962018993" lon="11.163214500720883"><ele>277.0</ele><time>2026-04-04T13:54:56Z</time></trkpt><trkpt lat="43.378803798190894" lon="11.163446365398434"><ele>279.0</ele><time>2026-04-04T13:54:57Z</time></trkpt><trkpt lat="43.378766113379896" lon="11.163675905266606"><ele>279.0</ele><time>2026-04-04T13:54:58Z</time></trkpt><trkpt lat="43.378736408883235" lon="11.163898613688499"><ele>279.0</ele><time>2026-04-04T13:54:59Z</time></trkpt><trkpt lat="43.378715966458934" lon="11.16411569144697"><ele>279.0</ele><time>2026-04-04T13:55:00Z</time></trkpt><trkpt lat="43.37869899125926" lon="11.164313677729925"><ele>279.0</ele><time>2026-04-04T13:55:01Z</time></trkpt><trkpt lat="43.37866235973841" lon="11.164500517284763"><ele>279.0</ele><time>2026-04-04T13:55:02Z</time></trkpt><trkpt lat="43.37864830745947" lon="11.16468259775781"><ele>279.0</ele><time>2026-04-04T13:55:03Z</time></trkpt><trkpt lat="43.37857879340448" lon="11.164859237351735"><ele>279.0</ele><time>2026-04-04T13:55:04Z</time></trkpt><trkpt lat="43.37850213268438" lon="11.165041862258603"><ele>279.0</ele><time>2026-04-04T13:55:05Z</time></trkpt><trkpt lat="43.378414738631015" lon="11.16523705250999"><ele>279.0</ele><time>2026-04-04T13:55:06Z</time></trkpt><trkpt lat="43.37831054943781" lon="11.165426498173275"><ele>279.0</ele><time>2026-04-04T13:55:07Z</time></trkpt><trkpt lat="43.37821408698458" lon="11.16561654062649"><ele>277.6666666666667</ele><time>2026-04-04T13:55:08Z</time></trkpt><trkpt lat="43.37812438154414" lon="11.165803003642395"><ele>276.33333333333337</ele><time>2026-04-04T13:55:09Z</time></trkpt><trkpt lat="43.37804112491989" lon="11.165972481625698"><ele>275.0</ele><time>2026-04-04T13:55:10Z</time></trkpt><trkpt lat="43.377969499481495" lon="11.166145925876043"><ele>275.0</ele><time>2026-04-04T13:55:11Z</time></trkpt><trkpt lat="43.37793715766438" lon="11.166348176605894"><ele>275.0</ele><time>2026-04-04T13:55:12Z</time></trkpt><trkpt lat="43.37795535042079" lon="11.166572750752204"><ele>275.0</ele><time>2026-04-04T13:55:13Z</time></trkpt><trkpt lat="43.37800617466671" lon="11.166793481663804"><ele>273.0</ele><time>2026-04-04T13:55:14Z</time></trkpt><trkpt lat="43.3781017319395" lon="11.167004079452543"><ele>271.0</ele><time>2026-04-04T13:55:15Z</time></trkpt><trkpt lat="43.378179437415234" lon="11.167219177538176"><ele>269.0</ele><time>2026-04-04T13:55:16Z</time></trkpt><trkpt lat="43.37826055271836" lon="11.167421302895184"><ele>269.0</ele><time>2026-04-04T13:55:17Z</time></trkpt><trkpt lat="43.37834065131767" lon="11.167614353864714"><ele>269.0</ele><time>2026-04-04T13:55:18Z</time></trkpt><trkpt lat="43.378409900765554" lon="11.167791304841321"><ele>269.0</ele><time>2026-04-04T13:55:19Z</time></trkpt><trkpt lat="43.378463720103234" lon="11.167971492398786"><ele>269.0</ele><time>2026-04-04T13:55:20Z</time></trkpt><trkpt lat="43.37848425402709" lon="11.168159669362828"><ele>268.5</ele><time>2026-04-04T13:55:21Z</time></trkpt><trkpt lat="43.378468493626684" lon="11.168356249112763"><ele>268.0</ele><time>2026-04-04T13:55:22Z</time></trkpt><trkpt lat="43.37843944026533" lon="11.168552067195995"><ele>267.5</ele><time>2026-04-04T13:55:23Z</time></trkpt><trkpt lat="43.37842121638296" lon="11.168740848105461"><ele>267.0</ele><time>2026-04-04T13:55:24Z</time></trkpt><trkpt lat="43.37839446422792" lon="11.168917438505995"><ele>267.25</ele><time>2026-04-04T13:55:25Z</time></trkpt><trkpt lat="43.37836859902067" lon="11.169082223314545"><ele>267.5</ele><time>2026-04-04T13:55:26Z</time></trkpt><trkpt lat="43.37834435090656" lon="11.169265148820116"><ele>267.75</ele><time>2026-04-04T13:55:27Z</time></trkpt><trkpt lat="43.378337421150235" lon="11.16945675232505"><ele>268.0</ele><time>2026-04-04T13:55:28Z</time></trkpt><trkpt lat="43.378354632427104" lon="11.169651093494041"><ele>268.0</ele><time>2026-04-04T13:55:29Z</time></trkpt><trkpt lat="43.378393636392566" lon="11.169837495038209"><ele>268.0</ele><time>2026-04-04T13:55:30Z</time></trkpt><trkpt lat="43.37843749710883" lon="11.170026179563672"><ele>268.0</ele><time>2026-04-04T13:55:31Z</time></trkpt><trkpt lat="43.37848683495077" lon="11.17021149057585"><ele>268.0</ele><time>2026-04-04T13:55:32Z</time></trkpt><trkpt lat="43.37853450820763" lon="11.17039517138661"><ele>268.25</ele><time>2026-04-04T13:55:33Z</time></trkpt><trkpt lat="43.378578069043535" lon="11.170577234155738"><ele>268.5</ele><time>2026-04-04T13:55:34Z</time></trkpt><trkpt lat="43.37857733784546" lon="11.1707607255489"><ele>268.75</ele><time>2026-04-04T13:55:35Z</time></trkpt><trkpt lat="43.378556557090924" lon="11.170949993895071"><ele>269.0</ele><time>2026-04-04T13:55:36Z</time></trkpt><trkpt lat="43.37851854697802" lon="11.171157210791543"><ele>268.6666666666667</ele><time>2026-04-04T13:55:37Z</time></trkpt><trkpt lat="43.37849014200244" lon="11.171379749758026"><ele>268.3333333333333</ele><time>2026-04-04T13:55:38Z</time></trkpt><trkpt lat="43.378455332774095" lon="11.171581898655031"><ele>268.0</ele><time>2026-04-04T13:55:39Z</time></trkpt><trkpt lat="43.3784419102618" lon="11.17178266858778"><ele>268.0</ele><time>2026-04-04T13:55:40Z</time></trkpt><trkpt lat="43.37842104928566" lon="11.171966175615184"><ele>268.0</ele><time>2026-04-04T13:55:41Z</time></trkpt><trkpt lat="43.37843706374103" lon="11.172152445022075"><ele>268.0</ele><time>2026-04-04T13:55:42Z</time></trkpt><trkpt lat="43.378420063625626" lon="11.172338984348965"><ele>268.0</ele><time>2026-04-04T13:55:43Z</time></trkpt><trkpt lat="43.37842982426354" lon="11.172542618720975"><ele>268.0</ele><time>2026-04-04T13:55:44Z</time></trkpt><trkpt lat="43.37843551308132" lon="11.172730206722116"><ele>268.0</ele><time>2026-04-04T13:55:45Z</time></trkpt><trkpt lat="43.37846579827818" lon="11.172909855626717"><ele>268.0</ele><time>2026-04-04T13:55:46Z</time></trkpt><trkpt lat="43.37852734815456" lon="11.173078323258858"><ele>268.0</ele><time>2026-04-04T13:55:47Z</time></trkpt><trkpt lat="43.37859954355227" lon="11.173231738640146"><ele>266.75</ele><time>2026-04-04T13:55:48Z</time></trkpt><trkpt lat="43.37866655616265" lon="11.173381212677103"><ele>265.5</ele><time>2026-04-04T13:55:49Z</time></trkpt><trkpt lat="43.37871989754306" lon="11.17354900040392"><ele>264.25</ele><time>2026-04-04T13:55:50Z</time></trkpt><trkpt lat="43.378789045638" lon="11.173711958571522"><ele>263.0</ele><time>2026-04-04T13:55:51Z</time></trkpt><trkpt lat="43.37885613013216" lon="11.173870053537508"><ele>261.75</ele><time>2026-04-04T13:55:52Z</time></trkpt><trkpt lat="43.378921221227344" lon="11.174028576804124"><ele>260.5</ele><time>2026-04-04T13:55:53Z</time></trkpt><trkpt lat="43.37897931943864" lon="11.174185192481191"><ele>259.25</ele><time>2026-04-04T13:55:54Z</time></trkpt><trkpt lat="43.37898545956494" lon="11.174377397121821"><ele>258.0</ele><time>2026-04-04T13:55:55Z</time></trkpt><trkpt lat="43.37896684850021" lon="11.174566296812364"><ele>258.0</ele><time>2026-04-04T13:55:56Z</time></trkpt><trkpt lat="43.37893768526974" lon="11.174760820682348"><ele>258.0</ele><time>2026-04-04T13:55:57Z</time></trkpt><trkpt lat="43.37890640230404" lon="11.17496493601964"><ele>258.0</ele><time>2026-04-04T13:55:58Z</time></trkpt><trkpt lat="43.37887921126059" lon="11.175153355998097"><ele>258.0</ele><time>2026-04-04T13:55:59Z</time></trkpt><trkpt lat="43.37885437201345" lon="11.175325479235168"><ele>258.2</ele><time>2026-04-04T13:56:00Z</time></trkpt><trkpt lat="43.378831929197084" lon="11.175481307221727"><ele>258.4</ele><time>2026-04-04T13:56:01Z</time></trkpt><trkpt lat="43.3788109448478" lon="11.175628735725391"><ele>258.59999999999997</ele><time>2026-04-04T13:56:02Z</time></trkpt><trkpt lat="43.37881700880279" lon="11.175775609575092"><ele>258.8</ele><time>2026-04-04T13:56:03Z</time></trkpt><trkpt lat="43.37881869487857" lon="11.175915563019327"><ele>259.0</ele><time>2026-04-04T13:56:04Z</time></trkpt><trkpt lat="43.3788382256892" lon="11.176046675952488"><ele>258.66666666666663</ele><time>2026-04-04T13:56:05Z</time></trkpt><trkpt lat="43.378870373748725" lon="11.176157856345494"><ele>258.3333333333333</ele><time>2026-04-04T13:56:06Z</time></trkpt><trkpt lat="43.37890603213743" lon="11.176254180954"><ele>258.0</ele><time>2026-04-04T13:56:07Z</time></trkpt><trkpt lat="43.37893594703092" lon="11.176341987834249"><ele>257.6666666666667</ele><time>2026-04-04T13:56:08Z</time></trkpt><trkpt lat="43.37896517192401" lon="11.176424457279959"><ele>257.33333333333337</ele><time>2026-04-04T13:56:09Z</time></trkpt><trkpt lat="43.37899474215996" lon="11.17651296471457"><ele>257.0</ele><time>2026-04-04T13:56:10Z</time></trkpt><trkpt lat="43.378986990361796" lon="11.176624848041593"><ele>257.0</ele><time>2026-04-04T13:56:11Z</time></trkpt><trkpt lat="43.37903867503155" lon="11.176726506232374"><ele>257.0</ele><time>2026-04-04T13:56:12Z</time></trkpt><trkpt lat="43.3790932860151" lon="11.176826698747309"><ele>257.0</ele><time>2026-04-04T13:56:13Z</time></trkpt><trkpt lat="43.37915471507458" lon="11.176930469774556"><ele>257.0</ele><time>2026-04-04T13:56:14Z</time></trkpt><trkpt lat="43.379230122641225" lon="11.177031088364464"><ele>257.0</ele><time>2026-04-04T13:56:15Z</time></trkpt><trkpt lat="43.379256053488604" lon="11.177150397968132"><ele>257.0</ele><time>2026-04-04T13:56:16Z</time></trkpt><trkpt lat="43.379268549497446" lon="11.177279722876193"><ele>257.0</ele><time>2026-04-04T13:56:18Z</time></trkpt><trkpt lat="43.37924279386316" lon="11.177387909010129"><ele>257.0</ele><time>2026-04-04T13:56:22Z</time></trkpt><trkpt lat="43.3792415653274" lon="11.177486737501834"><ele>257.0</ele><time>2026-04-04T13:56:25Z</time></trkpt><trkpt lat="43.37924042309675" lon="11.17757862308377"><ele>257.0</ele><time>2026-04-04T13:56:28Z</time></trkpt><trkpt lat="43.37944736333228" lon="11.177418162351026"><ele>258.0</ele><time>2026-04-04T13:56:29Z</time></trkpt><trkpt lat="43.3793863624694" lon="11.17738684879118"><ele>259.0</ele><time>2026-04-04T13:56:33Z</time></trkpt><trkpt lat="43.37930793240434" lon="11.177358039103778"><ele>260.0</ele><time>2026-04-04T13:56:37Z</time></trkpt><trkpt lat="43.37921866521838" lon="11.177447729606278"><ele>261.0</ele><time>2026-04-04T13:56:44Z</time></trkpt><trkpt lat="43.379196049974034" lon="11.177559891980142"><ele>262.0</ele><time>2026-04-04T13:56:46Z</time></trkpt><trkpt lat="43.379174372082815" lon="11.177648688722481"><ele>263.0</ele><time>2026-04-04T13:56:49Z</time></trkpt><trkpt lat="43.37921114828642" lon="11.17752814546222"><ele>263.0</ele><time>2026-04-04T13:57:36Z</time></trkpt><trkpt lat="43.379230500917714" lon="11.177430480805334"><ele>263.0</ele><time>2026-04-04T13:57:39Z</time></trkpt><trkpt lat="43.37924505191726" lon="11.177335445695546"><ele>263.0</ele><time>2026-04-04T13:57:42Z</time></trkpt><trkpt lat="43.37924491501831" lon="11.177217274374811"><ele>263.0</ele><time>2026-04-04T13:57:45Z</time></trkpt><trkpt lat="43.37924476156906" lon="11.17709050987694"><ele>263.0</ele><time>2026-04-04T13:57:47Z</time></trkpt><trkpt lat="43.37919359467588" lon="11.176984865993196"><ele>263.0</ele><time>2026-04-04T13:57:48Z</time></trkpt><trkpt lat="43.379139505374205" lon="11.176897381470726"><ele>261.8</ele><time>2026-04-04T13:57:49Z</time></trkpt><trkpt lat="43.37909842466823" lon="11.176823188879391"><ele>260.6</ele><time>2026-04-04T13:57:50Z</time></trkpt><trkpt lat="43.37902941041483" lon="11.176692700658565"><ele>259.4</ele><time>2026-04-04T13:57:52Z</time></trkpt><trkpt lat="43.378978245464225" lon="11.176615013257033"><ele>258.2</ele><time>2026-04-04T13:57:54Z</time></trkpt><trkpt lat="43.37910574581574" lon="11.176514910510214"><ele>257.0</ele><time>2026-04-04T13:57:56Z</time></trkpt><trkpt lat="43.379170652853894" lon="11.176541842376698"><ele>257.0</ele><time>2026-04-04T13:57:57Z</time></trkpt><trkpt lat="43.37923740742088" lon="11.17661932714625"><ele>257.0</ele><time>2026-04-04T13:57:58Z</time></trkpt><trkpt lat="43.37932065110414" lon="11.176724644319709"><ele>257.0</ele><time>2026-04-04T13:57:59Z</time></trkpt><trkpt lat="43.37941963073741" lon="11.176826664686931"><ele>257.0</ele><time>2026-04-04T13:58:00Z</time></trkpt><trkpt lat="43.3795110246429" lon="11.176928816003912"><ele>257.0</ele><time>2026-04-04T13:58:01Z</time></trkpt><trkpt lat="43.379618792220015" lon="11.177057382247126"><ele>255.75</ele><time>2026-04-04T13:58:02Z</time></trkpt><trkpt lat="43.37972389777238" lon="11.177183313393522"><ele>254.5</ele><time>2026-04-04T13:58:03Z</time></trkpt><trkpt lat="43.379821877244346" lon="11.177302198581746"><ele>253.25</ele><time>2026-04-04T13:58:04Z</time></trkpt><trkpt lat="43.37992115423789" lon="11.17743431349399"><ele>252.0</ele><time>2026-04-04T13:58:05Z</time></trkpt><trkpt lat="43.38001074090996" lon="11.17755760589139"><ele>252.0</ele><time>2026-04-04T13:58:06Z</time></trkpt><trkpt lat="43.380099094162475" lon="11.177671686837677"><ele>252.0</ele><time>2026-04-04T13:58:07Z</time></trkpt><trkpt lat="43.380168174143215" lon="11.177799488275749"><ele>252.0</ele><time>2026-04-04T13:58:08Z</time></trkpt><trkpt lat="43.38024809122889" lon="11.17790545892004"><ele>252.0</ele><time>2026-04-04T13:58:09Z</time></trkpt><trkpt lat="43.380342612217845" lon="11.178003726071601"><ele>252.0</ele><time>2026-04-04T13:58:10Z</time></trkpt><trkpt lat="43.38041101365693" lon="11.178127839012545"><ele>252.0</ele><time>2026-04-04T13:58:11Z</time></trkpt><trkpt lat="43.380515922532155" lon="11.17826304863991"><ele>252.0</ele><time>2026-04-04T13:58:12Z</time></trkpt><trkpt lat="43.38063631929801" lon="11.178409757135778"><ele>252.0</ele><time>2026-04-04T13:58:13Z</time></trkpt><trkpt lat="43.38078362723439" lon="11.178545688749532"><ele>250.66666666666669</ele><time>2026-04-04T13:58:14Z</time></trkpt><trkpt lat="43.38092391506868" lon="11.178692173569152"><ele>249.33333333333334</ele><time>2026-04-04T13:58:15Z</time></trkpt><trkpt lat="43.38106724487152" lon="11.178844659622651"><ele>248.0</ele><time>2026-04-04T13:58:16Z</time></trkpt><trkpt lat="43.38122693911714" lon="11.178997589676506"><ele>247.0</ele><time>2026-04-04T13:58:17Z</time></trkpt><trkpt lat="43.38137271723473" lon="11.179134237603652"><ele>246.0</ele><time>2026-04-04T13:58:18Z</time></trkpt><trkpt lat="43.381520232061035" lon="11.179272219970256"><ele>245.0</ele><time>2026-04-04T13:58:19Z</time></trkpt><trkpt lat="43.38167026110415" lon="11.179412560294603"><ele>245.0</ele><time>2026-04-04T13:58:20Z</time></trkpt><trkpt lat="43.381810827451304" lon="11.179543790572799"><ele>245.0</ele><time>2026-04-04T13:58:21Z</time></trkpt><trkpt lat="43.381938966411724" lon="11.179668252123012"><ele>245.0</ele><time>2026-04-04T13:58:22Z</time></trkpt><trkpt lat="43.38205723479377" lon="11.179804792484607"><ele>245.66666666666669</ele><time>2026-04-04T13:58:23Z</time></trkpt><trkpt lat="43.382173541255945" lon="11.179957555292587"><ele>246.33333333333331</ele><time>2026-04-04T13:58:24Z</time></trkpt><trkpt lat="43.38228438490773" lon="11.18013183730602"><ele>247.0</ele><time>2026-04-04T13:58:25Z</time></trkpt><trkpt lat="43.3823970796593" lon="11.18032573904969"><ele>245.33333333333331</ele><time>2026-04-04T13:58:26Z</time></trkpt><trkpt lat="43.382513040672485" lon="11.180525612001388"><ele>243.66666666666669</ele><time>2026-04-04T13:58:27Z</time></trkpt><trkpt lat="43.38263453263646" lon="11.18073586115076"><ele>242.0</ele><time>2026-04-04T13:58:28Z</time></trkpt><trkpt lat="43.382752906977174" lon="11.18094125719862"><ele>242.0</ele><time>2026-04-04T13:58:29Z</time></trkpt><trkpt lat="43.38285917808028" lon="11.181125652462296"><ele>242.0</ele><time>2026-04-04T13:58:30Z</time></trkpt><trkpt lat="43.382956716284276" lon="11.181301716970266"><ele>242.0</ele><time>2026-04-04T13:58:31Z</time></trkpt><trkpt lat="43.3830363922444" lon="11.181481119886627"><ele>240.0</ele><time>2026-04-04T13:58:32Z</time></trkpt><trkpt lat="43.383095192933716" lon="11.181669679146173"><ele>238.0</ele><time>2026-04-04T13:58:33Z</time></trkpt><trkpt lat="43.38313838593975" lon="11.181886314025382"><ele>236.0</ele><time>2026-04-04T13:58:34Z</time></trkpt><trkpt lat="43.38317502317603" lon="11.182118550901082"><ele>236.66666666666669</ele><time>2026-04-04T13:58:35Z</time></trkpt><trkpt lat="43.383209343037954" lon="11.182357636761804"><ele>237.33333333333331</ele><time>2026-04-04T13:58:36Z</time></trkpt><trkpt lat="43.38324251493552" lon="11.182590332962219"><ele>238.0</ele><time>2026-04-04T13:58:37Z</time></trkpt><trkpt lat="43.38329192754044" lon="11.182800355137921"><ele>238.0</ele><time>2026-04-04T13:58:38Z</time></trkpt><trkpt lat="43.38333216711527" lon="11.183013755779292"><ele>238.0</ele><time>2026-04-04T13:58:39Z</time></trkpt><trkpt lat="43.38340596731242" lon="11.18321233440856"><ele>238.0</ele><time>2026-04-04T13:58:40Z</time></trkpt><trkpt lat="43.383499064706704" lon="11.183400373361884"><ele>238.0</ele><time>2026-04-04T13:58:41Z</time></trkpt><trkpt lat="43.38359979003789" lon="11.18357921616022"><ele>238.0</ele><time>2026-04-04T13:58:42Z</time></trkpt><trkpt lat="43.383684116594914" lon="11.183781698738093"><ele>238.0</ele><time>2026-04-04T13:58:43Z</time></trkpt><trkpt lat="43.38377684967881" lon="11.183962721857574"><ele>236.33333333333331</ele><time>2026-04-04T13:58:44Z</time></trkpt><trkpt lat="43.38387139054366" lon="11.184147818110155"><ele>234.66666666666669</ele><time>2026-04-04T13:58:45Z</time></trkpt><trkpt lat="43.383967257317074" lon="11.184306525037346"><ele>233.0</ele><time>2026-04-04T13:58:46Z</time></trkpt><trkpt lat="43.38405174748596" lon="11.184472452300037"><ele>233.0</ele><time>2026-04-04T13:58:47Z</time></trkpt><trkpt lat="43.38413370212881" lon="11.18462439601117"><ele>233.0</ele><time>2026-04-04T13:58:48Z</time></trkpt><trkpt lat="43.38419765705413" lon="11.184785092260636"><ele>233.0</ele><time>2026-04-04T13:58:49Z</time></trkpt><trkpt lat="43.3842734910504" lon="11.184926254162022"><ele>233.0</ele><time>2026-04-04T13:58:50Z</time></trkpt><trkpt lat="43.3843443067845" lon="11.185055061959082"><ele>233.25</ele><time>2026-04-04T13:58:51Z</time></trkpt><trkpt lat="43.38441454147821" lon="11.185182245565832"><ele>233.5</ele><time>2026-04-04T13:58:52Z</time></trkpt><trkpt lat="43.384492310776444" lon="11.185320436798902"><ele>233.75</ele><time>2026-04-04T13:58:53Z</time></trkpt><trkpt lat="43.38458914394224" lon="11.185479605159575"><ele>234.0</ele><time>2026-04-04T13:58:54Z</time></trkpt><trkpt lat="43.384693665830966" lon="11.185645509656208"><ele>234.0</ele><time>2026-04-04T13:58:55Z</time></trkpt><trkpt lat="43.38480250305095" lon="11.185823982289556"><ele>234.0</ele><time>2026-04-04T13:58:56Z</time></trkpt><trkpt lat="43.384924760010186" lon="11.185992924986834"><ele>234.0</ele><time>2026-04-04T13:58:57Z</time></trkpt><trkpt lat="43.38501214926251" lon="11.186166306992964"><ele>234.0</ele><time>2026-04-04T13:58:58Z</time></trkpt><trkpt lat="43.3851069990248" lon="11.186323994237386"><ele>234.0</ele><time>2026-04-04T13:58:59Z</time></trkpt><trkpt lat="43.385197322657575" lon="11.186488083272554"><ele>234.0</ele><time>2026-04-04T13:59:00Z</time></trkpt><trkpt lat="43.38527507424785" lon="11.18667454652365"><ele>234.0</ele><time>2026-04-04T13:59:01Z</time></trkpt><trkpt lat="43.385329310086625" lon="11.186898973145205"><ele>234.0</ele><time>2026-04-04T13:59:02Z</time></trkpt><trkpt lat="43.38536903115927" lon="11.187139168254031"><ele>234.0</ele><time>2026-04-04T13:59:03Z</time></trkpt><trkpt lat="43.385428232437164" lon="11.187390261038063"><ele>233.66666666666669</ele><time>2026-04-04T13:59:04Z</time></trkpt><trkpt lat="43.38546963670295" lon="11.187633123976395"><ele>233.33333333333334</ele><time>2026-04-04T13:59:05Z</time></trkpt><trkpt lat="43.3854937696775" lon="11.187875717530792"><ele>233.0</ele><time>2026-04-04T13:59:06Z</time></trkpt><trkpt lat="43.38553259666762" lon="11.18810180304979"><ele>231.33333333333334</ele><time>2026-04-04T13:59:07Z</time></trkpt><trkpt lat="43.3855714183446" lon="11.188327857424442"><ele>229.66666666666669</ele><time>2026-04-04T13:59:08Z</time></trkpt><trkpt lat="43.38560422133752" lon="11.18854630929613"><ele>228.0</ele><time>2026-04-04T13:59:09Z</time></trkpt><trkpt lat="43.38561774720984" lon="11.188771734821765"><ele>228.0</ele><time>2026-04-04T13:59:10Z</time></trkpt><trkpt lat="43.385620548971225" lon="11.18899781754458"><ele>228.0</ele><time>2026-04-04T13:59:11Z</time></trkpt><trkpt lat="43.385619868082514" lon="11.189226135506699"><ele>228.0</ele><time>2026-04-04T13:59:12Z</time></trkpt><trkpt lat="43.385631185078246" lon="11.189440399239482"><ele>227.75</ele><time>2026-04-04T13:59:13Z</time></trkpt><trkpt lat="43.38563536228112" lon="11.189628565163085"><ele>227.5</ele><time>2026-04-04T13:59:14Z</time></trkpt><trkpt lat="43.38566033400002" lon="11.189792082748317"><ele>227.25</ele><time>2026-04-04T13:59:15Z</time></trkpt><trkpt lat="43.38567571221015" lon="11.18995123125072"><ele>227.0</ele><time>2026-04-04T13:59:16Z</time></trkpt><trkpt lat="43.385712630861505" lon="11.190092326675598"><ele>227.00000000000003</ele><time>2026-04-04T13:59:17Z</time></trkpt><trkpt lat="43.38575170134564" lon="11.190212648636397"><ele>227.0</ele><time>2026-04-04T13:59:18Z</time></trkpt><trkpt lat="43.385805004654216" lon="11.190309113853976"><ele>227.0</ele><time>2026-04-04T13:59:19Z</time></trkpt><trkpt lat="43.385826463310266" lon="11.190411893401848"><ele>227.0</ele><time>2026-04-04T13:59:20Z</time></trkpt><trkpt lat="43.385779541321575" lon="11.190509839339889"><ele>227.00000000000003</ele><time>2026-04-04T13:59:21Z</time></trkpt><trkpt lat="43.385761899868854" lon="11.190623455892503"><ele>227.0</ele><time>2026-04-04T13:59:22Z</time></trkpt><trkpt lat="43.385744455625826" lon="11.19076016370725"><ele>226.39999999999998</ele><time>2026-04-04T13:59:23Z</time></trkpt><trkpt lat="43.38573895083415" lon="11.190927595439845"><ele>225.79999999999998</ele><time>2026-04-04T13:59:24Z</time></trkpt><trkpt lat="43.3857054454743" lon="11.191101003411099"><ele>225.2</ele><time>2026-04-04T13:59:25Z</time></trkpt><trkpt lat="43.38569339612611" lon="11.191239912448282"><ele>224.6</ele><time>2026-04-04T13:59:26Z</time></trkpt><trkpt lat="43.38570220789201" lon="11.191357230241765"><ele>224.0</ele><time>2026-04-04T13:59:27Z</time></trkpt><trkpt lat="43.385700553073086" lon="11.191491692182002"><ele>224.0</ele><time>2026-04-04T13:59:29Z</time></trkpt><trkpt lat="43.38573204502389" lon="11.19162674748648"><ele>223.99999999999997</ele><time>2026-04-04T13:59:31Z</time></trkpt><trkpt lat="43.38577716953767" lon="11.19173766185046"><ele>223.99999999999997</ele><time>2026-04-04T13:59:32Z</time></trkpt><trkpt lat="43.3858223528501" lon="11.191853083580593"><ele>224.0</ele><time>2026-04-04T13:59:33Z</time></trkpt><trkpt lat="43.38585930464523" lon="11.191957346139851"><ele>224.0</ele><time>2026-04-04T13:59:34Z</time></trkpt><trkpt lat="43.38588903446501" lon="11.192059457469954"><ele>224.0</ele><time>2026-04-04T13:59:35Z</time></trkpt><trkpt lat="43.38592077463856" lon="11.192165143387998"><ele>223.99999999999997</ele><time>2026-04-04T13:59:36Z</time></trkpt><trkpt lat="43.38594380552568" lon="11.192254807452056"><ele>223.99999999999997</ele><time>2026-04-04T13:59:37Z</time></trkpt><trkpt lat="43.38593308695715" lon="11.192400667577752"><ele>224.0</ele><time>2026-04-04T13:59:39Z</time></trkpt><trkpt lat="43.3859031814138" lon="11.192549892990689"><ele>224.0</ele><time>2026-04-04T13:59:41Z</time></trkpt><trkpt lat="43.38586210256135" lon="11.192645325664037"><ele>224.0</ele><time>2026-04-04T13:59:42Z</time></trkpt><trkpt lat="43.385814172835275" lon="11.192759006958575"><ele>223.99999999999997</ele><time>2026-04-04T13:59:43Z</time></trkpt><trkpt lat="43.38574556845186" lon="11.192871205383629"><ele>223.99999999999997</ele><time>2026-04-04T13:59:44Z</time></trkpt><trkpt lat="43.38569504559882" lon="11.19301080747021"><ele>224.0</ele><time>2026-04-04T13:59:45Z</time></trkpt><trkpt lat="43.38565106808077" lon="11.193139247747686"><ele>224.0</ele><time>2026-04-04T13:59:46Z</time></trkpt><trkpt lat="43.38559879046643" lon="11.193246855021338"><ele>223.50000000000003</ele><time>2026-04-04T13:59:47Z</time></trkpt><trkpt lat="43.385539777835035" lon="11.193334502879004"><ele>223.0</ele><time>2026-04-04T13:59:48Z</time></trkpt><trkpt lat="43.38547684060915" lon="11.193418943209593"><ele>222.5</ele><time>2026-04-04T13:59:49Z</time></trkpt><trkpt lat="43.38542168658461" lon="11.193504055627463"><ele>222.0</ele><time>2026-04-04T13:59:50Z</time></trkpt><trkpt lat="43.38536218491053" lon="11.193571321439306"><ele>221.50000000000003</ele><time>2026-04-04T13:59:51Z</time></trkpt><trkpt lat="43.3852973781899" lon="11.193641305372372"><ele>221.0</ele><time>2026-04-04T13:59:52Z</time></trkpt><trkpt lat="43.385230838095175" lon="11.193702866672288"><ele>223.50000000000003</ele><time>2026-04-04T13:59:53Z</time></trkpt><trkpt lat="43.38515902461036" lon="11.193778503089586"><ele>226.0</ele><time>2026-04-04T13:59:54Z</time></trkpt><trkpt lat="43.38508521595779" lon="11.19383874982125"><ele>228.5</ele><time>2026-04-04T13:59:55Z</time></trkpt><trkpt lat="43.3850002165418" lon="11.193840556310763"><ele>231.0</ele><time>2026-04-04T13:59:56Z</time></trkpt><trkpt lat="43.384917210649846" lon="11.193831702585463"><ele>233.50000000000003</ele><time>2026-04-04T13:59:57Z</time></trkpt><trkpt lat="43.384829345916586" lon="11.193843396440627"><ele>236.0</ele><time>2026-04-04T13:59:58Z</time></trkpt><trkpt lat="43.38473709441445" lon="11.19381504194511"><ele>237.0</ele><time>2026-04-04T13:59:59Z</time></trkpt><trkpt lat="43.3846333955779" lon="11.193809409441792"><ele>238.00000000000003</ele><time>2026-04-04T14:00:00Z</time></trkpt><trkpt lat="43.384525022759185" lon="11.193795369584588"><ele>239.00000000000003</ele><time>2026-04-04T14:00:01Z</time></trkpt><trkpt lat="43.38442316601968" lon="11.193785668267317"><ele>240.0</ele><time>2026-04-04T14:00:02Z</time></trkpt><trkpt lat="43.38431382281146" lon="11.193747526655244"><ele>241.0</ele><time>2026-04-04T14:00:03Z</time></trkpt><trkpt lat="43.384198540192614" lon="11.193726099465852"><ele>241.0</ele><time>2026-04-04T14:00:04Z</time></trkpt><trkpt lat="43.38407644897942" lon="11.193702102244552"><ele>241.0</ele><time>2026-04-04T14:00:05Z</time></trkpt><trkpt lat="43.38395125258848" lon="11.193678701398532"><ele>241.0</ele><time>2026-04-04T14:00:06Z</time></trkpt><trkpt lat="43.38382580697112" lon="11.193662244302184"><ele>241.0</ele><time>2026-04-04T14:00:07Z</time></trkpt><trkpt lat="43.383711692659915" lon="11.193653657939905"><ele>242.75</ele><time>2026-04-04T14:00:08Z</time></trkpt><trkpt lat="43.38359263062684" lon="11.193677853111211"><ele>244.5</ele><time>2026-04-04T14:00:09Z</time></trkpt><trkpt lat="43.38348936562662" lon="11.193748567078405"><ele>246.25</ele><time>2026-04-04T14:00:10Z</time></trkpt><trkpt lat="43.383397659067995" lon="11.193837321755243"><ele>248.0</ele><time>2026-04-04T14:00:11Z</time></trkpt><trkpt lat="43.3833133211644" lon="11.193938406854976"><ele>249.0</ele><time>2026-04-04T14:00:12Z</time></trkpt><trkpt lat="43.38323868186425" lon="11.194048171932083"><ele>250.0</ele><time>2026-04-04T14:00:13Z</time></trkpt><trkpt lat="43.383173316540926" lon="11.194190820062621"><ele>251.0</ele><time>2026-04-04T14:00:14Z</time></trkpt><trkpt lat="43.38312202853825" lon="11.194342179481664"><ele>252.0</ele><time>2026-04-04T14:00:15Z</time></trkpt><trkpt lat="43.38306855302253" lon="11.194502769015104"><ele>253.0</ele><time>2026-04-04T14:00:16Z</time></trkpt><trkpt lat="43.383010730795135" lon="11.194664395696915"><ele>254.0</ele><time>2026-04-04T14:00:17Z</time></trkpt><trkpt lat="43.3829596230723" lon="11.194808453302045"><ele>255.0</ele><time>2026-04-04T14:00:18Z</time></trkpt><trkpt lat="43.38291379368675" lon="11.194936898237916"><ele>256.0</ele><time>2026-04-04T14:00:19Z</time></trkpt><trkpt lat="43.38286297534489" lon="11.195054988182711"><ele>257.2</ele><time>2026-04-04T14:00:20Z</time></trkpt><trkpt lat="43.38281993724775" lon="11.19517700347863"><ele>258.40000000000003</ele><time>2026-04-04T14:00:21Z</time></trkpt><trkpt lat="43.38276524552258" lon="11.195298449417022"><ele>259.6</ele><time>2026-04-04T14:00:22Z</time></trkpt><trkpt lat="43.38270890071049" lon="11.195414042233436"><ele>260.8</ele><time>2026-04-04T14:00:23Z</time></trkpt><trkpt lat="43.382634952670315" lon="11.195520900983556"><ele>262.0</ele><time>2026-04-04T14:00:24Z</time></trkpt><trkpt lat="43.382543624823526" lon="11.195614708183234"><ele>262.75</ele><time>2026-04-04T14:00:25Z</time></trkpt><trkpt lat="43.382450507533605" lon="11.195707050731937"><ele>263.5</ele><time>2026-04-04T14:00:26Z</time></trkpt><trkpt lat="43.38236030099796" lon="11.195811824726812"><ele>264.25</ele><time>2026-04-04T14:00:27Z</time></trkpt><trkpt lat="43.3822674919177" lon="11.195921708426553"><ele>265.0</ele><time>2026-04-04T14:00:28Z</time></trkpt><trkpt lat="43.382160464116765" lon="11.196014868832531"><ele>266.75</ele><time>2026-04-04T14:00:29Z</time></trkpt><trkpt lat="43.38207131868481" lon="11.196136539043477"><ele>268.5</ele><time>2026-04-04T14:00:30Z</time></trkpt><trkpt lat="43.381961559602566" lon="11.196227104657492"><ele>270.25</ele><time>2026-04-04T14:00:31Z</time></trkpt><trkpt lat="43.38186617635159" lon="11.196328880834663"><ele>272.0</ele><time>2026-04-04T14:00:32Z</time></trkpt><trkpt lat="43.38176652197269" lon="11.196435214328643"><ele>273.0</ele><time>2026-04-04T14:00:33Z</time></trkpt><trkpt lat="43.3816641685032" lon="11.196545111089852"><ele>274.0</ele><time>2026-04-04T14:00:34Z</time></trkpt><trkpt lat="43.38155959484796" lon="11.196658659081008"><ele>275.0</ele><time>2026-04-04T14:00:35Z</time></trkpt><trkpt lat="43.38146011065359" lon="11.196766680804314"><ele>276.0</ele><time>2026-04-04T14:00:36Z</time></trkpt><trkpt lat="43.38135981930954" lon="11.196875977375806"><ele>278.25</ele><time>2026-04-04T14:00:37Z</time></trkpt><trkpt lat="43.38126533908676" lon="11.196981715541561"><ele>280.5</ele><time>2026-04-04T14:00:38Z</time></trkpt><trkpt lat="43.381171515136465" lon="11.197094113444031"><ele>282.75</ele><time>2026-04-04T14:00:39Z</time></trkpt><trkpt lat="43.381095105163425" lon="11.197222199986053"><ele>285.0</ele><time>2026-04-04T14:00:40Z</time></trkpt><trkpt lat="43.38102625378566" lon="11.197342953340534"><ele>286.25</ele><time>2026-04-04T14:00:41Z</time></trkpt><trkpt lat="43.380988588181" lon="11.197488773762892"><ele>287.5</ele><time>2026-04-04T14:00:42Z</time></trkpt><trkpt lat="43.38096557404478" lon="11.197650661809055"><ele>288.75</ele><time>2026-04-04T14:00:43Z</time></trkpt><trkpt lat="43.38093195242037" lon="11.197803922381036"><ele>290.0</ele><time>2026-04-04T14:00:44Z</time></trkpt><trkpt lat="43.380878267587256" lon="11.197950451262026"><ele>290.0</ele><time>2026-04-04T14:00:45Z</time></trkpt><trkpt lat="43.380843007958234" lon="11.198100783472116"><ele>290.0</ele><time>2026-04-04T14:00:46Z</time></trkpt><trkpt lat="43.38080884296586" lon="11.1982337221936"><ele>290.0</ele><time>2026-04-04T14:00:47Z</time></trkpt><trkpt lat="43.38078619847051" lon="11.198350469591668"><ele>290.0</ele><time>2026-04-04T14:00:48Z</time></trkpt><trkpt lat="43.38072632209034" lon="11.19845751275128"><ele>290.0</ele><time>2026-04-04T14:00:49Z</time></trkpt><trkpt lat="43.380672004914636" lon="11.198578015261015"><ele>290.6</ele><time>2026-04-04T14:00:50Z</time></trkpt><trkpt lat="43.380635661521005" lon="11.198718526890138"><ele>291.2</ele><time>2026-04-04T14:00:51Z</time></trkpt><trkpt lat="43.380613972548915" lon="11.198870986394933"><ele>291.8</ele><time>2026-04-04T14:00:52Z</time></trkpt><trkpt lat="43.380599924258846" lon="11.199015227643129"><ele>292.4</ele><time>2026-04-04T14:00:53Z</time></trkpt><trkpt lat="43.3805671869224" lon="11.199154338151237"><ele>293.0</ele><time>2026-04-04T14:00:54Z</time></trkpt><trkpt lat="43.380517546774854" lon="11.199266967282712"><ele>298.4</ele><time>2026-04-04T14:00:55Z</time></trkpt><trkpt lat="43.3804499157872" lon="11.199372562337473"><ele>303.8</ele><time>2026-04-04T14:00:56Z</time></trkpt><trkpt lat="43.38037957239073" lon="11.199488987880956"><ele>309.2</ele><time>2026-04-04T14:00:57Z</time></trkpt><trkpt lat="43.38031445354224" lon="11.199615911758507"><ele>314.6</ele><time>2026-04-04T14:00:58Z</time></trkpt><trkpt lat="43.380259738635765" lon="11.199745075910641"><ele>320.0</ele><time>2026-04-04T14:00:59Z</time></trkpt><trkpt lat="43.38020715095841" lon="11.199882242885034"><ele>320.75</ele><time>2026-04-04T14:01:00Z</time></trkpt><trkpt lat="43.380162310367695" lon="11.200026197554573"><ele>321.5</ele><time>2026-04-04T14:01:01Z</time></trkpt><trkpt lat="43.38011877923919" lon="11.200174931382625"><ele>322.25</ele><time>2026-04-04T14:01:02Z</time></trkpt><trkpt lat="43.38007907036045" lon="11.200332424650128"><ele>323.0</ele><time>2026-04-04T14:01:03Z</time></trkpt><trkpt lat="43.380039246053514" lon="11.200499605468563"><ele>323.0</ele><time>2026-04-04T14:01:04Z</time></trkpt><trkpt lat="43.38000915677216" lon="11.200661628881338"><ele>323.0</ele><time>2026-04-04T14:01:05Z</time></trkpt><trkpt lat="43.379983975405175" lon="11.200800352071365"><ele>323.0</ele><time>2026-04-04T14:01:06Z</time></trkpt><trkpt lat="43.37995546769146" lon="11.200952530382105"><ele>323.0</ele><time>2026-04-04T14:01:07Z</time></trkpt><trkpt lat="43.379924651568075" lon="11.201105634728671"><ele>322.59999999999997</ele><time>2026-04-04T14:01:08Z</time></trkpt><trkpt lat="43.379887057210276" lon="11.201252663542455"><ele>322.2</ele><time>2026-04-04T14:01:09Z</time></trkpt><trkpt lat="43.37982628547319" lon="11.201369847314302"><ele>321.8</ele><time>2026-04-04T14:01:10Z</time></trkpt><trkpt lat="43.379774585125304" lon="11.201476507720706"><ele>321.4</ele><time>2026-04-04T14:01:11Z</time></trkpt><trkpt lat="43.37972411723279" lon="11.201565369531895"><ele>321.0</ele><time>2026-04-04T14:01:12Z</time></trkpt><trkpt lat="43.37967117990085" lon="11.201645598687037"><ele>323.6</ele><time>2026-04-04T14:01:13Z</time></trkpt><trkpt lat="43.379611094603725" lon="11.20172262950631"><ele>326.20000000000005</ele><time>2026-04-04T14:01:14Z</time></trkpt><trkpt lat="43.379541714224466" lon="11.201797009989441"><ele>328.79999999999995</ele><time>2026-04-04T14:01:15Z</time></trkpt><trkpt lat="43.37946536974954" lon="11.201864720148029"><ele>331.4</ele><time>2026-04-04T14:01:16Z</time></trkpt><trkpt lat="43.37937813407298" lon="11.20192964345135"><ele>334.0</ele><time>2026-04-04T14:01:17Z</time></trkpt><trkpt lat="43.37928201904187" lon="11.20199250363746"><ele>334.0</ele><time>2026-04-04T14:01:18Z</time></trkpt><trkpt lat="43.37917506084425" lon="11.202055540365777"><ele>334.0</ele><time>2026-04-04T14:01:19Z</time></trkpt><trkpt lat="43.37906064891628" lon="11.202116641754268"><ele>334.0</ele><time>2026-04-04T14:01:20Z</time></trkpt><trkpt lat="43.37894210914428" lon="11.20217515463507"><ele>334.0</ele><time>2026-04-04T14:01:21Z</time></trkpt><trkpt lat="43.37882561027488" lon="11.202230117903634"><ele>334.75</ele><time>2026-04-04T14:01:22Z</time></trkpt><trkpt lat="43.37870412128575" lon="11.202284786012473"><ele>335.5</ele><time>2026-04-04T14:01:23Z</time></trkpt><trkpt lat="43.37859300264805" lon="11.20233478763578"><ele>336.25</ele><time>2026-04-04T14:01:24Z</time></trkpt><trkpt lat="43.37848472374495" lon="11.202388068235656"><ele>337.0</ele><time>2026-04-04T14:01:25Z</time></trkpt><trkpt lat="43.37837695718276" lon="11.202466298705684"><ele>337.0</ele><time>2026-04-04T14:01:26Z</time></trkpt><trkpt lat="43.3782614901684" lon="11.202528622672313"><ele>337.0</ele><time>2026-04-04T14:01:27Z</time></trkpt><trkpt lat="43.37814693131412" lon="11.202616410631919"><ele>337.0</ele><time>2026-04-04T14:01:28Z</time></trkpt><trkpt lat="43.378030125126756" lon="11.202698959585744"><ele>337.0</ele><time>2026-04-04T14:01:29Z</time></trkpt><trkpt lat="43.37791842187075" lon="11.202803243956893"><ele>339.16666666666663</ele><time>2026-04-04T14:01:30Z</time></trkpt><trkpt lat="43.377827708934035" lon="11.202907957498333"><ele>341.3333333333333</ele><time>2026-04-04T14:01:31Z</time></trkpt><trkpt lat="43.377739868404156" lon="11.202981608587164"><ele>343.5</ele><time>2026-04-04T14:01:32Z</time></trkpt><trkpt lat="43.37768823696714" lon="11.203065852629633"><ele>345.6666666666667</ele><time>2026-04-04T14:01:33Z</time></trkpt><trkpt lat="43.377669301434" lon="11.203161236452527"><ele>347.83333333333337</ele><time>2026-04-04T14:01:34Z</time></trkpt><trkpt lat="43.37767371135612" lon="11.2032481019925"><ele>350.0</ele><time>2026-04-04T14:01:35Z</time></trkpt><trkpt lat="43.377644877557785" lon="11.203339097285552"><ele>350.0</ele><time>2026-04-04T14:01:36Z</time></trkpt><trkpt lat="43.37763135673423" lon="11.203463954348729"><ele>350.0</ele><time>2026-04-04T14:01:37Z</time></trkpt><trkpt lat="43.37761703084272" lon="11.20359954968148"><ele>350.0</ele><time>2026-04-04T14:01:38Z</time></trkpt><trkpt lat="43.37760310285777" lon="11.203738904848501"><ele>350.0</ele><time>2026-04-04T14:01:39Z</time></trkpt><trkpt lat="43.37758783548278" lon="11.203891661100092"><ele>350.0</ele><time>2026-04-04T14:01:40Z</time></trkpt><trkpt lat="43.37756765580793" lon="11.204050218920747"><ele>350.25</ele><time>2026-04-04T14:01:41Z</time></trkpt><trkpt lat="43.377536283147926" lon="11.204219023772632"><ele>350.5</ele><time>2026-04-04T14:01:42Z</time></trkpt><trkpt lat="43.37749794633532" lon="11.204392036474523"><ele>350.75</ele><time>2026-04-04T14:01:43Z</time></trkpt><trkpt lat="43.37745970765437" lon="11.204563871956328"><ele>351.0</ele><time>2026-04-04T14:01:44Z</time></trkpt><trkpt lat="43.37742638096355" lon="11.204739052642894"><ele>351.0</ele><time>2026-04-04T14:01:45Z</time></trkpt><trkpt lat="43.37736273002054" lon="11.20489456738143"><ele>351.0</ele><time>2026-04-04T14:01:46Z</time></trkpt><trkpt lat="43.37731055348445" lon="11.205038381539575"><ele>351.0</ele><time>2026-04-04T14:01:47Z</time></trkpt><trkpt lat="43.37727540867012" lon="11.205165962942813"><ele>351.0</ele><time>2026-04-04T14:01:48Z</time></trkpt><trkpt lat="43.377231450200455" lon="11.20526132801762"><ele>351.0</ele><time>2026-04-04T14:01:49Z</time></trkpt><trkpt lat="43.37719850007466" lon="11.205335901625743"><ele>354.4</ele><time>2026-04-04T14:01:50Z</time></trkpt><trkpt lat="43.37715002495805" lon="11.205466060008506"><ele>357.8</ele><time>2026-04-04T14:01:52Z</time></trkpt><trkpt lat="43.37708863098827" lon="11.20559462277674"><ele>361.2</ele><time>2026-04-04T14:01:54Z</time></trkpt><trkpt lat="43.37704152720821" lon="11.20569598380219"><ele>364.59999999999997</ele><time>2026-04-04T14:01:55Z</time></trkpt><trkpt lat="43.3769779166465" lon="11.205796125502005"><ele>368.0</ele><time>2026-04-04T14:01:56Z</time></trkpt><trkpt lat="43.376890630890415" lon="11.205891709799184"><ele>368.0</ele><time>2026-04-04T14:01:57Z</time></trkpt><trkpt lat="43.37681943764322" lon="11.205975377417984"><ele>368.0</ele><time>2026-04-04T14:01:58Z</time></trkpt><trkpt lat="43.376749670294274" lon="11.206033767598296"><ele>368.0</ele><time>2026-04-04T14:01:59Z</time></trkpt><trkpt lat="43.3766705776338" lon="11.206075845835754"><ele>368.0</ele><time>2026-04-04T14:02:00Z</time></trkpt><trkpt lat="43.376572814444025" lon="11.206146826479856"><ele>368.0</ele><time>2026-04-04T14:02:01Z</time></trkpt><trkpt lat="43.376455654058425" lon="11.206183052230228"><ele>371.0</ele><time>2026-04-04T14:02:02Z</time></trkpt><trkpt lat="43.376331973827405" lon="11.206208368346037"><ele>374.0</ele><time>2026-04-04T14:02:03Z</time></trkpt><trkpt lat="43.37620954197626" lon="11.206225140030396"><ele>377.0</ele><time>2026-04-04T14:02:04Z</time></trkpt><trkpt lat="43.37610137810515" lon="11.206236020712817"><ele>380.0</ele><time>2026-04-04T14:02:05Z</time></trkpt><trkpt lat="43.375993368919815" lon="11.206245421823684"><ele>380.0</ele><time>2026-04-04T14:02:06Z</time></trkpt><trkpt lat="43.375883225866716" lon="11.206226665231759"><ele>380.0</ele><time>2026-04-04T14:02:07Z</time></trkpt><trkpt lat="43.37576925500895" lon="11.206216393530157"><ele>380.0</ele><time>2026-04-04T14:02:08Z</time></trkpt><trkpt lat="43.375654496406085" lon="11.206192331811147"><ele>380.0</ele><time>2026-04-04T14:02:09Z</time></trkpt><trkpt lat="43.37552164715181" lon="11.206177376297765"><ele>381.5</ele><time>2026-04-04T14:02:10Z</time></trkpt><trkpt lat="43.37539868892846" lon="11.20613595364974"><ele>383.0</ele><time>2026-04-04T14:02:11Z</time></trkpt><trkpt lat="43.375268952959274" lon="11.206090665475331"><ele>384.5</ele><time>2026-04-04T14:02:12Z</time></trkpt><trkpt lat="43.37514628251082" lon="11.206037454542866"><ele>386.0</ele><time>2026-04-04T14:02:13Z</time></trkpt><trkpt lat="43.37503237464719" lon="11.205978797599522"><ele>386.0</ele><time>2026-04-04T14:02:14Z</time></trkpt><trkpt lat="43.37492689332316" lon="11.205925770330284"><ele>386.0</ele><time>2026-04-04T14:02:15Z</time></trkpt><trkpt lat="43.374829006074265" lon="11.20587129884797"><ele>386.0</ele><time>2026-04-04T14:02:16Z</time></trkpt><trkpt lat="43.37473097312444" lon="11.205817740426937"><ele>386.0</ele><time>2026-04-04T14:02:17Z</time></trkpt><trkpt lat="43.374629534054385" lon="11.205761749587712"><ele>386.0</ele><time>2026-04-04T14:02:18Z</time></trkpt><trkpt lat="43.37452608961925" lon="11.20574160809349"><ele>387.4</ele><time>2026-04-04T14:02:19Z</time></trkpt><trkpt lat="43.37442540681901" lon="11.205757542954434"><ele>388.8</ele><time>2026-04-04T14:02:20Z</time></trkpt><trkpt lat="43.374325190627125" lon="11.205755867549897"><ele>390.2</ele><time>2026-04-04T14:02:21Z</time></trkpt><trkpt lat="43.37422730332796" lon="11.20576483730098"><ele>391.59999999999997</ele><time>2026-04-04T14:02:22Z</time></trkpt><trkpt lat="43.37412409808586" lon="11.205774560860563"><ele>393.0</ele><time>2026-04-04T14:02:23Z</time></trkpt><trkpt lat="43.37401815467404" lon="11.20579274682708"><ele>393.0</ele><time>2026-04-04T14:02:24Z</time></trkpt><trkpt lat="43.37390587968514" lon="11.205817686731157"><ele>393.0</ele><time>2026-04-04T14:02:25Z</time></trkpt><trkpt lat="43.37378450526458" lon="11.20585384786288"><ele>393.0</ele><time>2026-04-04T14:02:26Z</time></trkpt><trkpt lat="43.373663634625295" lon="11.20588460119257"><ele>393.0</ele><time>2026-04-04T14:02:27Z</time></trkpt><trkpt lat="43.37354527138076" lon="11.205904533859412"><ele>394.79999999999995</ele><time>2026-04-04T14:02:28Z</time></trkpt><trkpt lat="43.37343395471454" lon="11.205913477095626"><ele>396.6</ele><time>2026-04-04T14:02:29Z</time></trkpt><trkpt lat="43.373321207566605" lon="11.20590720408817"><ele>398.4</ele><time>2026-04-04T14:02:30Z</time></trkpt><trkpt lat="43.37321487438826" lon="11.205865028488061"><ele>400.20000000000005</ele><time>2026-04-04T14:02:31Z</time></trkpt><trkpt lat="43.37311298394983" lon="11.205806859129808"><ele>402.0</ele><time>2026-04-04T14:02:32Z</time></trkpt><trkpt lat="43.37300227631658" lon="11.205736881290852"><ele>404.5</ele><time>2026-04-04T14:02:33Z</time></trkpt><trkpt lat="43.37289116289528" lon="11.20566486888904"><ele>407.0</ele><time>2026-04-04T14:02:34Z</time></trkpt><trkpt lat="43.37278173743128" lon="11.205573094185917"><ele>409.5</ele><time>2026-04-04T14:02:35Z</time></trkpt><trkpt lat="43.37267650285513" lon="11.205486015318023"><ele>412.0</ele><time>2026-04-04T14:02:36Z</time></trkpt><trkpt lat="43.372566967905854" lon="11.205406700074674"><ele>412.0</ele><time>2026-04-04T14:02:37Z</time></trkpt><trkpt lat="43.37244372948473" lon="11.205340068817726"><ele>412.0</ele><time>2026-04-04T14:02:38Z</time></trkpt><trkpt lat="43.37232194147186" lon="11.205282053600465"><ele>412.0</ele><time>2026-04-04T14:02:39Z</time></trkpt><trkpt lat="43.37220283286626" lon="11.205228889930485"><ele>412.0</ele><time>2026-04-04T14:02:40Z</time></trkpt><trkpt lat="43.372089168071554" lon="11.205169617906071"><ele>416.5</ele><time>2026-04-04T14:02:41Z</time></trkpt><trkpt lat="43.37197394079004" lon="11.205111932107135"><ele>421.0</ele><time>2026-04-04T14:02:42Z</time></trkpt><trkpt lat="43.37186688182584" lon="11.205052999285607"><ele>425.5</ele><time>2026-04-04T14:02:43Z</time></trkpt><trkpt lat="43.37176022406169" lon="11.204973648647774"><ele>430.0</ele><time>2026-04-04T14:02:44Z</time></trkpt><trkpt lat="43.37164906340817" lon="11.204880537759003"><ele>428.75</ele><time>2026-04-04T14:02:45Z</time></trkpt><trkpt lat="43.37154513608202" lon="11.204783038971415"><ele>427.5</ele><time>2026-04-04T14:02:46Z</time></trkpt><trkpt lat="43.37144324302466" lon="11.204679713231782"><ele>426.25</ele><time>2026-04-04T14:02:47Z</time></trkpt><trkpt lat="43.37135226533422" lon="11.204560523175724"><ele>425.0</ele><time>2026-04-04T14:02:48Z</time></trkpt><trkpt lat="43.37127085413934" lon="11.20443073459098"><ele>428.5</ele><time>2026-04-04T14:02:49Z</time></trkpt><trkpt lat="43.371196745979006" lon="11.204290988006163"><ele>432.0</ele><time>2026-04-04T14:02:50Z</time></trkpt><trkpt lat="43.37112437549706" lon="11.204165699986532"><ele>435.5</ele><time>2026-04-04T14:02:51Z</time></trkpt><trkpt lat="43.371039961935615" lon="11.204070030470504"><ele>439.0</ele><time>2026-04-04T14:02:52Z</time></trkpt><trkpt lat="43.37093970321019" lon="11.203984630003836"><ele>439.0</ele><time>2026-04-04T14:02:53Z</time></trkpt><trkpt lat="43.37082919587755" lon="11.203916873625316"><ele>439.0</ele><time>2026-04-04T14:02:54Z</time></trkpt><trkpt lat="43.37071781781319" lon="11.203854952539952"><ele>439.0</ele><time>2026-04-04T14:02:55Z</time></trkpt><trkpt lat="43.37060617632815" lon="11.20378654312022"><ele>439.0</ele><time>2026-04-04T14:02:56Z</time></trkpt><trkpt lat="43.370493214109054" lon="11.20372071301196"><ele>442.79999999999995</ele><time>2026-04-04T14:02:57Z</time></trkpt><trkpt lat="43.37039506447013" lon="11.203668051493448"><ele>446.59999999999997</ele><time>2026-04-04T14:02:58Z</time></trkpt><trkpt lat="43.37032554510049" lon="11.203637318188864"><ele>450.4</ele><time>2026-04-04T14:02:59Z</time></trkpt><trkpt lat="43.370225952175936" lon="11.203629222945613"><ele>454.2</ele><time>2026-04-04T14:03:01Z</time></trkpt><trkpt lat="43.37023683680906" lon="11.203778567267513"><ele>458.0</ele><time>2026-04-04T14:03:03Z</time></trkpt><trkpt lat="43.37015698277835" lon="11.203899919332134"><ele>457.99999999999994</ele><time>2026-04-04T14:03:05Z</time></trkpt><trkpt lat="43.37011094914316" lon="11.203978653596804"><ele>458.0</ele><time>2026-04-04T14:03:06Z</time></trkpt><trkpt lat="43.370058157010114" lon="11.204069385396718"><ele>458.0</ele><time>2026-04-04T14:03:07Z</time></trkpt><trkpt lat="43.37000174497522" lon="11.204171662638231"><ele>458.0</ele><time>2026-04-04T14:03:08Z</time></trkpt><trkpt lat="43.36994203771608" lon="11.204262447673871"><ele>457.99999999999994</ele><time>2026-04-04T14:03:09Z</time></trkpt><trkpt lat="43.369907688432164" lon="11.204358347020461"><ele>458.0</ele><time>2026-04-04T14:03:10Z</time></trkpt><trkpt lat="43.369861662448706" lon="11.204457651706397"><ele>460.0</ele><time>2026-04-04T14:03:11Z</time></trkpt><trkpt lat="43.36980446510075" lon="11.204574840850347"><ele>461.99999999999994</ele><time>2026-04-04T14:03:12Z</time></trkpt><trkpt lat="43.36974651693418" lon="11.204683435723238"><ele>463.99999999999994</ele><time>2026-04-04T14:03:13Z</time></trkpt><trkpt lat="43.36967463509704" lon="11.20477347255526"><ele>466.0</ele><time>2026-04-04T14:03:14Z</time></trkpt><trkpt lat="43.36960480757663" lon="11.204855811325542"><ele>468.0</ele><time>2026-04-04T14:03:15Z</time></trkpt><trkpt lat="43.36953049896698" lon="11.204921196788117"><ele>471.0</ele><time>2026-04-04T14:03:16Z</time></trkpt><trkpt lat="43.369451083867645" lon="11.204985537992151"><ele>473.99999999999994</ele><time>2026-04-04T14:03:17Z</time></trkpt><trkpt lat="43.36936410444284" lon="11.205056412196797"><ele>476.99999999999994</ele><time>2026-04-04T14:03:18Z</time></trkpt><trkpt lat="43.369258224049645" lon="11.205121065084498"><ele>480.0</ele><time>2026-04-04T14:03:19Z</time></trkpt><trkpt lat="43.36917779687467" lon="11.205196759065545"><ele>483.0</ele><time>2026-04-04T14:03:20Z</time></trkpt><trkpt lat="43.36910477001678" lon="11.205237157267797"><ele>483.0</ele><time>2026-04-04T14:03:21Z</time></trkpt><trkpt lat="43.369083751400154" lon="11.2053630811829"><ele>483.0</ele><time>2026-04-04T14:03:22Z</time></trkpt><trkpt lat="43.36907569016497" lon="11.205462765700261"><ele>483.0</ele><time>2026-04-04T14:03:23Z</time></trkpt><trkpt lat="43.36913863690537" lon="11.205595312094893"><ele>483.0</ele><time>2026-04-04T14:03:24Z</time></trkpt><trkpt lat="43.36920014100389" lon="11.20565123767599"><ele>483.0</ele><time>2026-04-04T14:03:25Z</time></trkpt><trkpt lat="43.369271430643394" lon="11.205730631847375"><ele>483.0</ele><time>2026-04-04T14:03:26Z</time></trkpt><trkpt lat="43.369325080931006" lon="11.205803731519975"><ele>482.79999999999995</ele><time>2026-04-04T14:03:27Z</time></trkpt><trkpt lat="43.369385642739054" lon="11.205861903554423"><ele>482.59999999999997</ele><time>2026-04-04T14:03:28Z</time></trkpt><trkpt lat="43.36944197218167" lon="11.20594426840763"><ele>482.40000000000003</ele><time>2026-04-04T14:03:29Z</time></trkpt><trkpt lat="43.36948995574997" lon="11.206039492580771"><ele>482.20000000000005</ele><time>2026-04-04T14:03:30Z</time></trkpt><trkpt lat="43.36953605491515" lon="11.206163078059875"><ele>482.0</ele><time>2026-04-04T14:03:31Z</time></trkpt><trkpt lat="43.369570776188446" lon="11.206316318682795"><ele>482.0</ele><time>2026-04-04T14:03:32Z</time></trkpt><trkpt lat="43.369607941510296" lon="11.206457539096863"><ele>482.0</ele><time>2026-04-04T14:03:33Z</time></trkpt><trkpt lat="43.36964645700075" lon="11.20660427006222"><ele>482.0</ele><time>2026-04-04T14:03:34Z</time></trkpt><trkpt lat="43.36970190766516" lon="11.206757510233201"><ele>482.0</ele><time>2026-04-04T14:03:35Z</time></trkpt><trkpt lat="43.36976081118465" lon="11.206923188505362"><ele>480.25</ele><time>2026-04-04T14:03:36Z</time></trkpt><trkpt lat="43.36980885918267" lon="11.20706613449719"><ele>478.5</ele><time>2026-04-04T14:03:37Z</time></trkpt><trkpt lat="43.369849644005654" lon="11.207229815258367"><ele>476.75</ele><time>2026-04-04T14:03:38Z</time></trkpt><trkpt lat="43.36991170342663" lon="11.20736356596713"><ele>475.0</ele><time>2026-04-04T14:03:39Z</time></trkpt><trkpt lat="43.36995345174532" lon="11.207531320391192"><ele>475.0</ele><time>2026-04-04T14:03:40Z</time></trkpt><trkpt lat="43.370001421956594" lon="11.207678487670508"><ele>475.0</ele><time>2026-04-04T14:03:41Z</time></trkpt><trkpt lat="43.37005180626782" lon="11.207832625269685"><ele>475.0</ele><time>2026-04-04T14:03:42Z</time></trkpt><trkpt lat="43.37009573197913" lon="11.20796033214427"><ele>475.0</ele><time>2026-04-04T14:03:43Z</time></trkpt><trkpt lat="43.37013830334697" lon="11.208075463866175"><ele>475.0</ele><time>2026-04-04T14:03:44Z</time></trkpt><trkpt lat="43.370182138523944" lon="11.208190599801158"><ele>475.00000000000006</ele><time>2026-04-04T14:03:45Z</time></trkpt><trkpt lat="43.37022205148706" lon="11.208282852323272"><ele>475.0</ele><time>2026-04-04T14:03:46Z</time></trkpt><trkpt lat="43.37028406659294" lon="11.208385325567573"><ele>475.0</ele><time>2026-04-04T14:03:48Z</time></trkpt><trkpt lat="43.3703329210178" lon="11.208442588796943"><ele>475.0</ele><time>2026-04-04T14:03:49Z</time></trkpt><trkpt lat="43.37039160013008" lon="11.208496418120767"><ele>475.00000000000006</ele><time>2026-04-04T14:03:50Z</time></trkpt><trkpt lat="43.37045031397012" lon="11.208548487735113"><ele>475.0</ele><time>2026-04-04T14:03:51Z</time></trkpt><trkpt lat="43.37051246316265" lon="11.208595527985013"><ele>474.42857142857144</ele><time>2026-04-04T14:03:52Z</time></trkpt><trkpt lat="43.37056696078777" lon="11.20867953388812"><ele>473.8571428571429</ele><time>2026-04-04T14:03:53Z</time></trkpt><trkpt lat="43.370603491379164" lon="11.20877716325382"><ele>473.28571428571433</ele><time>2026-04-04T14:03:54Z</time></trkpt><trkpt lat="43.370607394620464" lon="11.208870877540726"><ele>472.7142857142858</ele><time>2026-04-04T14:03:55Z</time></trkpt><trkpt lat="43.37058269962866" lon="11.208951403940876"><ele>472.14285714285717</ele><time>2026-04-04T14:03:56Z</time></trkpt><trkpt lat="43.3705438364403" lon="11.20902511089382"><ele>471.57142857142867</ele><time>2026-04-04T14:03:57Z</time></trkpt><trkpt lat="43.370493645598785" lon="11.209082715859157"><ele>471.00000000000006</ele><time>2026-04-04T14:03:58Z</time></trkpt><trkpt lat="43.37043487032964" lon="11.209154744496958"><ele>471.0</ele><time>2026-04-04T14:03:59Z</time></trkpt><trkpt lat="43.37037027496954" lon="11.209247424219585"><ele>471.0</ele><time>2026-04-04T14:04:00Z</time></trkpt><trkpt lat="43.370306885640886" lon="11.209354612508944"><ele>471.0</ele><time>2026-04-04T14:04:01Z</time></trkpt><trkpt lat="43.37024352381371" lon="11.209474341949162"><ele>471.0</ele><time>2026-04-04T14:04:02Z</time></trkpt><trkpt lat="43.37018132869472" lon="11.209611438947586"><ele>471.0</ele><time>2026-04-04T14:04:03Z</time></trkpt><trkpt lat="43.37011840167364" lon="11.209739415365728"><ele>469.8</ele><time>2026-04-04T14:04:04Z</time></trkpt><trkpt lat="43.370060999700634" lon="11.2098657224386"><ele>468.6</ele><time>2026-04-04T14:04:05Z</time></trkpt><trkpt lat="43.370007807872554" lon="11.209989532183585"><ele>467.4</ele><time>2026-04-04T14:04:06Z</time></trkpt><trkpt lat="43.36995190562775" lon="11.210111430428775"><ele>466.2</ele><time>2026-04-04T14:04:07Z</time></trkpt><trkpt lat="43.36989173620893" lon="11.210215822087848"><ele>465.0</ele><time>2026-04-04T14:04:08Z</time></trkpt><trkpt lat="43.36982959484924" lon="11.210323232394703"><ele>465.0</ele><time>2026-04-04T14:04:09Z</time></trkpt><trkpt lat="43.36976988840364" lon="11.210427247404931"><ele>465.0</ele><time>2026-04-04T14:04:10Z</time></trkpt><trkpt lat="43.369712837731186" lon="11.210531237485437"><ele>465.0</ele><time>2026-04-04T14:04:11Z</time></trkpt><trkpt lat="43.36965631898352" lon="11.210649506866966"><ele>465.0</ele><time>2026-04-04T14:04:12Z</time></trkpt><trkpt lat="43.3696173634947" lon="11.210781615325297"><ele>465.0</ele><time>2026-04-04T14:04:13Z</time></trkpt><trkpt lat="43.36955590720345" lon="11.210886392043605"><ele>465.6</ele><time>2026-04-04T14:04:14Z</time></trkpt><trkpt lat="43.369482298948874" lon="11.210970836227816"><ele>466.2</ele><time>2026-04-04T14:04:15Z</time></trkpt><trkpt lat="43.36939824361383" lon="11.211058724217507"><ele>466.79999999999995</ele><time>2026-04-04T14:04:16Z</time></trkpt><trkpt lat="43.36932329219804" lon="11.211150622735795"><ele>467.4</ele><time>2026-04-04T14:04:17Z</time></trkpt><trkpt lat="43.36924822580154" lon="11.211194506078181"><ele>468.0</ele><time>2026-04-04T14:04:18Z</time></trkpt><trkpt lat="43.36919024562289" lon="11.2112437411795"><ele>468.0</ele><time>2026-04-04T14:04:19Z</time></trkpt><trkpt lat="43.3691056624712" lon="11.211313689170634"><ele>467.99999999999994</ele><time>2026-04-04T14:04:20Z</time></trkpt><trkpt lat="43.369027480788546" lon="11.211376130120206"><ele>467.99999999999994</ele><time>2026-04-04T14:04:21Z</time></trkpt><trkpt lat="43.368956693688844" lon="11.211424501950448"><ele>468.0</ele><time>2026-04-04T14:04:22Z</time></trkpt><trkpt lat="43.36885682525334" lon="11.211462125023253"><ele>468.0</ele><time>2026-04-04T14:04:23Z</time></trkpt><trkpt lat="43.368779426426954" lon="11.211502192568853"><ele>469.59999999999997</ele><time>2026-04-04T14:04:24Z</time></trkpt><trkpt lat="43.368727013369785" lon="11.211563926231786"><ele>471.19999999999993</ele><time>2026-04-04T14:04:25Z</time></trkpt><trkpt lat="43.3687099495221" lon="11.211744286099627"><ele>472.8</ele><time>2026-04-04T14:04:27Z</time></trkpt><trkpt lat="43.3688320238232" lon="11.211842806309777"><ele>474.4</ele><time>2026-04-04T14:04:28Z</time></trkpt><trkpt lat="43.368922260608414" lon="11.211917104133914"><ele>476.0</ele><time>2026-04-04T14:04:29Z</time></trkpt><trkpt lat="43.36903612853358" lon="11.211984242766512"><ele>473.8</ele><time>2026-04-04T14:04:30Z</time></trkpt><trkpt lat="43.36913344434388" lon="11.212086281175097"><ele>471.6</ele><time>2026-04-04T14:04:31Z</time></trkpt><trkpt lat="43.36921024891412" lon="11.212154268384337"><ele>469.4</ele><time>2026-04-04T14:04:32Z</time></trkpt><trkpt lat="43.36928319900128" lon="11.212233402168067"><ele>467.2</ele><time>2026-04-04T14:04:33Z</time></trkpt><trkpt lat="43.36935196841618" lon="11.212311526242312"><ele>465.0</ele><time>2026-04-04T14:04:34Z</time></trkpt><trkpt lat="43.36941490947385" lon="11.212384975699914"><ele>465.0</ele><time>2026-04-04T14:04:35Z</time></trkpt><trkpt lat="43.36947259147541" lon="11.212457557089872"><ele>465.0</ele><time>2026-04-04T14:04:36Z</time></trkpt><trkpt lat="43.369497567054104" lon="11.212571497052647"><ele>465.0</ele><time>2026-04-04T14:04:38Z</time></trkpt><trkpt lat="43.369468846051376" lon="11.21270180971908"><ele>465.0</ele><time>2026-04-04T14:04:40Z</time></trkpt><trkpt lat="43.36940937848821" lon="11.212878340744451"><ele>465.0</ele><time>2026-04-04T14:04:42Z</time></trkpt><trkpt lat="43.36935133383933" lon="11.212985683895313"><ele>465.0</ele><time>2026-04-04T14:04:43Z</time></trkpt><trkpt lat="43.36928981124911" lon="11.213091366655288"><ele>465.0</ele><time>2026-04-04T14:04:44Z</time></trkpt><trkpt lat="43.36922637701546" lon="11.213198169360503"><ele>465.0</ele><time>2026-04-04T14:04:45Z</time></trkpt><trkpt lat="43.36918268432961" lon="11.213300890497182"><ele>465.0</ele><time>2026-04-04T14:04:46Z</time></trkpt><trkpt lat="43.3691776815438" lon="11.2133952017678"><ele>465.0</ele><time>2026-04-04T14:04:47Z</time></trkpt><trkpt lat="43.36918930732403" lon="11.21350246042773"><ele>465.0</ele><time>2026-04-04T14:04:48Z</time></trkpt><trkpt lat="43.36921572110053" lon="11.213626840714772"><ele>466.5</ele><time>2026-04-04T14:04:49Z</time></trkpt><trkpt lat="43.36923918120954" lon="11.213761083686547"><ele>468.0</ele><time>2026-04-04T14:04:50Z</time></trkpt><trkpt lat="43.369211788944426" lon="11.213840083669194"><ele>469.5</ele><time>2026-04-04T14:04:51Z</time></trkpt><trkpt lat="43.36917307952227" lon="11.213981458178404"><ele>471.0</ele><time>2026-04-04T14:04:53Z</time></trkpt><trkpt lat="43.36914682578042" lon="11.214073237630165"><ele>472.5</ele><time>2026-04-04T14:04:54Z</time></trkpt><trkpt lat="43.36912691485224" lon="11.214170507959361"><ele>474.0</ele><time>2026-04-04T14:04:55Z</time></trkpt><trkpt lat="43.369161948683654" lon="11.214278981402368"><ele>474.3333333333333</ele><time>2026-04-04T14:04:57Z</time></trkpt><trkpt lat="43.369199913808956" lon="11.214358789444807"><ele>474.66666666666663</ele><time>2026-04-04T14:04:59Z</time></trkpt><trkpt lat="43.36925169122321" lon="11.2144576122202"><ele>475.0</ele><time>2026-04-04T14:05:01Z</time></trkpt><trkpt lat="43.369281346337566" lon="11.214542671175815"><ele>475.3333333333333</ele><time>2026-04-04T14:05:02Z</time></trkpt><trkpt lat="43.36928620496535" lon="11.214658529128048"><ele>475.66666666666663</ele><time>2026-04-04T14:05:03Z</time></trkpt><trkpt lat="43.369306000502526" lon="11.214757541553032"><ele>476.0</ele><time>2026-04-04T14:05:04Z</time></trkpt><trkpt lat="43.36928214371833" lon="11.214859568609173"><ele>475.99999999999994</ele><time>2026-04-04T14:05:05Z</time></trkpt><trkpt lat="43.369244082371104" lon="11.214944305785735"><ele>476.0</ele><time>2026-04-04T14:05:06Z</time></trkpt><trkpt lat="43.36919955740963" lon="11.215034865439192"><ele>476.0</ele><time>2026-04-04T14:05:07Z</time></trkpt><trkpt lat="43.369150187777365" lon="11.215103050711113"><ele>476.0</ele><time>2026-04-04T14:05:08Z</time></trkpt><trkpt lat="43.36909345826548" lon="11.215154835616389"><ele>475.99999999999994</ele><time>2026-04-04T14:05:09Z</time></trkpt><trkpt lat="43.369026453056726" lon="11.215206371799722"><ele>476.0</ele><time>2026-04-04T14:05:10Z</time></trkpt><trkpt lat="43.368932802924704" lon="11.215215805990155"><ele>478.99999999999994</ele><time>2026-04-04T14:05:11Z</time></trkpt><trkpt lat="43.368856805459316" lon="11.215216830923918"><ele>482.0</ele><time>2026-04-04T14:05:12Z</time></trkpt><trkpt lat="43.3687862817541" lon="11.215240329771635"><ele>485.0</ele><time>2026-04-04T14:05:13Z</time></trkpt><trkpt lat="43.36872822753532" lon="11.215298125685132"><ele>488.0</ele><time>2026-04-04T14:05:14Z</time></trkpt><trkpt lat="43.36868237124983" lon="11.215371381762967"><ele>490.99999999999994</ele><time>2026-04-04T14:05:15Z</time></trkpt><trkpt lat="43.368637486667254" lon="11.215476349797221"><ele>494.0</ele><time>2026-04-04T14:05:16Z</time></trkpt><trkpt lat="43.368599299059596" lon="11.21559965842611"><ele>492.0</ele><time>2026-04-04T14:05:17Z</time></trkpt><trkpt lat="43.36853144490931" lon="11.215691406855937"><ele>490.0</ele><time>2026-04-04T14:05:18Z</time></trkpt><trkpt lat="43.36848067855902" lon="11.21578967920004"><ele>488.0</ele><time>2026-04-04T14:05:19Z</time></trkpt><trkpt lat="43.36837896121023" lon="11.215902739500391"><ele>486.0</ele><time>2026-04-04T14:05:20Z</time></trkpt><trkpt lat="43.368296781838424" lon="11.216024272186791"><ele>484.0</ele><time>2026-04-04T14:05:21Z</time></trkpt><trkpt lat="43.36821576975751" lon="11.216100836154057"><ele>484.0</ele><time>2026-04-04T14:05:22Z</time></trkpt><trkpt lat="43.36813715301458" lon="11.216170475240979"><ele>484.0</ele><time>2026-04-04T14:05:23Z</time></trkpt><trkpt lat="43.36805865197093" lon="11.21624020753103"><ele>484.0</ele><time>2026-04-04T14:05:24Z</time></trkpt><trkpt lat="43.367977636657905" lon="11.216291576566384"><ele>484.0</ele><time>2026-04-04T14:05:25Z</time></trkpt><trkpt lat="43.36788608734902" lon="11.21635370722706"><ele>484.0</ele><time>2026-04-04T14:05:26Z</time></trkpt><trkpt lat="43.36779154145388" lon="11.216412430295382"><ele>484.79999999999995</ele><time>2026-04-04T14:05:27Z</time></trkpt><trkpt lat="43.36769057953708" lon="11.2164616094817"><ele>485.59999999999997</ele><time>2026-04-04T14:05:28Z</time></trkpt><trkpt lat="43.36758308309828" lon="11.216456755339518"><ele>486.4</ele><time>2026-04-04T14:05:29Z</time></trkpt><trkpt lat="43.36748956415138" lon="11.216460634610955"><ele>487.2</ele><time>2026-04-04T14:05:30Z</time></trkpt><trkpt lat="43.36738149985012" lon="11.216446401227046"><ele>488.0</ele><time>2026-04-04T14:05:31Z</time></trkpt><trkpt lat="43.367268577063975" lon="11.216467676578654"><ele>485.79999999999995</ele><time>2026-04-04T14:05:32Z</time></trkpt><trkpt lat="43.36713780393754" lon="11.216509633846988"><ele>483.59999999999997</ele><time>2026-04-04T14:05:33Z</time></trkpt><trkpt lat="43.367063993987735" lon="11.21652833120646"><ele>481.40000000000003</ele><time>2026-04-04T14:05:34Z</time></trkpt><trkpt lat="43.366972640937085" lon="11.216553292489241"><ele>479.20000000000005</ele><time>2026-04-04T14:05:35Z</time></trkpt><trkpt lat="43.36687907824949" lon="11.216569689479496"><ele>477.0</ele><time>2026-04-04T14:05:36Z</time></trkpt><trkpt lat="43.3667896241162" lon="11.216569306721075"><ele>477.0</ele><time>2026-04-04T14:05:37Z</time></trkpt><trkpt lat="43.36669110638273" lon="11.216557082968313"><ele>477.00000000000006</ele><time>2026-04-04T14:05:38Z</time></trkpt><trkpt lat="43.36658641649052" lon="11.216548692119101"><ele>477.00000000000006</ele><time>2026-04-04T14:05:39Z</time></trkpt><trkpt lat="43.366484869215114" lon="11.216577011486644"><ele>477.0</ele><time>2026-04-04T14:05:40Z</time></trkpt><trkpt lat="43.36637812698434" lon="11.216657692036366"><ele>477.0</ele><time>2026-04-04T14:05:41Z</time></trkpt><trkpt lat="43.36626650350608" lon="11.216744450354618"><ele>478.8</ele><time>2026-04-04T14:05:42Z</time></trkpt><trkpt lat="43.36615598002024" lon="11.21679294334116"><ele>480.6</ele><time>2026-04-04T14:05:43Z</time></trkpt><trkpt lat="43.36606502023011" lon="11.216848629616075"><ele>482.40000000000003</ele><time>2026-04-04T14:05:44Z</time></trkpt><trkpt lat="43.365992639920755" lon="11.216916365510004"><ele>484.20000000000005</ele><time>2026-04-04T14:05:45Z</time></trkpt><trkpt lat="43.365922123584106" lon="11.217010259516492"><ele>486.0</ele><time>2026-04-04T14:05:46Z</time></trkpt><trkpt lat="43.36589980089949" lon="11.217129092167195"><ele>486.0</ele><time>2026-04-04T14:05:47Z</time></trkpt><trkpt lat="43.36588572569231" lon="11.21724474080149"><ele>486.0</ele><time>2026-04-04T14:05:48Z</time></trkpt><trkpt lat="43.36590556309953" lon="11.21734944851013"><ele>486.0</ele><time>2026-04-04T14:05:49Z</time></trkpt><trkpt lat="43.36598435150739" lon="11.217412758606207"><ele>486.0</ele><time>2026-04-04T14:05:50Z</time></trkpt><trkpt lat="43.36605946005877" lon="11.217475605414496"><ele>486.0</ele><time>2026-04-04T14:05:51Z</time></trkpt><trkpt lat="43.366157306559245" lon="11.217523301733566"><ele>486.0</ele><time>2026-04-04T14:05:52Z</time></trkpt><trkpt lat="43.366198411016676" lon="11.217617297142707"><ele>486.20000000000005</ele><time>2026-04-04T14:05:53Z</time></trkpt><trkpt lat="43.366188244116884" lon="11.217737520207669"><ele>486.40000000000003</ele><time>2026-04-04T14:05:55Z</time></trkpt><trkpt lat="43.366136932689805" lon="11.21784093855184"><ele>486.6</ele><time>2026-04-04T14:05:57Z</time></trkpt><trkpt lat="43.366111847657145" lon="11.217933373533109"><ele>486.8</ele><time>2026-04-04T14:05:58Z</time></trkpt><trkpt lat="43.366049322009054" lon="11.21808548479406"><ele>487.0</ele><time>2026-04-04T14:05:59Z</time></trkpt><trkpt lat="43.36603485344719" lon="11.218246974389304"><ele>487.0</ele><time>2026-04-04T14:06:00Z</time></trkpt><trkpt lat="43.36599721201794" lon="11.218421652396467"><ele>487.00000000000006</ele><time>2026-04-04T14:06:01Z</time></trkpt><trkpt lat="43.36598520464597" lon="11.218587731980575"><ele>487.00000000000006</ele><time>2026-04-04T14:06:02Z</time></trkpt><trkpt lat="43.36597878813548" lon="11.218709645714284"><ele>487.0</ele><time>2026-04-04T14:06:03Z</time></trkpt><trkpt lat="43.36597350207254" lon="11.21884140673396"><ele>487.0</ele><time>2026-04-04T14:06:04Z</time></trkpt><trkpt lat="43.36597572128388" lon="11.218993707799962"><ele>487.0</ele><time>2026-04-04T14:06:05Z</time></trkpt><trkpt lat="43.36598142212295" lon="11.219125500921725"><ele>487.00000000000006</ele><time>2026-04-04T14:06:06Z</time></trkpt><trkpt lat="43.36599099667443" lon="11.219262830609035"><ele>487.00000000000006</ele><time>2026-04-04T14:06:07Z</time></trkpt><trkpt lat="43.366002492217234" lon="11.21938891611705"><ele>487.0</ele><time>2026-04-04T14:06:08Z</time></trkpt><trkpt lat="43.36601615964874" lon="11.219518846952651"><ele>487.0</ele><time>2026-04-04T14:06:09Z</time></trkpt><trkpt lat="43.36603152880942" lon="11.21964715081641"><ele>487.00000000000006</ele><time>2026-04-04T14:06:10Z</time></trkpt><trkpt lat="43.3660516628429" lon="11.219784333212129"><ele>487.0</ele><time>2026-04-04T14:06:11Z</time></trkpt><trkpt lat="43.36608024083843" lon="11.219909811709131"><ele>487.0</ele><time>2026-04-04T14:06:12Z</time></trkpt><trkpt lat="43.36610897672489" lon="11.22002611843877"><ele>487.0</ele><time>2026-04-04T14:06:13Z</time></trkpt><trkpt lat="43.366131783802416" lon="11.220143874273981"><ele>487.00000000000006</ele><time>2026-04-04T14:06:14Z</time></trkpt><trkpt lat="43.366133676370914" lon="11.220244151470464"><ele>487.0</ele><time>2026-04-04T14:06:15Z</time></trkpt><trkpt lat="43.36612324624976" lon="11.220370094199486"><ele>486.40000000000003</ele><time>2026-04-04T14:06:16Z</time></trkpt><trkpt lat="43.36610477284178" lon="11.220525912255338"><ele>485.80000000000007</ele><time>2026-04-04T14:06:17Z</time></trkpt><trkpt lat="43.366078599360414" lon="11.220668654468074"><ele>485.2</ele><time>2026-04-04T14:06:18Z</time></trkpt><trkpt lat="43.366044515551856" lon="11.220790139435621"><ele>484.6</ele><time>2026-04-04T14:06:19Z</time></trkpt><trkpt lat="43.366005472652276" lon="11.220874245641065"><ele>484.0</ele><time>2026-04-04T14:06:20Z</time></trkpt><trkpt lat="43.36594942939969" lon="11.220963991148349"><ele>482.6</ele><time>2026-04-04T14:06:21Z</time></trkpt><trkpt lat="43.365885237442285" lon="11.221069434154128"><ele>481.2</ele><time>2026-04-04T14:06:22Z</time></trkpt><trkpt lat="43.365804873662135" lon="11.221163462428322"><ele>479.80000000000007</ele><time>2026-04-04T14:06:23Z</time></trkpt><trkpt lat="43.365729779421876" lon="11.221215118158577"><ele>478.40000000000003</ele><time>2026-04-04T14:06:24Z</time></trkpt><trkpt lat="43.36565760857254" lon="11.221282792233042"><ele>477.0</ele><time>2026-04-04T14:06:25Z</time></trkpt><trkpt lat="43.36556098651768" lon="11.221368468613864"><ele>477.20000000000005</ele><time>2026-04-04T14:06:26Z</time></trkpt><trkpt lat="43.36546773036335" lon="11.221447809648113"><ele>477.40000000000003</ele><time>2026-04-04T14:06:27Z</time></trkpt><trkpt lat="43.365388536893995" lon="11.221520599903128"><ele>477.59999999999997</ele><time>2026-04-04T14:06:28Z</time></trkpt><trkpt lat="43.36534821098706" lon="11.221622679080866"><ele>477.79999999999995</ele><time>2026-04-04T14:06:29Z</time></trkpt><trkpt lat="43.365316870897175" lon="11.22172343483045"><ele>478.0</ele><time>2026-04-04T14:06:30Z</time></trkpt><trkpt lat="43.3652781451472" lon="11.221885093026058"><ele>478.0</ele><time>2026-04-04T14:06:31Z</time></trkpt><trkpt lat="43.36520719341452" lon="11.222004908675942"><ele>477.99999999999994</ele><time>2026-04-04T14:06:32Z</time></trkpt><trkpt lat="43.365116374536036" lon="11.22210160057117"><ele>477.99999999999994</ele><time>2026-04-04T14:06:33Z</time></trkpt><trkpt lat="43.36505339115598" lon="11.222215874506572"><ele>478.0</ele><time>2026-04-04T14:06:34Z</time></trkpt><trkpt lat="43.365001018243014" lon="11.22232615839151"><ele>478.0</ele><time>2026-04-04T14:06:35Z</time></trkpt><trkpt lat="43.36494840424421" lon="11.222442443234497"><ele>475.75</ele><time>2026-04-04T14:06:36Z</time></trkpt><trkpt lat="43.36493444408904" lon="11.222590771934165"><ele>473.5</ele><time>2026-04-04T14:06:37Z</time></trkpt><trkpt lat="43.36491815173619" lon="11.222747466677983"><ele>471.25</ele><time>2026-04-04T14:06:38Z</time></trkpt><trkpt lat="43.36490190307837" lon="11.222909473178838"><ele>469.0</ele><time>2026-04-04T14:06:39Z</time></trkpt><trkpt lat="43.36487382458322" lon="11.223059859833977"><ele>470.0</ele><time>2026-04-04T14:06:40Z</time></trkpt><trkpt lat="43.364845767157014" lon="11.223204701097956"><ele>471.0</ele><time>2026-04-04T14:06:41Z</time></trkpt><trkpt lat="43.364762242011246" lon="11.223306620644646"><ele>472.0</ele><time>2026-04-04T14:06:42Z</time></trkpt><trkpt lat="43.36472560242741" lon="11.22342229490274"><ele>473.0</ele><time>2026-04-04T14:06:43Z</time></trkpt><trkpt lat="43.364700390935255" lon="11.223549421068624"><ele>474.0</ele><time>2026-04-04T14:06:44Z</time></trkpt><trkpt lat="43.364694962479746" lon="11.223726780899213"><ele>474.0</ele><time>2026-04-04T14:06:45Z</time></trkpt><trkpt lat="43.3646697179194" lon="11.223891625837375"><ele>474.0</ele><time>2026-04-04T14:06:46Z</time></trkpt><trkpt lat="43.36467314598988" lon="11.224046963470993"><ele>474.0</ele><time>2026-04-04T14:06:47Z</time></trkpt><trkpt lat="43.364686697676916" lon="11.224199461130489"><ele>474.0</ele><time>2026-04-04T14:06:48Z</time></trkpt><trkpt lat="43.36471054426897" lon="11.224323010766316"><ele>474.0</ele><time>2026-04-04T14:06:49Z</time></trkpt><trkpt lat="43.36474113990244" lon="11.22446995448467"><ele>470.0</ele><time>2026-04-04T14:06:50Z</time></trkpt><trkpt lat="43.36478547716473" lon="11.224600972023865"><ele>466.0</ele><time>2026-04-04T14:06:51Z</time></trkpt><trkpt lat="43.364846993762484" lon="11.224713805561583"><ele>462.0</ele><time>2026-04-04T14:06:52Z</time></trkpt><trkpt lat="43.364903184064396" lon="11.224813152576276"><ele>458.0</ele><time>2026-04-04T14:06:53Z</time></trkpt><trkpt lat="43.36489857854095" lon="11.224933686665713"><ele>454.0</ele><time>2026-04-04T14:06:54Z</time></trkpt><trkpt lat="43.36489660503914" lon="11.225061562111817"><ele>453.0</ele><time>2026-04-04T14:06:55Z</time></trkpt><trkpt lat="43.364890670360026" lon="11.225176340923266"><ele>452.0</ele><time>2026-04-04T14:06:56Z</time></trkpt><trkpt lat="43.364878546848544" lon="11.225314964435908"><ele>451.0</ele><time>2026-04-04T14:06:57Z</time></trkpt><trkpt lat="43.364901505680365" lon="11.225458140519933"><ele>450.0</ele><time>2026-04-04T14:06:58Z</time></trkpt><trkpt lat="43.36491455504027" lon="11.225591606942126"><ele>449.0</ele><time>2026-04-04T14:06:59Z</time></trkpt><trkpt lat="43.36490753901155" lon="11.225686995000135"><ele>448.4</ele><time>2026-04-04T14:07:00Z</time></trkpt><trkpt lat="43.364854293048325" lon="11.225793145156752"><ele>447.79999999999995</ele><time>2026-04-04T14:07:02Z</time></trkpt><trkpt lat="43.36480454554482" lon="11.22588756543669"><ele>447.20000000000005</ele><time>2026-04-04T14:07:03Z</time></trkpt><trkpt lat="43.364736387733686" lon="11.22601593508313"><ele>446.6</ele><time>2026-04-04T14:07:04Z</time></trkpt><trkpt lat="43.3646720059553" lon="11.2261357149318"><ele>446.0</ele><time>2026-04-04T14:07:05Z</time></trkpt><trkpt lat="43.364612243236415" lon="11.226198019383078"><ele>446.16666666666663</ele><time>2026-04-04T14:07:06Z</time></trkpt><trkpt lat="43.36457607862889" lon="11.226275947306481"><ele>446.3333333333333</ele><time>2026-04-04T14:07:07Z</time></trkpt><trkpt lat="43.36455374942206" lon="11.22636258433702"><ele>446.5</ele><time>2026-04-04T14:07:08Z</time></trkpt><trkpt lat="43.364549161528046" lon="11.226456611786734"><ele>446.66666666666663</ele><time>2026-04-04T14:07:09Z</time></trkpt><trkpt lat="43.364603236044374" lon="11.226583542282453"><ele>446.8333333333333</ele><time>2026-04-04T14:07:10Z</time></trkpt><trkpt lat="43.364623145517946" lon="11.2267123562742"><ele>447.0</ele><time>2026-04-04T14:07:11Z</time></trkpt><trkpt lat="43.36465767643373" lon="11.226856365021199"><ele>447.0</ele><time>2026-04-04T14:07:12.001Z</time></trkpt><trkpt lat="43.364666938466634" lon="11.227006801090276"><ele>447.0</ele><time>2026-04-04T14:07:13.001Z</time></trkpt><trkpt lat="43.36467543820579" lon="11.227148787548732"><ele>447.0</ele><time>2026-04-04T14:07:14.001Z</time></trkpt><trkpt lat="43.364670304857476" lon="11.227324767909096"><ele>447.0</ele><time>2026-04-04T14:07:15.001Z</time></trkpt><trkpt lat="43.36467062792145" lon="11.22748270930137"><ele>446.75</ele><time>2026-04-04T14:07:16.001Z</time></trkpt><trkpt lat="43.36465019066493" lon="11.227651174717796"><ele>446.5</ele><time>2026-04-04T14:07:17.001Z</time></trkpt><trkpt lat="43.364604097106785" lon="11.227826919835879"><ele>446.25</ele><time>2026-04-04T14:07:18.001Z</time></trkpt><trkpt lat="43.364581189936246" lon="11.227989582666396"><ele>446.0</ele><time>2026-04-04T14:07:19.001Z</time></trkpt><trkpt lat="43.36454303650165" lon="11.228143205015492"><ele>445.0</ele><time>2026-04-04T14:07:20.001Z</time></trkpt><trkpt lat="43.36450487584323" lon="11.228290230654897"><ele>444.0</ele><time>2026-04-04T14:07:21.001Z</time></trkpt><trkpt lat="43.364474753111274" lon="11.228426247567398"><ele>443.0</ele><time>2026-04-04T14:07:22.001Z</time></trkpt><trkpt lat="43.36445576475769" lon="11.228556806978276"><ele>442.0</ele><time>2026-04-04T14:07:23.001Z</time></trkpt><trkpt lat="43.36447016709387" lon="11.228679263975181"><ele>441.0</ele><time>2026-04-04T14:07:24.001Z</time></trkpt><trkpt lat="43.36449535908671" lon="11.228793832871244"><ele>441.0</ele><time>2026-04-04T14:07:25.001Z</time></trkpt><trkpt lat="43.36454152199096" lon="11.228891800357582"><ele>441.0</ele><time>2026-04-04T14:07:26Z</time></trkpt><trkpt lat="43.364602466975114" lon="11.228983963499612"><ele>441.0</ele><time>2026-04-04T14:07:27Z</time></trkpt><trkpt lat="43.364678775641195" lon="11.229069337668752"><ele>441.0</ele><time>2026-04-04T14:07:28Z</time></trkpt><trkpt lat="43.364746552764224" lon="11.229142044612463"><ele>441.0</ele><time>2026-04-04T14:07:29Z</time></trkpt><trkpt lat="43.364837385332095" lon="11.229233657443404"><ele>440.0</ele><time>2026-04-04T14:07:30Z</time></trkpt><trkpt lat="43.36488912952424" lon="11.229342048390668"><ele>439.0</ele><time>2026-04-04T14:07:31Z</time></trkpt><trkpt lat="43.36495710026278" lon="11.229440258694112"><ele>438.0</ele><time>2026-04-04T14:07:32Z</time></trkpt><trkpt lat="43.36499300928842" lon="11.22957124643631"><ele>437.0</ele><time>2026-04-04T14:07:33Z</time></trkpt><trkpt lat="43.36504157858895" lon="11.229688121156064"><ele>436.0</ele><time>2026-04-04T14:07:34Z</time></trkpt><trkpt lat="43.36509445204066" lon="11.229797289755505"><ele>434.8</ele><time>2026-04-04T14:07:35Z</time></trkpt><trkpt lat="43.365161700680986" lon="11.229883847991399"><ele>433.6</ele><time>2026-04-04T14:07:36Z</time></trkpt><trkpt lat="43.36520373595666" lon="11.230003346308006"><ele>432.4</ele><time>2026-04-04T14:07:37Z</time></trkpt><trkpt lat="43.365252778173804" lon="11.23011897226187"><ele>431.2</ele><time>2026-04-04T14:07:38Z</time></trkpt><trkpt lat="43.36530315137607" lon="11.23021417282645"><ele>430.0</ele><time>2026-04-04T14:07:39Z</time></trkpt><trkpt lat="43.36534235757716" lon="11.230308888138538"><ele>430.0</ele><time>2026-04-04T14:07:40Z</time></trkpt><trkpt lat="43.36538979227402" lon="11.230411366391428"><ele>430.0</ele><time>2026-04-04T14:07:41Z</time></trkpt><trkpt lat="43.36543138782186" lon="11.230528021063012"><ele>430.0</ele><time>2026-04-04T14:07:42Z</time></trkpt><trkpt lat="43.36547210687881" lon="11.230640921495754"><ele>430.0</ele><time>2026-04-04T14:07:43Z</time></trkpt><trkpt lat="43.36550692894683" lon="11.230753158370465"><ele>430.0</ele><time>2026-04-04T14:07:44Z</time></trkpt><trkpt lat="43.36555749141698" lon="11.23085707454546"><ele>427.2</ele><time>2026-04-04T14:07:45Z</time></trkpt><trkpt lat="43.36559538160767" lon="11.230974303071669"><ele>424.4</ele><time>2026-04-04T14:07:46Z</time></trkpt><trkpt lat="43.365637962260024" lon="11.231081237327162"><ele>421.6</ele><time>2026-04-04T14:07:47Z</time></trkpt><trkpt lat="43.36568446206001" lon="11.231203642691463"><ele>418.8</ele><time>2026-04-04T14:07:48Z</time></trkpt><trkpt lat="43.3657272959775" lon="11.23133330166522"><ele>416.0</ele><time>2026-04-04T14:07:49Z</time></trkpt><trkpt lat="43.36578992489178" lon="11.231450211749541"><ele>414.6</ele><time>2026-04-04T14:07:50Z</time></trkpt><trkpt lat="43.36583494101519" lon="11.231574001963304"><ele>413.20000000000005</ele><time>2026-04-04T14:07:51Z</time></trkpt><trkpt lat="43.365898497963734" lon="11.2316711586551"><ele>411.79999999999995</ele><time>2026-04-04T14:07:52Z</time></trkpt><trkpt lat="43.36598749217028" lon="11.231746619647591"><ele>410.4</ele><time>2026-04-04T14:07:53Z</time></trkpt><trkpt lat="43.36606392076262" lon="11.231835736350865"><ele>409.0</ele><time>2026-04-04T14:07:54Z</time></trkpt><trkpt lat="43.36615006765798" lon="11.231885440211826"><ele>409.0</ele><time>2026-04-04T14:07:55Z</time></trkpt><trkpt lat="43.36620860127904" lon="11.231967656963455"><ele>409.0</ele><time>2026-04-04T14:07:56Z</time></trkpt><trkpt lat="43.36629124196258" lon="11.232002516506812"><ele>409.0</ele><time>2026-04-04T14:07:57Z</time></trkpt><trkpt lat="43.366397026172535" lon="11.232009826201116"><ele>409.0</ele><time>2026-04-04T14:07:58Z</time></trkpt><trkpt lat="43.36649209991591" lon="11.232062293279771"><ele>409.0</ele><time>2026-04-04T14:07:59Z</time></trkpt><trkpt lat="43.366585618957366" lon="11.232096186714546"><ele>406.5</ele><time>2026-04-04T14:08:00Z</time></trkpt><trkpt lat="43.36661753608335" lon="11.232200751347706"><ele>404.0</ele><time>2026-04-04T14:08:01Z</time></trkpt><trkpt lat="43.36664520022094" lon="11.232400260205464"><ele>401.5</ele><time>2026-04-04T14:08:03Z</time></trkpt><trkpt lat="43.36667524918855" lon="11.232560246966537"><ele>399.0</ele><time>2026-04-04T14:08:04Z</time></trkpt><trkpt lat="43.36670157323034" lon="11.23271982080739"><ele>398.79999999999995</ele><time>2026-04-04T14:08:05Z</time></trkpt><trkpt lat="43.366747699837326" lon="11.232869397996742"><ele>398.59999999999997</ele><time>2026-04-04T14:08:06Z</time></trkpt><trkpt lat="43.366820701602876" lon="11.2329839828685"><ele>398.4</ele><time>2026-04-04T14:08:07Z</time></trkpt><trkpt lat="43.36688413824251" lon="11.233090639683004"><ele>398.2</ele><time>2026-04-04T14:08:08Z</time></trkpt><trkpt lat="43.36693909401316" lon="11.233202049085511"><ele>398.0</ele><time>2026-04-04T14:08:09Z</time></trkpt><trkpt lat="43.366954997163134" lon="11.233316193685415"><ele>397.0</ele><time>2026-04-04T14:08:10Z</time></trkpt><trkpt lat="43.36697928141373" lon="11.233436700096044"><ele>396.0</ele><time>2026-04-04T14:08:11Z</time></trkpt><trkpt lat="43.3670157402138" lon="11.233558715286415"><ele>395.0</ele><time>2026-04-04T14:08:12Z</time></trkpt><trkpt lat="43.367084556914044" lon="11.233668211426382"><ele>394.0</ele><time>2026-04-04T14:08:13Z</time></trkpt><trkpt lat="43.36719240494138" lon="11.233734474543711"><ele>393.0</ele><time>2026-04-04T14:08:14Z</time></trkpt><trkpt lat="43.36728460278732" lon="11.233812047053362"><ele>392.2</ele><time>2026-04-04T14:08:15Z</time></trkpt><trkpt lat="43.367389140378506" lon="11.233826824543954"><ele>391.4</ele><time>2026-04-04T14:08:16Z</time></trkpt><trkpt lat="43.367493381641886" lon="11.233826954893742"><ele>390.59999999999997</ele><time>2026-04-04T14:08:17Z</time></trkpt><trkpt lat="43.367582524861476" lon="11.233785041084953"><ele>389.79999999999995</ele><time>2026-04-04T14:08:18Z</time></trkpt><trkpt lat="43.367668858116495" lon="11.233719948748453"><ele>389.0</ele><time>2026-04-04T14:08:19Z</time></trkpt><trkpt lat="43.36775148577298" lon="11.233690290134906"><ele>389.0</ele><time>2026-04-04T14:08:20Z</time></trkpt><trkpt lat="43.36786149904534" lon="11.23368249627073"><ele>389.0</ele><time>2026-04-04T14:08:22Z</time></trkpt><trkpt lat="43.36793001219548" lon="11.233692070036584"><ele>389.0</ele><time>2026-04-04T14:08:23Z</time></trkpt><trkpt lat="43.36800727310457" lon="11.233724637238875"><ele>389.0</ele><time>2026-04-04T14:08:24Z</time></trkpt><trkpt lat="43.36810601514631" lon="11.233765450949257"><ele>389.0</ele><time>2026-04-04T14:08:25Z</time></trkpt><trkpt lat="43.368205046556525" lon="11.233806651069774"><ele>386.4</ele><time>2026-04-04T14:08:26Z</time></trkpt><trkpt lat="43.3683049747774" lon="11.233845335112896"><ele>383.79999999999995</ele><time>2026-04-04T14:08:27Z</time></trkpt><trkpt lat="43.36840840799789" lon="11.233875712531441"><ele>381.20000000000005</ele><time>2026-04-04T14:08:28Z</time></trkpt><trkpt lat="43.36851477672007" lon="11.23389998535397"><ele>378.6</ele><time>2026-04-04T14:08:29Z</time></trkpt><trkpt lat="43.368602579422095" lon="11.233919346994059"><ele>376.0</ele><time>2026-04-04T14:08:30Z</time></trkpt><trkpt lat="43.368677004146875" lon="11.233938144604638"><ele>376.0</ele><time>2026-04-04T14:08:31Z</time></trkpt><trkpt lat="43.36874893111583" lon="11.2339602598231"><ele>376.0</ele><time>2026-04-04T14:08:32Z</time></trkpt><trkpt lat="43.368813263444785" lon="11.233983536273355"><ele>376.0</ele><time>2026-04-04T14:08:33Z</time></trkpt><trkpt lat="43.368905873762465" lon="11.234036410466503"><ele>376.0</ele><time>2026-04-04T14:08:35Z</time></trkpt><trkpt lat="43.369002132490756" lon="11.234116392615608"><ele>376.0</ele><time>2026-04-04T14:08:37Z</time></trkpt><trkpt lat="43.36910050834733" lon="11.23408101847405"><ele>373.16666666666663</ele><time>2026-04-04T14:08:38Z</time></trkpt><trkpt lat="43.36916940713006" lon="11.234118591272184"><ele>370.3333333333333</ele><time>2026-04-04T14:08:39Z</time></trkpt><trkpt lat="43.36924731789324" lon="11.234174162696355"><ele>367.5</ele><time>2026-04-04T14:08:40Z</time></trkpt><trkpt lat="43.369326666463465" lon="11.23423623614189"><ele>364.6666666666667</ele><time>2026-04-04T14:08:41Z</time></trkpt><trkpt lat="43.36940013375809" lon="11.234299430013769"><ele>361.83333333333337</ele><time>2026-04-04T14:08:42Z</time></trkpt><trkpt lat="43.36947285532748" lon="11.234367602319296"><ele>359.0</ele><time>2026-04-04T14:08:43Z</time></trkpt><trkpt lat="43.369538166227116" lon="11.234428827534169"><ele>359.0</ele><time>2026-04-04T14:08:44Z</time></trkpt><trkpt lat="43.369600699665455" lon="11.23448913529903"><ele>359.0</ele><time>2026-04-04T14:08:45Z</time></trkpt><trkpt lat="43.369655784753085" lon="11.234545225594355"><ele>359.0</ele><time>2026-04-04T14:08:46Z</time></trkpt><trkpt lat="43.36970720041803" lon="11.234597579490043"><ele>359.0</ele><time>2026-04-04T14:08:47Z</time></trkpt><trkpt lat="43.369759024668625" lon="11.234650349449923"><ele>359.0</ele><time>2026-04-04T14:08:48Z</time></trkpt><trkpt lat="43.36982793445427" lon="11.234720516717505"><ele>359.0</ele><time>2026-04-04T14:08:50Z</time></trkpt><trkpt lat="43.36996078400523" lon="11.234589806579528"><ele>356.83333333333337</ele><time>2026-04-04T14:08:55Z</time></trkpt><trkpt lat="43.37004235725497" lon="11.234565100182703"><ele>354.6666666666667</ele><time>2026-04-04T14:08:57Z</time></trkpt><trkpt lat="43.370107257196175" lon="11.23445746464786"><ele>352.5</ele><time>2026-04-04T14:09:00Z</time></trkpt><trkpt lat="43.370096432537174" lon="11.234354454760853"><ele>350.3333333333333</ele><time>2026-04-04T14:09:01Z</time></trkpt><trkpt lat="43.37008297452452" lon="11.234256726382238"><ele>348.16666666666663</ele><time>2026-04-04T14:09:02Z</time></trkpt><trkpt lat="43.370068810464325" lon="11.234143893235633"><ele>346.0</ele><time>2026-04-04T14:09:03Z</time></trkpt><trkpt lat="43.37006114470617" lon="11.234027051378078"><ele>346.0</ele><time>2026-04-04T14:09:04Z</time></trkpt><trkpt lat="43.37006438616965" lon="11.233932861828965"><ele>346.0</ele><time>2026-04-04T14:09:05Z</time></trkpt><trkpt lat="43.37009149194189" lon="11.233838501301221"><ele>346.0</ele><time>2026-04-04T14:09:07Z</time></trkpt><trkpt lat="43.370178940309714" lon="11.233866553057757"><ele>346.0</ele><time>2026-04-04T14:09:10Z</time></trkpt><trkpt lat="43.37020963819956" lon="11.233984196384112"><ele>346.0</ele><time>2026-04-04T14:09:11Z</time></trkpt><trkpt lat="43.370279779897054" lon="11.234102673653437"><ele>346.0</ele><time>2026-04-04T14:09:12Z</time></trkpt><trkpt lat="43.370343789749576" lon="11.234226971018305"><ele>346.0</ele><time>2026-04-04T14:09:13Z</time></trkpt><trkpt lat="43.37040278307755" lon="11.234343038802558"><ele>346.0</ele><time>2026-04-04T14:09:14Z</time></trkpt><trkpt lat="43.37046434315623" lon="11.234436741145421"><ele>346.0</ele><time>2026-04-04T14:09:15Z</time></trkpt><trkpt lat="43.37050914395681" lon="11.23452792428439"><ele>346.0</ele><time>2026-04-04T14:09:16Z</time></trkpt><trkpt lat="43.370558279185154" lon="11.23462157031657"><ele>346.0</ele><time>2026-04-04T14:09:17Z</time></trkpt><trkpt lat="43.370596326318854" lon="11.234706746464932"><ele>346.0</ele><time>2026-04-04T14:09:18Z</time></trkpt><trkpt lat="43.370668065316416" lon="11.234849384602404"><ele>343.16666666666663</ele><time>2026-04-04T14:09:20Z</time></trkpt><trkpt lat="43.37072776054898" lon="11.234890310460033"><ele>340.3333333333333</ele><time>2026-04-04T14:09:21Z</time></trkpt><trkpt lat="43.370859253085264" lon="11.234930675436267"><ele>337.5</ele><time>2026-04-04T14:09:23Z</time></trkpt><trkpt lat="43.37093575139709" lon="11.234917490828254"><ele>334.6666666666667</ele><time>2026-04-04T14:09:24Z</time></trkpt><trkpt lat="43.37101108639921" lon="11.234907088866343"><ele>331.83333333333337</ele><time>2026-04-04T14:09:25Z</time></trkpt><trkpt lat="43.37108407925618" lon="11.234892423135793"><ele>329.0</ele><time>2026-04-04T14:09:26Z</time></trkpt><trkpt lat="43.371191169270745" lon="11.234848245194387"><ele>328.79999999999995</ele><time>2026-04-04T14:09:28Z</time></trkpt><trkpt lat="43.371237028883066" lon="11.234779655321349"><ele>328.59999999999997</ele><time>2026-04-04T14:09:29Z</time></trkpt><trkpt lat="43.37128388000428" lon="11.234688224227604"><ele>328.4</ele><time>2026-04-04T14:09:30Z</time></trkpt><trkpt lat="43.37126668223025" lon="11.234532135651138"><ele>328.2</ele><time>2026-04-04T14:09:31Z</time></trkpt><trkpt lat="43.3712625032698" lon="11.234388003022794"><ele>328.0</ele><time>2026-04-04T14:09:32Z</time></trkpt><trkpt lat="43.371276770313855" lon="11.234255692352697"><ele>328.0</ele><time>2026-04-04T14:09:33Z</time></trkpt><trkpt lat="43.37128909517105" lon="11.234142801447339"><ele>328.0</ele><time>2026-04-04T14:09:34Z</time></trkpt><trkpt lat="43.37134270716351" lon="11.234032584196733"><ele>328.0</ele><time>2026-04-04T14:09:35Z</time></trkpt><trkpt lat="43.371399687016535" lon="11.23393661035842"><ele>328.0</ele><time>2026-04-04T14:09:36Z</time></trkpt><trkpt lat="43.37145115598834" lon="11.233865599402463"><ele>328.0</ele><time>2026-04-04T14:09:37Z</time></trkpt><trkpt lat="43.37155463764561" lon="11.233807371791537"><ele>325.16666666666663</ele><time>2026-04-04T14:09:39Z</time></trkpt><trkpt lat="43.37163316445415" lon="11.233841136079235"><ele>322.3333333333333</ele><time>2026-04-04T14:09:40Z</time></trkpt><trkpt lat="43.37171683261837" lon="11.233853592988185"><ele>319.5</ele><time>2026-04-04T14:09:41Z</time></trkpt><trkpt lat="43.371789637675576" lon="11.233892684480834"><ele>316.6666666666667</ele><time>2026-04-04T14:09:42Z</time></trkpt><trkpt lat="43.37183401710878" lon="11.233975831271533"><ele>313.83333333333337</ele><time>2026-04-04T14:09:43Z</time></trkpt><trkpt lat="43.371869237562855" lon="11.234066322488044"><ele>311.0</ele><time>2026-04-04T14:09:44Z</time></trkpt><trkpt lat="43.37190162602991" lon="11.234169437981361"><ele>311.0</ele><time>2026-04-04T14:09:45Z</time></trkpt><trkpt lat="43.37192294289968" lon="11.234259286783246"><ele>311.0</ele><time>2026-04-04T14:09:46Z</time></trkpt><trkpt lat="43.37193495178173" lon="11.234347285425864"><ele>311.0</ele><time>2026-04-04T14:09:47Z</time></trkpt><trkpt lat="43.371944384207126" lon="11.234453034847856"><ele>311.0</ele><time>2026-04-04T14:09:48Z</time></trkpt><trkpt lat="43.37194994912481" lon="11.23455192259588"><ele>311.0</ele><time>2026-04-04T14:09:49Z</time></trkpt><trkpt lat="43.37194743251498" lon="11.234679355347653"><ele>311.0</ele><time>2026-04-04T14:09:50Z</time></trkpt><trkpt lat="43.371942793449925" lon="11.234817571954357"><ele>311.8</ele><time>2026-04-04T14:09:51Z</time></trkpt><trkpt lat="43.371953502179736" lon="11.23493738454299"><ele>312.6</ele><time>2026-04-04T14:09:52Z</time></trkpt><trkpt lat="43.37197484991624" lon="11.235044711646076"><ele>313.4</ele><time>2026-04-04T14:09:53Z</time></trkpt><trkpt lat="43.37204209404681" lon="11.235132055577813"><ele>314.2</ele><time>2026-04-04T14:09:54Z</time></trkpt><trkpt lat="43.37213725501692" lon="11.235192579186098"><ele>315.0</ele><time>2026-04-04T14:09:55Z</time></trkpt><trkpt lat="43.372244134087794" lon="11.235278425979773"><ele>311.5</ele><time>2026-04-04T14:09:56Z</time></trkpt><trkpt lat="43.37237012450566" lon="11.235311398310289"><ele>308.0</ele><time>2026-04-04T14:09:57Z</time></trkpt><trkpt lat="43.37250059734909" lon="11.23533943271977"><ele>304.5</ele><time>2026-04-04T14:09:58Z</time></trkpt><trkpt lat="43.37262822422221" lon="11.235357399041161"><ele>301.0</ele><time>2026-04-04T14:09:59Z</time></trkpt><trkpt lat="43.37271776906197" lon="11.235384197689468"><ele>301.0</ele><time>2026-04-04T14:10:00Z</time></trkpt><trkpt lat="43.372801690548755" lon="11.235408470258953"><ele>301.0</ele><time>2026-04-04T14:10:01Z</time></trkpt><trkpt lat="43.372876682093235" lon="11.23544366665823"><ele>301.0</ele><time>2026-04-04T14:10:02Z</time></trkpt><trkpt lat="43.372933863404334" lon="11.23548912039098"><ele>301.0</ele><time>2026-04-04T14:10:03Z</time></trkpt><trkpt lat="43.373014038561124" lon="11.23556280070156"><ele>301.0</ele><time>2026-04-04T14:10:05Z</time></trkpt><trkpt lat="43.3730671212342" lon="11.235618455968815"><ele>301.0</ele><time>2026-04-04T14:10:07Z</time></trkpt><trkpt lat="43.37312287657004" lon="11.23567828326975"><ele>300.16666666666663</ele><time>2026-04-04T14:10:09Z</time></trkpt><trkpt lat="43.37318487143991" lon="11.23575053269461"><ele>299.3333333333333</ele><time>2026-04-04T14:10:11Z</time></trkpt><trkpt lat="43.37323264172828" lon="11.235807305955452"><ele>298.5</ele><time>2026-04-04T14:10:13Z</time></trkpt><trkpt lat="43.37330243238148" lon="11.235720193941464"><ele>297.6666666666667</ele><time>2026-04-04T14:10:14Z</time></trkpt><trkpt lat="43.373381745422094" lon="11.235676294902158"><ele>296.83333333333337</ele><time>2026-04-04T14:10:16Z</time></trkpt><trkpt lat="43.37346040685408" lon="11.235609865013044"><ele>296.0</ele><time>2026-04-04T14:10:18Z</time></trkpt><trkpt lat="43.37356562163435" lon="11.235522984837313"><ele>295.6666666666667</ele><time>2026-04-04T14:10:20Z</time></trkpt><trkpt lat="43.37362618990624" lon="11.235473837088962"><ele>295.33333333333337</ele><time>2026-04-04T14:10:21Z</time></trkpt><trkpt lat="43.37369323906322" lon="11.235419430470305"><ele>295.0</ele><time>2026-04-04T14:10:22Z</time></trkpt><trkpt lat="43.37377773710094" lon="11.235350865059749"><ele>294.6666666666667</ele><time>2026-04-04T14:10:23Z</time></trkpt><trkpt lat="43.37386025008649" lon="11.235282332884879"><ele>294.3333333333333</ele><time>2026-04-04T14:10:24Z</time></trkpt><trkpt lat="43.37393967004498" lon="11.235210437466616"><ele>294.0</ele><time>2026-04-04T14:10:25Z</time></trkpt><trkpt lat="43.37402373470546" lon="11.235137122520216"><ele>292.59999999999997</ele><time>2026-04-04T14:10:26Z</time></trkpt><trkpt lat="43.374101025159526" lon="11.235097731712663"><ele>291.2</ele><time>2026-04-04T14:10:27Z</time></trkpt><trkpt lat="43.374172128761835" lon="11.235063365519029"><ele>289.79999999999995</ele><time>2026-04-04T14:10:29Z</time></trkpt><trkpt lat="43.37428465460526" lon="11.235139499058471"><ele>288.4</ele><time>2026-04-04T14:10:36Z</time></trkpt><trkpt lat="43.37438125070817" lon="11.235173350019348"><ele>287.0</ele><time>2026-04-04T14:10:37Z</time></trkpt><trkpt lat="43.37447333391259" lon="11.235205303466563"><ele>287.0</ele><time>2026-04-04T14:10:38Z</time></trkpt><trkpt lat="43.37456784300416" lon="11.235217367910359"><ele>287.0</ele><time>2026-04-04T14:10:39Z</time></trkpt><trkpt lat="43.374657999756884" lon="11.235221371908127"><ele>287.0</ele><time>2026-04-04T14:10:40Z</time></trkpt><trkpt lat="43.37473429540374" lon="11.23521655172446"><ele>287.0</ele><time>2026-04-04T14:10:41Z</time></trkpt><trkpt lat="43.37481204173437" lon="11.235182075389622"><ele>287.0</ele><time>2026-04-04T14:10:42Z</time></trkpt><trkpt lat="43.3748739033848" lon="11.235116231645316"><ele>287.0</ele><time>2026-04-04T14:10:43Z</time></trkpt><trkpt lat="43.374941589737894" lon="11.235034706768309"><ele>286.2</ele><time>2026-04-04T14:10:44Z</time></trkpt><trkpt lat="43.37500377972511" lon="11.234933215019803"><ele>285.4</ele><time>2026-04-04T14:10:45Z</time></trkpt><trkpt lat="43.375086533818795" lon="11.234856832408159"><ele>284.6</ele><time>2026-04-04T14:10:46Z</time></trkpt><trkpt lat="43.375163745254625" lon="11.23476765488451"><ele>283.8</ele><time>2026-04-04T14:10:47Z</time></trkpt><trkpt lat="43.375243253091355" lon="11.234724579386377"><ele>283.0</ele><time>2026-04-04T14:10:48Z</time></trkpt><trkpt lat="43.37533884441218" lon="11.234691122136113"><ele>283.0</ele><time>2026-04-04T14:10:49Z</time></trkpt><trkpt lat="43.37546504970123" lon="11.234658467986709"><ele>283.0</ele><time>2026-04-04T14:10:50Z</time></trkpt><trkpt lat="43.375580639941475" lon="11.234627924464691"><ele>283.0</ele><time>2026-04-04T14:10:51Z</time></trkpt><trkpt lat="43.37566528992445" lon="11.234622510625014"><ele>283.0</ele><time>2026-04-04T14:10:52Z</time></trkpt><trkpt lat="43.375739260534736" lon="11.234648670694122"><ele>283.0</ele><time>2026-04-04T14:10:53Z</time></trkpt><trkpt lat="43.37581696304294" lon="11.234730352319886"><ele>281.5</ele><time>2026-04-04T14:10:54Z</time></trkpt><trkpt lat="43.37592324611679" lon="11.234823009571514"><ele>280.0</ele><time>2026-04-04T14:10:55Z</time></trkpt><trkpt lat="43.37602742230825" lon="11.234920956947061"><ele>278.5</ele><time>2026-04-04T14:10:56Z</time></trkpt><trkpt lat="43.37612576637463" lon="11.235018927718805"><ele>277.0</ele><time>2026-04-04T14:10:57Z</time></trkpt><trkpt lat="43.37621048255964" lon="11.235103322206667"><ele>277.0</ele><time>2026-04-04T14:10:58Z</time></trkpt><trkpt lat="43.376303675172146" lon="11.235193410487728"><ele>277.0</ele><time>2026-04-04T14:10:59Z</time></trkpt><trkpt lat="43.37638648109206" lon="11.235286805720175"><ele>277.0</ele><time>2026-04-04T14:11:00Z</time></trkpt><trkpt lat="43.37644204319309" lon="11.235400304289302"><ele>277.0</ele><time>2026-04-04T14:11:01Z</time></trkpt><trkpt lat="43.37646948292738" lon="11.235522149768215"><ele>277.0</ele><time>2026-04-04T14:11:02Z</time></trkpt><trkpt lat="43.37648814214647" lon="11.235650227055949"><ele>274.5</ele><time>2026-04-04T14:11:03Z</time></trkpt><trkpt lat="43.37650974510922" lon="11.23581366736594"><ele>272.0</ele><time>2026-04-04T14:11:04Z</time></trkpt><trkpt lat="43.376531661958914" lon="11.2359924469701"><ele>269.5</ele><time>2026-04-04T14:11:05Z</time></trkpt><trkpt lat="43.37655508984423" lon="11.236153475372893"><ele>267.0</ele><time>2026-04-04T14:11:06Z</time></trkpt><trkpt lat="43.37657854147914" lon="11.236285935545478"><ele>267.0</ele><time>2026-04-04T14:11:07Z</time></trkpt><trkpt lat="43.37660950793712" lon="11.236389693354525"><ele>267.0</ele><time>2026-04-04T14:11:08Z</time></trkpt><trkpt lat="43.37665785600384" lon="11.23646395702534"><ele>267.0</ele><time>2026-04-04T14:11:09Z</time></trkpt><trkpt lat="43.37674745231742" lon="11.236496309148281"><ele>267.0</ele><time>2026-04-04T14:11:10Z</time></trkpt><trkpt lat="43.376844801441266" lon="11.236452949475256"><ele>267.0</ele><time>2026-04-04T14:11:11Z</time></trkpt><trkpt lat="43.376913154184116" lon="11.236330790434323"><ele>267.0</ele><time>2026-04-04T14:11:12Z</time></trkpt><trkpt lat="43.3769824777004" lon="11.236244507570778"><ele>267.0</ele><time>2026-04-04T14:11:13Z</time></trkpt><trkpt lat="43.37705549689832" lon="11.236168110263899"><ele>267.0</ele><time>2026-04-04T14:11:14Z</time></trkpt><trkpt lat="43.37714361144856" lon="11.236117003196044"><ele>267.0</ele><time>2026-04-04T14:11:15Z</time></trkpt><trkpt lat="43.37723552957693" lon="11.236052479345"><ele>267.0</ele><time>2026-04-04T14:11:16Z</time></trkpt><trkpt lat="43.37733655150622" lon="11.235995078082118"><ele>266.6</ele><time>2026-04-04T14:11:17Z</time></trkpt><trkpt lat="43.37742923511001" lon="11.235938160189123"><ele>266.2</ele><time>2026-04-04T14:11:18Z</time></trkpt><trkpt lat="43.37751592483537" lon="11.235956917217685"><ele>265.8</ele><time>2026-04-04T14:11:19Z</time></trkpt><trkpt lat="43.3775977668662" lon="11.23602072294818"><ele>265.4</ele><time>2026-04-04T14:11:20Z</time></trkpt><trkpt lat="43.37763423720829" lon="11.236158745831075"><ele>265.0</ele><time>2026-04-04T14:11:21Z</time></trkpt><trkpt lat="43.37769200890108" lon="11.236276483642143"><ele>265.0</ele><time>2026-04-04T14:11:22Z</time></trkpt><trkpt lat="43.377751761623855" lon="11.23637687452573"><ele>265.0</ele><time>2026-04-04T14:11:23Z</time></trkpt><trkpt lat="43.37780695048087" lon="11.236482482047608"><ele>265.0</ele><time>2026-04-04T14:11:24Z</time></trkpt><trkpt lat="43.37785710035147" lon="11.236593092498802"><ele>265.0</ele><time>2026-04-04T14:11:25Z</time></trkpt><trkpt lat="43.37792136997103" lon="11.236693878459539"><ele>265.0</ele><time>2026-04-04T14:11:26Z</time></trkpt><trkpt lat="43.377984838864776" lon="11.236800543127561"><ele>263.2</ele><time>2026-04-04T14:11:27Z</time></trkpt><trkpt lat="43.378047503793084" lon="11.236913381655526"><ele>261.4</ele><time>2026-04-04T14:11:28Z</time></trkpt><trkpt lat="43.37811249792862" lon="11.237036650286797"><ele>259.6</ele><time>2026-04-04T14:11:29Z</time></trkpt><trkpt lat="43.37818026556516" lon="11.237161266720678"><ele>257.8</ele><time>2026-04-04T14:11:30Z</time></trkpt><trkpt lat="43.378242671537485" lon="11.237280237512664"><ele>256.0</ele><time>2026-04-04T14:11:31Z</time></trkpt><trkpt lat="43.3783005439534" lon="11.237401767964338"><ele>255.8</ele><time>2026-04-04T14:11:32Z</time></trkpt><trkpt lat="43.3783553645281" lon="11.237520049837897"><ele>255.60000000000002</ele><time>2026-04-04T14:11:33Z</time></trkpt><trkpt lat="43.37840996377256" lon="11.2376457264802"><ele>255.4</ele><time>2026-04-04T14:11:34Z</time></trkpt><trkpt lat="43.378458830728206" lon="11.237771182527526"><ele>255.2</ele><time>2026-04-04T14:11:35Z</time></trkpt><trkpt lat="43.37849562944593" lon="11.237898901489798"><ele>255.0</ele><time>2026-04-04T14:11:36Z</time></trkpt><trkpt lat="43.37852779370284" lon="11.238028014265922"><ele>253.5</ele><time>2026-04-04T14:11:37Z</time></trkpt><trkpt lat="43.37856824820803" lon="11.23817869663432"><ele>252.0</ele><time>2026-04-04T14:11:38Z</time></trkpt><trkpt lat="43.378630065750365" lon="11.238311400960496"><ele>250.5</ele><time>2026-04-04T14:11:39Z</time></trkpt><trkpt lat="43.378702973443296" lon="11.238451572931496"><ele>249.0</ele><time>2026-04-04T14:11:40Z</time></trkpt><trkpt lat="43.37878454227156" lon="11.238570915798068"><ele>251.0</ele><time>2026-04-04T14:11:41Z</time></trkpt><trkpt lat="43.37887851566712" lon="11.238681424516718"><ele>253.0</ele><time>2026-04-04T14:11:42Z</time></trkpt><trkpt lat="43.37898528123772" lon="11.238776378039042"><ele>255.0</ele><time>2026-04-04T14:11:43Z</time></trkpt><trkpt lat="43.37909806649506" lon="11.23886128396505"><ele>257.0</ele><time>2026-04-04T14:11:44Z</time></trkpt><trkpt lat="43.37921744412109" lon="11.238928962316534"><ele>254.75</ele><time>2026-04-04T14:11:45Z</time></trkpt><trkpt lat="43.37933435640809" lon="11.238990855935368"><ele>252.5</ele><time>2026-04-04T14:11:46Z</time></trkpt><trkpt lat="43.379458925926905" lon="11.23905016011876"><ele>250.25</ele><time>2026-04-04T14:11:47Z</time></trkpt><trkpt lat="43.37957755280418" lon="11.239118754422261"><ele>248.0</ele><time>2026-04-04T14:11:48Z</time></trkpt><trkpt lat="43.379707902030695" lon="11.239171321372307"><ele>248.0</ele><time>2026-04-04T14:11:49Z</time></trkpt><trkpt lat="43.37985432682565" lon="11.239203640858692"><ele>248.0</ele><time>2026-04-04T14:11:50Z</time></trkpt><trkpt lat="43.380000907888814" lon="11.239269063717305"><ele>248.0</ele><time>2026-04-04T14:11:51Z</time></trkpt><trkpt lat="43.38011097277954" lon="11.23937506851766"><ele>248.0</ele><time>2026-04-04T14:11:52Z</time></trkpt><trkpt lat="43.380207734150204" lon="11.239474809960015"><ele>248.0</ele><time>2026-04-04T14:11:53Z</time></trkpt><trkpt lat="43.380292489494465" lon="11.239579481590654"><ele>248.0</ele><time>2026-04-04T14:11:54Z</time></trkpt><trkpt lat="43.380384779343366" lon="11.239654872411592"><ele>248.0</ele><time>2026-04-04T14:11:55Z</time></trkpt><trkpt lat="43.38050356348239" lon="11.239676161489486"><ele>248.0</ele><time>2026-04-04T14:11:56Z</time></trkpt><trkpt lat="43.38060609129495" lon="11.23968044691103"><ele>248.0</ele><time>2026-04-04T14:11:57Z</time></trkpt><trkpt lat="43.38070604336185" lon="11.239698653593901"><ele>248.2</ele><time>2026-04-04T14:11:58Z</time></trkpt><trkpt lat="43.38079715739907" lon="11.239758054814034"><ele>248.4</ele><time>2026-04-04T14:11:59Z</time></trkpt><trkpt lat="43.38088632226177" lon="11.239825413640796"><ele>248.59999999999997</ele><time>2026-04-04T14:12:00Z</time></trkpt><trkpt lat="43.38096666838655" lon="11.239886325404557"><ele>248.79999999999998</ele><time>2026-04-04T14:12:01Z</time></trkpt><trkpt lat="43.38104459373903" lon="11.23993759225212"><ele>249.0</ele><time>2026-04-04T14:12:02Z</time></trkpt><trkpt lat="43.38114592651441" lon="11.239986456613345"><ele>248.6</ele><time>2026-04-04T14:12:03Z</time></trkpt><trkpt lat="43.38124793486191" lon="11.240030229060672"><ele>248.2</ele><time>2026-04-04T14:12:04Z</time></trkpt><trkpt lat="43.38134741036173" lon="11.240072914620391"><ele>247.79999999999998</ele><time>2026-04-04T14:12:05Z</time></trkpt><trkpt lat="43.38143811415795" lon="11.24011183618141"><ele>247.39999999999998</ele><time>2026-04-04T14:12:06Z</time></trkpt><trkpt lat="43.38152255382652" lon="11.240152337581973"><ele>247.0</ele><time>2026-04-04T14:12:07Z</time></trkpt><trkpt lat="43.38159863711479" lon="11.240188888677043"><ele>246.99999999999997</ele><time>2026-04-04T14:12:08Z</time></trkpt><trkpt lat="43.381668026462116" lon="11.240224504771604"><ele>247.0</ele><time>2026-04-04T14:12:09Z</time></trkpt><trkpt lat="43.38176592154892" lon="11.240313837894321"><ele>247.0</ele><time>2026-04-04T14:12:11Z</time></trkpt><trkpt lat="43.38179975044062" lon="11.240392625093875"><ele>247.0</ele><time>2026-04-04T14:12:12Z</time></trkpt><trkpt lat="43.38183339806222" lon="11.240494158923502"><ele>246.99999999999997</ele><time>2026-04-04T14:12:13Z</time></trkpt><trkpt lat="43.38187285535543" lon="11.24061203449881"><ele>247.0</ele><time>2026-04-04T14:12:14Z</time></trkpt><trkpt lat="43.381915562491265" lon="11.240731819814844"><ele>246.2</ele><time>2026-04-04T14:12:15Z</time></trkpt><trkpt lat="43.381974152792566" lon="11.24084030764865"><ele>245.39999999999998</ele><time>2026-04-04T14:12:16Z</time></trkpt><trkpt lat="43.3820171777685" lon="11.240957390146347"><ele>244.60000000000002</ele><time>2026-04-04T14:12:17Z</time></trkpt><trkpt lat="43.382040534476964" lon="11.241064251952942"><ele>243.8</ele><time>2026-04-04T14:12:18Z</time></trkpt><trkpt lat="43.38208596876618" lon="11.241173324479131"><ele>243.0</ele><time>2026-04-04T14:12:19Z</time></trkpt><trkpt lat="43.382113257527216" lon="11.241290271686884"><ele>243.0</ele><time>2026-04-04T14:12:20Z</time></trkpt><trkpt lat="43.38215001087475" lon="11.241397146384545"><ele>243.0</ele><time>2026-04-04T14:12:21Z</time></trkpt><trkpt lat="43.38215898750736" lon="11.24149501061172"><ele>243.0</ele><time>2026-04-04T14:12:22Z</time></trkpt><trkpt lat="43.38217966369882" lon="11.241587721194714"><ele>243.0</ele><time>2026-04-04T14:12:23Z</time></trkpt><trkpt lat="43.382224530955824" lon="11.241659925523987"><ele>243.0</ele><time>2026-04-04T14:12:24Z</time></trkpt><trkpt lat="43.3822660906034" lon="11.24175986549597"><ele>243.0</ele><time>2026-04-04T14:12:26Z</time></trkpt><trkpt lat="43.38229315615778" lon="11.24186441708458"><ele>241.8</ele><time>2026-04-04T14:17:04Z</time></trkpt><trkpt lat="43.382242214472015" lon="11.242024706707936"><ele>240.60000000000002</ele><time>2026-04-04T14:17:06Z</time></trkpt><trkpt lat="43.382204042876225" lon="11.242118147480978"><ele>239.39999999999998</ele><time>2026-04-04T14:17:07Z</time></trkpt><trkpt lat="43.38214453825652" lon="11.242212199083777"><ele>238.2</ele><time>2026-04-04T14:17:08Z</time></trkpt><trkpt lat="43.38210741096068" lon="11.242324515371005"><ele>237.0</ele><time>2026-04-04T14:17:09Z</time></trkpt><trkpt lat="43.38207225138347" lon="11.242430878983571"><ele>236.33333333333334</ele><time>2026-04-04T14:17:10Z</time></trkpt><trkpt lat="43.3820441516516" lon="11.242515885343067"><ele>235.66666666666669</ele><time>2026-04-04T14:17:11Z</time></trkpt><trkpt lat="43.38200763648657" lon="11.242626349837652"><ele>235.0</ele><time>2026-04-04T14:17:12Z</time></trkpt><trkpt lat="43.38196846588837" lon="11.24274971009271"><ele>234.33333333333334</ele><time>2026-04-04T14:17:13Z</time></trkpt><trkpt lat="43.38193461636021" lon="11.24287730323579"><ele>233.66666666666669</ele><time>2026-04-04T14:17:14Z</time></trkpt><trkpt lat="43.38191822500939" lon="11.243007909072864"><ele>233.0</ele><time>2026-04-04T14:17:15Z</time></trkpt><trkpt lat="43.38191893613188" lon="11.24312670155336"><ele>233.83333333333334</ele><time>2026-04-04T14:17:16Z</time></trkpt><trkpt lat="43.38194913627515" lon="11.24324602024211"><ele>234.66666666666669</ele><time>2026-04-04T14:17:17Z</time></trkpt><trkpt lat="43.38198563382443" lon="11.243353283421872"><ele>235.5</ele><time>2026-04-04T14:17:18Z</time></trkpt><trkpt lat="43.38201615271027" lon="11.243463588267208"><ele>236.33333333333331</ele><time>2026-04-04T14:17:19Z</time></trkpt><trkpt lat="43.38207054712483" lon="11.243558504123307"><ele>237.16666666666666</ele><time>2026-04-04T14:17:20Z</time></trkpt><trkpt lat="43.38213124154159" lon="11.243658143634295"><ele>238.0</ele><time>2026-04-04T14:17:21Z</time></trkpt><trkpt lat="43.382200263540504" lon="11.243738753917217"><ele>238.2</ele><time>2026-04-04T14:17:22Z</time></trkpt><trkpt lat="43.382252297943346" lon="11.24382412815343"><ele>238.4</ele><time>2026-04-04T14:17:23Z</time></trkpt><trkpt lat="43.38227857766763" lon="11.243917005487463"><ele>238.59999999999997</ele><time>2026-04-04T14:17:24Z</time></trkpt><trkpt lat="43.38233032728932" lon="11.244046539464332"><ele>238.79999999999998</ele><time>2026-04-04T14:17:26Z</time></trkpt><trkpt lat="43.38237123433437" lon="11.244163097021065"><ele>239.0</ele><time>2026-04-04T14:17:28Z</time></trkpt><trkpt lat="43.382506802465905" lon="11.244155332933637"><ele>239.0</ele><time>2026-04-04T14:17:29Z</time></trkpt><trkpt lat="43.38257437210767" lon="11.244252042402797"><ele>238.99999999999997</ele><time>2026-04-04T14:17:30Z</time></trkpt><trkpt lat="43.38266180933131" lon="11.244360970893908"><ele>238.99999999999997</ele><time>2026-04-04T14:17:31Z</time></trkpt><trkpt lat="43.3827252512085" lon="11.244458407827336"><ele>239.0</ele><time>2026-04-04T14:17:32Z</time></trkpt><trkpt lat="43.3827828434378" lon="11.244580728602461"><ele>239.0</ele><time>2026-04-04T14:17:33Z</time></trkpt><trkpt lat="43.38283296861486" lon="11.244758876557029"><ele>238.0</ele><time>2026-04-04T14:17:34Z</time></trkpt><trkpt lat="43.38288186205186" lon="11.244935299983538"><ele>237.0</ele><time>2026-04-04T14:17:35Z</time></trkpt><trkpt lat="43.38292688460067" lon="11.245100345770153"><ele>236.0</ele><time>2026-04-04T14:17:36Z</time></trkpt><trkpt lat="43.38296984621436" lon="11.245257836512621"><ele>235.0</ele><time>2026-04-04T14:17:37Z</time></trkpt><trkpt lat="43.38301134980599" lon="11.245409982397998"><ele>234.2</ele><time>2026-04-04T14:17:38Z</time></trkpt><trkpt lat="43.38305021622691" lon="11.245551866664886"><ele>233.4</ele><time>2026-04-04T14:17:39Z</time></trkpt><trkpt lat="43.383088446271536" lon="11.245690721851977"><ele>232.60000000000002</ele><time>2026-04-04T14:17:40Z</time></trkpt><trkpt lat="43.383124535773185" lon="11.245821802412625"><ele>231.8</ele><time>2026-04-04T14:17:41Z</time></trkpt><trkpt lat="43.383159643569016" lon="11.245955296552628"><ele>231.0</ele><time>2026-04-04T14:17:42Z</time></trkpt><trkpt lat="43.38319120949179" lon="11.24607526887012"><ele>230.0</ele><time>2026-04-04T14:17:43Z</time></trkpt><trkpt lat="43.38321372940595" lon="11.246160860190688"><ele>229.0</ele><time>2026-04-04T14:17:44Z</time></trkpt><trkpt lat="43.38324883611112" lon="11.246294290498414"><ele>228.0</ele><time>2026-04-04T14:17:46Z</time></trkpt><trkpt lat="43.38343467130429" lon="11.246275830224018"><ele>227.0</ele><time>2026-04-04T14:17:47Z</time></trkpt><trkpt lat="43.383531880874465" lon="11.246312439560818"><ele>227.0</ele><time>2026-04-04T14:17:48Z</time></trkpt><trkpt lat="43.38365099192525" lon="11.246348975675028"><ele>227.0</ele><time>2026-04-04T14:17:49Z</time></trkpt><trkpt lat="43.38377367848939" lon="11.246393205576906"><ele>227.0</ele><time>2026-04-04T14:17:50Z</time></trkpt><trkpt lat="43.383896198540164" lon="11.246430409327548"><ele>227.0</ele><time>2026-04-04T14:17:51Z</time></trkpt><trkpt lat="43.384015574228755" lon="11.246467904900653"><ele>226.0</ele><time>2026-04-04T14:17:52Z</time></trkpt><trkpt lat="43.384132294006854" lon="11.24653331386513"><ele>225.0</ele><time>2026-04-04T14:17:53Z</time></trkpt><trkpt lat="43.38426400082662" lon="11.246558028930599"><ele>224.0</ele><time>2026-04-04T14:17:54Z</time></trkpt><trkpt lat="43.38439669638221" lon="11.246612257827849"><ele>223.0</ele><time>2026-04-04T14:17:55Z</time></trkpt><trkpt lat="43.38453256027433" lon="11.246669273938295"><ele>223.0</ele><time>2026-04-04T14:17:56Z</time></trkpt><trkpt lat="43.384657616736185" lon="11.24672892407565"><ele>223.0</ele><time>2026-04-04T14:17:57Z</time></trkpt><trkpt lat="43.38478861044235" lon="11.246773803464745"><ele>223.0</ele><time>2026-04-04T14:17:58Z</time></trkpt><trkpt lat="43.38492413073281" lon="11.246799865813003"><ele>223.0</ele><time>2026-04-04T14:17:59Z</time></trkpt><trkpt lat="43.38505772887937" lon="11.24681146095011"><ele>223.25</ele><time>2026-04-04T14:18:00Z</time></trkpt><trkpt lat="43.38519040898807" lon="11.246823389910574"><ele>223.5</ele><time>2026-04-04T14:18:01Z</time></trkpt><trkpt lat="43.38530940135217" lon="11.246840209132039"><ele>223.75</ele><time>2026-04-04T14:18:02Z</time></trkpt><trkpt lat="43.38543049848001" lon="11.246867165391887"><ele>224.0</ele><time>2026-04-04T14:18:03Z</time></trkpt><trkpt lat="43.38556084509196" lon="11.246919737219248"><ele>225.0</ele><time>2026-04-04T14:18:04Z</time></trkpt><trkpt lat="43.385690859836586" lon="11.24699837485792"><ele>226.0</ele><time>2026-04-04T14:18:05Z</time></trkpt><trkpt lat="43.38580174793672" lon="11.247097777228094"><ele>227.0</ele><time>2026-04-04T14:18:06Z</time></trkpt><trkpt lat="43.38590787684963" lon="11.247214310359922"><ele>228.0</ele><time>2026-04-04T14:18:07Z</time></trkpt><trkpt lat="43.38602134174614" lon="11.24731422561148"><ele>225.25</ele><time>2026-04-04T14:18:08Z</time></trkpt><trkpt lat="43.386136662038986" lon="11.247396671869273"><ele>222.5</ele><time>2026-04-04T14:18:09Z</time></trkpt><trkpt lat="43.38624028929825" lon="11.247456107834896"><ele>219.75</ele><time>2026-04-04T14:18:10Z</time></trkpt><trkpt lat="43.386342641889065" lon="11.247480104167316"><ele>217.0</ele><time>2026-04-04T14:18:11Z</time></trkpt><trkpt lat="43.38645352354019" lon="11.24748393453805"><ele>217.0</ele><time>2026-04-04T14:18:12Z</time></trkpt><trkpt lat="43.38657201457303" lon="11.247455406948854"><ele>217.0</ele><time>2026-04-04T14:18:13Z</time></trkpt><trkpt lat="43.386679957292905" lon="11.247408414731423"><ele>217.0</ele><time>2026-04-04T14:18:14Z</time></trkpt><trkpt lat="43.38678480252005" lon="11.2473705686598"><ele>217.0</ele><time>2026-04-04T14:18:15Z</time></trkpt><trkpt lat="43.386913161157686" lon="11.247340022489233"><ele>217.0</ele><time>2026-04-04T14:18:16Z</time></trkpt><trkpt lat="43.38704630852099" lon="11.24734305096586"><ele>217.0</ele><time>2026-04-04T14:18:17Z</time></trkpt><trkpt lat="43.38717892046332" lon="11.247363569681205"><ele>217.0</ele><time>2026-04-04T14:18:18Z</time></trkpt><trkpt lat="43.38731932012198" lon="11.247390586798755"><ele>217.0</ele><time>2026-04-04T14:18:19Z</time></trkpt><trkpt lat="43.38746902101887" lon="11.247424398887743"><ele>216.25</ele><time>2026-04-04T14:18:20Z</time></trkpt><trkpt lat="43.387610642141276" lon="11.24744584020475"><ele>215.5</ele><time>2026-04-04T14:18:21Z</time></trkpt><trkpt lat="43.387746739057796" lon="11.247452420082766"><ele>214.75</ele><time>2026-04-04T14:18:22Z</time></trkpt><trkpt lat="43.387877800101414" lon="11.247439567276228"><ele>214.0</ele><time>2026-04-04T14:18:23Z</time></trkpt><trkpt lat="43.38800635833093" lon="11.247405862381074"><ele>213.25</ele><time>2026-04-04T14:18:24Z</time></trkpt><trkpt lat="43.3881272988356" lon="11.247356290635027"><ele>212.5</ele><time>2026-04-04T14:18:25Z</time></trkpt><trkpt lat="43.38825215493814" lon="11.247291545945458"><ele>211.75</ele><time>2026-04-04T14:18:26Z</time></trkpt><trkpt lat="43.38837323756771" lon="11.247206899426853"><ele>211.0</ele><time>2026-04-04T14:18:27Z</time></trkpt><trkpt lat="43.38848833159182" lon="11.247115469870831"><ele>210.75</ele><time>2026-04-04T14:18:28Z</time></trkpt><trkpt lat="43.388593895612374" lon="11.247034733525263"><ele>210.5</ele><time>2026-04-04T14:18:29Z</time></trkpt><trkpt lat="43.38872656391916" lon="11.246996951890646"><ele>210.25</ele><time>2026-04-04T14:18:30Z</time></trkpt><trkpt lat="43.3888477566644" lon="11.24694329202572"><ele>210.0</ele><time>2026-04-04T14:18:31Z</time></trkpt><trkpt lat="43.38896532337716" lon="11.246924997252068"><ele>210.0</ele><time>2026-04-04T14:18:32Z</time></trkpt><trkpt lat="43.389083675980565" lon="11.246865900228952"><ele>210.0</ele><time>2026-04-04T14:18:33Z</time></trkpt><trkpt lat="43.38921074278435" lon="11.246830682735709"><ele>210.0</ele><time>2026-04-04T14:18:34Z</time></trkpt><trkpt lat="43.3893384113394" lon="11.246778231951463"><ele>210.0</ele><time>2026-04-04T14:18:35Z</time></trkpt><trkpt lat="43.38946195075507" lon="11.24670572905647"><ele>210.0</ele><time>2026-04-04T14:18:36Z</time></trkpt><trkpt lat="43.38958789038427" lon="11.24661644989646"><ele>210.0</ele><time>2026-04-04T14:18:37Z</time></trkpt><trkpt lat="43.389709296209745" lon="11.24652973664519"><ele>210.0</ele><time>2026-04-04T14:18:38Z</time></trkpt><trkpt lat="43.389839954330796" lon="11.246444031647803"><ele>210.0</ele><time>2026-04-04T14:18:39Z</time></trkpt><trkpt lat="43.389968884084716" lon="11.246373357135617"><ele>210.25</ele><time>2026-04-04T14:18:40Z</time></trkpt><trkpt lat="43.39008828860741" lon="11.246285052921907"><ele>210.5</ele><time>2026-04-04T14:18:41Z</time></trkpt><trkpt lat="43.39020312912857" lon="11.246211858997455"><ele>210.75</ele><time>2026-04-04T14:18:42Z</time></trkpt><trkpt lat="43.39030390465957" lon="11.24614480908176"><ele>211.0</ele><time>2026-04-04T14:18:43Z</time></trkpt><trkpt lat="43.390387158765115" lon="11.246099578500285"><ele>211.0</ele><time>2026-04-04T14:18:44Z</time></trkpt><trkpt lat="43.39046315362405" lon="11.24605842290729"><ele>211.0</ele><time>2026-04-04T14:18:45Z</time></trkpt><trkpt lat="43.390526534058964" lon="11.246021421423698"><ele>211.0</ele><time>2026-04-04T14:18:46Z</time></trkpt><trkpt lat="43.39061367729049" lon="11.24600761860689"><ele>211.0</ele><time>2026-04-04T14:18:48Z</time></trkpt><trkpt lat="43.39071919518705" lon="11.245970173877266"><ele>211.0</ele><time>2026-04-04T14:18:50Z</time></trkpt><trkpt lat="43.39084871609384" lon="11.245918301814815"><ele>210.60000000000002</ele><time>2026-04-04T14:18:52Z</time></trkpt><trkpt lat="43.39094676448677" lon="11.245891989905408"><ele>210.2</ele><time>2026-04-04T14:18:53Z</time></trkpt><trkpt lat="43.39103864923337" lon="11.245824417590212"><ele>209.8</ele><time>2026-04-04T14:18:54Z</time></trkpt><trkpt lat="43.39112654699375" lon="11.245787961563382"><ele>209.39999999999998</ele><time>2026-04-04T14:18:55Z</time></trkpt><trkpt lat="43.39122444382513" lon="11.245733196997557"><ele>209.0</ele><time>2026-04-04T14:18:56Z</time></trkpt><trkpt lat="43.391320329220065" lon="11.24567363517578"><ele>209.5</ele><time>2026-04-04T14:18:57Z</time></trkpt><trkpt lat="43.391433302992844" lon="11.245615338598506"><ele>210.0</ele><time>2026-04-04T14:18:58Z</time></trkpt><trkpt lat="43.3915327369657" lon="11.24554235013825"><ele>210.5</ele><time>2026-04-04T14:18:59Z</time></trkpt><trkpt lat="43.39163018261193" lon="11.245470651451837"><ele>211.0</ele><time>2026-04-04T14:19:00Z</time></trkpt><trkpt lat="43.39174165467284" lon="11.245391646741778"><ele>211.0</ele><time>2026-04-04T14:19:01Z</time></trkpt><trkpt lat="43.391862955154366" lon="11.245317403365217"><ele>211.0</ele><time>2026-04-04T14:19:02Z</time></trkpt><trkpt lat="43.39197318279993" lon="11.245259466351792"><ele>211.0</ele><time>2026-04-04T14:19:03Z</time></trkpt><trkpt lat="43.392079428094135" lon="11.245189642141382"><ele>211.0</ele><time>2026-04-04T14:19:04Z</time></trkpt><trkpt lat="43.392195331406356" lon="11.245163344080137"><ele>213.4</ele><time>2026-04-04T14:19:05Z</time></trkpt><trkpt lat="43.392279738585195" lon="11.24506257298801"><ele>215.8</ele><time>2026-04-04T14:19:06Z</time></trkpt><trkpt lat="43.39235400956728" lon="11.24499093225138"><ele>218.20000000000002</ele><time>2026-04-04T14:19:07Z</time></trkpt><trkpt lat="43.392428938371424" lon="11.244936124484255"><ele>220.60000000000002</ele><time>2026-04-04T14:19:08Z</time></trkpt><trkpt lat="43.392539096579085" lon="11.244948098031683"><ele>223.0</ele><time>2026-04-04T14:19:10Z</time></trkpt><trkpt lat="43.39256318293818" lon="11.245055852997607"><ele>223.0</ele><time>2026-04-04T14:19:12Z</time></trkpt><trkpt lat="43.392491595436745" lon="11.245205275115413"><ele>223.0</ele><time>2026-04-04T14:19:14Z</time></trkpt><trkpt lat="43.3924356831846" lon="11.245306209310694"><ele>223.0</ele><time>2026-04-04T14:19:15Z</time></trkpt><trkpt lat="43.39237600383158" lon="11.24541072193809"><ele>223.0</ele><time>2026-04-04T14:19:16Z</time></trkpt><trkpt lat="43.392318162307454" lon="11.24553460806304"><ele>223.0</ele><time>2026-04-04T14:19:17Z</time></trkpt><trkpt lat="43.39225064768035" lon="11.245669192143332"><ele>222.16666666666666</ele><time>2026-04-04T14:19:18Z</time></trkpt><trkpt lat="43.392190133110816" lon="11.245782051307357"><ele>221.33333333333331</ele><time>2026-04-04T14:19:19Z</time></trkpt><trkpt lat="43.39214523915286" lon="11.245874416261412"><ele>220.5</ele><time>2026-04-04T14:19:20Z</time></trkpt><trkpt lat="43.39210521414049" lon="11.245951145366787"><ele>219.66666666666669</ele><time>2026-04-04T14:19:21Z</time></trkpt><trkpt lat="43.3920779625879" lon="11.246089388489185"><ele>218.83333333333334</ele><time>2026-04-04T14:19:23Z</time></trkpt><trkpt lat="43.392143036405194" lon="11.24616361876579"><ele>218.0</ele><time>2026-04-04T14:19:25Z</time></trkpt><trkpt lat="43.39224476897167" lon="11.246083236820892"><ele>221.60000000000002</ele><time>2026-04-04T14:19:27Z</time></trkpt><trkpt lat="43.39232277061384" lon="11.245999818304897"><ele>225.20000000000002</ele><time>2026-04-04T14:19:28Z</time></trkpt><trkpt lat="43.392375302370816" lon="11.245900232001357"><ele>228.8</ele><time>2026-04-04T14:19:29Z</time></trkpt><trkpt lat="43.392449500148814" lon="11.2458114385762"><ele>232.4</ele><time>2026-04-04T14:19:30Z</time></trkpt><trkpt lat="43.392527528147596" lon="11.245718606361633"><ele>236.0</ele><time>2026-04-04T14:19:31Z</time></trkpt><trkpt lat="43.39259198977933" lon="11.245633573944945"><ele>236.0</ele><time>2026-04-04T14:19:32Z</time></trkpt><trkpt lat="43.39265005778557" lon="11.24556158538938"><ele>236.00000000000003</ele><time>2026-04-04T14:19:33Z</time></trkpt><trkpt lat="43.39270263040505" lon="11.24549804194465"><ele>236.00000000000003</ele><time>2026-04-04T14:19:34Z</time></trkpt><trkpt lat="43.39279647600052" lon="11.24548509152471"><ele>236.0</ele><time>2026-04-04T14:19:36Z</time></trkpt><trkpt lat="43.39281682724688" lon="11.245599883188131"><ele>236.0</ele><time>2026-04-04T14:19:38Z</time></trkpt><trkpt lat="43.39275713970866" lon="11.245772531939155"><ele>236.0</ele><time>2026-04-04T14:19:40Z</time></trkpt><trkpt lat="43.39270803031576" lon="11.245902970893777"><ele>236.00000000000003</ele><time>2026-04-04T14:19:41Z</time></trkpt><trkpt lat="43.39266185693452" lon="11.246045950369927"><ele>236.00000000000003</ele><time>2026-04-04T14:19:42Z</time></trkpt><trkpt lat="43.392623512342034" lon="11.24619165185064"><ele>236.0</ele><time>2026-04-04T14:19:43Z</time></trkpt><trkpt lat="43.39259589287222" lon="11.246301653337058"><ele>236.0</ele><time>2026-04-04T14:19:44Z</time></trkpt><trkpt lat="43.392574258458374" lon="11.246394547731102"><ele>235.8</ele><time>2026-04-04T14:19:45Z</time></trkpt><trkpt lat="43.39260513565738" lon="11.246535107683867"><ele>235.60000000000002</ele><time>2026-04-04T14:19:47Z</time></trkpt><trkpt lat="43.39268161850884" lon="11.246638284331125"><ele>235.4</ele><time>2026-04-04T14:19:49Z</time></trkpt><trkpt lat="43.39276724409381" lon="11.246643691383248"><ele>235.2</ele><time>2026-04-04T14:19:50Z</time></trkpt><trkpt lat="43.39285082609223" lon="11.246667330843339"><ele>235.0</ele><time>2026-04-04T14:19:51Z</time></trkpt><trkpt lat="43.39295219268802" lon="11.246673443368294"><ele>237.4</ele><time>2026-04-04T14:19:52Z</time></trkpt><trkpt lat="43.39305849955544" lon="11.246689439830211"><ele>239.8</ele><time>2026-04-04T14:19:53Z</time></trkpt><trkpt lat="43.39316455641127" lon="11.246710283875663"><ele>242.2</ele><time>2026-04-04T14:19:54Z</time></trkpt><trkpt lat="43.39327685464155" lon="11.246727185269739"><ele>244.6</ele><time>2026-04-04T14:19:55Z</time></trkpt><trkpt lat="43.393392829340826" lon="11.246746612729778"><ele>247.0</ele><time>2026-04-04T14:19:56Z</time></trkpt><trkpt lat="43.39349090852005" lon="11.246764080975954"><ele>247.0</ele><time>2026-04-04T14:19:57Z</time></trkpt><trkpt lat="43.39357566714385" lon="11.2467764455098"><ele>247.0</ele><time>2026-04-04T14:19:58Z</time></trkpt><trkpt lat="43.393660186782895" lon="11.246791088774133"><ele>247.0</ele><time>2026-04-04T14:19:59Z</time></trkpt><trkpt lat="43.39375378897141" lon="11.246827262763917"><ele>247.0</ele><time>2026-04-04T14:20:00Z</time></trkpt><trkpt lat="43.39385275851733" lon="11.246872344150617"><ele>247.0</ele><time>2026-04-04T14:20:01Z</time></trkpt><trkpt lat="43.393958806574055" lon="11.246921973711052"><ele>249.5</ele><time>2026-04-04T14:20:02Z</time></trkpt><trkpt lat="43.394069214559636" lon="11.246972386473336"><ele>252.0</ele><time>2026-04-04T14:20:03Z</time></trkpt><trkpt lat="43.39418166297358" lon="11.247014398532215"><ele>254.5</ele><time>2026-04-04T14:20:04Z</time></trkpt><trkpt lat="43.394277244458564" lon="11.247083258259714"><ele>257.0</ele><time>2026-04-04T14:20:05Z</time></trkpt><trkpt lat="43.39438489275121" lon="11.247107712894708"><ele>257.0</ele><time>2026-04-04T14:20:06Z</time></trkpt><trkpt lat="43.39450018549385" lon="11.247158996529702"><ele>257.0</ele><time>2026-04-04T14:20:07Z</time></trkpt><trkpt lat="43.394619253728216" lon="11.247193276801337"><ele>257.0</ele><time>2026-04-04T14:20:08Z</time></trkpt><trkpt lat="43.394744026995646" lon="11.247204957366852"><ele>257.0</ele><time>2026-04-04T14:20:09Z</time></trkpt><trkpt lat="43.394863942110945" lon="11.247204775201006"><ele>258.0</ele><time>2026-04-04T14:20:10Z</time></trkpt><trkpt lat="43.394980590223476" lon="11.247192602679858"><ele>259.0</ele><time>2026-04-04T14:20:11Z</time></trkpt><trkpt lat="43.39508789942345" lon="11.247165525019092"><ele>260.0</ele><time>2026-04-04T14:20:12Z</time></trkpt><trkpt lat="43.39518975557265" lon="11.247120531604741"><ele>261.0</ele><time>2026-04-04T14:20:13Z</time></trkpt><trkpt lat="43.395290483133415" lon="11.247055051411762"><ele>262.0</ele><time>2026-04-04T14:20:14Z</time></trkpt><trkpt lat="43.39540146050952" lon="11.246988024886992"><ele>262.0</ele><time>2026-04-04T14:20:15Z</time></trkpt><trkpt lat="43.39549689269633" lon="11.246934850477711"><ele>262.0</ele><time>2026-04-04T14:20:16Z</time></trkpt><trkpt lat="43.395609530403476" lon="11.24688781771534"><ele>262.0</ele><time>2026-04-04T14:20:17Z</time></trkpt><trkpt lat="43.395729391393104" lon="11.246865524395071"><ele>262.0</ele><time>2026-04-04T14:20:18Z</time></trkpt><trkpt lat="43.39585557854977" lon="11.24687423895364"><ele>261.5</ele><time>2026-04-04T14:20:19Z</time></trkpt><trkpt lat="43.39598702461986" lon="11.246902168565517"><ele>261.0</ele><time>2026-04-04T14:20:20Z</time></trkpt><trkpt lat="43.396124245331514" lon="11.246933290885494"><ele>260.5</ele><time>2026-04-04T14:20:21Z</time></trkpt><trkpt lat="43.39624722753685" lon="11.246961099887157"><ele>260.0</ele><time>2026-04-04T14:20:22Z</time></trkpt><trkpt lat="43.396378843520054" lon="11.2469956736947"><ele>260.0</ele><time>2026-04-04T14:20:23Z</time></trkpt><trkpt lat="43.396515514574745" lon="11.247041774245343"><ele>260.0</ele><time>2026-04-04T14:20:24Z</time></trkpt><trkpt lat="43.39664608555681" lon="11.247091935436067"><ele>260.0</ele><time>2026-04-04T14:20:25Z</time></trkpt><trkpt lat="43.39677755892721" lon="11.247148441446571"><ele>260.0</ele><time>2026-04-04T14:20:26Z</time></trkpt><trkpt lat="43.39690990879942" lon="11.247186039823935"><ele>260.0</ele><time>2026-04-04T14:20:27Z</time></trkpt><trkpt lat="43.39704644182386" lon="11.24720330456987"><ele>260.0</ele><time>2026-04-04T14:20:28Z</time></trkpt><trkpt lat="43.397180267749675" lon="11.247224237439754"><ele>260.0</ele><time>2026-04-04T14:20:29Z</time></trkpt><trkpt lat="43.39730223692015" lon="11.247273263463525"><ele>260.0</ele><time>2026-04-04T14:20:30Z</time></trkpt><trkpt lat="43.39743107758122" lon="11.247346513591548"><ele>262.25</ele><time>2026-04-04T14:20:31Z</time></trkpt><trkpt lat="43.397556913699724" lon="11.247413932321031"><ele>264.5</ele><time>2026-04-04T14:20:32Z</time></trkpt><trkpt lat="43.3976695380545" lon="11.247503539676455"><ele>266.75</ele><time>2026-04-04T14:20:33Z</time></trkpt><trkpt lat="43.39778333807977" lon="11.24757850509924"><ele>269.0</ele><time>2026-04-04T14:20:34Z</time></trkpt><trkpt lat="43.39789421560243" lon="11.247659190679904"><ele>272.0</ele><time>2026-04-04T14:20:35Z</time></trkpt><trkpt lat="43.39801256623955" lon="11.247737905969842"><ele>275.0</ele><time>2026-04-04T14:20:36Z</time></trkpt><trkpt lat="43.398118476399226" lon="11.247842884294766"><ele>278.0</ele><time>2026-04-04T14:20:37Z</time></trkpt><trkpt lat="43.398224367076985" lon="11.247948402600858"><ele>281.0</ele><time>2026-04-04T14:20:38Z</time></trkpt><trkpt lat="43.398317459423986" lon="11.24805197136703"><ele>281.6</ele><time>2026-04-04T14:20:39Z</time></trkpt><trkpt lat="43.39840047885264" lon="11.248134291720532"><ele>282.20000000000005</ele><time>2026-04-04T14:20:40Z</time></trkpt><trkpt lat="43.39847375913026" lon="11.248204240677177"><ele>282.79999999999995</ele><time>2026-04-04T14:20:41Z</time></trkpt><trkpt lat="43.398550672098395" lon="11.248270582577348"><ele>283.4</ele><time>2026-04-04T14:20:42Z</time></trkpt><trkpt lat="43.39862219144894" lon="11.248346877951208"><ele>284.0</ele><time>2026-04-04T14:20:43Z</time></trkpt><trkpt lat="43.39869472545684" lon="11.24841307519058"><ele>284.0</ele><time>2026-04-04T14:20:44Z</time></trkpt><trkpt lat="43.39876275881111" lon="11.248480349966377"><ele>284.0</ele><time>2026-04-04T14:20:45Z</time></trkpt><trkpt lat="43.398830165906695" lon="11.248534768186024"><ele>284.0</ele><time>2026-04-04T14:20:46Z</time></trkpt><trkpt lat="43.39889265247175" lon="11.248591006348073"><ele>284.0</ele><time>2026-04-04T14:20:47Z</time></trkpt><trkpt lat="43.39896987053635" lon="11.248655261112027"><ele>284.0</ele><time>2026-04-04T14:20:48Z</time></trkpt><trkpt lat="43.39905110458997" lon="11.248703264089004"><ele>284.0</ele><time>2026-04-04T14:20:49Z</time></trkpt><trkpt lat="43.39914714612023" lon="11.248745052680553"><ele>286.1666666666667</ele><time>2026-04-04T14:20:50Z</time></trkpt><trkpt lat="43.399224642776446" lon="11.248795277865435"><ele>288.33333333333337</ele><time>2026-04-04T14:20:51Z</time></trkpt><trkpt lat="43.39930241744855" lon="11.248764217931114"><ele>290.5</ele><time>2026-04-04T14:20:52Z</time></trkpt><trkpt lat="43.39936866143652" lon="11.248763271292857"><ele>292.6666666666667</ele><time>2026-04-04T14:20:53Z</time></trkpt><trkpt lat="43.39943254430552" lon="11.248729584386822"><ele>294.8333333333333</ele><time>2026-04-04T14:20:54Z</time></trkpt><trkpt lat="43.3994810981791" lon="11.248662582619861"><ele>297.0</ele><time>2026-04-04T14:20:55Z</time></trkpt><trkpt lat="43.399535634877864" lon="11.248573857346841"><ele>297.0</ele><time>2026-04-04T14:20:56Z</time></trkpt><trkpt lat="43.399578603635725" lon="11.248494233545816"><ele>297.0</ele><time>2026-04-04T14:20:57Z</time></trkpt><trkpt lat="43.399591624358905" lon="11.248382088119243"><ele>297.0</ele><time>2026-04-04T14:20:58Z</time></trkpt><trkpt lat="43.39957586643449" lon="11.248244647707306"><ele>297.0</ele><time>2026-04-04T14:20:59Z</time></trkpt><trkpt lat="43.3995812836812" lon="11.248096492850635"><ele>297.0</ele><time>2026-04-04T14:21:00Z</time></trkpt><trkpt lat="43.39957518300974" lon="11.247964025464553"><ele>296.6</ele><time>2026-04-04T14:21:01Z</time></trkpt><trkpt lat="43.399570869531665" lon="11.247848719851055"><ele>296.2</ele><time>2026-04-04T14:21:02Z</time></trkpt><trkpt lat="43.39957417648536" lon="11.247714722586347"><ele>295.8</ele><time>2026-04-04T14:21:03Z</time></trkpt><trkpt lat="43.39961061817338" lon="11.247569466811091"><ele>295.4</ele><time>2026-04-04T14:21:04Z</time></trkpt><trkpt lat="43.39965554427349" lon="11.247427790206759"><ele>295.0</ele><time>2026-04-04T14:21:05Z</time></trkpt><trkpt lat="43.399690227954125" lon="11.247307732897282"><ele>296.0</ele><time>2026-04-04T14:21:06Z</time></trkpt><trkpt lat="43.39972979221457" lon="11.247196317323692"><ele>297.0</ele><time>2026-04-04T14:21:07Z</time></trkpt><trkpt lat="43.39977573340718" lon="11.247098110516056"><ele>298.0</ele><time>2026-04-04T14:21:08Z</time></trkpt><trkpt lat="43.39983300765228" lon="11.247009677344158"><ele>299.0</ele><time>2026-04-04T14:21:09Z</time></trkpt><trkpt lat="43.39990186522073" lon="11.246992520226707"><ele>300.0</ele><time>2026-04-04T14:21:10Z</time></trkpt><trkpt lat="43.40002753283932" lon="11.247040194178242"><ele>300.0</ele><time>2026-04-04T14:21:12Z</time></trkpt><trkpt lat="43.4001034211376" lon="11.247081221019062"><ele>300.0</ele><time>2026-04-04T14:21:13Z</time></trkpt><trkpt lat="43.400186499564036" lon="11.247121204505925"><ele>300.0</ele><time>2026-04-04T14:21:14Z</time></trkpt><trkpt lat="43.400273163480975" lon="11.24717590348376"><ele>300.0</ele><time>2026-04-04T14:21:15Z</time></trkpt><trkpt lat="43.40037227408413" lon="11.2472289309361"><ele>300.0</ele><time>2026-04-04T14:21:16Z</time></trkpt><trkpt lat="43.40046834144318" lon="11.24728952289953"><ele>302.5</ele><time>2026-04-04T14:21:17Z</time></trkpt><trkpt lat="43.4005823331381" lon="11.247361490786249"><ele>305.0</ele><time>2026-04-04T14:21:18Z</time></trkpt><trkpt lat="43.4006889208514" lon="11.24742952505372"><ele>307.5</ele><time>2026-04-04T14:21:19Z</time></trkpt><trkpt lat="43.40080964309271" lon="11.247491448342066"><ele>310.0</ele><time>2026-04-04T14:21:20Z</time></trkpt><trkpt lat="43.40091637886466" lon="11.247537226282054"><ele>310.0</ele><time>2026-04-04T14:21:21Z</time></trkpt><trkpt lat="43.401023614477594" lon="11.247588154737018"><ele>310.0</ele><time>2026-04-04T14:21:22Z</time></trkpt><trkpt lat="43.40111696308681" lon="11.247647810511404"><ele>310.0</ele><time>2026-04-04T14:21:23Z</time></trkpt><trkpt lat="43.401204085951626" lon="11.247678759198033"><ele>310.0</ele><time>2026-04-04T14:21:24Z</time></trkpt><trkpt lat="43.40128225672054" lon="11.24769758432497"><ele>310.0</ele><time>2026-04-04T14:21:25Z</time></trkpt><trkpt lat="43.40135794968463" lon="11.247691819084865"><ele>310.66666666666663</ele><time>2026-04-04T14:21:26Z</time></trkpt><trkpt lat="43.401428582555816" lon="11.247650570873269"><ele>311.3333333333333</ele><time>2026-04-04T14:21:27Z</time></trkpt><trkpt lat="43.40151352421105" lon="11.247644103767225"><ele>312.0</ele><time>2026-04-04T14:21:28Z</time></trkpt><trkpt lat="43.40160089569862" lon="11.247633812506919"><ele>312.6666666666667</ele><time>2026-04-04T14:21:29Z</time></trkpt><trkpt lat="43.40169547709653" lon="11.247628148822619"><ele>313.33333333333337</ele><time>2026-04-04T14:21:30Z</time></trkpt><trkpt lat="43.4017602110758" lon="11.247653796517026"><ele>314.0</ele><time>2026-04-04T14:21:31Z</time></trkpt><trkpt lat="43.40181207541554" lon="11.247704762492672"><ele>314.0</ele><time>2026-04-04T14:21:32Z</time></trkpt><trkpt lat="43.40189447965226" lon="11.247805393049621"><ele>314.0</ele><time>2026-04-04T14:21:34Z</time></trkpt><trkpt lat="43.40193951395684" lon="11.247888974349296"><ele>314.0</ele><time>2026-04-04T14:21:36Z</time></trkpt><trkpt lat="43.40199565127221" lon="11.247965092726114"><ele>314.0</ele><time>2026-04-04T14:21:38Z</time></trkpt><trkpt lat="43.40205738751328" lon="11.248066901648237"><ele>314.0</ele><time>2026-04-04T14:21:40Z</time></trkpt><trkpt lat="43.40209788891086" lon="11.24823710718334"><ele>314.1428571428571</ele><time>2026-04-04T14:21:42Z</time></trkpt><trkpt lat="43.402091391557974" lon="11.2483294821234"><ele>314.2857142857143</ele><time>2026-04-04T14:21:43Z</time></trkpt><trkpt lat="43.40208031894845" lon="11.248423371624876"><ele>314.42857142857144</ele><time>2026-04-04T14:21:44Z</time></trkpt><trkpt lat="43.40206747175758" lon="11.248523049982403"><ele>314.57142857142856</ele><time>2026-04-04T14:21:45Z</time></trkpt><trkpt lat="43.40205611880685" lon="11.248623427790738"><ele>314.7142857142857</ele><time>2026-04-04T14:21:46Z</time></trkpt><trkpt lat="43.40204857466297" lon="11.248719693471951"><ele>314.85714285714283</ele><time>2026-04-04T14:21:47Z</time></trkpt><trkpt lat="43.40205508535585" lon="11.248811682378612"><ele>315.0</ele><time>2026-04-04T14:21:48Z</time></trkpt><trkpt lat="43.4020944784034" lon="11.248904272390037"><ele>312.5</ele><time>2026-04-04T14:21:49Z</time></trkpt><trkpt lat="43.40217085844287" lon="11.249011333830344"><ele>310.0</ele><time>2026-04-04T14:21:50Z</time></trkpt><trkpt lat="43.4022782988481" lon="11.249124561317512"><ele>307.5</ele><time>2026-04-04T14:21:51Z</time></trkpt><trkpt lat="43.402373510270884" lon="11.249266749613566"><ele>305.0</ele><time>2026-04-04T14:21:52Z</time></trkpt><trkpt lat="43.402462017589045" lon="11.249373574421034"><ele>305.0</ele><time>2026-04-04T14:21:53Z</time></trkpt><trkpt lat="43.40254707757305" lon="11.249482627523863"><ele>305.0</ele><time>2026-04-04T14:21:54Z</time></trkpt><trkpt lat="43.40264147374108" lon="11.249559351697815"><ele>305.0</ele><time>2026-04-04T14:21:55Z</time></trkpt><trkpt lat="43.402723303144874" lon="11.249638220777772"><ele>305.0</ele><time>2026-04-04T14:21:56Z</time></trkpt><trkpt lat="43.4028097161807" lon="11.249663767307895"><ele>305.0</ele><time>2026-04-04T14:21:57Z</time></trkpt><trkpt lat="43.40291167302685" lon="11.249653883877698"><ele>304.0</ele><time>2026-04-04T14:21:58Z</time></trkpt><trkpt lat="43.403029894386734" lon="11.249614733854102"><ele>303.0</ele><time>2026-04-04T14:21:59Z</time></trkpt><trkpt lat="43.40316991600565" lon="11.249590962718726"><ele>302.0</ele><time>2026-04-04T14:22:00Z</time></trkpt><trkpt lat="43.40330046478194" lon="11.24955042990809"><ele>301.0</ele><time>2026-04-04T14:22:01Z</time></trkpt><trkpt lat="43.4034455082341" lon="11.24950748952595"><ele>301.0</ele><time>2026-04-04T14:22:02Z</time></trkpt><trkpt lat="43.403600918693115" lon="11.249443177884274"><ele>301.0</ele><time>2026-04-04T14:22:03Z</time></trkpt><trkpt lat="43.40374987413792" lon="11.24940907227097"><ele>301.0</ele><time>2026-04-04T14:22:04Z</time></trkpt><trkpt lat="43.40388335252373" lon="11.249377474125042"><ele>301.0</ele><time>2026-04-04T14:22:05Z</time></trkpt><trkpt lat="43.404013153107456" lon="11.249346689387599"><ele>299.8</ele><time>2026-04-04T14:22:06Z</time></trkpt><trkpt lat="43.404137865453805" lon="11.24931251559036"><ele>298.6</ele><time>2026-04-04T14:22:07Z</time></trkpt><trkpt lat="43.404249415562916" lon="11.249286896717457"><ele>297.4</ele><time>2026-04-04T14:22:08Z</time></trkpt><trkpt lat="43.404357443994726" lon="11.249276977299894"><ele>296.2</ele><time>2026-04-04T14:22:09Z</time></trkpt><trkpt lat="43.40444572673887" lon="11.249290676693942"><ele>295.0</ele><time>2026-04-04T14:22:10Z</time></trkpt><trkpt lat="43.40451750131202" lon="11.249333502413677"><ele>295.0</ele><time>2026-04-04T14:22:11Z</time></trkpt><trkpt lat="43.40457352208559" lon="11.249393014297887"><ele>295.0</ele><time>2026-04-04T14:22:12Z</time></trkpt><trkpt lat="43.40461187560529" lon="11.24947528058523"><ele>295.0</ele><time>2026-04-04T14:22:13Z</time></trkpt><trkpt lat="43.404629601518096" lon="11.249576864319875"><ele>295.0</ele><time>2026-04-04T14:22:14Z</time></trkpt><trkpt lat="43.40462340699285" lon="11.249689736005996"><ele>295.0</ele><time>2026-04-04T14:22:15Z</time></trkpt><trkpt lat="43.404593512495396" lon="11.249805457487152"><ele>295.0</ele><time>2026-04-04T14:22:16Z</time></trkpt><trkpt lat="43.40455323365339" lon="11.24994773925449"><ele>295.25</ele><time>2026-04-04T14:22:17Z</time></trkpt><trkpt lat="43.404508136771426" lon="11.250114462693235"><ele>295.5</ele><time>2026-04-04T14:22:18Z</time></trkpt><trkpt lat="43.40447052786779" lon="11.25028277829095"><ele>295.75</ele><time>2026-04-04T14:22:19Z</time></trkpt><trkpt lat="43.40443494588373" lon="11.250461533049455"><ele>296.0</ele><time>2026-04-04T14:22:20Z</time></trkpt><trkpt lat="43.40439666828131" lon="11.250641527402534"><ele>296.0</ele><time>2026-04-04T14:22:21Z</time></trkpt><trkpt lat="43.404360495471416" lon="11.250807257083661"><ele>296.0</ele><time>2026-04-04T14:22:22Z</time></trkpt><trkpt lat="43.40430790531021" lon="11.25095169630532"><ele>296.0</ele><time>2026-04-04T14:22:23Z</time></trkpt><trkpt lat="43.40426681089977" lon="11.251104032345609"><ele>296.0</ele><time>2026-04-04T14:22:24Z</time></trkpt><trkpt lat="43.404245371387546" lon="11.251267045376897"><ele>296.0</ele><time>2026-04-04T14:22:25Z</time></trkpt><trkpt lat="43.40422574266811" lon="11.251427071148106"><ele>296.0</ele><time>2026-04-04T14:22:26Z</time></trkpt><trkpt lat="43.404228537294316" lon="11.251581691762702"><ele>296.0</ele><time>2026-04-04T14:22:27Z</time></trkpt><trkpt lat="43.404207411714026" lon="11.251725137027767"><ele>296.0</ele><time>2026-04-04T14:22:28Z</time></trkpt><trkpt lat="43.40419612298445" lon="11.251867850020172"><ele>296.0</ele><time>2026-04-04T14:22:29Z</time></trkpt><trkpt lat="43.40416462081562" lon="11.2520369351141"><ele>295.5</ele><time>2026-04-04T14:22:30Z</time></trkpt><trkpt lat="43.40413127470421" lon="11.252200468801963"><ele>295.0</ele><time>2026-04-04T14:22:31Z</time></trkpt><trkpt lat="43.404099946238524" lon="11.25236441083645"><ele>294.5</ele><time>2026-04-04T14:22:32Z</time></trkpt><trkpt lat="43.40406964475249" lon="11.252533543597314"><ele>294.0</ele><time>2026-04-04T14:22:33Z</time></trkpt><trkpt lat="43.40403794682467" lon="11.252699734389406"><ele>293.5</ele><time>2026-04-04T14:22:34Z</time></trkpt><trkpt lat="43.40400487002543" lon="11.252866796775635"><ele>293.0</ele><time>2026-04-04T14:22:35Z</time></trkpt><trkpt lat="43.403969031719164" lon="11.253045609366794"><ele>292.5</ele><time>2026-04-04T14:22:36Z</time></trkpt><trkpt lat="43.403938106162414" lon="11.25322557976823"><ele>292.0</ele><time>2026-04-04T14:22:37Z</time></trkpt><trkpt lat="43.403907257909886" lon="11.253413220197336"><ele>292.0</ele><time>2026-04-04T14:22:38Z</time></trkpt><trkpt lat="43.40385560885917" lon="11.25360774417046"><ele>292.0</ele><time>2026-04-04T14:22:39Z</time></trkpt><trkpt lat="43.40381872762827" lon="11.253798813636754"><ele>292.0</ele><time>2026-04-04T14:22:40Z</time></trkpt><trkpt lat="43.40377725798827" lon="11.254016617235306"><ele>292.25</ele><time>2026-04-04T14:22:41Z</time></trkpt><trkpt lat="43.40374020432308" lon="11.25421484365609"><ele>292.5</ele><time>2026-04-04T14:22:42Z</time></trkpt><trkpt lat="43.4037027515081" lon="11.254415205380173"><ele>292.75</ele><time>2026-04-04T14:22:43Z</time></trkpt><trkpt lat="43.40366872585773" lon="11.254597232788665"><ele>293.0</ele><time>2026-04-04T14:22:44Z</time></trkpt><trkpt lat="43.40363913514182" lon="11.25475671545508"><ele>292.5</ele><time>2026-04-04T14:22:45Z</time></trkpt><trkpt lat="43.40360496210891" lon="11.254941873480847"><ele>292.0</ele><time>2026-04-04T14:22:46Z</time></trkpt><trkpt lat="43.403571140394895" lon="11.255125128073363"><ele>291.5</ele><time>2026-04-04T14:22:47Z</time></trkpt><trkpt lat="43.40353300233479" lon="11.255327584817595"><ele>291.0</ele><time>2026-04-04T14:22:48Z</time></trkpt><trkpt lat="43.40349894816664" lon="11.255503498428888"><ele>291.25</ele><time>2026-04-04T14:22:49Z</time></trkpt><trkpt lat="43.40346535294696" lon="11.255673118503735"><ele>291.5</ele><time>2026-04-04T14:22:50Z</time></trkpt><trkpt lat="43.403429515269615" lon="11.255854060533567"><ele>291.75</ele><time>2026-04-04T14:22:51Z</time></trkpt><trkpt lat="43.40340368689557" lon="11.256034667025018"><ele>292.0</ele><time>2026-04-04T14:22:52Z</time></trkpt><trkpt lat="43.40336389511842" lon="11.256233356143483"><ele>292.0</ele><time>2026-04-04T14:22:53Z</time></trkpt><trkpt lat="43.40332879607657" lon="11.256428297394397"><ele>292.0</ele><time>2026-04-04T14:22:54Z</time></trkpt><trkpt lat="43.40329516567226" lon="11.256619067425273"><ele>292.0</ele><time>2026-04-04T14:22:55Z</time></trkpt><trkpt lat="43.40324593594578" lon="11.25679128260676"><ele>292.0</ele><time>2026-04-04T14:22:56Z</time></trkpt><trkpt lat="43.40321363076809" lon="11.256960172698706"><ele>291.8</ele><time>2026-04-04T14:22:57Z</time></trkpt><trkpt lat="43.403183558709706" lon="11.257119541972264"><ele>291.6</ele><time>2026-04-04T14:22:58Z</time></trkpt><trkpt lat="43.403155204525056" lon="11.257268620070912"><ele>291.40000000000003</ele><time>2026-04-04T14:22:59Z</time></trkpt><trkpt lat="43.40313022812126" lon="11.257388121618852"><ele>291.2</ele><time>2026-04-04T14:23:00Z</time></trkpt><trkpt lat="43.40310936747109" lon="11.25748234303266"><ele>291.0</ele><time>2026-04-04T14:23:01Z</time></trkpt><trkpt lat="43.40308687665772" lon="11.257627405988629"><ele>291.0</ele><time>2026-04-04T14:23:03Z</time></trkpt><trkpt lat="43.40301323553152" lon="11.25771214702869"><ele>291.0</ele><time>2026-04-04T14:23:05Z</time></trkpt><trkpt lat="43.40295273516192" lon="11.257788232841833"><ele>291.0</ele><time>2026-04-04T14:23:07Z</time></trkpt><trkpt lat="43.403019195741315" lon="11.257988404793728"><ele>291.0</ele><time>2026-04-04T14:23:09Z</time></trkpt><trkpt lat="43.40308283725855" lon="11.258085962427634"><ele>291.0</ele><time>2026-04-04T14:23:10Z</time></trkpt><trkpt lat="43.403168007059854" lon="11.258184021033916"><ele>291.0</ele><time>2026-04-04T14:23:11Z</time></trkpt><trkpt lat="43.40325746389417" lon="11.258293853207613"><ele>291.0</ele><time>2026-04-04T14:23:12Z</time></trkpt><trkpt lat="43.40333286293342" lon="11.258410438986134"><ele>291.0</ele><time>2026-04-04T14:23:13Z</time></trkpt><trkpt lat="43.403414779619716" lon="11.258510005641652"><ele>291.0</ele><time>2026-04-04T14:23:14Z</time></trkpt><trkpt lat="43.40352180139411" lon="11.258609514832159"><ele>291.0</ele><time>2026-04-04T14:23:15Z</time></trkpt><trkpt lat="43.40363026298938" lon="11.25874043580264"><ele>291.0</ele><time>2026-04-04T14:23:16Z</time></trkpt><trkpt lat="43.403738874553824" lon="11.258866125120491"><ele>291.0</ele><time>2026-04-04T14:23:17Z</time></trkpt><trkpt lat="43.40384413912049" lon="11.258995719647631"><ele>291.0</ele><time>2026-04-04T14:23:18Z</time></trkpt><trkpt lat="43.40394479289016" lon="11.25911016350327"><ele>291.75</ele><time>2026-04-04T14:23:19Z</time></trkpt><trkpt lat="43.40404186495945" lon="11.25922406194017"><ele>292.5</ele><time>2026-04-04T14:23:20Z</time></trkpt><trkpt lat="43.40413898773782" lon="11.259342953811768"><ele>293.25</ele><time>2026-04-04T14:23:21Z</time></trkpt><trkpt lat="43.404227241182895" lon="11.259485940050535"><ele>294.0</ele><time>2026-04-04T14:23:22Z</time></trkpt><trkpt lat="43.40432027624321" lon="11.25959594755654"><ele>294.0</ele><time>2026-04-04T14:23:23Z</time></trkpt><trkpt lat="43.40438666960869" lon="11.259729198913876"><ele>294.0</ele><time>2026-04-04T14:23:24Z</time></trkpt><trkpt lat="43.40444637043762" lon="11.259864247504904"><ele>294.0</ele><time>2026-04-04T14:23:25Z</time></trkpt><trkpt lat="43.404505552597946" lon="11.260018241455482"><ele>294.0</ele><time>2026-04-04T14:23:26Z</time></trkpt><trkpt lat="43.40454663600454" lon="11.260188825419657"><ele>293.75</ele><time>2026-04-04T14:23:27Z</time></trkpt><trkpt lat="43.40460138400238" lon="11.26035463502601"><ele>293.5</ele><time>2026-04-04T14:23:28Z</time></trkpt><trkpt lat="43.404670979890014" lon="11.26052732643883"><ele>293.25</ele><time>2026-04-04T14:23:29Z</time></trkpt><trkpt lat="43.40473084947863" lon="11.260692992116448"><ele>293.0</ele><time>2026-04-04T14:23:30Z</time></trkpt><trkpt lat="43.40478678284077" lon="11.260856657757854"><ele>293.0</ele><time>2026-04-04T14:23:31Z</time></trkpt><trkpt lat="43.404851018605704" lon="11.261021045800257"><ele>293.0</ele><time>2026-04-04T14:23:32Z</time></trkpt><trkpt lat="43.40489579281319" lon="11.261200572154731"><ele>293.0</ele><time>2026-04-04T14:23:33Z</time></trkpt><trkpt lat="43.40497014716096" lon="11.261355892654413"><ele>293.0</ele><time>2026-04-04T14:23:34Z</time></trkpt><trkpt lat="43.405013583361956" lon="11.261526270039651"><ele>293.5</ele><time>2026-04-04T14:23:35Z</time></trkpt><trkpt lat="43.40507235382891" lon="11.261690635238276"><ele>294.0</ele><time>2026-04-04T14:23:36Z</time></trkpt><trkpt lat="43.405136590631024" lon="11.261874649189444"><ele>294.5</ele><time>2026-04-04T14:23:37Z</time></trkpt><trkpt lat="43.40519694583396" lon="11.262059804281822"><ele>295.0</ele><time>2026-04-04T14:23:38Z</time></trkpt><trkpt lat="43.40526036676848" lon="11.262255803607287"><ele>295.75</ele><time>2026-04-04T14:23:39Z</time></trkpt><trkpt lat="43.40532633513579" lon="11.262455730492192"><ele>296.5</ele><time>2026-04-04T14:23:40Z</time></trkpt><trkpt lat="43.405390300400974" lon="11.262638986336809"><ele>297.25</ele><time>2026-04-04T14:23:41Z</time></trkpt><trkpt lat="43.40545116138614" lon="11.262807447587585"><ele>298.0</ele><time>2026-04-04T14:23:42Z</time></trkpt><trkpt lat="43.40550137492918" lon="11.262968568860865"><ele>298.0</ele><time>2026-04-04T14:23:43Z</time></trkpt><trkpt lat="43.40552913132172" lon="11.263081777243295"><ele>298.0</ele><time>2026-04-04T14:23:44Z</time></trkpt><trkpt lat="43.405530078032726" lon="11.263195636116992"><ele>298.0</ele><time>2026-04-04T14:23:45Z</time></trkpt><trkpt lat="43.4054988697143" lon="11.263318247564948"><ele>298.0</ele><time>2026-04-04T14:23:46Z</time></trkpt><trkpt lat="43.40548815718172" lon="11.263483703426665"><ele>298.0</ele><time>2026-04-04T14:23:47Z</time></trkpt><trkpt lat="43.40547682548514" lon="11.263669805323707"><ele>299.0</ele><time>2026-04-04T14:23:48Z</time></trkpt><trkpt lat="43.405465328619414" lon="11.263848866503736"><ele>300.0</ele><time>2026-04-04T14:23:49Z</time></trkpt><trkpt lat="43.40546310447779" lon="11.264018017903282"><ele>301.0</ele><time>2026-04-04T14:23:50Z</time></trkpt><trkpt lat="43.40544467164131" lon="11.264172924983846"><ele>302.0</ele><time>2026-04-04T14:23:51Z</time></trkpt><trkpt lat="43.40543570436862" lon="11.264328238116285"><ele>302.25</ele><time>2026-04-04T14:23:52Z</time></trkpt><trkpt lat="43.405427017030206" lon="11.264487271901167"><ele>302.5</ele><time>2026-04-04T14:23:53Z</time></trkpt><trkpt lat="43.405436061209684" lon="11.264658529981357"><ele>302.75</ele><time>2026-04-04T14:23:54Z</time></trkpt><trkpt lat="43.40541964921962" lon="11.264825822453846"><ele>303.0</ele><time>2026-04-04T14:23:55Z</time></trkpt><trkpt lat="43.405440501236974" lon="11.265003955071032"><ele>303.25</ele><time>2026-04-04T14:23:56Z</time></trkpt><trkpt lat="43.40543117129839" lon="11.265184397255503"><ele>303.5</ele><time>2026-04-04T14:23:57Z</time></trkpt><trkpt lat="43.405437396781686" lon="11.265372409191"><ele>303.75</ele><time>2026-04-04T14:23:58Z</time></trkpt><trkpt lat="43.40543914921731" lon="11.26555969270166"><ele>304.0</ele><time>2026-04-04T14:23:59Z</time></trkpt><trkpt lat="43.40545579266402" lon="11.265733007448814"><ele>304.2</ele><time>2026-04-04T14:24:00Z</time></trkpt><trkpt lat="43.40545422747509" lon="11.265875069736065"><ele>304.4</ele><time>2026-04-04T14:24:01Z</time></trkpt><trkpt lat="43.405449558368666" lon="11.26601567147954"><ele>304.6</ele><time>2026-04-04T14:24:02Z</time></trkpt><trkpt lat="43.40543359633406" lon="11.26616085721451"><ele>304.8</ele><time>2026-04-04T14:24:03Z</time></trkpt><trkpt lat="43.405421082719215" lon="11.266305057889065"><ele>305.0</ele><time>2026-04-04T14:24:04Z</time></trkpt><trkpt lat="43.40539591798636" lon="11.266396414291815"><ele>304.8</ele><time>2026-04-04T14:24:05Z</time></trkpt><trkpt lat="43.4053649556071" lon="11.266496102877953"><ele>304.6</ele><time>2026-04-04T14:24:06Z</time></trkpt><trkpt lat="43.40528852411241" lon="11.266619841314867"><ele>304.4</ele><time>2026-04-04T14:24:07Z</time></trkpt><trkpt lat="43.40520238115868" lon="11.266735292529365"><ele>304.2</ele><time>2026-04-04T14:24:08Z</time></trkpt><trkpt lat="43.40513996580329" lon="11.266876888937341"><ele>304.0</ele><time>2026-04-04T14:24:09Z</time></trkpt><trkpt lat="43.40505563455499" lon="11.267004129521975"><ele>304.0</ele><time>2026-04-04T14:24:10Z</time></trkpt><trkpt lat="43.4049857700078" lon="11.267162211739008"><ele>304.0</ele><time>2026-04-04T14:24:11Z</time></trkpt><trkpt lat="43.404883406354834" lon="11.267281135813313"><ele>304.0</ele><time>2026-04-04T14:24:12Z</time></trkpt><trkpt lat="43.404788163434866" lon="11.26739367751141"><ele>304.0</ele><time>2026-04-04T14:24:13Z</time></trkpt><trkpt lat="43.40468735482736" lon="11.267473259134631"><ele>302.25</ele><time>2026-04-04T14:24:14Z</time></trkpt><trkpt lat="43.404586944051125" lon="11.267545223875482"><ele>300.5</ele><time>2026-04-04T14:24:15Z</time></trkpt><trkpt lat="43.40447552494178" lon="11.267626602721021"><ele>298.75</ele><time>2026-04-04T14:24:16Z</time></trkpt><trkpt lat="43.40437839329676" lon="11.267755097599354"><ele>297.0</ele><time>2026-04-04T14:24:17Z</time></trkpt><trkpt lat="43.40428343666509" lon="11.267876029673126"><ele>297.0</ele><time>2026-04-04T14:24:18Z</time></trkpt><trkpt lat="43.4041905141685" lon="11.268003825968513"><ele>297.0</ele><time>2026-04-04T14:24:19Z</time></trkpt><trkpt lat="43.404097788728166" lon="11.268129465526588"><ele>297.0</ele><time>2026-04-04T14:24:20Z</time></trkpt><trkpt lat="43.40400466204546" lon="11.268257693849804"><ele>297.0</ele><time>2026-04-04T14:24:21Z</time></trkpt><trkpt lat="43.40392101336725" lon="11.268384995358396"><ele>297.4</ele><time>2026-04-04T14:24:22Z</time></trkpt><trkpt lat="43.40383816466895" lon="11.268503247513362"><ele>297.79999999999995</ele><time>2026-04-04T14:24:23Z</time></trkpt><trkpt lat="43.40375394106459" lon="11.26859362763489"><ele>298.2</ele><time>2026-04-04T14:24:24Z</time></trkpt><trkpt lat="43.40367562994241" lon="11.268667899722837"><ele>298.59999999999997</ele><time>2026-04-04T14:24:25Z</time></trkpt><trkpt lat="43.40359277271608" lon="11.268753223639436"><ele>299.0</ele><time>2026-04-04T14:24:26Z</time></trkpt><trkpt lat="43.40348448162505" lon="11.26880241599231"><ele>299.59999999999997</ele><time>2026-04-04T14:24:27Z</time></trkpt><trkpt lat="43.4033932437689" lon="11.268849246282315"><ele>300.2</ele><time>2026-04-04T14:24:28Z</time></trkpt><trkpt lat="43.40329917012721" lon="11.268889684336127"><ele>300.79999999999995</ele><time>2026-04-04T14:24:29Z</time></trkpt><trkpt lat="43.40319715812458" lon="11.268944877920266"><ele>301.4</ele><time>2026-04-04T14:24:30Z</time></trkpt><trkpt lat="43.40307925745252" lon="11.268993135707534"><ele>302.0</ele><time>2026-04-04T14:24:31Z</time></trkpt><trkpt lat="43.40295385290706" lon="11.269038168499543"><ele>302.75</ele><time>2026-04-04T14:24:32Z</time></trkpt><trkpt lat="43.40283148646042" lon="11.269085758177484"><ele>303.5</ele><time>2026-04-04T14:24:33Z</time></trkpt><trkpt lat="43.40269389514433" lon="11.269112695450529"><ele>304.25</ele><time>2026-04-04T14:24:34Z</time></trkpt><trkpt lat="43.40255408827034" lon="11.269162962662774"><ele>305.0</ele><time>2026-04-04T14:24:35Z</time></trkpt><trkpt lat="43.40242225861102" lon="11.269233788494553"><ele>305.0</ele><time>2026-04-04T14:24:36Z</time></trkpt><trkpt lat="43.40229471813146" lon="11.269255370242048"><ele>305.0</ele><time>2026-04-04T14:24:37Z</time></trkpt><trkpt lat="43.40216548941968" lon="11.269299422786643"><ele>305.0</ele><time>2026-04-04T14:24:38Z</time></trkpt><trkpt lat="43.40204188420989" lon="11.269341558350694"><ele>305.0</ele><time>2026-04-04T14:24:39Z</time></trkpt><trkpt lat="43.401922818676894" lon="11.269404780191289"><ele>303.5</ele><time>2026-04-04T14:24:40Z</time></trkpt><trkpt lat="43.40179858482227" lon="11.269432804551855"><ele>302.0</ele><time>2026-04-04T14:24:41Z</time></trkpt><trkpt lat="43.40167717890329" lon="11.269478882214047"><ele>300.5</ele><time>2026-04-04T14:24:42Z</time></trkpt><trkpt lat="43.40156204409304" lon="11.269515958688523"><ele>299.0</ele><time>2026-04-04T14:24:43Z</time></trkpt><trkpt lat="43.401441791192596" lon="11.269551778929099"><ele>297.75</ele><time>2026-04-04T14:24:44Z</time></trkpt><trkpt lat="43.401326299609686" lon="11.26957729558622"><ele>296.5</ele><time>2026-04-04T14:24:45Z</time></trkpt><trkpt lat="43.40120942523946" lon="11.269595054888688"><ele>295.25</ele><time>2026-04-04T14:24:46Z</time></trkpt><trkpt lat="43.40109380892753" lon="11.269624021281377"><ele>294.0</ele><time>2026-04-04T14:24:47Z</time></trkpt><trkpt lat="43.40098891418448" lon="11.26965265556856"><ele>294.0</ele><time>2026-04-04T14:24:48Z</time></trkpt><trkpt lat="43.400891502180706" lon="11.269671882581425"><ele>294.0</ele><time>2026-04-04T14:24:49Z</time></trkpt><trkpt lat="43.4008052092315" lon="11.269676544646913"><ele>294.0</ele><time>2026-04-04T14:24:50Z</time></trkpt><trkpt lat="43.40070561656591" lon="11.269731303352026"><ele>294.0</ele><time>2026-04-04T14:24:52Z</time></trkpt><trkpt lat="43.40074611718815" lon="11.269896273561034"><ele>294.0</ele><time>2026-04-04T14:24:55Z</time></trkpt><trkpt lat="43.40082404420871" lon="11.269962148829338"><ele>293.5</ele><time>2026-04-04T14:24:56Z</time></trkpt><trkpt lat="43.40092319964136" lon="11.270059899335093"><ele>293.0</ele><time>2026-04-04T14:24:57Z</time></trkpt><trkpt lat="43.401011859471346" lon="11.27017965694626"><ele>292.5</ele><time>2026-04-04T14:24:58Z</time></trkpt><trkpt lat="43.401107360456024" lon="11.270334802839466"><ele>292.0</ele><time>2026-04-04T14:24:59Z</time></trkpt><trkpt lat="43.40120318970569" lon="11.270500740576782"><ele>290.0</ele><time>2026-04-04T14:25:00Z</time></trkpt><trkpt lat="43.40131320795481" lon="11.270677453624854"><ele>288.0</ele><time>2026-04-04T14:25:01Z</time></trkpt><trkpt lat="43.40140491417501" lon="11.270859941382225"><ele>286.0</ele><time>2026-04-04T14:25:02Z</time></trkpt><trkpt lat="43.40150960991599" lon="11.271033278375901"><ele>286.0</ele><time>2026-04-04T14:25:03Z</time></trkpt><trkpt lat="43.401612477789755" lon="11.271203601983705"><ele>286.0</ele><time>2026-04-04T14:25:04Z</time></trkpt><trkpt lat="43.40170979823327" lon="11.271364028693855"><ele>286.0</ele><time>2026-04-04T14:25:05Z</time></trkpt><trkpt lat="43.40181349579078" lon="11.271534967659386"><ele>285.25</ele><time>2026-04-04T14:25:06Z</time></trkpt><trkpt lat="43.401915631988025" lon="11.271703332797198"><ele>284.5</ele><time>2026-04-04T14:25:07Z</time></trkpt><trkpt lat="43.4020097035239" lon="11.271858403852923"><ele>283.75</ele><time>2026-04-04T14:25:08Z</time></trkpt><trkpt lat="43.40210037251632" lon="11.272007956076742"><ele>283.0</ele><time>2026-04-04T14:25:09Z</time></trkpt><trkpt lat="43.40219296687203" lon="11.27216126014061"><ele>281.5</ele><time>2026-04-04T14:25:10Z</time></trkpt><trkpt lat="43.402291152849564" lon="11.272323318191114"><ele>280.0</ele><time>2026-04-04T14:25:11Z</time></trkpt><trkpt lat="43.40238136373674" lon="11.272472161982202"><ele>278.5</ele><time>2026-04-04T14:25:12Z</time></trkpt><trkpt lat="43.402464483995544" lon="11.27260930662903"><ele>277.0</ele><time>2026-04-04T14:25:13Z</time></trkpt><trkpt lat="43.4025419703161" lon="11.272737155369471"><ele>277.0</ele><time>2026-04-04T14:25:14Z</time></trkpt><trkpt lat="43.40261527597066" lon="11.272858106122145"><ele>277.0</ele><time>2026-04-04T14:25:15Z</time></trkpt><trkpt lat="43.402686516902975" lon="11.272976369167436"><ele>277.0</ele><time>2026-04-04T14:25:16Z</time></trkpt><trkpt lat="43.402765578747704" lon="11.273107552121255"><ele>277.0</ele><time>2026-04-04T14:25:17Z</time></trkpt><trkpt lat="43.40285205139211" lon="11.27325071025634"><ele>276.0</ele><time>2026-04-04T14:25:18Z</time></trkpt><trkpt lat="43.4029411348411" lon="11.273398190091163"><ele>275.0</ele><time>2026-04-04T14:25:19Z</time></trkpt><trkpt lat="43.4030209091814" lon="11.27353025861953"><ele>274.0</ele><time>2026-04-04T14:25:20Z</time></trkpt><trkpt lat="43.403091643606494" lon="11.273649130038708"><ele>273.0</ele><time>2026-04-04T14:25:21Z</time></trkpt><trkpt lat="43.40317900524108" lon="11.27380060079383"><ele>273.0</ele><time>2026-04-04T14:25:22Z</time></trkpt><trkpt lat="43.40324393133783" lon="11.273928937088172"><ele>273.0</ele><time>2026-04-04T14:25:23Z</time></trkpt><trkpt lat="43.4032987976098" lon="11.274047427107659"><ele>273.0</ele><time>2026-04-04T14:25:24Z</time></trkpt><trkpt lat="43.40334663836214" lon="11.274162680127617"><ele>273.0</ele><time>2026-04-04T14:25:25Z</time></trkpt><trkpt lat="43.40339381515269" lon="11.274284866672142"><ele>273.0</ele><time>2026-04-04T14:25:27Z</time></trkpt><trkpt lat="43.40351969078791" lon="11.274106465355787"><ele>272.75</ele><time>2026-04-04T14:25:40Z</time></trkpt><trkpt lat="43.40358424043641" lon="11.27416182068526"><ele>272.5</ele><time>2026-04-04T14:25:43Z</time></trkpt><trkpt lat="43.40341473986363" lon="11.27433928699979"><ele>272.25</ele><time>2026-04-04T14:25:44Z</time></trkpt><trkpt lat="43.40344529877574" lon="11.274432068842302"><ele>272.0</ele><time>2026-04-04T14:25:46Z</time></trkpt><trkpt lat="43.40349269739153" lon="11.274583489145309"><ele>272.0</ele><time>2026-04-04T14:25:48Z</time></trkpt><trkpt lat="43.40352867983335" lon="11.274705415368912"><ele>272.0</ele><time>2026-04-04T14:25:49Z</time></trkpt><trkpt lat="43.40357090701563" lon="11.274854408819612"><ele>272.0</ele><time>2026-04-04T14:25:50Z</time></trkpt><trkpt lat="43.40361175359657" lon="11.275000641805333"><ele>272.0</ele><time>2026-04-04T14:25:51Z</time></trkpt><trkpt lat="43.40364695955836" lon="11.275129413034675"><ele>272.0</ele><time>2026-04-04T14:25:52Z</time></trkpt><trkpt lat="43.40367171273603" lon="11.275227982033721"><ele>272.33333333333337</ele><time>2026-04-04T14:25:53Z</time></trkpt><trkpt lat="43.40369516714164" lon="11.27532895101286"><ele>272.6666666666667</ele><time>2026-04-04T14:25:54Z</time></trkpt><trkpt lat="43.40371696239329" lon="11.275427342659615"><ele>273.0</ele><time>2026-04-04T14:25:55Z</time></trkpt><trkpt lat="43.40373490627691" lon="11.27551405673358"><ele>273.3333333333333</ele><time>2026-04-04T14:25:56Z</time></trkpt><trkpt lat="43.40376549095813" lon="11.275682462041656"><ele>273.66666666666663</ele><time>2026-04-04T14:25:58Z</time></trkpt><trkpt lat="43.40378209087707" lon="11.275791741964987"><ele>274.0</ele><time>2026-04-04T14:25:59Z</time></trkpt><trkpt lat="43.403798728254344" lon="11.27590126849884"><ele>273.4</ele><time>2026-04-04T14:26:00Z</time></trkpt><trkpt lat="43.40381507530189" lon="11.276008883519436"><ele>272.79999999999995</ele><time>2026-04-04T14:26:01Z</time></trkpt><trkpt lat="43.40383425362651" lon="11.276143639493693"><ele>272.20000000000005</ele><time>2026-04-04T14:26:02Z</time></trkpt><trkpt lat="43.40385376927138" lon="11.27628033791404"><ele>271.6</ele><time>2026-04-04T14:26:03Z</time></trkpt><trkpt lat="43.40387557029678" lon="11.276433044635349"><ele>271.0</ele><time>2026-04-04T14:26:04Z</time></trkpt><trkpt lat="43.40389621526471" lon="11.27657765352118"><ele>271.0</ele><time>2026-04-04T14:26:05Z</time></trkpt><trkpt lat="43.40391708648506" lon="11.276724077791782"><ele>271.0</ele><time>2026-04-04T14:26:06Z</time></trkpt><trkpt lat="43.40393677329529" lon="11.27686227152848"><ele>271.0</ele><time>2026-04-04T14:26:07Z</time></trkpt><trkpt lat="43.403956792172956" lon="11.277002796277783"><ele>271.0</ele><time>2026-04-04T14:26:08Z</time></trkpt><trkpt lat="43.403976554871434" lon="11.277137698921038"><ele>271.0</ele><time>2026-04-04T14:26:09Z</time></trkpt><trkpt lat="43.40399551468152" lon="11.277262236488774"><ele>271.40000000000003</ele><time>2026-04-04T14:26:10Z</time></trkpt><trkpt lat="43.404015372168445" lon="11.277385018695494"><ele>271.8</ele><time>2026-04-04T14:26:11Z</time></trkpt><trkpt lat="43.40404689555321" lon="11.277539364396201"><ele>272.20000000000005</ele><time>2026-04-04T14:26:12Z</time></trkpt><trkpt lat="43.404081122199784" lon="11.277681037836086"><ele>272.6</ele><time>2026-04-04T14:26:13Z</time></trkpt><trkpt lat="43.404121872548984" lon="11.277821040257386"><ele>273.0</ele><time>2026-04-04T14:26:14Z</time></trkpt><trkpt lat="43.40416011787364" lon="11.277940874948222"><ele>273.0</ele><time>2026-04-04T14:26:15Z</time></trkpt><trkpt lat="43.40420678892338" lon="11.278077678052346"><ele>273.0</ele><time>2026-04-04T14:26:16Z</time></trkpt><trkpt lat="43.40426005423995" lon="11.278217906501038"><ele>273.0</ele><time>2026-04-04T14:26:17Z</time></trkpt><trkpt lat="43.404313823418455" lon="11.278348558456267"><ele>273.0</ele><time>2026-04-04T14:26:18Z</time></trkpt><trkpt lat="43.40437833680471" lon="11.278488763442668"><ele>273.2</ele><time>2026-04-04T14:26:19Z</time></trkpt><trkpt lat="43.404449019380166" lon="11.278614754745343"><ele>273.4</ele><time>2026-04-04T14:26:20Z</time></trkpt><trkpt lat="43.40450988163481" lon="11.27871618167982"><ele>273.59999999999997</ele><time>2026-04-04T14:26:21Z</time></trkpt><trkpt lat="43.404566745493035" lon="11.278807463894545"><ele>273.8</ele><time>2026-04-04T14:26:22Z</time></trkpt><trkpt lat="43.40463703522457" lon="11.278917795720302"><ele>274.0</ele><time>2026-04-04T14:26:23Z</time></trkpt><trkpt lat="43.40471919306886" lon="11.279045925705374"><ele>275.5</ele><time>2026-04-04T14:26:24Z</time></trkpt><trkpt lat="43.40480722800175" lon="11.279183237575829"><ele>277.0</ele><time>2026-04-04T14:26:25Z</time></trkpt><trkpt lat="43.40489957273142" lon="11.279326939595403"><ele>278.5</ele><time>2026-04-04T14:26:26Z</time></trkpt><trkpt lat="43.40498375061988" lon="11.279456318879799"><ele>280.0</ele><time>2026-04-04T14:26:27Z</time></trkpt><trkpt lat="43.405060324659495" lon="11.279575061931098"><ele>280.0</ele><time>2026-04-04T14:26:28Z</time></trkpt><trkpt lat="43.405129717544035" lon="11.279684596070052"><ele>280.0</ele><time>2026-04-04T14:26:29Z</time></trkpt><trkpt lat="43.40519409720102" lon="11.279787093350432"><ele>280.0</ele><time>2026-04-04T14:26:30Z</time></trkpt><trkpt lat="43.405239223207595" lon="11.27987149898166"><ele>280.0</ele><time>2026-04-04T14:26:31Z</time></trkpt><trkpt lat="43.40529054639884" lon="11.279966417843033"><ele>280.0</ele><time>2026-04-04T14:26:32Z</time></trkpt><trkpt lat="43.40532466484204" lon="11.28006546194727"><ele>280.0</ele><time>2026-04-04T14:26:34Z</time></trkpt><trkpt lat="43.40535206663476" lon="11.280165414727149"><ele>280.2</ele><time>2026-04-04T14:26:38Z</time></trkpt><trkpt lat="43.40551240903502" lon="11.28015328919554"><ele>280.4</ele><time>2026-04-04T14:26:41Z</time></trkpt><trkpt lat="43.40541487769355" lon="11.280155050236099"><ele>280.6</ele><time>2026-04-04T14:26:43Z</time></trkpt><trkpt lat="43.405378915602064" lon="11.280258957685485"><ele>280.8</ele><time>2026-04-04T14:26:46Z</time></trkpt><trkpt lat="43.40539519792968" lon="11.280366105363992"><ele>281.0</ele><time>2026-04-04T14:26:47Z</time></trkpt><trkpt lat="43.40543116057194" lon="11.280505354120661"><ele>282.5</ele><time>2026-04-04T14:26:48Z</time></trkpt><trkpt lat="43.405440391364" lon="11.280673343999851"><ele>284.0</ele><time>2026-04-04T14:26:49Z</time></trkpt><trkpt lat="43.40547944614353" lon="11.28087542001094"><ele>285.5</ele><time>2026-04-04T14:26:50Z</time></trkpt><trkpt lat="43.405531599194795" lon="11.281090640035462"><ele>287.0</ele><time>2026-04-04T14:26:51Z</time></trkpt><trkpt lat="43.40560359075293" lon="11.281304364111776"><ele>289.6666666666667</ele><time>2026-04-04T14:26:52Z</time></trkpt><trkpt lat="43.40566693715349" lon="11.28156272250595"><ele>292.3333333333333</ele><time>2026-04-04T14:26:53Z</time></trkpt><trkpt lat="43.405722166021285" lon="11.281794614717263"><ele>295.0</ele><time>2026-04-04T14:26:54Z</time></trkpt><trkpt lat="43.40579560122033" lon="11.28198805112665"><ele>295.0</ele><time>2026-04-04T14:26:55Z</time></trkpt><trkpt lat="43.40586652143643" lon="11.282211248054681"><ele>295.0</ele><time>2026-04-04T14:26:56Z</time></trkpt><trkpt lat="43.40593384556102" lon="11.282415389284711"><ele>295.0</ele><time>2026-04-04T14:26:57Z</time></trkpt><trkpt lat="43.406005618071745" lon="11.282588512459071"><ele>295.75</ele><time>2026-04-04T14:26:58Z</time></trkpt><trkpt lat="43.406090205099396" lon="11.282724981199218"><ele>296.5</ele><time>2026-04-04T14:26:59Z</time></trkpt><trkpt lat="43.40620291997462" lon="11.282827684482866"><ele>297.25</ele><time>2026-04-04T14:27:00Z</time></trkpt><trkpt lat="43.40634169642297" lon="11.282915003170086"><ele>298.0</ele><time>2026-04-04T14:27:01Z</time></trkpt><trkpt lat="43.40650493515162" lon="11.282996408830337"><ele>298.0</ele><time>2026-04-04T14:27:02Z</time></trkpt><trkpt lat="43.406675538999885" lon="11.283083142364555"><ele>298.0</ele><time>2026-04-04T14:27:03Z</time></trkpt><trkpt lat="43.40684624088939" lon="11.28315811656927"><ele>298.0</ele><time>2026-04-04T14:27:04Z</time></trkpt><trkpt lat="43.40699481709997" lon="11.283220202421502"><ele>299.3333333333333</ele><time>2026-04-04T14:27:05Z</time></trkpt><trkpt lat="43.40713630687453" lon="11.283296046725843"><ele>300.6666666666667</ele><time>2026-04-04T14:27:06Z</time></trkpt><trkpt lat="43.40727270395922" lon="11.283375850982265"><ele>302.0</ele><time>2026-04-04T14:27:07Z</time></trkpt><trkpt lat="43.407403923698936" lon="11.28349291849575"><ele>303.6666666666667</ele><time>2026-04-04T14:27:08Z</time></trkpt><trkpt lat="43.40753179812815" lon="11.28360732725802"><ele>305.3333333333333</ele><time>2026-04-04T14:27:09Z</time></trkpt><trkpt lat="43.40765567633609" lon="11.283746818956947"><ele>307.0</ele><time>2026-04-04T14:27:10Z</time></trkpt><trkpt lat="43.40776863014047" lon="11.283906964907144"><ele>308.0</ele><time>2026-04-04T14:27:11Z</time></trkpt><trkpt lat="43.407867095428564" lon="11.284095806201261"><ele>309.0</ele><time>2026-04-04T14:27:12Z</time></trkpt><trkpt lat="43.407956850417996" lon="11.284295678005364"><ele>310.0</ele><time>2026-04-04T14:27:13Z</time></trkpt><trkpt lat="43.408048497321126" lon="11.284496493993977"><ele>310.0</ele><time>2026-04-04T14:27:13.999Z</time></trkpt><trkpt lat="43.40814704381866" lon="11.284712935022851"><ele>310.0</ele><time>2026-04-04T14:27:14.999Z</time></trkpt><trkpt lat="43.408236225920504" lon="11.284906513169172"><ele>310.0</ele><time>2026-04-04T14:27:15.999Z</time></trkpt><trkpt lat="43.408322054835544" lon="11.28508766226806"><ele>308.25</ele><time>2026-04-04T14:27:16.999Z</time></trkpt><trkpt lat="43.40842354985386" lon="11.285234052924139"><ele>306.5</ele><time>2026-04-04T14:27:17.999Z</time></trkpt><trkpt lat="43.408516045853254" lon="11.285372097901158"><ele>304.75</ele><time>2026-04-04T14:27:18.999Z</time></trkpt><trkpt lat="43.40863282757236" lon="11.285467566519932"><ele>303.0</ele><time>2026-04-04T14:27:19.999Z</time></trkpt><trkpt lat="43.40876360415545" lon="11.285551459968897"><ele>301.6666666666667</ele><time>2026-04-04T14:27:20.999Z</time></trkpt><trkpt lat="43.40891596408711" lon="11.28563613648623"><ele>300.33333333333337</ele><time>2026-04-04T14:27:21.999Z</time></trkpt><trkpt lat="43.40905592517681" lon="11.285739218142147"><ele>299.0</ele><time>2026-04-04T14:27:22.999Z</time></trkpt><trkpt lat="43.409177865780094" lon="11.285837327358038"><ele>299.0</ele><time>2026-04-04T14:27:23.999Z</time></trkpt><trkpt lat="43.40926927322994" lon="11.285961836061254"><ele>299.0</ele><time>2026-04-04T14:27:24.999Z</time></trkpt><trkpt lat="43.40934052549309" lon="11.286116234153301"><ele>299.0</ele><time>2026-04-04T14:27:25.999Z</time></trkpt><trkpt lat="43.40937263937317" lon="11.286296298439742"><ele>299.0</ele><time>2026-04-04T14:27:26.999Z</time></trkpt><trkpt lat="43.40936694921533" lon="11.286469306304776"><ele>296.6666666666667</ele><time>2026-04-04T14:27:27.999Z</time></trkpt><trkpt lat="43.40933249436594" lon="11.28666490678648"><ele>294.3333333333333</ele><time>2026-04-04T14:27:28.999Z</time></trkpt><trkpt lat="43.40929203938103" lon="11.286889722015655"><ele>292.0</ele><time>2026-04-04T14:27:29.999Z</time></trkpt><trkpt lat="43.40925247922733" lon="11.28710543448306"><ele>291.0</ele><time>2026-04-04T14:27:30.999Z</time></trkpt><trkpt lat="43.409216455453894" lon="11.287301351341178"><ele>290.0</ele><time>2026-04-04T14:27:31.999Z</time></trkpt><trkpt lat="43.40917533219011" lon="11.287505397347193"><ele>289.0</ele><time>2026-04-04T14:27:32.999Z</time></trkpt><trkpt lat="43.409120075575835" lon="11.287716271307904"><ele>289.0</ele><time>2026-04-04T14:27:33.999Z</time></trkpt><trkpt lat="43.40904938955749" lon="11.287917459486938"><ele>289.0</ele><time>2026-04-04T14:27:34.999Z</time></trkpt><trkpt lat="43.40896646570044" lon="11.28811949308215"><ele>289.0</ele><time>2026-04-04T14:27:35.999Z</time></trkpt><trkpt lat="43.40887367901896" lon="11.288325668185264"><ele>289.3333333333333</ele><time>2026-04-04T14:27:36.999Z</time></trkpt><trkpt lat="43.40877920120177" lon="11.288529695266519"><ele>289.6666666666667</ele><time>2026-04-04T14:27:37.999Z</time></trkpt><trkpt lat="43.40869477269421" lon="11.288716239698168"><ele>290.0</ele><time>2026-04-04T14:27:38.999Z</time></trkpt><trkpt lat="43.4086299418368" lon="11.288897975698298"><ele>290.5</ele><time>2026-04-04T14:27:39.999Z</time></trkpt><trkpt lat="43.408576044973444" lon="11.289095698599821"><ele>291.0</ele><time>2026-04-04T14:27:40.999Z</time></trkpt><trkpt lat="43.40855614089931" lon="11.28930326576372"><ele>291.5</ele><time>2026-04-04T14:27:41.999Z</time></trkpt><trkpt lat="43.40851201387886" lon="11.28949142723771"><ele>292.0</ele><time>2026-04-04T14:27:42.999Z</time></trkpt><trkpt lat="43.40848713540756" lon="11.289659964199556"><ele>292.4</ele><time>2026-04-04T14:27:43.999Z</time></trkpt><trkpt lat="43.40846671360926" lon="11.289806295943858"><ele>292.79999999999995</ele><time>2026-04-04T14:27:44.999Z</time></trkpt><trkpt lat="43.40845104802829" lon="11.289927748912412"><ele>293.2</ele><time>2026-04-04T14:27:45.999Z</time></trkpt><trkpt lat="43.408437986684724" lon="11.290037580471035"><ele>293.59999999999997</ele><time>2026-04-04T14:27:46.999Z</time></trkpt><trkpt lat="43.4084282575946" lon="11.290179071118317"><ele>294.0</ele><time>2026-04-04T14:27:48.999Z</time></trkpt><trkpt lat="43.408632342350145" lon="11.290179177667131"><ele>294.0</ele><time>2026-04-04T14:27:50.999Z</time></trkpt><trkpt lat="43.40869217691581" lon="11.290112760045176"><ele>294.0</ele><time>2026-04-04T14:27:51.999Z</time></trkpt><trkpt lat="43.40876334485307" lon="11.290054969520554"><ele>294.0</ele><time>2026-04-04T14:27:52.999Z</time></trkpt><trkpt lat="43.40881801585809" lon="11.289968683281167"><ele>294.0</ele><time>2026-04-04T14:27:53.999Z</time></trkpt><trkpt lat="43.40888520080183" lon="11.289888429817424"><ele>294.0</ele><time>2026-04-04T14:27:54.999Z</time></trkpt><trkpt lat="43.408970595070635" lon="11.289829033854891"><ele>294.0</ele><time>2026-04-04T14:27:55.999Z</time></trkpt><trkpt lat="43.40906593525486" lon="11.289792125296675"><ele>293.8</ele><time>2026-04-04T14:27:56.999Z</time></trkpt><trkpt lat="43.40916532567014" lon="11.28976831038006"><ele>293.59999999999997</ele><time>2026-04-04T14:27:57.999Z</time></trkpt><trkpt lat="43.40925943891393" lon="11.289739965427495"><ele>293.4</ele><time>2026-04-04T14:27:58.999Z</time></trkpt><trkpt lat="43.409342453692915" lon="11.289710057019029"><ele>293.2</ele><time>2026-04-04T14:27:59.999Z</time></trkpt><trkpt lat="43.409425218388726" lon="11.289676276956463"><ele>293.0</ele><time>2026-04-04T14:28:00.999Z</time></trkpt><trkpt lat="43.4095024769072" lon="11.289631904485866"><ele>292.33333333333337</ele><time>2026-04-04T14:28:01.999Z</time></trkpt><trkpt lat="43.40957999365314" lon="11.289582728133079"><ele>291.6666666666667</ele><time>2026-04-04T14:28:02.999Z</time></trkpt><trkpt lat="43.409660082765384" lon="11.289536731854902"><ele>291.0</ele><time>2026-04-04T14:28:03.999Z</time></trkpt><trkpt lat="43.40975085689427" lon="11.289490751335686"><ele>290.3333333333333</ele><time>2026-04-04T14:28:04.999Z</time></trkpt><trkpt lat="43.409831890237214" lon="11.289443570005217"><ele>289.66666666666663</ele><time>2026-04-04T14:28:05.999Z</time></trkpt><trkpt lat="43.40990781290456" lon="11.289401883922082"><ele>289.0</ele><time>2026-04-04T14:28:06.999Z</time></trkpt><trkpt lat="43.409986970765516" lon="11.289367038714333"><ele>288.16666666666663</ele><time>2026-04-04T14:28:07.999Z</time></trkpt><trkpt lat="43.41006117493804" lon="11.28934221083031"><ele>287.3333333333333</ele><time>2026-04-04T14:28:08.999Z</time></trkpt><trkpt lat="43.41012737391937" lon="11.289328444046507"><ele>286.5</ele><time>2026-04-04T14:28:09.999Z</time></trkpt><trkpt lat="43.410217946624215" lon="11.289300607670839"><ele>285.6666666666667</ele><time>2026-04-04T14:28:10.999Z</time></trkpt><trkpt lat="43.41029301132837" lon="11.289277859091579"><ele>284.83333333333337</ele><time>2026-04-04T14:28:11.999Z</time></trkpt><trkpt lat="43.41037639388984" lon="11.289249934228563"><ele>284.0</ele><time>2026-04-04T14:28:12.999Z</time></trkpt><trkpt lat="43.410461328511936" lon="11.289225990993343"><ele>283.59999999999997</ele><time>2026-04-04T14:28:13.999Z</time></trkpt><trkpt lat="43.410540003954985" lon="11.289206528558521"><ele>283.2</ele><time>2026-04-04T14:28:14.999Z</time></trkpt><trkpt lat="43.41062195242865" lon="11.289186627349617"><ele>282.79999999999995</ele><time>2026-04-04T14:28:15.999Z</time></trkpt><trkpt lat="43.4107139924615" lon="11.289169797177147"><ele>282.4</ele><time>2026-04-04T14:28:16.999Z</time></trkpt><trkpt lat="43.41081670312657" lon="11.289152130889892"><ele>282.0</ele><time>2026-04-04T14:28:17.999Z</time></trkpt><trkpt lat="43.41091175429942" lon="11.289127803800147"><ele>282.0</ele><time>2026-04-04T14:28:18.999Z</time></trkpt><trkpt lat="43.41099484656777" lon="11.289054997105394"><ele>282.0</ele><time>2026-04-04T14:28:19.999Z</time></trkpt><trkpt lat="43.411066330275624" lon="11.288949418984664"><ele>282.0</ele><time>2026-04-04T14:28:20.999Z</time></trkpt><trkpt lat="43.41113074206018" lon="11.288809947836759"><ele>282.0</ele><time>2026-04-04T14:28:21.999Z</time></trkpt><trkpt lat="43.41118228927977" lon="11.28865352005807"><ele>282.0</ele><time>2026-04-04T14:28:22.999Z</time></trkpt><trkpt lat="43.41122672648189" lon="11.288500949524302"><ele>282.2</ele><time>2026-04-04T14:28:23.999Z</time></trkpt><trkpt lat="43.41128795003591" lon="11.288361374586353"><ele>282.4</ele><time>2026-04-04T14:28:24.999Z</time></trkpt><trkpt lat="43.41135785507008" lon="11.288246441624727"><ele>282.6</ele><time>2026-04-04T14:28:25.999Z</time></trkpt><trkpt lat="43.411430870732914" lon="11.288142993523222"><ele>282.8</ele><time>2026-04-04T14:28:26.999Z</time></trkpt><trkpt lat="43.411512239551705" lon="11.288047355316015"><ele>283.0</ele><time>2026-04-04T14:28:27.999Z</time></trkpt><trkpt lat="43.41160503603441" lon="11.287961593197517"><ele>280.75</ele><time>2026-04-04T14:28:28.999Z</time></trkpt><trkpt lat="43.41171563423746" lon="11.287917765562065"><ele>278.5</ele><time>2026-04-04T14:28:30Z</time></trkpt><trkpt lat="43.41182427852383" lon="11.287835955606504"><ele>276.25</ele><time>2026-04-04T14:28:31Z</time></trkpt><trkpt lat="43.4119255147966" lon="11.287767844182255"><ele>274.0</ele><time>2026-04-04T14:28:32Z</time></trkpt><trkpt lat="43.41203273258703" lon="11.287708534602201"><ele>274.0</ele><time>2026-04-04T14:28:33Z</time></trkpt><trkpt lat="43.412128467903365" lon="11.287664832552105"><ele>274.0</ele><time>2026-04-04T14:28:34Z</time></trkpt><trkpt lat="43.41222445456574" lon="11.28761850634648"><ele>274.0</ele><time>2026-04-04T14:28:35Z</time></trkpt><trkpt lat="43.41233035994267" lon="11.287617445773503"><ele>274.0</ele><time>2026-04-04T14:28:36Z</time></trkpt><trkpt lat="43.41243889359525" lon="11.287668437696514"><ele>274.0</ele><time>2026-04-04T14:28:37Z</time></trkpt><trkpt lat="43.41254573104856" lon="11.287690987047153"><ele>274.0</ele><time>2026-04-04T14:28:38Z</time></trkpt><trkpt lat="43.41265332439352" lon="11.287714926070317"><ele>274.0</ele><time>2026-04-04T14:28:39Z</time></trkpt><trkpt lat="43.41276824840409" lon="11.287734996871915"><ele>274.0</ele><time>2026-04-04T14:28:40Z</time></trkpt><trkpt lat="43.41288965289912" lon="11.287725257190349"><ele>274.0</ele><time>2026-04-04T14:28:41Z</time></trkpt><trkpt lat="43.412995410321685" lon="11.287636247684867"><ele>274.0</ele><time>2026-04-04T14:28:42Z</time></trkpt><trkpt lat="43.41309228030908" lon="11.287583765442378"><ele>274.0</ele><time>2026-04-04T14:28:43Z</time></trkpt><trkpt lat="43.41319037684941" lon="11.287531765131602"><ele>274.0</ele><time>2026-04-04T14:28:44Z</time></trkpt><trkpt lat="43.41329074421807" lon="11.287489896616286"><ele>274.0</ele><time>2026-04-04T14:28:45Z</time></trkpt><trkpt lat="43.41337993588615" lon="11.287427532147209"><ele>274.0</ele><time>2026-04-04T14:28:46Z</time></trkpt><trkpt lat="43.413450578222296" lon="11.287339470852036"><ele>273.5</ele><time>2026-04-04T14:28:47Z</time></trkpt><trkpt lat="43.41350519565209" lon="11.287213120935641"><ele>273.0</ele><time>2026-04-04T14:28:48Z</time></trkpt><trkpt lat="43.41354885250421" lon="11.287068628357046"><ele>272.5</ele><time>2026-04-04T14:28:49Z</time></trkpt><trkpt lat="43.41358248752158" lon="11.286909290513615"><ele>272.0</ele><time>2026-04-04T14:28:50Z</time></trkpt><trkpt lat="43.41362423607432" lon="11.286749915459058"><ele>272.0</ele><time>2026-04-04T14:28:51Z</time></trkpt><trkpt lat="43.41367171943961" lon="11.286587050505323"><ele>272.0</ele><time>2026-04-04T14:28:52Z</time></trkpt><trkpt lat="43.413719219199095" lon="11.28642392638744"><ele>272.0</ele><time>2026-04-04T14:28:53Z</time></trkpt><trkpt lat="43.4137684757693" lon="11.286260460214182"><ele>272.0</ele><time>2026-04-04T14:28:54Z</time></trkpt><trkpt lat="43.413822571741335" lon="11.286105642354526"><ele>273.25</ele><time>2026-04-04T14:28:55Z</time></trkpt><trkpt lat="43.41387900088283" lon="11.285964339055052"><ele>274.5</ele><time>2026-04-04T14:28:56Z</time></trkpt><trkpt lat="43.41394408658529" lon="11.2858396629606"><ele>275.75</ele><time>2026-04-04T14:28:57Z</time></trkpt><trkpt lat="43.414020098631646" lon="11.285690884877532"><ele>277.0</ele><time>2026-04-04T14:28:58Z</time></trkpt><trkpt lat="43.41410180429463" lon="11.285552427399903"><ele>277.0</ele><time>2026-04-04T14:28:59Z</time></trkpt><trkpt lat="43.41419237667674" lon="11.285430469405895"><ele>277.0</ele><time>2026-04-04T14:28:59.999Z</time></trkpt><trkpt lat="43.41429608575402" lon="11.285319740067187"><ele>277.0</ele><time>2026-04-04T14:29:00.999Z</time></trkpt><trkpt lat="43.41440082947714" lon="11.285209357880404"><ele>277.0</ele><time>2026-04-04T14:29:01.999Z</time></trkpt><trkpt lat="43.41450441717801" lon="11.285116055439756"><ele>277.0</ele><time>2026-04-04T14:29:02.999Z</time></trkpt><trkpt lat="43.41458938478867" lon="11.28502196015086"><ele>277.0</ele><time>2026-04-04T14:29:03.999Z</time></trkpt><trkpt lat="43.41468471622303" lon="11.284979871590869"><ele>277.0</ele><time>2026-04-04T14:29:04.999Z</time></trkpt><trkpt lat="43.41476859872938" lon="11.28489827424853"><ele>277.0</ele><time>2026-04-04T14:29:05.999Z</time></trkpt><trkpt lat="43.414857940597535" lon="11.284836924770351"><ele>277.0</ele><time>2026-04-04T14:29:06.999Z</time></trkpt><trkpt lat="43.414937484831405" lon="11.284757379687992"><ele>277.0</ele><time>2026-04-04T14:29:07.999Z</time></trkpt><trkpt lat="43.41498570327932" lon="11.28460613540573"><ele>277.0</ele><time>2026-04-04T14:29:08.999Z</time></trkpt><trkpt lat="43.41505108593454" lon="11.284486717020114"><ele>277.0</ele><time>2026-04-04T14:29:09.999Z</time></trkpt><trkpt lat="43.41511749534965" lon="11.284363222769253"><ele>277.0</ele><time>2026-04-04T14:29:10.999Z</time></trkpt><trkpt lat="43.415187246905624" lon="11.28423744106783"><ele>277.0</ele><time>2026-04-04T14:29:11.999Z</time></trkpt><trkpt lat="43.415244859299776" lon="11.284097970873068"><ele>277.0</ele><time>2026-04-04T14:29:12.999Z</time></trkpt><trkpt lat="43.4153056159583" lon="11.2839641249737"><ele>277.0</ele><time>2026-04-04T14:29:13.999Z</time></trkpt><trkpt lat="43.415368035611806" lon="11.283844132493984"><ele>277.0</ele><time>2026-04-04T14:29:14.999Z</time></trkpt><trkpt lat="43.41543738798346" lon="11.283724158381768"><ele>274.5</ele><time>2026-04-04T14:29:15.999Z</time></trkpt><trkpt lat="43.41550991589602" lon="11.283599232884137"><ele>272.0</ele><time>2026-04-04T14:29:16.999Z</time></trkpt><trkpt lat="43.41557903473638" lon="11.283470736234591"><ele>269.5</ele><time>2026-04-04T14:29:17.999Z</time></trkpt><trkpt lat="43.41564331619693" lon="11.283344995926255"><ele>267.0</ele><time>2026-04-04T14:29:18.999Z</time></trkpt><trkpt lat="43.415711306199505" lon="11.283224817128573"><ele>267.0</ele><time>2026-04-04T14:29:19.999Z</time></trkpt><trkpt lat="43.41577811667383" lon="11.283109161362255"><ele>267.0</ele><time>2026-04-04T14:29:20.999Z</time></trkpt><trkpt lat="43.41584211995787" lon="11.282993172567423"><ele>267.0</ele><time>2026-04-04T14:29:21.999Z</time></trkpt><trkpt lat="43.41591250933695" lon="11.282879209410972"><ele>267.0</ele><time>2026-04-04T14:29:22.999Z</time></trkpt><trkpt lat="43.415999844153625" lon="11.2827971478778"><ele>267.0</ele><time>2026-04-04T14:29:23.999Z</time></trkpt><trkpt lat="43.416070904973544" lon="11.282706792168993"><ele>266.0</ele><time>2026-04-04T14:29:24.999Z</time></trkpt><trkpt lat="43.416147180572864" lon="11.282648912531991"><ele>265.0</ele><time>2026-04-04T14:29:25.999Z</time></trkpt><trkpt lat="43.416201017814096" lon="11.282572696809881"><ele>264.0</ele><time>2026-04-04T14:29:26.999Z</time></trkpt><trkpt lat="43.41624236371911" lon="11.282481717968286"><ele>263.0</ele><time>2026-04-04T14:29:27.999Z</time></trkpt><trkpt lat="43.41624820613143" lon="11.282384239453487"><ele>262.0</ele><time>2026-04-04T14:29:28.999Z</time></trkpt><trkpt lat="43.416241532598164" lon="11.282292471304071"><ele>261.0</ele><time>2026-04-04T14:29:29.999Z</time></trkpt><trkpt lat="43.4162805192287" lon="11.282142698683277"><ele>261.2</ele><time>2026-04-04T14:29:31.999Z</time></trkpt><trkpt lat="43.41633888025017" lon="11.282085158012041"><ele>261.40000000000003</ele><time>2026-04-04T14:29:32.999Z</time></trkpt><trkpt lat="43.416423142399935" lon="11.282091260276593"><ele>261.6</ele><time>2026-04-04T14:29:33.999Z</time></trkpt><trkpt lat="43.41651188277455" lon="11.28205478813154"><ele>261.8</ele><time>2026-04-04T14:29:34.999Z</time></trkpt><trkpt lat="43.41661102340671" lon="11.281997630602145"><ele>262.0</ele><time>2026-04-04T14:29:35.999Z</time></trkpt><trkpt lat="43.41672380959908" lon="11.281969436321369"><ele>262.0</ele><time>2026-04-04T14:29:36.999Z</time></trkpt><trkpt lat="43.41684382531077" lon="11.281934173545618"><ele>262.0</ele><time>2026-04-04T14:29:37.999Z</time></trkpt><trkpt lat="43.416970252861454" lon="11.281904960476126"><ele>262.0</ele><time>2026-04-04T14:29:38.999Z</time></trkpt><trkpt lat="43.4171001999592" lon="11.281854300965943"><ele>262.0</ele><time>2026-04-04T14:29:39.999Z</time></trkpt><trkpt lat="43.41722449383085" lon="11.281791490532484"><ele>262.5</ele><time>2026-04-04T14:29:40.999Z</time></trkpt><trkpt lat="43.417346513125246" lon="11.281716505927285"><ele>263.0</ele><time>2026-04-04T14:29:41.999Z</time></trkpt><trkpt lat="43.41747058335519" lon="11.281619410985817"><ele>263.5</ele><time>2026-04-04T14:29:42.999Z</time></trkpt><trkpt lat="43.41759146161073" lon="11.281525420205373"><ele>264.0</ele><time>2026-04-04T14:29:43.999Z</time></trkpt><trkpt lat="43.417721726896346" lon="11.281436600795141"><ele>265.2</ele><time>2026-04-04T14:29:44.999Z</time></trkpt><trkpt lat="43.41783443338333" lon="11.281378999772413"><ele>266.4</ele><time>2026-04-04T14:29:45.999Z</time></trkpt><trkpt lat="43.41793238712095" lon="11.281323816659127"><ele>267.6</ele><time>2026-04-04T14:29:46.999Z</time></trkpt><trkpt lat="43.418020864076915" lon="11.281292003637054"><ele>268.8</ele><time>2026-04-04T14:29:47.999Z</time></trkpt><trkpt lat="43.41810905158045" lon="11.281293160807248"><ele>270.0</ele><time>2026-04-04T14:29:48.999Z</time></trkpt><trkpt lat="43.418209086983005" lon="11.281348217285448"><ele>269.6</ele><time>2026-04-04T14:29:49.999Z</time></trkpt><trkpt lat="43.41830700978194" lon="11.281409824905575"><ele>269.2</ele><time>2026-04-04T14:29:50.999Z</time></trkpt><trkpt lat="43.41840859488793" lon="11.281458104838228"><ele>268.8</ele><time>2026-04-04T14:29:51.999Z</time></trkpt><trkpt lat="43.41851033204203" lon="11.281474271098933"><ele>268.4</ele><time>2026-04-04T14:29:52.999Z</time></trkpt><trkpt lat="43.41860423090389" lon="11.281449489803181"><ele>268.0</ele><time>2026-04-04T14:29:53.999Z</time></trkpt><trkpt lat="43.418686312871365" lon="11.281414703003986"><ele>269.2</ele><time>2026-04-04T14:29:54.999Z</time></trkpt><trkpt lat="43.41875287545372" lon="11.281359850435667"><ele>270.4</ele><time>2026-04-04T14:29:55.999Z</time></trkpt><trkpt lat="43.418820842745816" lon="11.28126045769133"><ele>271.59999999999997</ele><time>2026-04-04T14:29:56.999Z</time></trkpt><trkpt lat="43.41888709636029" lon="11.281161596999636"><ele>272.8</ele><time>2026-04-04T14:29:57.999Z</time></trkpt><trkpt lat="43.418971416942256" lon="11.281042791844222"><ele>274.0</ele><time>2026-04-04T14:29:58.999Z</time></trkpt><trkpt lat="43.41905566186231" lon="11.280938596516354"><ele>274.16666666666663</ele><time>2026-04-04T14:29:59.999Z</time></trkpt><trkpt lat="43.41913389593748" lon="11.280845879739205"><ele>274.3333333333333</ele><time>2026-04-04T14:30:00.999Z</time></trkpt><trkpt lat="43.419206277490176" lon="11.280751482563526"><ele>274.5</ele><time>2026-04-04T14:30:01.999Z</time></trkpt><trkpt lat="43.41927076170716" lon="11.280671022322478"><ele>274.6666666666667</ele><time>2026-04-04T14:30:02.999Z</time></trkpt><trkpt lat="43.419330119769" lon="11.280603126357548"><ele>274.83333333333337</ele><time>2026-04-04T14:30:03.999Z</time></trkpt><trkpt lat="43.41938949051447" lon="11.280525597766394"><ele>275.0</ele><time>2026-04-04T14:30:04.999Z</time></trkpt><trkpt lat="43.419440845892204" lon="11.280457260750367"><ele>276.4</ele><time>2026-04-04T14:30:05.999Z</time></trkpt><trkpt lat="43.419499630855874" lon="11.280383750634897"><ele>277.8</ele><time>2026-04-04T14:30:06.999Z</time></trkpt><trkpt lat="43.41955974094133" lon="11.28031365329048"><ele>279.2</ele><time>2026-04-04T14:30:07.999Z</time></trkpt><trkpt lat="43.419633395632275" lon="11.280227799672234"><ele>280.6</ele><time>2026-04-04T14:30:08.999Z</time></trkpt><trkpt lat="43.41971989981881" lon="11.280131001417272"><ele>282.0</ele><time>2026-04-04T14:30:09.999Z</time></trkpt><trkpt lat="43.41981701604802" lon="11.280051569169787"><ele>282.0</ele><time>2026-04-04T14:30:10.999Z</time></trkpt><trkpt lat="43.419907793322224" lon="11.279947297496848"><ele>282.0</ele><time>2026-04-04T14:30:11.999Z</time></trkpt><trkpt lat="43.42000956192067" lon="11.279868600492508"><ele>282.0</ele><time>2026-04-04T14:30:12.999Z</time></trkpt><trkpt lat="43.420119867351744" lon="11.27979741984983"><ele>282.0</ele><time>2026-04-04T14:30:13.999Z</time></trkpt><trkpt lat="43.42021965155968" lon="11.279733867196988"><ele>283.0</ele><time>2026-04-04T14:30:14.999Z</time></trkpt><trkpt lat="43.4203117364221" lon="11.279676433612872"><ele>284.0</ele><time>2026-04-04T14:30:15.999Z</time></trkpt><trkpt lat="43.42039885904728" lon="11.279607897180469"><ele>285.0</ele><time>2026-04-04T14:30:17Z</time></trkpt><trkpt lat="43.420459125361944" lon="11.279508900245592"><ele>286.0</ele><time>2026-04-04T14:30:18Z</time></trkpt><trkpt lat="43.420505295928834" lon="11.279386485576687"><ele>287.0</ele><time>2026-04-04T14:30:19Z</time></trkpt><trkpt lat="43.42053507869294" lon="11.279246669952355"><ele>287.0</ele><time>2026-04-04T14:30:20Z</time></trkpt><trkpt lat="43.42056636706729" lon="11.27910214660776"><ele>287.0</ele><time>2026-04-04T14:30:21Z</time></trkpt><trkpt lat="43.42060982802489" lon="11.278967088131166"><ele>287.0</ele><time>2026-04-04T14:30:22Z</time></trkpt><trkpt lat="43.42068520777641" lon="11.278856113516678"><ele>287.0</ele><time>2026-04-04T14:30:23Z</time></trkpt><trkpt lat="43.420771434244294" lon="11.278748661388098"><ele>287.0</ele><time>2026-04-04T14:30:24Z</time></trkpt><trkpt lat="43.42085509822715" lon="11.278637423870478"><ele>288.4</ele><time>2026-04-04T14:30:25Z</time></trkpt><trkpt lat="43.4209327503426" lon="11.27851892636703"><ele>289.79999999999995</ele><time>2026-04-04T14:30:26Z</time></trkpt><trkpt lat="43.421004501500605" lon="11.278400024979883"><ele>291.2</ele><time>2026-04-04T14:30:27Z</time></trkpt><trkpt lat="43.42108363155175" lon="11.278291792506328"><ele>292.59999999999997</ele><time>2026-04-04T14:30:28Z</time></trkpt><trkpt lat="43.4211703015462" lon="11.27820025596761"><ele>294.0</ele><time>2026-04-04T14:30:29Z</time></trkpt><trkpt lat="43.421261651743144" lon="11.278111955055625"><ele>293.8333333333333</ele><time>2026-04-04T14:30:30Z</time></trkpt><trkpt lat="43.42133611296348" lon="11.278024198993101"><ele>293.6666666666667</ele><time>2026-04-04T14:30:31Z</time></trkpt><trkpt lat="43.42139796549087" lon="11.277927438259029"><ele>293.5</ele><time>2026-04-04T14:30:32Z</time></trkpt><trkpt lat="43.42146044835313" lon="11.277845633244489"><ele>293.33333333333337</ele><time>2026-04-04T14:30:33Z</time></trkpt><trkpt lat="43.42152684132231" lon="11.277783402006094"><ele>293.1666666666667</ele><time>2026-04-04T14:30:34Z</time></trkpt><trkpt lat="43.421599142065325" lon="11.277750716514504"><ele>293.0</ele><time>2026-04-04T14:30:35Z</time></trkpt><trkpt lat="43.42167397177459" lon="11.277747803690497"><ele>293.0</ele><time>2026-04-04T14:30:36Z</time></trkpt><trkpt lat="43.42182270897434" lon="11.277772076122446"><ele>293.0</ele><time>2026-04-04T14:30:38Z</time></trkpt><trkpt lat="43.42192386631396" lon="11.277796609538727"><ele>293.0</ele><time>2026-04-04T14:30:39Z</time></trkpt><trkpt lat="43.42201901424159" lon="11.277783469157875"><ele>293.0</ele><time>2026-04-04T14:30:40Z</time></trkpt><trkpt lat="43.422100950573586" lon="11.277724929564302"><ele>293.0</ele><time>2026-04-04T14:30:41Z</time></trkpt><trkpt lat="43.422152571855946" lon="11.277631784652602"><ele>293.2</ele><time>2026-04-04T14:30:42Z</time></trkpt><trkpt lat="43.422179098093075" lon="11.277518489021533"><ele>293.4</ele><time>2026-04-04T14:30:43Z</time></trkpt><trkpt lat="43.42221523145617" lon="11.277398480120786"><ele>293.59999999999997</ele><time>2026-04-04T14:30:44Z</time></trkpt><trkpt lat="43.42229558498428" lon="11.277296742285012"><ele>293.8</ele><time>2026-04-04T14:30:45Z</time></trkpt><trkpt lat="43.422410362189325" lon="11.277208880744054"><ele>294.0</ele><time>2026-04-04T14:30:46Z</time></trkpt><trkpt lat="43.42253086295842" lon="11.27712958764664"><ele>292.75</ele><time>2026-04-04T14:30:47Z</time></trkpt><trkpt lat="43.42264064272536" lon="11.277034559623281"><ele>291.5</ele><time>2026-04-04T14:30:48Z</time></trkpt><trkpt lat="43.422758587835226" lon="11.276933005421887"><ele>290.25</ele><time>2026-04-04T14:30:49Z</time></trkpt><trkpt lat="43.42288083137065" lon="11.276835441456623"><ele>289.0</ele><time>2026-04-04T14:30:50Z</time></trkpt><trkpt lat="43.42300498789115" lon="11.276726708199636"><ele>289.0</ele><time>2026-04-04T14:30:51Z</time></trkpt><trkpt lat="43.4231205523115" lon="11.276620966819246"><ele>289.0</ele><time>2026-04-04T14:30:52Z</time></trkpt><trkpt lat="43.4232352604021" lon="11.276526121212065"><ele>289.0</ele><time>2026-04-04T14:30:53Z</time></trkpt><trkpt lat="43.42335194359456" lon="11.276420048643098"><ele>289.0</ele><time>2026-04-04T14:30:54Z</time></trkpt><trkpt lat="43.42345444819245" lon="11.276318056512974"><ele>288.0</ele><time>2026-04-04T14:30:55Z</time></trkpt><trkpt lat="43.42355403953589" lon="11.276211119946504"><ele>287.0</ele><time>2026-04-04T14:30:56Z</time></trkpt><trkpt lat="43.423658739730534" lon="11.276144552375738"><ele>286.0</ele><time>2026-04-04T14:30:57Z</time></trkpt><trkpt lat="43.4237631409506" lon="11.276065076680387"><ele>285.0</ele><time>2026-04-04T14:30:58Z</time></trkpt><trkpt lat="43.4238694446307" lon="11.27599163968353"><ele>285.0</ele><time>2026-04-04T14:30:59Z</time></trkpt><trkpt lat="43.42397931381469" lon="11.275924242622247"><ele>285.0</ele><time>2026-04-04T14:31:00Z</time></trkpt><trkpt lat="43.4240836310701" lon="11.275848400119472"><ele>285.0</ele><time>2026-04-04T14:31:01Z</time></trkpt><trkpt lat="43.42419204567775" lon="11.275809017492938"><ele>285.0</ele><time>2026-04-04T14:31:02Z</time></trkpt><trkpt lat="43.424278416230244" lon="11.275768491595608"><ele>285.0</ele><time>2026-04-04T14:31:03Z</time></trkpt><trkpt lat="43.424359093885606" lon="11.275713147376685"><ele>285.0</ele><time>2026-04-04T14:31:04Z</time></trkpt><trkpt lat="43.42444834449275" lon="11.275620552032962"><ele>285.0</ele><time>2026-04-04T14:31:05Z</time></trkpt><trkpt lat="43.42453932371282" lon="11.275503759928805"><ele>285.0</ele><time>2026-04-04T14:31:06Z</time></trkpt><trkpt lat="43.42462988330302" lon="11.27537859939533"><ele>285.0</ele><time>2026-04-04T14:31:07Z</time></trkpt><trkpt lat="43.42472304200173" lon="11.275256879833677"><ele>283.4</ele><time>2026-04-04T14:31:08Z</time></trkpt><trkpt lat="43.424816251221685" lon="11.275151613609358"><ele>281.8</ele><time>2026-04-04T14:31:09Z</time></trkpt><trkpt lat="43.42488941739933" lon="11.27505251222857"><ele>280.2</ele><time>2026-04-04T14:31:10Z</time></trkpt><trkpt lat="43.42495777438551" lon="11.274967782461186"><ele>278.6</ele><time>2026-04-04T14:31:11Z</time></trkpt><trkpt lat="43.42502616183365" lon="11.2749076368418"><ele>277.0</ele><time>2026-04-04T14:31:12Z</time></trkpt><trkpt lat="43.42516555960518" lon="11.274888658218103"><ele>277.0</ele><time>2026-04-04T14:31:14Z</time></trkpt><trkpt lat="43.42525586610205" lon="11.274893973371126"><ele>277.0</ele><time>2026-04-04T14:31:15Z</time></trkpt><trkpt lat="43.42533080311068" lon="11.274876567485636"><ele>277.0</ele><time>2026-04-04T14:31:16Z</time></trkpt><trkpt lat="43.4254216853848" lon="11.274886977195594"><ele>277.0</ele><time>2026-04-04T14:31:17Z</time></trkpt><trkpt lat="43.42552212012158" lon="11.274907925213075"><ele>277.0</ele><time>2026-04-04T14:31:18Z</time></trkpt><trkpt lat="43.42562625053041" lon="11.27493312996055"><ele>279.0</ele><time>2026-04-04T14:31:19Z</time></trkpt><trkpt lat="43.42573862381732" lon="11.274962712146479"><ele>281.0</ele><time>2026-04-04T14:31:20Z</time></trkpt><trkpt lat="43.425845884464366" lon="11.27499505694556"><ele>283.0</ele><time>2026-04-04T14:31:21Z</time></trkpt><trkpt lat="43.425950072952965" lon="11.275038949482653"><ele>285.0</ele><time>2026-04-04T14:31:22Z</time></trkpt><trkpt lat="43.42604436665835" lon="11.275110763867156"><ele>287.0</ele><time>2026-04-04T14:31:23Z</time></trkpt><trkpt lat="43.426143572141285" lon="11.2751698606957"><ele>287.0</ele><time>2026-04-04T14:31:24Z</time></trkpt><trkpt lat="43.42622524440953" lon="11.275171471911076"><ele>287.0</ele><time>2026-04-04T14:31:25Z</time></trkpt><trkpt lat="43.4263124523366" lon="11.275088581670138"><ele>287.0</ele><time>2026-04-04T14:31:27Z</time></trkpt><trkpt lat="43.426289313678126" lon="11.274995863547726"><ele>287.0</ele><time>2026-04-04T14:31:28Z</time></trkpt><trkpt lat="43.42627266932609" lon="11.274895026732018"><ele>287.0</ele><time>2026-04-04T14:31:29Z</time></trkpt><trkpt lat="43.426276577647315" lon="11.27480624052086"><ele>287.0</ele><time>2026-04-04T14:31:30Z</time></trkpt><trkpt lat="43.426378287001924" lon="11.274794075381742"><ele>290.0</ele><time>2026-04-04T14:31:32Z</time></trkpt><trkpt lat="43.42644866315507" lon="11.27487091565876"><ele>293.0</ele><time>2026-04-04T14:31:33Z</time></trkpt><trkpt lat="43.4265411019239" lon="11.274939209843858"><ele>296.0</ele><time>2026-04-04T14:31:34Z</time></trkpt><trkpt lat="43.42665167419133" lon="11.27501968029447"><ele>299.0</ele><time>2026-04-04T14:31:35Z</time></trkpt><trkpt lat="43.42675731329478" lon="11.27508544922347"><ele>302.0</ele><time>2026-04-04T14:31:36Z</time></trkpt><trkpt lat="43.42684106456555" lon="11.275108190849979"><ele>302.0</ele><time>2026-04-04T14:31:37Z</time></trkpt><trkpt lat="43.42691544641823" lon="11.275132167192934"><ele>302.0</ele><time>2026-04-04T14:31:38Z</time></trkpt><trkpt lat="43.42698179144354" lon="11.275113823792708"><ele>302.0</ele><time>2026-04-04T14:31:39Z</time></trkpt><trkpt lat="43.42705186805671" lon="11.275063032389552"><ele>302.0</ele><time>2026-04-04T14:31:40Z</time></trkpt><trkpt lat="43.42711730391667" lon="11.274995411861314"><ele>302.0</ele><time>2026-04-04T14:31:41Z</time></trkpt><trkpt lat="43.427190129790546" lon="11.27492662044752"><ele>302.0</ele><time>2026-04-04T14:31:42Z</time></trkpt><trkpt lat="43.42726725514584" lon="11.274866228383587"><ele>304.0</ele><time>2026-04-04T14:31:43Z</time></trkpt><trkpt lat="43.42735015093738" lon="11.27482048597824"><ele>306.0</ele><time>2026-04-04T14:31:44Z</time></trkpt><trkpt lat="43.427438874739224" lon="11.274779338428912"><ele>308.0</ele><time>2026-04-04T14:31:45Z</time></trkpt><trkpt lat="43.42753272696604" lon="11.274755553468529"><ele>310.0</ele><time>2026-04-04T14:31:46Z</time></trkpt><trkpt lat="43.42763661598428" lon="11.27476811609225"><ele>312.0</ele><time>2026-04-04T14:31:47Z</time></trkpt><trkpt lat="43.42774275987038" lon="11.274756651866465"><ele>312.8</ele><time>2026-04-04T14:31:48Z</time></trkpt><trkpt lat="43.42785316391225" lon="11.274730159760171"><ele>313.6</ele><time>2026-04-04T14:31:49Z</time></trkpt><trkpt lat="43.42796419511825" lon="11.274720294367178"><ele>314.40000000000003</ele><time>2026-04-04T14:31:50Z</time></trkpt><trkpt lat="43.42806972701502" lon="11.274705400657044"><ele>315.2</ele><time>2026-04-04T14:31:51Z</time></trkpt><trkpt lat="43.42815229025999" lon="11.27467779778892"><ele>316.0</ele><time>2026-04-04T14:31:52Z</time></trkpt><trkpt lat="43.42823381469875" lon="11.274570786251104"><ele>318.6</ele><time>2026-04-04T14:31:54Z</time></trkpt><trkpt lat="43.42828577589152" lon="11.274417717202873"><ele>321.20000000000005</ele><time>2026-04-04T14:31:56Z</time></trkpt><trkpt lat="43.42833119716996" lon="11.274339776301844"><ele>323.79999999999995</ele><time>2026-04-04T14:31:57Z</time></trkpt><trkpt lat="43.42838845689291" lon="11.274269355963476"><ele>326.4</ele><time>2026-04-04T14:31:58Z</time></trkpt><trkpt lat="43.42845904389352" lon="11.274202191455768"><ele>329.0</ele><time>2026-04-04T14:31:59Z</time></trkpt><trkpt lat="43.42854557862902" lon="11.274133986276022"><ele>329.0</ele><time>2026-04-04T14:32:00Z</time></trkpt><trkpt lat="43.428629866446336" lon="11.274075855866133"><ele>329.0</ele><time>2026-04-04T14:32:01Z</time></trkpt><trkpt lat="43.4287206296111" lon="11.274019344131208"><ele>329.0</ele><time>2026-04-04T14:32:02Z</time></trkpt><trkpt lat="43.428811041008046" lon="11.273978886886526"><ele>329.0</ele><time>2026-04-04T14:32:03Z</time></trkpt><trkpt lat="43.4288836845705" lon="11.273976236196154"><ele>329.0</ele><time>2026-04-04T14:32:04Z</time></trkpt><trkpt lat="43.42893951436417" lon="11.274048480245233"><ele>329.0</ele><time>2026-04-04T14:32:05Z</time></trkpt><trkpt lat="43.42900167342163" lon="11.27410800681202"><ele>330.2</ele><time>2026-04-04T14:32:06Z</time></trkpt><trkpt lat="43.429080770267845" lon="11.274163648702984"><ele>331.4</ele><time>2026-04-04T14:32:07Z</time></trkpt><trkpt lat="43.4291664026442" lon="11.27423501362005"><ele>332.6</ele><time>2026-04-04T14:32:08Z</time></trkpt><trkpt lat="43.42927080399232" lon="11.274315142160464"><ele>333.8</ele><time>2026-04-04T14:32:09Z</time></trkpt><trkpt lat="43.42936159461044" lon="11.274387145976934"><ele>335.0</ele><time>2026-04-04T14:32:10Z</time></trkpt><trkpt lat="43.429441118486835" lon="11.274448716615579"><ele>335.0</ele><time>2026-04-04T14:32:11Z</time></trkpt><trkpt lat="43.4295184690994" lon="11.274489601789785"><ele>335.0</ele><time>2026-04-04T14:32:12Z</time></trkpt><trkpt lat="43.42960608225193" lon="11.274510901462037"><ele>335.0</ele><time>2026-04-04T14:32:13Z</time></trkpt><trkpt lat="43.42969665073742" lon="11.274503030275337"><ele>335.0</ele><time>2026-04-04T14:32:14Z</time></trkpt><trkpt lat="43.42979102668513" lon="11.274491650706118"><ele>335.0</ele><time>2026-04-04T14:32:15Z</time></trkpt><trkpt lat="43.429883653603" lon="11.274512452259325"><ele>334.4</ele><time>2026-04-04T14:32:16Z</time></trkpt><trkpt lat="43.42996136103406" lon="11.27459446521275"><ele>333.8</ele><time>2026-04-04T14:32:17Z</time></trkpt><trkpt lat="43.43003432403136" lon="11.274688113162018"><ele>333.20000000000005</ele><time>2026-04-04T14:32:18Z</time></trkpt><trkpt lat="43.43011609414587" lon="11.274763931237246"><ele>332.6</ele><time>2026-04-04T14:32:19Z</time></trkpt><trkpt lat="43.43018091619663" lon="11.274871109538635"><ele>332.0</ele><time>2026-04-04T14:32:20Z</time></trkpt><trkpt lat="43.43024914758033" lon="11.274968902979"><ele>332.20000000000005</ele><time>2026-04-04T14:32:21Z</time></trkpt><trkpt lat="43.43031139755839" lon="11.275053058850402"><ele>332.4</ele><time>2026-04-04T14:32:22Z</time></trkpt><trkpt lat="43.4303715799411" lon="11.275149898731986"><ele>332.6</ele><time>2026-04-04T14:32:23Z</time></trkpt><trkpt lat="43.43043643200709" lon="11.27524972793244"><ele>332.79999999999995</ele><time>2026-04-04T14:32:24Z</time></trkpt><trkpt lat="43.430491780395556" lon="11.275375068659852"><ele>333.0</ele><time>2026-04-04T14:32:25Z</time></trkpt><trkpt lat="43.4305580534405" lon="11.275501193771913"><ele>336.2</ele><time>2026-04-04T14:32:26Z</time></trkpt><trkpt lat="43.430625581173715" lon="11.275609131290794"><ele>339.4</ele><time>2026-04-04T14:32:27Z</time></trkpt><trkpt lat="43.43065076842628" lon="11.275762605884612"><ele>342.59999999999997</ele><time>2026-04-04T14:32:28Z</time></trkpt><trkpt lat="43.430656427302615" lon="11.275914036864815"><ele>345.79999999999995</ele><time>2026-04-04T14:32:29Z</time></trkpt><trkpt lat="43.43064819036538" lon="11.276057269044133"><ele>349.0</ele><time>2026-04-04T14:32:30Z</time></trkpt><trkpt lat="43.43063833904592" lon="11.276211740827085"><ele>349.0</ele><time>2026-04-04T14:32:31Z</time></trkpt><trkpt lat="43.430628564730775" lon="11.27636140706233"><ele>349.0</ele><time>2026-04-04T14:32:32Z</time></trkpt><trkpt lat="43.43062493084899" lon="11.27650208065588"><ele>349.0</ele><time>2026-04-04T14:32:33Z</time></trkpt><trkpt lat="43.43062511077515" lon="11.276614969640255"><ele>349.0</ele><time>2026-04-04T14:32:34Z</time></trkpt><trkpt lat="43.43062745066015" lon="11.2767091806337"><ele>349.0</ele><time>2026-04-04T14:32:35Z</time></trkpt><trkpt lat="43.43066470668697" lon="11.27682413321291"><ele>349.0</ele><time>2026-04-04T14:32:36Z</time></trkpt><trkpt lat="43.43071363361897" lon="11.276959605513072"><ele>349.0</ele><time>2026-04-04T14:32:37Z</time></trkpt><trkpt lat="43.430768793080645" lon="11.277100594784526"><ele>349.0</ele><time>2026-04-04T14:32:38Z</time></trkpt><trkpt lat="43.43078929152331" lon="11.277245565220092"><ele>349.0</ele><time>2026-04-04T14:32:39Z</time></trkpt><trkpt lat="43.43081170840682" lon="11.277397053800469"><ele>349.0</ele><time>2026-04-04T14:32:40Z</time></trkpt><trkpt lat="43.430819947479506" lon="11.277539834463782"><ele>349.0</ele><time>2026-04-04T14:32:41Z</time></trkpt><trkpt lat="43.43080659481875" lon="11.277678557978358"><ele>349.0</ele><time>2026-04-04T14:32:42Z</time></trkpt><trkpt lat="43.43078313733474" lon="11.277810036117598"><ele>349.0</ele><time>2026-04-04T14:32:43Z</time></trkpt><trkpt lat="43.430752766428796" lon="11.277939723795468"><ele>349.0</ele><time>2026-04-04T14:32:44Z</time></trkpt><trkpt lat="43.430724712027576" lon="11.2780633118691"><ele>349.0</ele><time>2026-04-04T14:32:45Z</time></trkpt><trkpt lat="43.430706057329786" lon="11.278183132439768"><ele>347.6</ele><time>2026-04-04T14:32:46Z</time></trkpt><trkpt lat="43.430690066133636" lon="11.278303867332761"><ele>346.2</ele><time>2026-04-04T14:32:47Z</time></trkpt><trkpt lat="43.4307039227988" lon="11.278438172568213"><ele>344.8</ele><time>2026-04-04T14:32:48Z</time></trkpt><trkpt lat="43.430753933530774" lon="11.278548679820911"><ele>343.40000000000003</ele><time>2026-04-04T14:32:49Z</time></trkpt><trkpt lat="43.43079756375833" lon="11.278668050427182"><ele>342.0</ele><time>2026-04-04T14:32:50Z</time></trkpt><trkpt lat="43.43084325907073" lon="11.278783714952432"><ele>342.0</ele><time>2026-04-04T14:32:51Z</time></trkpt><trkpt lat="43.4309052206863" lon="11.278910911179576"><ele>342.0</ele><time>2026-04-04T14:32:52Z</time></trkpt><trkpt lat="43.43099174678771" lon="11.279020575771572"><ele>342.0</ele><time>2026-04-04T14:32:53Z</time></trkpt><trkpt lat="43.43107215286386" lon="11.279144214673009"><ele>342.0</ele><time>2026-04-04T14:32:54Z</time></trkpt><trkpt lat="43.43115506414631" lon="11.279279977842336"><ele>340.0</ele><time>2026-04-04T14:32:55Z</time></trkpt><trkpt lat="43.43123791181538" lon="11.27943747694547"><ele>338.0</ele><time>2026-04-04T14:32:56Z</time></trkpt><trkpt lat="43.431316204887" lon="11.279596863252706"><ele>336.0</ele><time>2026-04-04T14:32:57Z</time></trkpt><trkpt lat="43.431382378779375" lon="11.279749854681477"><ele>334.0</ele><time>2026-04-04T14:32:58Z</time></trkpt><trkpt lat="43.43144099078098" lon="11.279894532385438"><ele>333.0</ele><time>2026-04-04T14:32:59Z</time></trkpt><trkpt lat="43.43152034011093" lon="11.280017415931507"><ele>332.0</ele><time>2026-04-04T14:33:00Z</time></trkpt><trkpt lat="43.431600665704714" lon="11.280140670514678"><ele>331.0</ele><time>2026-04-04T14:33:01Z</time></trkpt><trkpt lat="43.43169837119017" lon="11.280256184324298"><ele>330.0</ele><time>2026-04-04T14:33:02Z</time></trkpt><trkpt lat="43.43179678951719" lon="11.280363940024996"><ele>330.0</ele><time>2026-04-04T14:33:03Z</time></trkpt><trkpt lat="43.431884805393715" lon="11.280455274621533"><ele>330.0</ele><time>2026-04-04T14:33:04Z</time></trkpt><trkpt lat="43.43198120052451" lon="11.28052916789817"><ele>330.0</ele><time>2026-04-04T14:33:05Z</time></trkpt><trkpt lat="43.43208304165109" lon="11.280595648524162"><ele>330.0</ele><time>2026-04-04T14:33:06Z</time></trkpt><trkpt lat="43.43219230829526" lon="11.280662240735339"><ele>329.0</ele><time>2026-04-04T14:33:07Z</time></trkpt><trkpt lat="43.432312116399395" lon="11.280728022733804"><ele>328.0</ele><time>2026-04-04T14:33:08Z</time></trkpt><trkpt lat="43.432421040067894" lon="11.28080003871369"><ele>327.0</ele><time>2026-04-04T14:33:09Z</time></trkpt><trkpt lat="43.432532861464026" lon="11.280881353403224"><ele>326.0</ele><time>2026-04-04T14:33:10Z</time></trkpt><trkpt lat="43.43264096642036" lon="11.280957666130295"><ele>326.0</ele><time>2026-04-04T14:33:11Z</time></trkpt><trkpt lat="43.43274188183997" lon="11.281019724684532"><ele>326.0</ele><time>2026-04-04T14:33:12Z</time></trkpt><trkpt lat="43.43282828178583" lon="11.281073061909241"><ele>326.0</ele><time>2026-04-04T14:33:13Z</time></trkpt><trkpt lat="43.432894893176574" lon="11.281116419656122"><ele>326.0</ele><time>2026-04-04T14:33:14Z</time></trkpt><trkpt lat="43.43295869150545" lon="11.281264658972182"><ele>326.0</ele><time>2026-04-04T14:33:16Z</time></trkpt><trkpt lat="43.43301371918283" lon="11.281336834805177"><ele>325.20000000000005</ele><time>2026-04-04T14:33:18Z</time></trkpt><trkpt lat="43.433125792210035" lon="11.281167575243137"><ele>324.40000000000003</ele><time>2026-04-04T14:34:11Z</time></trkpt><trkpt lat="43.43313026380125" lon="11.281080534379269"><ele>323.6</ele><time>2026-04-04T14:34:12Z</time></trkpt><trkpt lat="43.433137021663384" lon="11.280931737664234"><ele>322.8</ele><time>2026-04-04T14:34:14Z</time></trkpt><trkpt lat="43.43318478626718" lon="11.280824256830112"><ele>322.0</ele><time>2026-04-04T14:34:17Z</time></trkpt><trkpt lat="43.43329158115564" lon="11.280852573057205"><ele>322.0</ele><time>2026-04-04T14:34:19Z</time></trkpt><trkpt lat="43.433391373531364" lon="11.28086474594968"><ele>322.0</ele><time>2026-04-04T14:34:21Z</time></trkpt><trkpt lat="43.43345822005237" lon="11.280814820375761"><ele>322.0</ele><time>2026-04-04T14:34:23Z</time></trkpt><trkpt lat="43.433462679266924" lon="11.280718098852153"><ele>322.0</ele><time>2026-04-04T14:34:25Z</time></trkpt><trkpt lat="43.433435386571276" lon="11.28051849744657"><ele>322.0</ele><time>2026-04-04T14:34:27Z</time></trkpt><trkpt lat="43.43339754920549" lon="11.280400262173744"><ele>321.20000000000005</ele><time>2026-04-04T14:34:28Z</time></trkpt><trkpt lat="43.433371742239544" lon="11.280291561864935"><ele>320.40000000000003</ele><time>2026-04-04T14:34:29Z</time></trkpt><trkpt lat="43.43334160324037" lon="11.280184081219414"><ele>319.6</ele><time>2026-04-04T14:34:30Z</time></trkpt><trkpt lat="43.43330797876664" lon="11.280061882297844"><ele>318.8</ele><time>2026-04-04T14:34:31Z</time></trkpt><trkpt lat="43.43328935316" lon="11.279966786028643"><ele>318.0</ele><time>2026-04-04T14:34:32Z</time></trkpt><trkpt lat="43.433299216934685" lon="11.279773866497758"><ele>318.8333333333333</ele><time>2026-04-04T14:34:34Z</time></trkpt><trkpt lat="43.433308603823036" lon="11.27966192823141"><ele>319.6666666666667</ele><time>2026-04-04T14:34:35Z</time></trkpt><trkpt lat="43.433315815935586" lon="11.279572079595619"><ele>320.5</ele><time>2026-04-04T14:34:36Z</time></trkpt><trkpt lat="43.43330410783587" lon="11.279442923738866"><ele>321.33333333333337</ele><time>2026-04-04T14:34:37Z</time></trkpt><trkpt lat="43.43330248270353" lon="11.279317597765651"><ele>322.1666666666667</ele><time>2026-04-04T14:34:38Z</time></trkpt><trkpt lat="43.433287549956255" lon="11.279160924102648"><ele>323.0</ele><time>2026-04-04T14:34:39Z</time></trkpt><trkpt lat="43.4332809024272" lon="11.27899828162354"><ele>323.4</ele><time>2026-04-04T14:34:40Z</time></trkpt><trkpt lat="43.43329905996785" lon="11.278870420342887"><ele>323.79999999999995</ele><time>2026-04-04T14:34:41Z</time></trkpt><trkpt lat="43.433310852240055" lon="11.27875659227992"><ele>324.2</ele><time>2026-04-04T14:34:42Z</time></trkpt><trkpt lat="43.43331870028266" lon="11.278635851962862"><ele>324.6</ele><time>2026-04-04T14:34:43Z</time></trkpt><trkpt lat="43.433351652128216" lon="11.278509705689169"><ele>325.0</ele><time>2026-04-04T14:34:44Z</time></trkpt><trkpt lat="43.433373250769385" lon="11.278354505604666"><ele>325.0</ele><time>2026-04-04T14:34:45Z</time></trkpt><trkpt lat="43.43338972527401" lon="11.278210159676997"><ele>325.0</ele><time>2026-04-04T14:34:46Z</time></trkpt><trkpt lat="43.433406678632345" lon="11.27808345516821"><ele>325.0</ele><time>2026-04-04T14:34:47Z</time></trkpt><trkpt lat="43.43342988235319" lon="11.27798260508735"><ele>325.0</ele><time>2026-04-04T14:34:48Z</time></trkpt><trkpt lat="43.433460001453945" lon="11.2778866892345"><ele>325.0</ele><time>2026-04-04T14:34:49Z</time></trkpt><trkpt lat="43.43350168268446" lon="11.277813822556702"><ele>325.0</ele><time>2026-04-04T14:34:50Z</time></trkpt><trkpt lat="43.43354149463547" lon="11.277723921724204"><ele>325.2</ele><time>2026-04-04T14:34:51Z</time></trkpt><trkpt lat="43.433622296255905" lon="11.277615250884184"><ele>325.4</ele><time>2026-04-04T14:34:53Z</time></trkpt><trkpt lat="43.433701031003366" lon="11.27753147881149"><ele>325.6</ele><time>2026-04-04T14:34:55Z</time></trkpt><trkpt lat="43.43376893923244" lon="11.277534500646187"><ele>325.8</ele><time>2026-04-04T14:34:57Z</time></trkpt><trkpt lat="43.43384723091382" lon="11.27759411234505"><ele>326.0</ele><time>2026-04-04T14:35:01Z</time></trkpt><trkpt lat="43.433885246529876" lon="11.277728171235678"><ele>326.0</ele><time>2026-04-04T14:35:03Z</time></trkpt><trkpt lat="43.43392948508359" lon="11.277798609057443"><ele>326.0</ele><time>2026-04-04T14:35:04Z</time></trkpt><trkpt lat="43.43396613469565" lon="11.277893609072127"><ele>326.0</ele><time>2026-04-04T14:35:05Z</time></trkpt><trkpt lat="43.43399989670458" lon="11.278003917364572"><ele>326.0</ele><time>2026-04-04T14:35:06Z</time></trkpt><trkpt lat="43.4340555813658" lon="11.27810487605535"><ele>326.0</ele><time>2026-04-04T14:35:07Z</time></trkpt><trkpt lat="43.43408630929459" lon="11.27823139372121"><ele>326.0</ele><time>2026-04-04T14:35:08Z</time></trkpt><trkpt lat="43.4341135662593" lon="11.278338740828014"><ele>328.0</ele><time>2026-04-04T14:35:09Z</time></trkpt><trkpt lat="43.43412344800442" lon="11.278429248294248"><ele>330.0</ele><time>2026-04-04T14:35:10Z</time></trkpt><trkpt lat="43.434145959248205" lon="11.278515199763463"><ele>332.0</ele><time>2026-04-04T14:35:11Z</time></trkpt><trkpt lat="43.43419411287646" lon="11.278595303169293"><ele>334.0</ele><time>2026-04-04T14:35:12Z</time></trkpt><trkpt lat="43.43423070941811" lon="11.278686432702035"><ele>336.0</ele><time>2026-04-04T14:35:13Z</time></trkpt><trkpt lat="43.43426753466146" lon="11.278761613674988"><ele>338.0</ele><time>2026-04-04T14:35:14Z</time></trkpt><trkpt lat="43.434310971433106" lon="11.27882544807074"><ele>340.0</ele><time>2026-04-04T14:35:15Z</time></trkpt><trkpt lat="43.43436947804598" lon="11.27889355761046"><ele>340.8</ele><time>2026-04-04T14:35:16Z</time></trkpt><trkpt lat="43.434442761046554" lon="11.27893717412435"><ele>341.6</ele><time>2026-04-04T14:35:17Z</time></trkpt><trkpt lat="43.434530602922806" lon="11.278960225150563"><ele>342.4</ele><time>2026-04-04T14:35:18Z</time></trkpt><trkpt lat="43.43463581863431" lon="11.27897481235673"><ele>343.2</ele><time>2026-04-04T14:35:19Z</time></trkpt><trkpt lat="43.43473087733366" lon="11.279018545819582"><ele>344.0</ele><time>2026-04-04T14:35:20Z</time></trkpt><trkpt lat="43.43485224239866" lon="11.279017931320155"><ele>347.4</ele><time>2026-04-04T14:35:21Z</time></trkpt><trkpt lat="43.43495665613755" lon="11.2790397750988"><ele>350.79999999999995</ele><time>2026-04-04T14:35:22Z</time></trkpt><trkpt lat="43.43503840590872" lon="11.279059677529933"><ele>354.20000000000005</ele><time>2026-04-04T14:35:23Z</time></trkpt><trkpt lat="43.43509843530241" lon="11.27920618219831"><ele>357.6</ele><time>2026-04-04T14:35:25Z</time></trkpt><trkpt lat="43.43511860716953" lon="11.279297964404641"><ele>361.0</ele><time>2026-04-04T14:35:26Z</time></trkpt><trkpt lat="43.43521089272136" lon="11.279375866331282"><ele>361.0</ele><time>2026-04-04T14:35:28Z</time></trkpt><trkpt lat="43.43527232631022" lon="11.279322060025827"><ele>361.0</ele><time>2026-04-04T14:35:29Z</time></trkpt><trkpt lat="43.43537809285898" lon="11.279216768607583"><ele>361.0</ele><time>2026-04-04T14:35:31Z</time></trkpt><trkpt lat="43.435438291803024" lon="11.279142224580745"><ele>361.0</ele><time>2026-04-04T14:35:32Z</time></trkpt><trkpt lat="43.435497512484154" lon="11.279091672498142"><ele>361.0</ele><time>2026-04-04T14:35:33Z</time></trkpt><trkpt lat="43.43556934182265" lon="11.279014837065366"><ele>361.0</ele><time>2026-04-04T14:35:34Z</time></trkpt><trkpt lat="43.43565101669048" lon="11.278949747467909"><ele>362.6</ele><time>2026-04-04T14:35:35Z</time></trkpt><trkpt lat="43.435738418540026" lon="11.278885103462327"><ele>364.20000000000005</ele><time>2026-04-04T14:35:36Z</time></trkpt><trkpt lat="43.43584239346952" lon="11.278847263184106"><ele>365.79999999999995</ele><time>2026-04-04T14:35:37Z</time></trkpt><trkpt lat="43.4359353107069" lon="11.278795466388795"><ele>367.4</ele><time>2026-04-04T14:35:38Z</time></trkpt><trkpt lat="43.436013461835614" lon="11.278760070054929"><ele>369.0</ele><time>2026-04-04T14:35:39Z</time></trkpt><trkpt lat="43.43612553524146" lon="11.278769780796333"><ele>369.0</ele><time>2026-04-04T14:35:41Z</time></trkpt><trkpt lat="43.436175429472264" lon="11.278909090362419"><ele>369.0</ele><time>2026-04-04T14:35:43Z</time></trkpt><trkpt lat="43.43615502614581" lon="11.278993653160418"><ele>369.0</ele><time>2026-04-04T14:35:44Z</time></trkpt><trkpt lat="43.43616803872602" lon="11.279091518981922"><ele>369.0</ele><time>2026-04-04T14:35:45Z</time></trkpt><trkpt lat="43.436166912781495" lon="11.279208047134873"><ele>369.0</ele><time>2026-04-04T14:35:46Z</time></trkpt><trkpt lat="43.4362338931441" lon="11.279348453705287"><ele>373.6</ele><time>2026-04-04T14:35:48Z</time></trkpt><trkpt lat="43.436326968797005" lon="11.279357894744328"><ele>378.2</ele><time>2026-04-04T14:35:49Z</time></trkpt><trkpt lat="43.4364423861394" lon="11.279360746658016"><ele>382.8</ele><time>2026-04-04T14:35:51Z</time></trkpt><trkpt lat="43.43650792758073" lon="11.279379789222267"><ele>387.40000000000003</ele><time>2026-04-04T14:35:52Z</time></trkpt><trkpt lat="43.436597118488805" lon="11.279396737402797"><ele>392.0</ele><time>2026-04-04T14:35:53Z</time></trkpt><trkpt lat="43.43668913153579" lon="11.27944309520582"><ele>392.0</ele><time>2026-04-04T14:35:54Z</time></trkpt><trkpt lat="43.43678455326307" lon="11.279467442343881"><ele>392.0</ele><time>2026-04-04T14:35:55Z</time></trkpt><trkpt lat="43.43688487205773" lon="11.279493039622801"><ele>392.0</ele><time>2026-04-04T14:35:56Z</time></trkpt><trkpt lat="43.436990846036075" lon="11.279520335096475"><ele>392.0</ele><time>2026-04-04T14:35:57Z</time></trkpt><trkpt lat="43.437100216915255" lon="11.27954924291572"><ele>392.0</ele><time>2026-04-04T14:35:58Z</time></trkpt><trkpt lat="43.43720831825215" lon="11.279577815109315"><ele>394.20000000000005</ele><time>2026-04-04T14:35:59Z</time></trkpt><trkpt lat="43.43731306958206" lon="11.279605501889552"><ele>396.4</ele><time>2026-04-04T14:36:00Z</time></trkpt><trkpt lat="43.43741941819298" lon="11.279633465780739"><ele>398.6</ele><time>2026-04-04T14:36:01Z</time></trkpt><trkpt lat="43.43752977236582" lon="11.279662240562462"><ele>400.79999999999995</ele><time>2026-04-04T14:36:02Z</time></trkpt><trkpt lat="43.43764806903661" lon="11.27969033701599"><ele>403.0</ele><time>2026-04-04T14:36:03Z</time></trkpt><trkpt lat="43.437769382599306" lon="11.279719302332888"><ele>403.0</ele><time>2026-04-04T14:36:04Z</time></trkpt><trkpt lat="43.43789753935759" lon="11.279750938106554"><ele>403.0</ele><time>2026-04-04T14:36:05Z</time></trkpt><trkpt lat="43.43801883423469" lon="11.279782222726006"><ele>403.0</ele><time>2026-04-04T14:36:06Z</time></trkpt><trkpt lat="43.4381352169446" lon="11.279812800273577"><ele>403.0</ele><time>2026-04-04T14:36:07Z</time></trkpt><trkpt lat="43.43824835051414" lon="11.279845312473501"><ele>406.75</ele><time>2026-04-04T14:36:08Z</time></trkpt><trkpt lat="43.43835907684357" lon="11.27988712574133"><ele>410.5</ele><time>2026-04-04T14:36:09Z</time></trkpt><trkpt lat="43.43846280410088" lon="11.279944890186504"><ele>414.25</ele><time>2026-04-04T14:36:10Z</time></trkpt><trkpt lat="43.438574580907584" lon="11.280011926276005"><ele>418.0</ele><time>2026-04-04T14:36:11Z</time></trkpt><trkpt lat="43.43867689832417" lon="11.280070579929955"><ele>418.0</ele><time>2026-04-04T14:36:12Z</time></trkpt><trkpt lat="43.43877395986634" lon="11.280102218939716"><ele>418.0</ele><time>2026-04-04T14:36:13Z</time></trkpt><trkpt lat="43.43886519535767" lon="11.280146496338899"><ele>418.0</ele><time>2026-04-04T14:36:14Z</time></trkpt><trkpt lat="43.43895532026348" lon="11.2801560923953"><ele>418.0</ele><time>2026-04-04T14:36:15Z</time></trkpt><trkpt lat="43.439051862691066" lon="11.280132477791113"><ele>418.0</ele><time>2026-04-04T14:36:16Z</time></trkpt><trkpt lat="43.43914842627484" lon="11.280118086039868"><ele>421.2</ele><time>2026-04-04T14:36:17Z</time></trkpt><trkpt lat="43.43925088871416" lon="11.280113714608563"><ele>424.4</ele><time>2026-04-04T14:36:18Z</time></trkpt><trkpt lat="43.43935037369406" lon="11.280115486889795"><ele>427.59999999999997</ele><time>2026-04-04T14:36:19Z</time></trkpt><trkpt lat="43.439443435137306" lon="11.280116132141616"><ele>430.79999999999995</ele><time>2026-04-04T14:36:20Z</time></trkpt><trkpt lat="43.439536689694805" lon="11.280101013317312"><ele>434.0</ele><time>2026-04-04T14:36:21Z</time></trkpt><trkpt lat="43.439638070509744" lon="11.280092147978044"><ele>434.2</ele><time>2026-04-04T14:36:22Z</time></trkpt><trkpt lat="43.43974743782231" lon="11.280061479756883"><ele>434.4</ele><time>2026-04-04T14:36:23Z</time></trkpt><trkpt lat="43.43985112462788" lon="11.280013790426487"><ele>434.6</ele><time>2026-04-04T14:36:24Z</time></trkpt><trkpt lat="43.4399393903105" lon="11.279951982326004"><ele>434.8</ele><time>2026-04-04T14:36:25Z</time></trkpt><trkpt lat="43.44001982277297" lon="11.279872291929125"><ele>435.0</ele><time>2026-04-04T14:36:26Z</time></trkpt><trkpt lat="43.44008740487834" lon="11.279776607073844"><ele>436.2</ele><time>2026-04-04T14:36:27Z</time></trkpt><trkpt lat="43.44012860956653" lon="11.279669256028647"><ele>437.4</ele><time>2026-04-04T14:36:28Z</time></trkpt><trkpt lat="43.44015160963846" lon="11.27954777558297"><ele>438.6</ele><time>2026-04-04T14:36:29Z</time></trkpt><trkpt lat="43.4401707562326" lon="11.279426795641108"><ele>439.8</ele><time>2026-04-04T14:36:30Z</time></trkpt><trkpt lat="43.44019208198146" lon="11.279330189083828"><ele>441.0</ele><time>2026-04-04T14:36:31Z</time></trkpt><trkpt lat="43.44027216692382" lon="11.279229687738708"><ele>441.0</ele><time>2026-04-04T14:36:33Z</time></trkpt><trkpt lat="43.4403679486396" lon="11.27927931019982"><ele>441.0</ele><time>2026-04-04T14:36:35Z</time></trkpt><trkpt lat="43.44043750958561" lon="11.279277449987724"><ele>441.0</ele><time>2026-04-04T14:36:36Z</time></trkpt><trkpt lat="43.44052859846783" lon="11.279295008394977"><ele>441.0</ele><time>2026-04-04T14:36:37Z</time></trkpt><trkpt lat="43.44063355833955" lon="11.279309227152629"><ele>441.0</ele><time>2026-04-04T14:36:38Z</time></trkpt><trkpt lat="43.440743002685416" lon="11.27932517443261"><ele>440.6</ele><time>2026-04-04T14:36:39Z</time></trkpt><trkpt lat="43.44085363881196" lon="11.279321673581434"><ele>440.20000000000005</ele><time>2026-04-04T14:36:40Z</time></trkpt><trkpt lat="43.440964363694" lon="11.27929104155757"><ele>439.79999999999995</ele><time>2026-04-04T14:36:41Z</time></trkpt><trkpt lat="43.44107145125155" lon="11.279264227249817"><ele>439.4</ele><time>2026-04-04T14:36:42Z</time></trkpt><trkpt lat="43.441176146216335" lon="11.279254392827028"><ele>439.0</ele><time>2026-04-04T14:36:43Z</time></trkpt><trkpt lat="43.44128657944804" lon="11.279252605191568"><ele>440.75</ele><time>2026-04-04T14:36:44Z</time></trkpt><trkpt lat="43.44140128128067" lon="11.279244729632426"><ele>442.5</ele><time>2026-04-04T14:36:45Z</time></trkpt><trkpt lat="43.441521335948806" lon="11.279237842631876"><ele>444.25</ele><time>2026-04-04T14:36:46Z</time></trkpt><trkpt lat="43.441644074823664" lon="11.279231879954443"><ele>446.0</ele><time>2026-04-04T14:36:47Z</time></trkpt><trkpt lat="43.44177140424047" lon="11.279227213704822"><ele>446.0</ele><time>2026-04-04T14:36:48Z</time></trkpt><trkpt lat="43.441897345456155" lon="11.279223711682109"><ele>446.0</ele><time>2026-04-04T14:36:49Z</time></trkpt><trkpt lat="43.44201968521068" lon="11.279223315506613"><ele>446.0</ele><time>2026-04-04T14:36:50Z</time></trkpt><trkpt lat="43.44212087327682" lon="11.27923800108356"><ele>446.0</ele><time>2026-04-04T14:36:51Z</time></trkpt><trkpt lat="43.44220639436908" lon="11.27925539551102"><ele>446.0</ele><time>2026-04-04T14:36:52Z</time></trkpt><trkpt lat="43.442283726145796" lon="11.279270645110035"><ele>447.0</ele><time>2026-04-04T14:36:53Z</time></trkpt><trkpt lat="43.442364543154454" lon="11.279281922212054"><ele>448.0</ele><time>2026-04-04T14:36:54Z</time></trkpt><trkpt lat="43.442449898182815" lon="11.279296448817947"><ele>449.0</ele><time>2026-04-04T14:36:55Z</time></trkpt><trkpt lat="43.442541030086495" lon="11.27930910284358"><ele>450.0</ele><time>2026-04-04T14:36:56Z</time></trkpt><trkpt lat="43.44263607137682" lon="11.279320917657808"><ele>451.0</ele><time>2026-04-04T14:36:57Z</time></trkpt><trkpt lat="43.44274238940421" lon="11.27933795427503"><ele>451.0</ele><time>2026-04-04T14:36:58Z</time></trkpt><trkpt lat="43.4428477081585" lon="11.279349810543899"><ele>451.0</ele><time>2026-04-04T14:36:59Z</time></trkpt><trkpt lat="43.44295522756846" lon="11.279361905569402"><ele>451.0</ele><time>2026-04-04T14:37:00Z</time></trkpt><trkpt lat="43.44305636543703" lon="11.279373577526425"><ele>451.0</ele><time>2026-04-04T14:37:01Z</time></trkpt><trkpt lat="43.44316118659561" lon="11.27941267809515"><ele>451.0</ele><time>2026-04-04T14:37:02Z</time></trkpt><trkpt lat="43.44326393853294" lon="11.279474365140068"><ele>450.5</ele><time>2026-04-04T14:37:03Z</time></trkpt><trkpt lat="43.44337305478237" lon="11.279557402356417"><ele>450.0</ele><time>2026-04-04T14:37:04Z</time></trkpt><trkpt lat="43.4434773421113" lon="11.279632677663361"><ele>449.5</ele><time>2026-04-04T14:37:05Z</time></trkpt><trkpt lat="43.443570268026626" lon="11.279706227679693"><ele>449.0</ele><time>2026-04-04T14:37:06Z</time></trkpt><trkpt lat="43.44366867543143" lon="11.279770815584412"><ele>449.0</ele><time>2026-04-04T14:37:07Z</time></trkpt><trkpt lat="43.443760498081694" lon="11.27983380809138"><ele>449.0</ele><time>2026-04-04T14:37:08Z</time></trkpt><trkpt lat="43.44385858720672" lon="11.279904212332502"><ele>449.0</ele><time>2026-04-04T14:37:09Z</time></trkpt><trkpt lat="43.44396676099608" lon="11.279973420339772"><ele>449.0</ele><time>2026-04-04T14:37:10Z</time></trkpt><trkpt lat="43.44407445536857" lon="11.28004450549363"><ele>450.5</ele><time>2026-04-04T14:37:11Z</time></trkpt><trkpt lat="43.444182136661716" lon="11.280114224632607"><ele>452.0</ele><time>2026-04-04T14:37:12Z</time></trkpt><trkpt lat="43.444290240482985" lon="11.280181953464336"><ele>453.5</ele><time>2026-04-04T14:37:13Z</time></trkpt><trkpt lat="43.444397223378246" lon="11.28025225731873"><ele>455.0</ele><time>2026-04-04T14:37:14Z</time></trkpt><trkpt lat="43.444509773388965" lon="11.280323921426334"><ele>455.75</ele><time>2026-04-04T14:37:15Z</time></trkpt><trkpt lat="43.44463147917333" lon="11.280403445797548"><ele>456.5</ele><time>2026-04-04T14:37:16Z</time></trkpt><trkpt lat="43.444743197531274" lon="11.280480402245761"><ele>457.25</ele><time>2026-04-04T14:37:17Z</time></trkpt><trkpt lat="43.444860361528114" lon="11.2805509919416"><ele>458.0</ele><time>2026-04-04T14:37:18Z</time></trkpt><trkpt lat="43.444971713998875" lon="11.28061713171348"><ele>458.0</ele><time>2026-04-04T14:37:19Z</time></trkpt><trkpt lat="43.445085455832825" lon="11.280691690234262"><ele>458.0</ele><time>2026-04-04T14:37:20Z</time></trkpt><trkpt lat="43.44519564498871" lon="11.280765643608317"><ele>458.0</ele><time>2026-04-04T14:37:21Z</time></trkpt><trkpt lat="43.4453052875102" lon="11.280850117741121"><ele>458.0</ele><time>2026-04-04T14:37:22Z</time></trkpt><trkpt lat="43.445410677457055" lon="11.280927862624399"><ele>457.25</ele><time>2026-04-04T14:37:23Z</time></trkpt><trkpt lat="43.44551787514185" lon="11.281013648580394"><ele>456.5</ele><time>2026-04-04T14:37:24Z</time></trkpt><trkpt lat="43.4456170567367" lon="11.281101689016046"><ele>455.75</ele><time>2026-04-04T14:37:25Z</time></trkpt><trkpt lat="43.44572569248447" lon="11.281199135110331"><ele>455.0</ele><time>2026-04-04T14:37:26Z</time></trkpt><trkpt lat="43.44583497964605" lon="11.281298521591236"><ele>455.0</ele><time>2026-04-04T14:37:27Z</time></trkpt><trkpt lat="43.4459496111621" lon="11.281394274110937"><ele>455.0</ele><time>2026-04-04T14:37:28Z</time></trkpt><trkpt lat="43.44605473114508" lon="11.281490735846722"><ele>455.0</ele><time>2026-04-04T14:37:29Z</time></trkpt><trkpt lat="43.44615331972497" lon="11.281584624101255"><ele>455.0</ele><time>2026-04-04T14:37:30Z</time></trkpt><trkpt lat="43.4462489802126" lon="11.281674138703902"><ele>458.25</ele><time>2026-04-04T14:37:31Z</time></trkpt><trkpt lat="43.44636229683039" lon="11.281742080008833"><ele>461.5</ele><time>2026-04-04T14:37:32Z</time></trkpt><trkpt lat="43.44648280340177" lon="11.281792922094935"><ele>464.75</ele><time>2026-04-04T14:37:33Z</time></trkpt><trkpt lat="43.44659209487967" lon="11.281794674780244"><ele>468.0</ele><time>2026-04-04T14:37:34Z</time></trkpt><trkpt lat="43.4466838242927" lon="11.281766624085979"><ele>468.0</ele><time>2026-04-04T14:37:35Z</time></trkpt><trkpt lat="43.44676299231391" lon="11.281684895023975"><ele>467.99999999999994</ele><time>2026-04-04T14:37:36Z</time></trkpt><trkpt lat="43.44685703762525" lon="11.281641567647279"><ele>467.99999999999994</ele><time>2026-04-04T14:37:37Z</time></trkpt><trkpt lat="43.4469475140666" lon="11.281588406774762"><ele>468.0</ele><time>2026-04-04T14:37:38Z</time></trkpt><trkpt lat="43.44702659205329" lon="11.28157665212007"><ele>468.0</ele><time>2026-04-04T14:37:39Z</time></trkpt><trkpt lat="43.44710911283273" lon="11.281599453330033"><ele>469.5</ele><time>2026-04-04T14:37:40Z</time></trkpt><trkpt lat="43.44721248349435" lon="11.281651188075573"><ele>471.0</ele><time>2026-04-04T14:37:41Z</time></trkpt><trkpt lat="43.44732976220907" lon="11.281703972759693"><ele>472.5</ele><time>2026-04-04T14:37:42Z</time></trkpt><trkpt lat="43.44745205471346" lon="11.281774537340512"><ele>474.0</ele><time>2026-04-04T14:37:43Z</time></trkpt><trkpt lat="43.44758847067404" lon="11.281839157943075"><ele>474.0</ele><time>2026-04-04T14:37:44Z</time></trkpt><trkpt lat="43.447714960536665" lon="11.281873810248051"><ele>474.0</ele><time>2026-04-04T14:37:45Z</time></trkpt><trkpt lat="43.44783705280938" lon="11.28188048097329"><ele>474.0</ele><time>2026-04-04T14:37:46Z</time></trkpt><trkpt lat="43.447965531412024" lon="11.281886029488554"><ele>474.0</ele><time>2026-04-04T14:37:47Z</time></trkpt><trkpt lat="43.44809223078398" lon="11.281849002092327"><ele>473.75</ele><time>2026-04-04T14:37:48Z</time></trkpt><trkpt lat="43.448226227197395" lon="11.281841872653285"><ele>473.5</ele><time>2026-04-04T14:37:49Z</time></trkpt><trkpt lat="43.44836542071358" lon="11.281813550960429"><ele>473.25</ele><time>2026-04-04T14:37:50Z</time></trkpt><trkpt lat="43.44850024396381" lon="11.281776954464753"><ele>473.0</ele><time>2026-04-04T14:37:51Z</time></trkpt><trkpt lat="43.44862236019817" lon="11.281731077624002"><ele>473.0</ele><time>2026-04-04T14:37:52Z</time></trkpt><trkpt lat="43.44873205741172" lon="11.28171745924374"><ele>472.99999999999994</ele><time>2026-04-04T14:37:53Z</time></trkpt><trkpt lat="43.44882908211672" lon="11.281697456165045"><ele>472.99999999999994</ele><time>2026-04-04T14:37:54Z</time></trkpt><trkpt lat="43.44891331211161" lon="11.281721073043823"><ele>473.0</ele><time>2026-04-04T14:37:55Z</time></trkpt><trkpt lat="43.44898193161312" lon="11.281797496485094"><ele>473.0</ele><time>2026-04-04T14:37:56Z</time></trkpt><trkpt lat="43.44908096821897" lon="11.281890205396031"><ele>472.5</ele><time>2026-04-04T14:37:57Z</time></trkpt><trkpt lat="43.449182173963074" lon="11.281972493619378"><ele>472.0</ele><time>2026-04-04T14:37:58Z</time></trkpt><trkpt lat="43.44927904757993" lon="11.282078747040677"><ele>471.5</ele><time>2026-04-04T14:37:59Z</time></trkpt><trkpt lat="43.449334727276344" lon="11.282208141655035"><ele>471.0</ele><time>2026-04-04T14:38:00Z</time></trkpt><trkpt lat="43.449382302504084" lon="11.282336203375468"><ele>474.75</ele><time>2026-04-04T14:38:01Z</time></trkpt><trkpt lat="43.44944280379742" lon="11.282477069132298"><ele>478.5</ele><time>2026-04-04T14:38:02Z</time></trkpt><trkpt lat="43.44946531195457" lon="11.28263291572851"><ele>482.25</ele><time>2026-04-04T14:38:03Z</time></trkpt><trkpt lat="43.44952590356728" lon="11.282751709710235"><ele>486.0</ele><time>2026-04-04T14:38:04Z</time></trkpt><trkpt lat="43.44960030454525" lon="11.282865059617293"><ele>484.5</ele><time>2026-04-04T14:38:05Z</time></trkpt><trkpt lat="43.44969015482042" lon="11.282978642389503"><ele>483.0</ele><time>2026-04-04T14:38:06Z</time></trkpt><trkpt lat="43.449787332262964" lon="11.283053469589703"><ele>481.5</ele><time>2026-04-04T14:38:07Z</time></trkpt><trkpt lat="43.4499660814627" lon="11.283113427797606"><ele>480.0</ele><time>2026-04-04T14:38:09Z</time></trkpt><trkpt lat="43.45000100457611" lon="11.283267519806639"><ele>480.0</ele><time>2026-04-04T14:38:10Z</time></trkpt><trkpt lat="43.450080941338676" lon="11.283403440904525"><ele>480.0</ele><time>2026-04-04T14:38:11Z</time></trkpt><trkpt lat="43.450197057668724" lon="11.283561945762496"><ele>480.0</ele><time>2026-04-04T14:38:12Z</time></trkpt><trkpt lat="43.450331343005466" lon="11.283707534696374"><ele>478.75</ele><time>2026-04-04T14:38:13Z</time></trkpt><trkpt lat="43.45048730578523" lon="11.283836629833692"><ele>477.5</ele><time>2026-04-04T14:38:14Z</time></trkpt><trkpt lat="43.450592248684806" lon="11.283917652747624"><ele>476.25</ele><time>2026-04-04T14:38:15Z</time></trkpt><trkpt lat="43.45070528182263" lon="11.283980480839476"><ele>475.0</ele><time>2026-04-04T14:38:16Z</time></trkpt><trkpt lat="43.450852174834054" lon="11.284071748337501"><ele>478.5</ele><time>2026-04-04T14:38:17Z</time></trkpt><trkpt lat="43.45098658826234" lon="11.284154308183126"><ele>482.0</ele><time>2026-04-04T14:38:18Z</time></trkpt><trkpt lat="43.451104189754375" lon="11.284226541830254"><ele>485.5</ele><time>2026-04-04T14:38:19Z</time></trkpt><trkpt lat="43.45125385661523" lon="11.284306715757914"><ele>489.0</ele><time>2026-04-04T14:38:20Z</time></trkpt><trkpt lat="43.45138983280789" lon="11.284395974070529"><ele>489.0</ele><time>2026-04-04T14:38:21Z</time></trkpt><trkpt lat="43.45151922959419" lon="11.284465179477104"><ele>489.0</ele><time>2026-04-04T14:38:22Z</time></trkpt><trkpt lat="43.45165368601717" lon="11.284545718077213"><ele>489.0</ele><time>2026-04-04T14:38:23Z</time></trkpt><trkpt lat="43.451785184528944" lon="11.28462580676529"><ele>489.0</ele><time>2026-04-04T14:38:24Z</time></trkpt><trkpt lat="43.45192270289757" lon="11.284707779915575"><ele>492.0</ele><time>2026-04-04T14:38:25Z</time></trkpt><trkpt lat="43.45206868463777" lon="11.284797142084106"><ele>495.0</ele><time>2026-04-04T14:38:26Z</time></trkpt><trkpt lat="43.45223789794517" lon="11.284902140590711"><ele>498.0</ele><time>2026-04-04T14:38:27Z</time></trkpt><trkpt lat="43.452412626179964" lon="11.285032114601469"><ele>498.0</ele><time>2026-04-04T14:38:28Z</time></trkpt><trkpt lat="43.452578337599036" lon="11.285135001928328"><ele>498.0</ele><time>2026-04-04T14:38:29Z</time></trkpt><trkpt lat="43.452746172463186" lon="11.285243114863357"><ele>498.0</ele><time>2026-04-04T14:38:30Z</time></trkpt><trkpt lat="43.45290594106506" lon="11.285360136711533"><ele>499.66666666666663</ele><time>2026-04-04T14:38:31Z</time></trkpt><trkpt lat="43.45302874421728" lon="11.285513870811055"><ele>501.3333333333333</ele><time>2026-04-04T14:38:32Z</time></trkpt><trkpt lat="43.4531113454718" lon="11.28571317113127"><ele>503.0</ele><time>2026-04-04T14:38:33Z</time></trkpt><trkpt lat="43.45318463110121" lon="11.285929951229758"><ele>503.3333333333333</ele><time>2026-04-04T14:38:34Z</time></trkpt><trkpt lat="43.45323135368411" lon="11.286176661885742"><ele>503.66666666666663</ele><time>2026-04-04T14:38:35Z</time></trkpt><trkpt lat="43.45329096246999" lon="11.28643385638812"><ele>504.0</ele><time>2026-04-04T14:38:36Z</time></trkpt><trkpt lat="43.453326208946095" lon="11.286676738677226"><ele>505.33333333333337</ele><time>2026-04-04T14:38:37Z</time></trkpt><trkpt lat="43.45337156952178" lon="11.286903854475607"><ele>506.6666666666667</ele><time>2026-04-04T14:38:38Z</time></trkpt><trkpt lat="43.45343526168184" lon="11.287121088631283"><ele>508.0</ele><time>2026-04-04T14:38:39Z</time></trkpt><trkpt lat="43.45353440457722" lon="11.28731735793146"><ele>509.0</ele><time>2026-04-04T14:38:40Z</time></trkpt><trkpt lat="43.453671082794536" lon="11.287475169516581"><ele>510.0</ele><time>2026-04-04T14:38:41Z</time></trkpt><trkpt lat="43.45383664448036" lon="11.287592584792783"><ele>511.0</ele><time>2026-04-04T14:38:42Z</time></trkpt><trkpt lat="43.45402760699138" lon="11.287667705540978"><ele>511.0</ele><time>2026-04-04T14:38:43Z</time></trkpt><trkpt lat="43.454218622236944" lon="11.287749268023479"><ele>511.0</ele><time>2026-04-04T14:38:44Z</time></trkpt><trkpt lat="43.4544192075111" lon="11.287830274145305"><ele>511.0</ele><time>2026-04-04T14:38:45Z</time></trkpt><trkpt lat="43.45463478999566" lon="11.287916842722955"><ele>507.5</ele><time>2026-04-04T14:38:46Z</time></trkpt><trkpt lat="43.45486618978331" lon="11.288036072195139"><ele>504.0</ele><time>2026-04-04T14:38:47Z</time></trkpt><trkpt lat="43.45509099196401" lon="11.288133492792944"><ele>509.0</ele><time>2026-04-04T14:38:48Z</time></trkpt><trkpt lat="43.45528611474086" lon="11.288194877225532"><ele>514.0</ele><time>2026-04-04T14:38:49Z</time></trkpt><trkpt lat="43.455443105627296" lon="11.288287564776406"><ele>519.0</ele><time>2026-04-04T14:38:50Z</time></trkpt><trkpt lat="43.455596583541826" lon="11.288358751693886"><ele>519.0</ele><time>2026-04-04T14:38:51Z</time></trkpt><trkpt lat="43.45575887183629" lon="11.288444784994013"><ele>519.0</ele><time>2026-04-04T14:38:52Z</time></trkpt><trkpt lat="43.45592548410923" lon="11.288570987080567"><ele>519.0</ele><time>2026-04-04T14:38:53Z</time></trkpt><trkpt lat="43.456098211533714" lon="11.288733183235315"><ele>523.0</ele><time>2026-04-04T14:38:54Z</time></trkpt><trkpt lat="43.45627460843123" lon="11.288931545612732"><ele>527.0</ele><time>2026-04-04T14:38:55Z</time></trkpt><trkpt lat="43.456454891183064" lon="11.289114695937734"><ele>527.0</ele><time>2026-04-04T14:38:56Z</time></trkpt><trkpt lat="43.45660578942342" lon="11.28929575409607"><ele>527.0</ele><time>2026-04-04T14:38:57Z</time></trkpt><trkpt lat="43.45675876687934" lon="11.28946742240996"><ele>527.0</ele><time>2026-04-04T14:38:58Z</time></trkpt><trkpt lat="43.45692514128453" lon="11.289636896042511"><ele>528.3333333333333</ele><time>2026-04-04T14:38:59Z</time></trkpt><trkpt lat="43.457111940424305" lon="11.289781274890641"><ele>529.6666666666666</ele><time>2026-04-04T14:39:00Z</time></trkpt><trkpt lat="43.45730808333888" lon="11.289908043179675"><ele>531.0</ele><time>2026-04-04T14:39:01Z</time></trkpt><trkpt lat="43.45751246626511" lon="11.290008671619802"><ele>531.0</ele><time>2026-04-04T14:39:02Z</time></trkpt><trkpt lat="43.45771609399217" lon="11.290080437492572"><ele>531.0</ele><time>2026-04-04T14:39:03Z</time></trkpt><trkpt lat="43.45791952325327" lon="11.290120539316352"><ele>531.0</ele><time>2026-04-04T14:39:04Z</time></trkpt><trkpt lat="43.45813922519606" lon="11.290130731506713"><ele>532.0</ele><time>2026-04-04T14:39:05Z</time></trkpt><trkpt lat="43.45836587361183" lon="11.290117578309998"><ele>533.0</ele><time>2026-04-04T14:39:06Z</time></trkpt><trkpt lat="43.458592364905726" lon="11.29007645308403"><ele>534.0</ele><time>2026-04-04T14:39:07Z</time></trkpt><trkpt lat="43.45878920525554" lon="11.290008447846658"><ele>535.0</ele><time>2026-04-04T14:39:08Z</time></trkpt><trkpt lat="43.458959666023134" lon="11.289920998389116"><ele>536.0</ele><time>2026-04-04T14:39:09Z</time></trkpt><trkpt lat="43.45911078310571" lon="11.289855475711585"><ele>536.0</ele><time>2026-04-04T14:39:10Z</time></trkpt><trkpt lat="43.45922859850289" lon="11.289802274599786"><ele>536.0</ele><time>2026-04-04T14:39:11Z</time></trkpt><trkpt lat="43.4593177359141" lon="11.289775544896308"><ele>536.0</ele><time>2026-04-04T14:39:12Z</time></trkpt><trkpt lat="43.45939958853068" lon="11.289766308691114"><ele>536.0</ele><time>2026-04-04T14:39:13Z</time></trkpt><trkpt lat="43.459464913593045" lon="11.289746544130447"><ele>536.0</ele><time>2026-04-04T14:39:14Z</time></trkpt><trkpt lat="43.45952959935603" lon="11.289729426549357"><ele>536.0</ele><time>2026-04-04T14:39:16Z</time></trkpt><trkpt lat="43.45962190619057" lon="11.289939698541941"><ele>535.0</ele><time>2026-04-04T14:40:16Z</time></trkpt><trkpt lat="43.459705677230275" lon="11.289956025443413"><ele>534.0</ele><time>2026-04-04T14:40:17Z</time></trkpt><trkpt lat="43.45979032076878" lon="11.289952121356903"><ele>533.0</ele><time>2026-04-04T14:40:18Z</time></trkpt><trkpt lat="43.45985793407331" lon="11.289966453976785"><ele>532.0</ele><time>2026-04-04T14:40:19Z</time></trkpt><trkpt lat="43.459939305672215" lon="11.289818873000048"><ele>531.0</ele><time>2026-04-04T14:40:20Z</time></trkpt><trkpt lat="43.46000524215979" lon="11.28977241720234"><ele>530.0</ele><time>2026-04-04T14:40:21Z</time></trkpt><trkpt lat="43.46006336388322" lon="11.289733980183264"><ele>530.0</ele><time>2026-04-04T14:40:22Z</time></trkpt><trkpt lat="43.46014697343148" lon="11.289690190246292"><ele>530.0</ele><time>2026-04-04T14:40:24Z</time></trkpt></trkseg></trk></gpx>